<?xml version="1.0" encoding="UTF-8" standalone="no" ?>
<gpx xmlns="http://www.topografix.com/GPX/1/1" xmlns:xsi="http://www.w3.org/2001/XMLSchema-instance" xsi:schemaLocation="http://www.topografix.com/GPX/1/1 http://www.topografix.com/GPX/1/1/gpx.xsd" version="1.1" creator="VisuGPX - https://www.visugpx.com">
  <metadata>
    <name>MB. Sortie du 31/10/2019</name>
    <desc><![CDATA[Sortie VTT du jeudi 31 octobre 2019]]></desc>
  </metadata>
  <trk>
    <name><![CDATA[Pornichet Cyclisme]]></name>
    <trkseg>
      <trkpt lat="47.26408" lon="-2.31559">
        <ele>5.4000000953674</ele>
        <time>2019-10-31T08:29:39.000Z</time>
      </trkpt>
      <trkpt lat="47.26406" lon="-2.31573">
        <ele>5.4000000953674</ele>
        <time>2019-10-31T08:29:43.000Z</time>
      </trkpt>
      <trkpt lat="47.26406" lon="-2.31579">
        <ele>5.5999999046326</ele>
        <time>2019-10-31T08:29:44.000Z</time>
      </trkpt>
      <trkpt lat="47.26406" lon="-2.31585">
        <ele>5.5999999046326</ele>
        <time>2019-10-31T08:29:45.000Z</time>
      </trkpt>
      <trkpt lat="47.26407" lon="-2.31645">
        <ele>5.5999999046326</ele>
        <time>2019-10-31T08:29:54.000Z</time>
      </trkpt>
      <trkpt lat="47.26402" lon="-2.31671">
        <ele>5.5999999046326</ele>
        <time>2019-10-31T08:29:58.000Z</time>
      </trkpt>
      <trkpt lat="47.26402" lon="-2.31671">
        <ele>5.5999999046326</ele>
        <time>2019-10-31T08:30:00.000Z</time>
      </trkpt>
      <trkpt lat="47.26393" lon="-2.31679">
        <ele>5.5999999046326</ele>
        <time>2019-10-31T08:30:01.000Z</time>
      </trkpt>
      <trkpt lat="47.26374" lon="-2.3169">
        <ele>5.5999999046326</ele>
        <time>2019-10-31T08:30:05.000Z</time>
      </trkpt>
      <trkpt lat="47.26364" lon="-2.31696">
        <ele>4.8000001907349</ele>
        <time>2019-10-31T08:30:08.000Z</time>
      </trkpt>
      <trkpt lat="47.26358" lon="-2.31698">
        <ele>4.4000000953674</ele>
        <time>2019-10-31T08:30:10.000Z</time>
      </trkpt>
      <trkpt lat="47.26353" lon="-2.31701">
        <ele>3.7999999523163</ele>
        <time>2019-10-31T08:30:11.000Z</time>
      </trkpt>
      <trkpt lat="47.26347" lon="-2.31703">
        <ele>3.4000000953674</ele>
        <time>2019-10-31T08:30:12.000Z</time>
      </trkpt>
      <trkpt lat="47.26328" lon="-2.3171">
        <ele>3.4000000953674</ele>
        <time>2019-10-31T08:30:15.000Z</time>
      </trkpt>
      <trkpt lat="47.26311" lon="-2.31717">
        <ele>3</ele>
        <time>2019-10-31T08:30:18.000Z</time>
      </trkpt>
      <trkpt lat="47.26307" lon="-2.31716">
        <ele>2.5999999046326</ele>
        <time>2019-10-31T08:30:19.000Z</time>
      </trkpt>
      <trkpt lat="47.26303" lon="-2.31714">
        <ele>2.2000000476837</ele>
        <time>2019-10-31T08:30:20.000Z</time>
      </trkpt>
      <trkpt lat="47.26299" lon="-2.31711">
        <ele>1.7999999523163</ele>
        <time>2019-10-31T08:30:21.000Z</time>
      </trkpt>
      <trkpt lat="47.26295" lon="-2.31706">
        <ele>1.3999999761581</ele>
        <time>2019-10-31T08:30:22.000Z</time>
      </trkpt>
      <trkpt lat="47.26289" lon="-2.31696">
        <ele>1.3999999761581</ele>
        <time>2019-10-31T08:30:24.000Z</time>
      </trkpt>
      <trkpt lat="47.26272" lon="-2.31664">
        <ele>1.3999999761581</ele>
        <time>2019-10-31T08:30:30.000Z</time>
      </trkpt>
      <trkpt lat="47.26253" lon="-2.31626">
        <ele>1.3999999761581</ele>
        <time>2019-10-31T08:30:37.000Z</time>
      </trkpt>
      <trkpt lat="47.26246" lon="-2.31615">
        <ele>1.3999999761581</ele>
        <time>2019-10-31T08:30:39.000Z</time>
      </trkpt>
      <trkpt lat="47.26236" lon="-2.31605">
        <ele>1.3999999761581</ele>
        <time>2019-10-31T08:30:41.000Z</time>
      </trkpt>
      <trkpt lat="47.26218" lon="-2.31598">
        <ele>1.3999999761581</ele>
        <time>2019-10-31T08:30:45.000Z</time>
      </trkpt>
      <trkpt lat="47.26208" lon="-2.31598">
        <ele>1.3999999761581</ele>
        <time>2019-10-31T08:30:47.000Z</time>
      </trkpt>
      <trkpt lat="47.26202" lon="-2.31599">
        <ele>1.3999999761581</ele>
        <time>2019-10-31T08:30:48.000Z</time>
      </trkpt>
      <trkpt lat="47.26192" lon="-2.31601">
        <ele>1.3999999761581</ele>
        <time>2019-10-31T08:30:50.000Z</time>
      </trkpt>
      <trkpt lat="47.26181" lon="-2.31602">
        <ele>1.3999999761581</ele>
        <time>2019-10-31T08:30:52.000Z</time>
      </trkpt>
      <trkpt lat="47.2616" lon="-2.3161">
        <ele>1.3999999761581</ele>
        <time>2019-10-31T08:30:56.000Z</time>
      </trkpt>
      <trkpt lat="47.26124" lon="-2.31618">
        <ele>1.3999999761581</ele>
        <time>2019-10-31T08:31:03.000Z</time>
      </trkpt>
      <trkpt lat="47.26109" lon="-2.31616">
        <ele>1.3999999761581</ele>
        <time>2019-10-31T08:31:06.000Z</time>
      </trkpt>
      <trkpt lat="47.26101" lon="-2.31607">
        <ele>1.3999999761581</ele>
        <time>2019-10-31T08:31:08.000Z</time>
      </trkpt>
      <trkpt lat="47.26088" lon="-2.31587">
        <ele>1.3999999761581</ele>
        <time>2019-10-31T08:31:12.000Z</time>
      </trkpt>
      <trkpt lat="47.26086" lon="-2.31584">
        <ele>1.3999999761581</ele>
        <time>2019-10-31T08:31:13.000Z</time>
      </trkpt>
      <trkpt lat="47.26077" lon="-2.31577">
        <ele>1.3999999761581</ele>
        <time>2019-10-31T08:31:17.000Z</time>
      </trkpt>
      <trkpt lat="47.26068" lon="-2.31558">
        <ele>1.3999999761581</ele>
        <time>2019-10-31T08:31:19.000Z</time>
      </trkpt>
      <trkpt lat="47.26065" lon="-2.31552">
        <ele>1.3999999761581</ele>
        <time>2019-10-31T08:31:21.000Z</time>
      </trkpt>
      <trkpt lat="47.26047" lon="-2.3152">
        <ele>1.3999999761581</ele>
        <time>2019-10-31T08:31:27.000Z</time>
      </trkpt>
      <trkpt lat="47.26037" lon="-2.31511">
        <ele>1.3999999761581</ele>
        <time>2019-10-31T08:31:31.000Z</time>
      </trkpt>
      <trkpt lat="47.26036" lon="-2.31512">
        <ele>1.3999999761581</ele>
        <time>2019-10-31T08:31:32.000Z</time>
      </trkpt>
      <trkpt lat="47.26032" lon="-2.31524">
        <ele>1.3999999761581</ele>
        <time>2019-10-31T08:31:34.000Z</time>
      </trkpt>
      <trkpt lat="47.26024" lon="-2.3155">
        <ele>1.3999999761581</ele>
        <time>2019-10-31T08:31:39.000Z</time>
      </trkpt>
      <trkpt lat="47.2601" lon="-2.31562">
        <ele>1.3999999761581</ele>
        <time>2019-10-31T08:31:44.000Z</time>
      </trkpt>
      <trkpt lat="47.26003" lon="-2.31551">
        <ele>1.3999999761581</ele>
        <time>2019-10-31T08:31:47.000Z</time>
      </trkpt>
      <trkpt lat="47.25997" lon="-2.31542">
        <ele>1.3999999761581</ele>
        <time>2019-10-31T08:31:49.000Z</time>
      </trkpt>
      <trkpt lat="47.25988" lon="-2.31528">
        <ele>1.3999999761581</ele>
        <time>2019-10-31T08:31:52.000Z</time>
      </trkpt>
      <trkpt lat="47.25985" lon="-2.31523">
        <ele>1.3999999761581</ele>
        <time>2019-10-31T08:31:53.000Z</time>
      </trkpt>
      <trkpt lat="47.25966" lon="-2.31484">
        <ele>1.3999999761581</ele>
        <time>2019-10-31T08:32:01.000Z</time>
      </trkpt>
      <trkpt lat="47.25963" lon="-2.3148">
        <ele>1.3999999761581</ele>
        <time>2019-10-31T08:32:02.000Z</time>
      </trkpt>
      <trkpt lat="47.25949" lon="-2.31466">
        <ele>1.3999999761581</ele>
        <time>2019-10-31T08:32:06.000Z</time>
      </trkpt>
      <trkpt lat="47.2593" lon="-2.31461">
        <ele>1.3999999761581</ele>
        <time>2019-10-31T08:32:11.000Z</time>
      </trkpt>
      <trkpt lat="47.2592" lon="-2.31481">
        <ele>1.3999999761581</ele>
        <time>2019-10-31T08:32:16.000Z</time>
      </trkpt>
      <trkpt lat="47.2591" lon="-2.31505">
        <ele>1.7999999523163</ele>
        <time>2019-10-31T08:32:22.000Z</time>
      </trkpt>
      <trkpt lat="47.2591" lon="-2.31507">
        <ele>2.2000000476837</ele>
        <time>2019-10-31T08:32:23.000Z</time>
      </trkpt>
      <trkpt lat="47.2591" lon="-2.31507">
        <ele>2.7999999523163</ele>
        <time>2019-10-31T08:32:24.000Z</time>
      </trkpt>
      <trkpt lat="47.25911" lon="-2.31507">
        <ele>3.2000000476837</ele>
        <time>2019-10-31T08:32:25.000Z</time>
      </trkpt>
      <trkpt lat="47.25911" lon="-2.31509">
        <ele>3.5999999046326</ele>
        <time>2019-10-31T08:32:26.000Z</time>
      </trkpt>
      <trkpt lat="47.25903" lon="-2.31523">
        <ele>3.5999999046326</ele>
        <time>2019-10-31T08:32:31.000Z</time>
      </trkpt>
      <trkpt lat="47.25888" lon="-2.31562">
        <ele>3.5999999046326</ele>
        <time>2019-10-31T08:32:38.000Z</time>
      </trkpt>
      <trkpt lat="47.25876" lon="-2.3158">
        <ele>4</ele>
        <time>2019-10-31T08:32:40.000Z</time>
      </trkpt>
      <trkpt lat="47.25873" lon="-2.31583">
        <ele>4.4000000953674</ele>
        <time>2019-10-31T08:32:44.000Z</time>
      </trkpt>
      <trkpt lat="47.25869" lon="-2.31587">
        <ele>4.8000001907349</ele>
        <time>2019-10-31T08:32:45.000Z</time>
      </trkpt>
      <trkpt lat="47.25866" lon="-2.3159">
        <ele>5.1999998092651</ele>
        <time>2019-10-31T08:32:46.000Z</time>
      </trkpt>
      <trkpt lat="47.25862" lon="-2.31594">
        <ele>5.5999999046326</ele>
        <time>2019-10-31T08:32:47.000Z</time>
      </trkpt>
      <trkpt lat="47.25844" lon="-2.3161">
        <ele>5.5999999046326</ele>
        <time>2019-10-31T08:32:52.000Z</time>
      </trkpt>
      <trkpt lat="47.25834" lon="-2.31619">
        <ele>5.5999999046326</ele>
        <time>2019-10-31T08:32:55.000Z</time>
      </trkpt>
      <trkpt lat="47.25826" lon="-2.31625">
        <ele>5.5999999046326</ele>
        <time>2019-10-31T08:32:57.000Z</time>
      </trkpt>
      <trkpt lat="47.25822" lon="-2.31627">
        <ele>6</ele>
        <time>2019-10-31T08:32:58.000Z</time>
      </trkpt>
      <trkpt lat="47.25819" lon="-2.3163">
        <ele>6.4000000953674</ele>
        <time>2019-10-31T08:32:59.000Z</time>
      </trkpt>
      <trkpt lat="47.25807" lon="-2.31638">
        <ele>7.5999999046326</ele>
        <time>2019-10-31T08:33:00.000Z</time>
      </trkpt>
      <trkpt lat="47.25781" lon="-2.31658">
        <ele>7.5999999046326</ele>
        <time>2019-10-31T08:33:07.000Z</time>
      </trkpt>
      <trkpt lat="47.25736" lon="-2.31691">
        <ele>7.5999999046326</ele>
        <time>2019-10-31T08:33:16.000Z</time>
      </trkpt>
      <trkpt lat="47.25727" lon="-2.31696">
        <ele>7.1999998092651</ele>
        <time>2019-10-31T08:33:18.000Z</time>
      </trkpt>
      <trkpt lat="47.25722" lon="-2.31696">
        <ele>6.8000001907349</ele>
        <time>2019-10-31T08:33:19.000Z</time>
      </trkpt>
      <trkpt lat="47.25718" lon="-2.31694">
        <ele>6.4000000953674</ele>
        <time>2019-10-31T08:33:20.000Z</time>
      </trkpt>
      <trkpt lat="47.25713" lon="-2.31692">
        <ele>6</ele>
        <time>2019-10-31T08:33:21.000Z</time>
      </trkpt>
      <trkpt lat="47.25709" lon="-2.31689">
        <ele>5.5999999046326</ele>
        <time>2019-10-31T08:33:22.000Z</time>
      </trkpt>
      <trkpt lat="47.25687" lon="-2.31679">
        <ele>5.5999999046326</ele>
        <time>2019-10-31T08:33:27.000Z</time>
      </trkpt>
      <trkpt lat="47.25678" lon="-2.31677">
        <ele>5.5999999046326</ele>
        <time>2019-10-31T08:33:29.000Z</time>
      </trkpt>
      <trkpt lat="47.2567" lon="-2.31679">
        <ele>5.5999999046326</ele>
        <time>2019-10-31T08:33:31.000Z</time>
      </trkpt>
      <trkpt lat="47.25666" lon="-2.3168">
        <ele>5.5999999046326</ele>
        <time>2019-10-31T08:33:32.000Z</time>
      </trkpt>
      <trkpt lat="47.25662" lon="-2.31683">
        <ele>5.5999999046326</ele>
        <time>2019-10-31T08:33:33.000Z</time>
      </trkpt>
      <trkpt lat="47.25657" lon="-2.31686">
        <ele>6</ele>
        <time>2019-10-31T08:33:34.000Z</time>
      </trkpt>
      <trkpt lat="47.25653" lon="-2.31689">
        <ele>6.4000000953674</ele>
        <time>2019-10-31T08:33:35.000Z</time>
      </trkpt>
      <trkpt lat="47.2565" lon="-2.31693">
        <ele>7</ele>
        <time>2019-10-31T08:33:36.000Z</time>
      </trkpt>
      <trkpt lat="47.25647" lon="-2.31697">
        <ele>7.4000000953674</ele>
        <time>2019-10-31T08:33:37.000Z</time>
      </trkpt>
      <trkpt lat="47.25644" lon="-2.31701">
        <ele>7.8000001907349</ele>
        <time>2019-10-31T08:33:38.000Z</time>
      </trkpt>
      <trkpt lat="47.2563" lon="-2.3172">
        <ele>8.1999998092651</ele>
        <time>2019-10-31T08:33:43.000Z</time>
      </trkpt>
      <trkpt lat="47.25628" lon="-2.31725">
        <ele>8.6000003814697</ele>
        <time>2019-10-31T08:33:44.000Z</time>
      </trkpt>
      <trkpt lat="47.25626" lon="-2.31729">
        <ele>9</ele>
        <time>2019-10-31T08:33:45.000Z</time>
      </trkpt>
      <trkpt lat="47.25625" lon="-2.31735">
        <ele>9.3999996185303</ele>
        <time>2019-10-31T08:33:46.000Z</time>
      </trkpt>
      <trkpt lat="47.25624" lon="-2.31741">
        <ele>9.8000001907349</ele>
        <time>2019-10-31T08:33:47.000Z</time>
      </trkpt>
      <trkpt lat="47.2562" lon="-2.31753">
        <ele>9.8000001907349</ele>
        <time>2019-10-31T08:33:49.000Z</time>
      </trkpt>
      <trkpt lat="47.25617" lon="-2.31757">
        <ele>9.8000001907349</ele>
        <time>2019-10-31T08:33:50.000Z</time>
      </trkpt>
      <trkpt lat="47.25601" lon="-2.31768">
        <ele>9.8000001907349</ele>
        <time>2019-10-31T08:33:55.000Z</time>
      </trkpt>
      <trkpt lat="47.25597" lon="-2.31769">
        <ele>9.8000001907349</ele>
        <time>2019-10-31T08:33:56.000Z</time>
      </trkpt>
      <trkpt lat="47.25592" lon="-2.31769">
        <ele>9.8000001907349</ele>
        <time>2019-10-31T08:33:57.000Z</time>
      </trkpt>
      <trkpt lat="47.25576" lon="-2.31776">
        <ele>9.8000001907349</ele>
        <time>2019-10-31T08:34:01.000Z</time>
      </trkpt>
      <trkpt lat="47.25567" lon="-2.31787">
        <ele>9.8000001907349</ele>
        <time>2019-10-31T08:34:04.000Z</time>
      </trkpt>
      <trkpt lat="47.25564" lon="-2.31796">
        <ele>10.199999809265</ele>
        <time>2019-10-31T08:34:06.000Z</time>
      </trkpt>
      <trkpt lat="47.25564" lon="-2.31801">
        <ele>10.800000190735</ele>
        <time>2019-10-31T08:34:07.000Z</time>
      </trkpt>
      <trkpt lat="47.25564" lon="-2.31806">
        <ele>11.199999809265</ele>
        <time>2019-10-31T08:34:08.000Z</time>
      </trkpt>
      <trkpt lat="47.25563" lon="-2.31811">
        <ele>11.800000190735</ele>
        <time>2019-10-31T08:34:09.000Z</time>
      </trkpt>
      <trkpt lat="47.25564" lon="-2.31817">
        <ele>12.199999809265</ele>
        <time>2019-10-31T08:34:10.000Z</time>
      </trkpt>
      <trkpt lat="47.25564" lon="-2.31823">
        <ele>12.199999809265</ele>
        <time>2019-10-31T08:34:11.000Z</time>
      </trkpt>
      <trkpt lat="47.25564" lon="-2.31873">
        <ele>12.199999809265</ele>
        <time>2019-10-31T08:34:19.000Z</time>
      </trkpt>
      <trkpt lat="47.25564" lon="-2.31904">
        <ele>12.199999809265</ele>
        <time>2019-10-31T08:34:24.000Z</time>
      </trkpt>
      <trkpt lat="47.25564" lon="-2.3191">
        <ele>12.199999809265</ele>
        <time>2019-10-31T08:34:25.000Z</time>
      </trkpt>
      <trkpt lat="47.2556" lon="-2.31921">
        <ele>12.199999809265</ele>
        <time>2019-10-31T08:34:28.000Z</time>
      </trkpt>
      <trkpt lat="47.2556" lon="-2.31921">
        <ele>12.199999809265</ele>
        <time>2019-10-31T08:34:30.000Z</time>
      </trkpt>
      <trkpt lat="47.25558" lon="-2.31921">
        <ele>12.199999809265</ele>
        <time>2019-10-31T08:34:33.000Z</time>
      </trkpt>
      <trkpt lat="47.25557" lon="-2.31922">
        <ele>12.199999809265</ele>
        <time>2019-10-31T08:34:47.000Z</time>
      </trkpt>
      <trkpt lat="47.25563" lon="-2.3193">
        <ele>12.199999809265</ele>
        <time>2019-10-31T08:34:51.000Z</time>
      </trkpt>
      <trkpt lat="47.25567" lon="-2.31946">
        <ele>12.199999809265</ele>
        <time>2019-10-31T08:34:54.000Z</time>
      </trkpt>
      <trkpt lat="47.25569" lon="-2.31959">
        <ele>12.199999809265</ele>
        <time>2019-10-31T08:34:56.000Z</time>
      </trkpt>
      <trkpt lat="47.25572" lon="-2.31979">
        <ele>12.199999809265</ele>
        <time>2019-10-31T08:34:59.000Z</time>
      </trkpt>
      <trkpt lat="47.25576" lon="-2.31995">
        <ele>12.199999809265</ele>
        <time>2019-10-31T08:35:02.000Z</time>
      </trkpt>
      <trkpt lat="47.25576" lon="-2.32005">
        <ele>12.199999809265</ele>
        <time>2019-10-31T08:35:04.000Z</time>
      </trkpt>
      <trkpt lat="47.25574" lon="-2.32008">
        <ele>12.199999809265</ele>
        <time>2019-10-31T08:35:05.000Z</time>
      </trkpt>
      <trkpt lat="47.25553" lon="-2.32019">
        <ele>12.199999809265</ele>
        <time>2019-10-31T08:35:10.000Z</time>
      </trkpt>
      <trkpt lat="47.25532" lon="-2.32024">
        <ele>12.199999809265</ele>
        <time>2019-10-31T08:35:15.000Z</time>
      </trkpt>
      <trkpt lat="47.25526" lon="-2.32012">
        <ele>12.199999809265</ele>
        <time>2019-10-31T08:35:18.000Z</time>
      </trkpt>
      <trkpt lat="47.25521" lon="-2.3199">
        <ele>12.199999809265</ele>
        <time>2019-10-31T08:35:22.000Z</time>
      </trkpt>
      <trkpt lat="47.2552" lon="-2.31985">
        <ele>12.199999809265</ele>
        <time>2019-10-31T08:35:23.000Z</time>
      </trkpt>
      <trkpt lat="47.25519" lon="-2.31957">
        <ele>12.199999809265</ele>
        <time>2019-10-31T08:35:29.000Z</time>
      </trkpt>
      <trkpt lat="47.25521" lon="-2.31948">
        <ele>12.199999809265</ele>
        <time>2019-10-31T08:35:33.000Z</time>
      </trkpt>
      <trkpt lat="47.25518" lon="-2.31937">
        <ele>12.199999809265</ele>
        <time>2019-10-31T08:36:49.000Z</time>
      </trkpt>
      <trkpt lat="47.25514" lon="-2.31941">
        <ele>12.199999809265</ele>
        <time>2019-10-31T08:36:52.000Z</time>
      </trkpt>
      <trkpt lat="47.25515" lon="-2.31955">
        <ele>12.199999809265</ele>
        <time>2019-10-31T08:36:55.000Z</time>
      </trkpt>
      <trkpt lat="47.2552" lon="-2.3196">
        <ele>12.199999809265</ele>
        <time>2019-10-31T08:36:58.000Z</time>
      </trkpt>
      <trkpt lat="47.25522" lon="-2.31953">
        <ele>12.199999809265</ele>
        <time>2019-10-31T08:37:01.000Z</time>
      </trkpt>
      <trkpt lat="47.25518" lon="-2.31948">
        <ele>12.199999809265</ele>
        <time>2019-10-31T08:37:05.000Z</time>
      </trkpt>
      <trkpt lat="47.25514" lon="-2.31958">
        <ele>12.199999809265</ele>
        <time>2019-10-31T08:37:08.000Z</time>
      </trkpt>
      <trkpt lat="47.25515" lon="-2.31962">
        <ele>12.199999809265</ele>
        <time>2019-10-31T08:37:09.000Z</time>
      </trkpt>
      <trkpt lat="47.25523" lon="-2.31993">
        <ele>12.199999809265</ele>
        <time>2019-10-31T08:37:17.000Z</time>
      </trkpt>
      <trkpt lat="47.25526" lon="-2.31999">
        <ele>12.199999809265</ele>
        <time>2019-10-31T08:37:20.000Z</time>
      </trkpt>
      <trkpt lat="47.25525" lon="-2.32">
        <ele>12.199999809265</ele>
        <time>2019-10-31T08:37:21.000Z</time>
      </trkpt>
      <trkpt lat="47.25522" lon="-2.31995">
        <ele>12.199999809265</ele>
        <time>2019-10-31T08:37:25.000Z</time>
      </trkpt>
      <trkpt lat="47.25521" lon="-2.31986">
        <ele>12.199999809265</ele>
        <time>2019-10-31T08:37:27.000Z</time>
      </trkpt>
      <trkpt lat="47.2552" lon="-2.31972">
        <ele>12.199999809265</ele>
        <time>2019-10-31T08:37:30.000Z</time>
      </trkpt>
      <trkpt lat="47.25518" lon="-2.31938">
        <ele>12.199999809265</ele>
        <time>2019-10-31T08:37:36.000Z</time>
      </trkpt>
      <trkpt lat="47.2552" lon="-2.31927">
        <ele>12.199999809265</ele>
        <time>2019-10-31T08:37:39.000Z</time>
      </trkpt>
      <trkpt lat="47.2552" lon="-2.31927">
        <ele>12.199999809265</ele>
        <time>2019-10-31T08:37:40.000Z</time>
      </trkpt>
      <trkpt lat="47.25522" lon="-2.31922">
        <ele>12.199999809265</ele>
        <time>2019-10-31T08:37:47.000Z</time>
      </trkpt>
      <trkpt lat="47.25525" lon="-2.3192">
        <ele>12.199999809265</ele>
        <time>2019-10-31T08:37:49.000Z</time>
      </trkpt>
      <trkpt lat="47.25534" lon="-2.31917">
        <ele>12.199999809265</ele>
        <time>2019-10-31T08:37:55.000Z</time>
      </trkpt>
      <trkpt lat="47.25536" lon="-2.31917">
        <ele>12.199999809265</ele>
        <time>2019-10-31T08:37:56.000Z</time>
      </trkpt>
      <trkpt lat="47.25543" lon="-2.31917">
        <ele>12.199999809265</ele>
        <time>2019-10-31T08:38:02.000Z</time>
      </trkpt>
      <trkpt lat="47.25552" lon="-2.31914">
        <ele>12.199999809265</ele>
        <time>2019-10-31T08:38:05.000Z</time>
      </trkpt>
      <trkpt lat="47.25556" lon="-2.31914">
        <ele>12.199999809265</ele>
        <time>2019-10-31T08:38:10.000Z</time>
      </trkpt>
      <trkpt lat="47.25559" lon="-2.3191">
        <ele>12.199999809265</ele>
        <time>2019-10-31T08:38:24.000Z</time>
      </trkpt>
      <trkpt lat="47.25561" lon="-2.31904">
        <ele>12.199999809265</ele>
        <time>2019-10-31T08:38:26.000Z</time>
      </trkpt>
      <trkpt lat="47.25561" lon="-2.31868">
        <ele>12.199999809265</ele>
        <time>2019-10-31T08:38:29.000Z</time>
      </trkpt>
      <trkpt lat="47.25561" lon="-2.31868">
        <ele>12.199999809265</ele>
        <time>2019-10-31T08:38:31.000Z</time>
      </trkpt>
      <trkpt lat="47.2556" lon="-2.31821">
        <ele>12.199999809265</ele>
        <time>2019-10-31T08:38:38.000Z</time>
      </trkpt>
      <trkpt lat="47.25559" lon="-2.31806">
        <ele>12.199999809265</ele>
        <time>2019-10-31T08:38:41.000Z</time>
      </trkpt>
      <trkpt lat="47.25557" lon="-2.31803">
        <ele>12.199999809265</ele>
        <time>2019-10-31T08:38:42.000Z</time>
      </trkpt>
      <trkpt lat="47.25555" lon="-2.31798">
        <ele>12.199999809265</ele>
        <time>2019-10-31T08:38:47.000Z</time>
      </trkpt>
      <trkpt lat="47.25555" lon="-2.31798">
        <ele>12.199999809265</ele>
        <time>2019-10-31T08:38:48.000Z</time>
      </trkpt>
      <trkpt lat="47.25553" lon="-2.31798">
        <ele>12.199999809265</ele>
        <time>2019-10-31T08:38:50.000Z</time>
      </trkpt>
      <trkpt lat="47.25539" lon="-2.31804">
        <ele>12.199999809265</ele>
        <time>2019-10-31T08:38:53.000Z</time>
      </trkpt>
      <trkpt lat="47.25519" lon="-2.31809">
        <ele>13.60000038147</ele>
        <time>2019-10-31T08:38:59.000Z</time>
      </trkpt>
      <trkpt lat="47.25508" lon="-2.3181">
        <ele>14.39999961853</ele>
        <time>2019-10-31T08:39:02.000Z</time>
      </trkpt>
      <trkpt lat="47.25505" lon="-2.31811">
        <ele>14.39999961853</ele>
        <time>2019-10-31T08:39:06.000Z</time>
      </trkpt>
      <trkpt lat="47.25499" lon="-2.31811">
        <ele>14.39999961853</ele>
        <time>2019-10-31T08:39:09.000Z</time>
      </trkpt>
      <trkpt lat="47.25494" lon="-2.31814">
        <ele>14.39999961853</ele>
        <time>2019-10-31T08:40:04.000Z</time>
      </trkpt>
      <trkpt lat="47.25504" lon="-2.31815">
        <ele>14.39999961853</ele>
        <time>2019-10-31T08:40:09.000Z</time>
      </trkpt>
      <trkpt lat="47.2551" lon="-2.31814">
        <ele>14.39999961853</ele>
        <time>2019-10-31T08:40:11.000Z</time>
      </trkpt>
      <trkpt lat="47.25522" lon="-2.31809">
        <ele>14.39999961853</ele>
        <time>2019-10-31T08:40:15.000Z</time>
      </trkpt>
      <trkpt lat="47.25544" lon="-2.31801">
        <ele>14.39999961853</ele>
        <time>2019-10-31T08:40:21.000Z</time>
      </trkpt>
      <trkpt lat="47.25563" lon="-2.31791">
        <ele>14.39999961853</ele>
        <time>2019-10-31T08:40:26.000Z</time>
      </trkpt>
      <trkpt lat="47.25566" lon="-2.31781">
        <ele>14</ele>
        <time>2019-10-31T08:40:28.000Z</time>
      </trkpt>
      <trkpt lat="47.25568" lon="-2.31775">
        <ele>13.60000038147</ele>
        <time>2019-10-31T08:40:29.000Z</time>
      </trkpt>
      <trkpt lat="47.25571" lon="-2.31771">
        <ele>13.199999809265</ele>
        <time>2019-10-31T08:40:30.000Z</time>
      </trkpt>
      <trkpt lat="47.25575" lon="-2.31767">
        <ele>12.800000190735</ele>
        <time>2019-10-31T08:40:31.000Z</time>
      </trkpt>
      <trkpt lat="47.25579" lon="-2.31762">
        <ele>12.39999961853</ele>
        <time>2019-10-31T08:40:32.000Z</time>
      </trkpt>
      <trkpt lat="47.25586" lon="-2.31752">
        <ele>12.39999961853</ele>
        <time>2019-10-31T08:40:34.000Z</time>
      </trkpt>
      <trkpt lat="47.25588" lon="-2.31747">
        <ele>12.39999961853</ele>
        <time>2019-10-31T08:40:35.000Z</time>
      </trkpt>
      <trkpt lat="47.25592" lon="-2.31735">
        <ele>12.39999961853</ele>
        <time>2019-10-31T08:40:37.000Z</time>
      </trkpt>
      <trkpt lat="47.25595" lon="-2.31724">
        <ele>12.39999961853</ele>
        <time>2019-10-31T08:40:39.000Z</time>
      </trkpt>
      <trkpt lat="47.25601" lon="-2.31714">
        <ele>12.39999961853</ele>
        <time>2019-10-31T08:40:41.000Z</time>
      </trkpt>
      <trkpt lat="47.2562" lon="-2.31707">
        <ele>12.39999961853</ele>
        <time>2019-10-31T08:40:45.000Z</time>
      </trkpt>
      <trkpt lat="47.25655" lon="-2.31679">
        <ele>11.199999809265</ele>
        <time>2019-10-31T08:40:49.000Z</time>
      </trkpt>
      <trkpt lat="47.25655" lon="-2.31679">
        <ele>11.199999809265</ele>
        <time>2019-10-31T08:40:51.000Z</time>
      </trkpt>
      <trkpt lat="47.25658" lon="-2.31672">
        <ele>10.800000190735</ele>
        <time>2019-10-31T08:40:52.000Z</time>
      </trkpt>
      <trkpt lat="47.25661" lon="-2.31666">
        <ele>10.39999961853</ele>
        <time>2019-10-31T08:40:53.000Z</time>
      </trkpt>
      <trkpt lat="47.25665" lon="-2.31662">
        <ele>10.39999961853</ele>
        <time>2019-10-31T08:40:54.000Z</time>
      </trkpt>
      <trkpt lat="47.25677" lon="-2.31669">
        <ele>10.39999961853</ele>
        <time>2019-10-31T08:40:57.000Z</time>
      </trkpt>
      <trkpt lat="47.25682" lon="-2.31673">
        <ele>10</ele>
        <time>2019-10-31T08:40:58.000Z</time>
      </trkpt>
      <trkpt lat="47.25687" lon="-2.31676">
        <ele>9.3999996185303</ele>
        <time>2019-10-31T08:40:59.000Z</time>
      </trkpt>
      <trkpt lat="47.25692" lon="-2.31678">
        <ele>9</ele>
        <time>2019-10-31T08:41:00.000Z</time>
      </trkpt>
      <trkpt lat="47.25698" lon="-2.31681">
        <ele>8.6000003814697</ele>
        <time>2019-10-31T08:41:01.000Z</time>
      </trkpt>
      <trkpt lat="47.25703" lon="-2.31683">
        <ele>8.1999998092651</ele>
        <time>2019-10-31T08:41:02.000Z</time>
      </trkpt>
      <trkpt lat="47.25724" lon="-2.31698">
        <ele>8.1999998092651</ele>
        <time>2019-10-31T08:41:06.000Z</time>
      </trkpt>
      <trkpt lat="47.2573" lon="-2.317">
        <ele>8.1999998092651</ele>
        <time>2019-10-31T08:41:07.000Z</time>
      </trkpt>
      <trkpt lat="47.2574" lon="-2.31696">
        <ele>7.5999999046326</ele>
        <time>2019-10-31T08:41:09.000Z</time>
      </trkpt>
      <trkpt lat="47.25744" lon="-2.31692">
        <ele>7.1999998092651</ele>
        <time>2019-10-31T08:41:10.000Z</time>
      </trkpt>
      <trkpt lat="47.25757" lon="-2.3168">
        <ele>5.8000001907349</ele>
        <time>2019-10-31T08:41:11.000Z</time>
      </trkpt>
      <trkpt lat="47.25757" lon="-2.3168">
        <ele>5.8000001907349</ele>
        <time>2019-10-31T08:41:14.000Z</time>
      </trkpt>
      <trkpt lat="47.25779" lon="-2.31661">
        <ele>5.8000001907349</ele>
        <time>2019-10-31T08:41:19.000Z</time>
      </trkpt>
      <trkpt lat="47.25799" lon="-2.31642">
        <ele>6.1999998092651</ele>
        <time>2019-10-31T08:41:24.000Z</time>
      </trkpt>
      <trkpt lat="47.25803" lon="-2.31639">
        <ele>6.5999999046326</ele>
        <time>2019-10-31T08:41:25.000Z</time>
      </trkpt>
      <trkpt lat="47.25807" lon="-2.31636">
        <ele>7</ele>
        <time>2019-10-31T08:41:26.000Z</time>
      </trkpt>
      <trkpt lat="47.25811" lon="-2.31633">
        <ele>7.4000000953674</ele>
        <time>2019-10-31T08:41:27.000Z</time>
      </trkpt>
      <trkpt lat="47.25815" lon="-2.3163">
        <ele>7.8000001907349</ele>
        <time>2019-10-31T08:41:28.000Z</time>
      </trkpt>
      <trkpt lat="47.25829" lon="-2.31618">
        <ele>7.8000001907349</ele>
        <time>2019-10-31T08:41:33.000Z</time>
      </trkpt>
      <trkpt lat="47.25831" lon="-2.31617">
        <ele>7.8000001907349</ele>
        <time>2019-10-31T08:41:35.000Z</time>
      </trkpt>
      <trkpt lat="47.25832" lon="-2.31615">
        <ele>7.8000001907349</ele>
        <time>2019-10-31T08:42:03.000Z</time>
      </trkpt>
      <trkpt lat="47.25834" lon="-2.31614">
        <ele>7.8000001907349</ele>
        <time>2019-10-31T08:42:04.000Z</time>
      </trkpt>
      <trkpt lat="47.25848" lon="-2.31602">
        <ele>7.8000001907349</ele>
        <time>2019-10-31T08:42:10.000Z</time>
      </trkpt>
      <trkpt lat="47.25854" lon="-2.31595">
        <ele>7.8000001907349</ele>
        <time>2019-10-31T08:42:12.000Z</time>
      </trkpt>
      <trkpt lat="47.25866" lon="-2.31584">
        <ele>7.8000001907349</ele>
        <time>2019-10-31T08:42:15.000Z</time>
      </trkpt>
      <trkpt lat="47.25883" lon="-2.31566">
        <ele>7.8000001907349</ele>
        <time>2019-10-31T08:42:19.000Z</time>
      </trkpt>
      <trkpt lat="47.25886" lon="-2.31559">
        <ele>7.4000000953674</ele>
        <time>2019-10-31T08:42:20.000Z</time>
      </trkpt>
      <trkpt lat="47.25889" lon="-2.31552">
        <ele>7</ele>
        <time>2019-10-31T08:42:21.000Z</time>
      </trkpt>
      <trkpt lat="47.25892" lon="-2.31545">
        <ele>6.5999999046326</ele>
        <time>2019-10-31T08:42:22.000Z</time>
      </trkpt>
      <trkpt lat="47.25894" lon="-2.3154">
        <ele>6.1999998092651</ele>
        <time>2019-10-31T08:42:23.000Z</time>
      </trkpt>
      <trkpt lat="47.25896" lon="-2.31535">
        <ele>5.8000001907349</ele>
        <time>2019-10-31T08:42:24.000Z</time>
      </trkpt>
      <trkpt lat="47.25903" lon="-2.31521">
        <ele>5.8000001907349</ele>
        <time>2019-10-31T08:42:29.000Z</time>
      </trkpt>
      <trkpt lat="47.25905" lon="-2.31518">
        <ele>5.8000001907349</ele>
        <time>2019-10-31T08:42:31.000Z</time>
      </trkpt>
      <trkpt lat="47.25909" lon="-2.31519">
        <ele>5.8000001907349</ele>
        <time>2019-10-31T08:42:35.000Z</time>
      </trkpt>
      <trkpt lat="47.25912" lon="-2.31514">
        <ele>5.8000001907349</ele>
        <time>2019-10-31T08:42:40.000Z</time>
      </trkpt>
      <trkpt lat="47.25912" lon="-2.31508">
        <ele>5.8000001907349</ele>
        <time>2019-10-31T08:42:45.000Z</time>
      </trkpt>
      <trkpt lat="47.25912" lon="-2.31507">
        <ele>5.8000001907349</ele>
        <time>2019-10-31T08:42:46.000Z</time>
      </trkpt>
      <trkpt lat="47.25912" lon="-2.31505">
        <ele>5.4000000953674</ele>
        <time>2019-10-31T08:42:47.000Z</time>
      </trkpt>
      <trkpt lat="47.25913" lon="-2.31504">
        <ele>5</ele>
        <time>2019-10-31T08:42:48.000Z</time>
      </trkpt>
      <trkpt lat="47.25914" lon="-2.31501">
        <ele>4.5999999046326</ele>
        <time>2019-10-31T08:42:49.000Z</time>
      </trkpt>
      <trkpt lat="47.25919" lon="-2.31488">
        <ele>3.7999999523163</ele>
        <time>2019-10-31T08:42:50.000Z</time>
      </trkpt>
      <trkpt lat="47.25929" lon="-2.31463">
        <ele>3.7999999523163</ele>
        <time>2019-10-31T08:42:56.000Z</time>
      </trkpt>
      <trkpt lat="47.25931" lon="-2.3146">
        <ele>3.7999999523163</ele>
        <time>2019-10-31T08:42:57.000Z</time>
      </trkpt>
      <trkpt lat="47.2594" lon="-2.3146">
        <ele>3.7999999523163</ele>
        <time>2019-10-31T08:43:00.000Z</time>
      </trkpt>
      <trkpt lat="47.25949" lon="-2.31468">
        <ele>3.7999999523163</ele>
        <time>2019-10-31T08:43:02.000Z</time>
      </trkpt>
      <trkpt lat="47.25963" lon="-2.31483">
        <ele>3.7999999523163</ele>
        <time>2019-10-31T08:43:05.000Z</time>
      </trkpt>
      <trkpt lat="47.25967" lon="-2.31489">
        <ele>3.7999999523163</ele>
        <time>2019-10-31T08:43:06.000Z</time>
      </trkpt>
      <trkpt lat="47.25976" lon="-2.3151">
        <ele>3.7999999523163</ele>
        <time>2019-10-31T08:43:09.000Z</time>
      </trkpt>
      <trkpt lat="47.25979" lon="-2.31516">
        <ele>3.7999999523163</ele>
        <time>2019-10-31T08:43:10.000Z</time>
      </trkpt>
      <trkpt lat="47.26002" lon="-2.31556">
        <ele>3.7999999523163</ele>
        <time>2019-10-31T08:43:14.000Z</time>
      </trkpt>
      <trkpt lat="47.26005" lon="-2.3156">
        <ele>3.7999999523163</ele>
        <time>2019-10-31T08:43:17.000Z</time>
      </trkpt>
      <trkpt lat="47.26013" lon="-2.31564">
        <ele>3.7999999523163</ele>
        <time>2019-10-31T08:43:19.000Z</time>
      </trkpt>
      <trkpt lat="47.26023" lon="-2.31554">
        <ele>3.7999999523163</ele>
        <time>2019-10-31T08:43:22.000Z</time>
      </trkpt>
      <trkpt lat="47.26029" lon="-2.31537">
        <ele>3.7999999523163</ele>
        <time>2019-10-31T08:43:25.000Z</time>
      </trkpt>
      <trkpt lat="47.26032" lon="-2.31526">
        <ele>3.7999999523163</ele>
        <time>2019-10-31T08:43:27.000Z</time>
      </trkpt>
      <trkpt lat="47.26041" lon="-2.31515">
        <ele>3.7999999523163</ele>
        <time>2019-10-31T08:43:31.000Z</time>
      </trkpt>
      <trkpt lat="47.2605" lon="-2.31523">
        <ele>3.7999999523163</ele>
        <time>2019-10-31T08:43:34.000Z</time>
      </trkpt>
      <trkpt lat="47.26053" lon="-2.31529">
        <ele>3.2000000476837</ele>
        <time>2019-10-31T08:43:35.000Z</time>
      </trkpt>
      <trkpt lat="47.26057" lon="-2.31535">
        <ele>2.7999999523163</ele>
        <time>2019-10-31T08:43:36.000Z</time>
      </trkpt>
      <trkpt lat="47.2606" lon="-2.31541">
        <ele>2.4000000953674</ele>
        <time>2019-10-31T08:43:37.000Z</time>
      </trkpt>
      <trkpt lat="47.26063" lon="-2.31547">
        <ele>2</ele>
        <time>2019-10-31T08:43:38.000Z</time>
      </trkpt>
      <trkpt lat="47.26066" lon="-2.31554">
        <ele>1.6000000238419</ele>
        <time>2019-10-31T08:43:39.000Z</time>
      </trkpt>
      <trkpt lat="47.2607" lon="-2.31566">
        <ele>1.6000000238419</ele>
        <time>2019-10-31T08:43:41.000Z</time>
      </trkpt>
      <trkpt lat="47.26075" lon="-2.31573">
        <ele>1.6000000238419</ele>
        <time>2019-10-31T08:43:43.000Z</time>
      </trkpt>
      <trkpt lat="47.26079" lon="-2.31575">
        <ele>1.6000000238419</ele>
        <time>2019-10-31T08:43:45.000Z</time>
      </trkpt>
      <trkpt lat="47.2608" lon="-2.31575">
        <ele>1.6000000238419</ele>
        <time>2019-10-31T08:43:46.000Z</time>
      </trkpt>
      <trkpt lat="47.26083" lon="-2.31575">
        <ele>1.6000000238419</ele>
        <time>2019-10-31T08:43:51.000Z</time>
      </trkpt>
      <trkpt lat="47.26086" lon="-2.31579">
        <ele>1.6000000238419</ele>
        <time>2019-10-31T08:43:53.000Z</time>
      </trkpt>
      <trkpt lat="47.2609" lon="-2.31588">
        <ele>1.6000000238419</ele>
        <time>2019-10-31T08:43:55.000Z</time>
      </trkpt>
      <trkpt lat="47.26096" lon="-2.31599">
        <ele>1.6000000238419</ele>
        <time>2019-10-31T08:43:57.000Z</time>
      </trkpt>
      <trkpt lat="47.26111" lon="-2.31634">
        <ele>1.6000000238419</ele>
        <time>2019-10-31T08:44:02.000Z</time>
      </trkpt>
      <trkpt lat="47.26116" lon="-2.3165">
        <ele>1.6000000238419</ele>
        <time>2019-10-31T08:44:04.000Z</time>
      </trkpt>
      <trkpt lat="47.26123" lon="-2.31683">
        <ele>1.6000000238419</ele>
        <time>2019-10-31T08:44:07.000Z</time>
      </trkpt>
      <trkpt lat="47.26123" lon="-2.31683">
        <ele>1.6000000238419</ele>
        <time>2019-10-31T08:44:08.000Z</time>
      </trkpt>
      <trkpt lat="47.26126" lon="-2.31714">
        <ele>1.2000000476837</ele>
        <time>2019-10-31T08:44:12.000Z</time>
      </trkpt>
      <trkpt lat="47.26127" lon="-2.31721">
        <ele>0.80000001192093</ele>
        <time>2019-10-31T08:44:13.000Z</time>
      </trkpt>
      <trkpt lat="47.26128" lon="-2.31728">
        <ele>0.40000000596046</ele>
        <time>2019-10-31T08:44:14.000Z</time>
      </trkpt>
      <trkpt lat="47.26129" lon="-2.31734">
        <ele>3.4</ele>
        <time>2019-10-31T08:44:15.000Z</time>
      </trkpt>
      <trkpt lat="47.26129" lon="-2.3174">
        <ele>-0.40000000596046</ele>
        <time>2019-10-31T08:44:16.000Z</time>
      </trkpt>
      <trkpt lat="47.26132" lon="-2.31771">
        <ele>-0.40000000596046</ele>
        <time>2019-10-31T08:44:21.000Z</time>
      </trkpt>
      <trkpt lat="47.26137" lon="-2.31815">
        <ele>-0.40000000596046</ele>
        <time>2019-10-31T08:44:28.000Z</time>
      </trkpt>
      <trkpt lat="47.26143" lon="-2.3186">
        <ele>-0.40000000596046</ele>
        <time>2019-10-31T08:44:36.000Z</time>
      </trkpt>
      <trkpt lat="47.26147" lon="-2.31903">
        <ele>-0.40000000596046</ele>
        <time>2019-10-31T08:44:43.000Z</time>
      </trkpt>
      <trkpt lat="47.26154" lon="-2.31953">
        <ele>-0.40000000596046</ele>
        <time>2019-10-31T08:44:50.000Z</time>
      </trkpt>
      <trkpt lat="47.26159" lon="-2.31987">
        <ele>-0.40000000596046</ele>
        <time>2019-10-31T08:44:55.000Z</time>
      </trkpt>
      <trkpt lat="47.26161" lon="-2.32011">
        <ele>-0.40000000596046</ele>
        <time>2019-10-31T08:44:58.000Z</time>
      </trkpt>
      <trkpt lat="47.26159" lon="-2.32027">
        <ele>-0.40000000596046</ele>
        <time>2019-10-31T08:45:00.000Z</time>
      </trkpt>
      <trkpt lat="47.26157" lon="-2.32035">
        <ele>-0.40000000596046</ele>
        <time>2019-10-31T08:45:01.000Z</time>
      </trkpt>
      <trkpt lat="47.26149" lon="-2.32066">
        <ele>-0.40000000596046</ele>
        <time>2019-10-31T08:45:05.000Z</time>
      </trkpt>
      <trkpt lat="47.26134" lon="-2.32117">
        <ele>-0.40000000596046</ele>
        <time>2019-10-31T08:45:12.000Z</time>
      </trkpt>
      <trkpt lat="47.26119" lon="-2.32164">
        <ele>-0.40000000596046</ele>
        <time>2019-10-31T08:45:18.000Z</time>
      </trkpt>
      <trkpt lat="47.261" lon="-2.32205">
        <ele>-0.40000000596046</ele>
        <time>2019-10-31T08:45:24.000Z</time>
      </trkpt>
      <trkpt lat="47.2608" lon="-2.32234">
        <ele>-0.40000000596046</ele>
        <time>2019-10-31T08:45:27.000Z</time>
      </trkpt>
      <trkpt lat="47.26072" lon="-2.32245">
        <ele>-0.40000000596046</ele>
        <time>2019-10-31T08:45:30.000Z</time>
      </trkpt>
      <trkpt lat="47.26045" lon="-2.32275">
        <ele>-0.40000000596046</ele>
        <time>2019-10-31T08:45:36.000Z</time>
      </trkpt>
      <trkpt lat="47.26013" lon="-2.32314">
        <ele>-0.40000000596046</ele>
        <time>2019-10-31T08:45:43.000Z</time>
      </trkpt>
      <trkpt lat="47.25986" lon="-2.32348">
        <ele>-0.40000000596046</ele>
        <time>2019-10-31T08:45:49.000Z</time>
      </trkpt>
      <trkpt lat="47.25977" lon="-2.3236">
        <ele>-0.40000000596046</ele>
        <time>2019-10-31T08:45:51.000Z</time>
      </trkpt>
      <trkpt lat="47.25962" lon="-2.32377">
        <ele>-0.40000000596046</ele>
        <time>2019-10-31T08:45:54.000Z</time>
      </trkpt>
      <trkpt lat="47.25921" lon="-2.32431">
        <ele>-0.40000000596046</ele>
        <time>2019-10-31T08:46:03.000Z</time>
      </trkpt>
      <trkpt lat="47.25909" lon="-2.32448">
        <ele>-0.40000000596046</ele>
        <time>2019-10-31T08:46:06.000Z</time>
      </trkpt>
      <trkpt lat="47.25901" lon="-2.32457">
        <ele>-0.40000000596046</ele>
        <time>2019-10-31T08:46:08.000Z</time>
      </trkpt>
      <trkpt lat="47.25887" lon="-2.32475">
        <ele>-0.40000000596046</ele>
        <time>2019-10-31T08:46:13.000Z</time>
      </trkpt>
      <trkpt lat="47.25884" lon="-2.32483">
        <ele>-0.40000000596046</ele>
        <time>2019-10-31T08:46:15.000Z</time>
      </trkpt>
      <trkpt lat="47.25877" lon="-2.32486">
        <ele>-0.40000000596046</ele>
        <time>2019-10-31T08:46:17.000Z</time>
      </trkpt>
      <trkpt lat="47.25863" lon="-2.32484">
        <ele>-0.40000000596046</ele>
        <time>2019-10-31T08:46:20.000Z</time>
      </trkpt>
      <trkpt lat="47.25854" lon="-2.32484">
        <ele>-0.40000000596046</ele>
        <time>2019-10-31T08:46:22.000Z</time>
      </trkpt>
      <trkpt lat="47.25827" lon="-2.32481">
        <ele>-0.40000000596046</ele>
        <time>2019-10-31T08:46:29.000Z</time>
      </trkpt>
      <trkpt lat="47.25824" lon="-2.32484">
        <ele>-0.40000000596046</ele>
        <time>2019-10-31T08:46:30.000Z</time>
      </trkpt>
      <trkpt lat="47.25825" lon="-2.32492">
        <ele>-0.40000000596046</ele>
        <time>2019-10-31T08:46:32.000Z</time>
      </trkpt>
      <trkpt lat="47.25832" lon="-2.32504">
        <ele>-0.40000000596046</ele>
        <time>2019-10-31T08:46:35.000Z</time>
      </trkpt>
      <trkpt lat="47.25835" lon="-2.32508">
        <ele>-0.40000000596046</ele>
        <time>2019-10-31T08:46:36.000Z</time>
      </trkpt>
      <trkpt lat="47.25853" lon="-2.32532">
        <ele>-0.40000000596046</ele>
        <time>2019-10-31T08:46:41.000Z</time>
      </trkpt>
      <trkpt lat="47.25863" lon="-2.32547">
        <ele>-0.40000000596046</ele>
        <time>2019-10-31T08:46:44.000Z</time>
      </trkpt>
      <trkpt lat="47.25873" lon="-2.3256">
        <ele>-0.40000000596046</ele>
        <time>2019-10-31T08:46:47.000Z</time>
      </trkpt>
      <trkpt lat="47.25889" lon="-2.3258">
        <ele>-0.40000000596046</ele>
        <time>2019-10-31T08:46:51.000Z</time>
      </trkpt>
      <trkpt lat="47.25894" lon="-2.32583">
        <ele>-0.40000000596046</ele>
        <time>2019-10-31T08:46:52.000Z</time>
      </trkpt>
      <trkpt lat="47.25911" lon="-2.32601">
        <ele>-0.40000000596046</ele>
        <time>2019-10-31T08:46:56.000Z</time>
      </trkpt>
      <trkpt lat="47.25937" lon="-2.32638">
        <ele>-0.40000000596046</ele>
        <time>2019-10-31T08:47:03.000Z</time>
      </trkpt>
      <trkpt lat="47.25944" lon="-2.32648">
        <ele>-0.40000000596046</ele>
        <time>2019-10-31T08:47:05.000Z</time>
      </trkpt>
      <trkpt lat="47.25967" lon="-2.32658">
        <ele>-0.40000000596046</ele>
        <time>2019-10-31T08:47:08.000Z</time>
      </trkpt>
      <trkpt lat="47.25967" lon="-2.32658">
        <ele>-0.40000000596046</ele>
        <time>2019-10-31T08:47:11.000Z</time>
      </trkpt>
      <trkpt lat="47.25978" lon="-2.32658">
        <ele>-0.40000000596046</ele>
        <time>2019-10-31T08:47:13.000Z</time>
      </trkpt>
      <trkpt lat="47.25993" lon="-2.3266">
        <ele>-0.40000000596046</ele>
        <time>2019-10-31T08:47:16.000Z</time>
      </trkpt>
      <trkpt lat="47.26004" lon="-2.32657">
        <ele>-0.40000000596046</ele>
        <time>2019-10-31T08:47:18.000Z</time>
      </trkpt>
      <trkpt lat="47.26022" lon="-2.32653">
        <ele>-0.40000000596046</ele>
        <time>2019-10-31T08:47:22.000Z</time>
      </trkpt>
      <trkpt lat="47.26052" lon="-2.32649">
        <ele>3.9</ele>
        <time>2019-10-31T08:47:28.000Z</time>
      </trkpt>
      <trkpt lat="47.26057" lon="-2.32648">
        <ele>0.40000000596046</ele>
        <time>2019-10-31T08:47:29.000Z</time>
      </trkpt>
      <trkpt lat="47.26061" lon="-2.32647">
        <ele>1.2000000476837</ele>
        <time>2019-10-31T08:47:30.000Z</time>
      </trkpt>
      <trkpt lat="47.26066" lon="-2.32646">
        <ele>1.6000000238419</ele>
        <time>2019-10-31T08:47:31.000Z</time>
      </trkpt>
      <trkpt lat="47.26091" lon="-2.32642">
        <ele>1.6000000238419</ele>
        <time>2019-10-31T08:47:35.000Z</time>
      </trkpt>
      <trkpt lat="47.2611" lon="-2.3264">
        <ele>1.6000000238419</ele>
        <time>2019-10-31T08:47:37.000Z</time>
      </trkpt>
      <trkpt lat="47.26128" lon="-2.32639">
        <ele>1.6000000238419</ele>
        <time>2019-10-31T08:47:44.000Z</time>
      </trkpt>
      <trkpt lat="47.26133" lon="-2.3264">
        <ele>1.6000000238419</ele>
        <time>2019-10-31T08:47:45.000Z</time>
      </trkpt>
      <trkpt lat="47.26161" lon="-2.32651">
        <ele>1.6000000238419</ele>
        <time>2019-10-31T08:47:51.000Z</time>
      </trkpt>
      <trkpt lat="47.26165" lon="-2.32653">
        <ele>1.6000000238419</ele>
        <time>2019-10-31T08:47:52.000Z</time>
      </trkpt>
      <trkpt lat="47.26179" lon="-2.32662">
        <ele>1.6000000238419</ele>
        <time>2019-10-31T08:47:55.000Z</time>
      </trkpt>
      <trkpt lat="47.26188" lon="-2.32669">
        <ele>1.6000000238419</ele>
        <time>2019-10-31T08:47:57.000Z</time>
      </trkpt>
      <trkpt lat="47.26193" lon="-2.32673">
        <ele>1.6000000238419</ele>
        <time>2019-10-31T08:47:58.000Z</time>
      </trkpt>
      <trkpt lat="47.26225" lon="-2.32711">
        <ele>1.6000000238419</ele>
        <time>2019-10-31T08:48:06.000Z</time>
      </trkpt>
      <trkpt lat="47.26253" lon="-2.32753">
        <ele>1.6000000238419</ele>
        <time>2019-10-31T08:48:13.000Z</time>
      </trkpt>
      <trkpt lat="47.26275" lon="-2.32792">
        <ele>1.6000000238419</ele>
        <time>2019-10-31T08:48:19.000Z</time>
      </trkpt>
      <trkpt lat="47.26278" lon="-2.32799">
        <ele>1.6000000238419</ele>
        <time>2019-10-31T08:48:20.000Z</time>
      </trkpt>
      <trkpt lat="47.26286" lon="-2.3283">
        <ele>1.6000000238419</ele>
        <time>2019-10-31T08:48:24.000Z</time>
      </trkpt>
      <trkpt lat="47.26288" lon="-2.32847">
        <ele>1.2000000476837</ele>
        <time>2019-10-31T08:48:26.000Z</time>
      </trkpt>
      <trkpt lat="47.2629" lon="-2.32854">
        <ele>0.80000001192093</ele>
        <time>2019-10-31T08:48:27.000Z</time>
      </trkpt>
      <trkpt lat="47.26294" lon="-2.3286">
        <ele>0.40000000596046</ele>
        <time>2019-10-31T08:48:28.000Z</time>
      </trkpt>
      <trkpt lat="47.26299" lon="-2.32863">
        <ele>2.7</ele>
        <time>2019-10-31T08:48:29.000Z</time>
      </trkpt>
      <trkpt lat="47.26305" lon="-2.32865">
        <ele>-0.40000000596046</ele>
        <time>2019-10-31T08:48:30.000Z</time>
      </trkpt>
      <trkpt lat="47.26315" lon="-2.32873">
        <ele>-0.40000000596046</ele>
        <time>2019-10-31T08:48:32.000Z</time>
      </trkpt>
      <trkpt lat="47.26322" lon="-2.32891">
        <ele>-0.40000000596046</ele>
        <time>2019-10-31T08:48:35.000Z</time>
      </trkpt>
      <trkpt lat="47.26323" lon="-2.32898">
        <ele>-0.40000000596046</ele>
        <time>2019-10-31T08:48:36.000Z</time>
      </trkpt>
      <trkpt lat="47.26325" lon="-2.32904">
        <ele>-0.40000000596046</ele>
        <time>2019-10-31T08:48:37.000Z</time>
      </trkpt>
      <trkpt lat="47.26333" lon="-2.32925">
        <ele>-0.40000000596046</ele>
        <time>2019-10-31T08:48:41.000Z</time>
      </trkpt>
      <trkpt lat="47.26341" lon="-2.32949">
        <ele>-0.40000000596046</ele>
        <time>2019-10-31T08:48:46.000Z</time>
      </trkpt>
      <trkpt lat="47.26354" lon="-2.32977">
        <ele>-0.40000000596046</ele>
        <time>2019-10-31T08:48:50.000Z</time>
      </trkpt>
      <trkpt lat="47.26354" lon="-2.32977">
        <ele>-0.40000000596046</ele>
        <time>2019-10-31T08:48:52.000Z</time>
      </trkpt>
      <trkpt lat="47.26363" lon="-2.32995">
        <ele>-0.40000000596046</ele>
        <time>2019-10-31T08:48:56.000Z</time>
      </trkpt>
      <trkpt lat="47.26364" lon="-2.33001">
        <ele>-0.40000000596046</ele>
        <time>2019-10-31T08:48:57.000Z</time>
      </trkpt>
      <trkpt lat="47.26365" lon="-2.33028">
        <ele>-0.40000000596046</ele>
        <time>2019-10-31T08:49:01.000Z</time>
      </trkpt>
      <trkpt lat="47.26367" lon="-2.33076">
        <ele>-0.40000000596046</ele>
        <time>2019-10-31T08:49:08.000Z</time>
      </trkpt>
      <trkpt lat="47.26373" lon="-2.33139">
        <ele>-0.40000000596046</ele>
        <time>2019-10-31T08:49:17.000Z</time>
      </trkpt>
      <trkpt lat="47.26376" lon="-2.33188">
        <ele>-0.40000000596046</ele>
        <time>2019-10-31T08:49:24.000Z</time>
      </trkpt>
      <trkpt lat="47.26379" lon="-2.33237">
        <ele>-0.40000000596046</ele>
        <time>2019-10-31T08:49:31.000Z</time>
      </trkpt>
      <trkpt lat="47.2638" lon="-2.33244">
        <ele>-0.40000000596046</ele>
        <time>2019-10-31T08:49:32.000Z</time>
      </trkpt>
      <trkpt lat="47.26388" lon="-2.33261">
        <ele>-0.40000000596046</ele>
        <time>2019-10-31T08:49:35.000Z</time>
      </trkpt>
      <trkpt lat="47.26402" lon="-2.33267">
        <ele>-0.40000000596046</ele>
        <time>2019-10-31T08:49:38.000Z</time>
      </trkpt>
      <trkpt lat="47.26407" lon="-2.33268">
        <ele>-0.40000000596046</ele>
        <time>2019-10-31T08:49:39.000Z</time>
      </trkpt>
      <trkpt lat="47.26436" lon="-2.3327">
        <ele>-0.40000000596046</ele>
        <time>2019-10-31T08:49:45.000Z</time>
      </trkpt>
      <trkpt lat="47.26469" lon="-2.33275">
        <ele>-0.40000000596046</ele>
        <time>2019-10-31T08:49:52.000Z</time>
      </trkpt>
      <trkpt lat="47.26474" lon="-2.33276">
        <ele>-0.40000000596046</ele>
        <time>2019-10-31T08:49:53.000Z</time>
      </trkpt>
      <trkpt lat="47.26501" lon="-2.3328">
        <ele>-0.40000000596046</ele>
        <time>2019-10-31T08:49:59.000Z</time>
      </trkpt>
      <trkpt lat="47.26504" lon="-2.33283">
        <ele>-0.40000000596046</ele>
        <time>2019-10-31T08:50:00.000Z</time>
      </trkpt>
      <trkpt lat="47.26513" lon="-2.33288">
        <ele>-0.40000000596046</ele>
        <time>2019-10-31T08:50:02.000Z</time>
      </trkpt>
      <trkpt lat="47.26528" lon="-2.33289">
        <ele>-0.40000000596046</ele>
        <time>2019-10-31T08:50:05.000Z</time>
      </trkpt>
      <trkpt lat="47.26537" lon="-2.333">
        <ele>-0.40000000596046</ele>
        <time>2019-10-31T08:50:08.000Z</time>
      </trkpt>
      <trkpt lat="47.26542" lon="-2.33297">
        <ele>-0.40000000596046</ele>
        <time>2019-10-31T08:50:10.000Z</time>
      </trkpt>
      <trkpt lat="47.26545" lon="-2.33293">
        <ele>-0.40000000596046</ele>
        <time>2019-10-31T08:50:11.000Z</time>
      </trkpt>
      <trkpt lat="47.26555" lon="-2.3328">
        <ele>-0.40000000596046</ele>
        <time>2019-10-31T08:50:14.000Z</time>
      </trkpt>
      <trkpt lat="47.26568" lon="-2.33267">
        <ele>-0.40000000596046</ele>
        <time>2019-10-31T08:50:17.000Z</time>
      </trkpt>
      <trkpt lat="47.26576" lon="-2.33257">
        <ele>-0.40000000596046</ele>
        <time>2019-10-31T08:50:19.000Z</time>
      </trkpt>
      <trkpt lat="47.26584" lon="-2.33249">
        <ele>-0.40000000596046</ele>
        <time>2019-10-31T08:50:21.000Z</time>
      </trkpt>
      <trkpt lat="47.26597" lon="-2.33237">
        <ele>-0.40000000596046</ele>
        <time>2019-10-31T08:50:24.000Z</time>
      </trkpt>
      <trkpt lat="47.26622" lon="-2.33212">
        <ele>-0.40000000596046</ele>
        <time>2019-10-31T08:50:30.000Z</time>
      </trkpt>
      <trkpt lat="47.26626" lon="-2.33208">
        <ele>-0.40000000596046</ele>
        <time>2019-10-31T08:50:31.000Z</time>
      </trkpt>
      <trkpt lat="47.26644" lon="-2.33191">
        <ele>-0.40000000596046</ele>
        <time>2019-10-31T08:50:35.000Z</time>
      </trkpt>
      <trkpt lat="47.26671" lon="-2.33163">
        <ele>-0.40000000596046</ele>
        <time>2019-10-31T08:50:42.000Z</time>
      </trkpt>
      <trkpt lat="47.26674" lon="-2.33162">
        <ele>-0.40000000596046</ele>
        <time>2019-10-31T08:50:43.000Z</time>
      </trkpt>
      <trkpt lat="47.26678" lon="-2.33164">
        <ele>-0.40000000596046</ele>
        <time>2019-10-31T08:50:45.000Z</time>
      </trkpt>
      <trkpt lat="47.26687" lon="-2.33174">
        <ele>-0.40000000596046</ele>
        <time>2019-10-31T08:50:49.000Z</time>
      </trkpt>
      <trkpt lat="47.26689" lon="-2.33178">
        <ele>-0.40000000596046</ele>
        <time>2019-10-31T08:50:50.000Z</time>
      </trkpt>
      <trkpt lat="47.26691" lon="-2.33189">
        <ele>-0.40000000596046</ele>
        <time>2019-10-31T08:50:52.000Z</time>
      </trkpt>
      <trkpt lat="47.26694" lon="-2.33212">
        <ele>-0.40000000596046</ele>
        <time>2019-10-31T08:50:56.000Z</time>
      </trkpt>
      <trkpt lat="47.26699" lon="-2.33233">
        <ele>-0.40000000596046</ele>
        <time>2019-10-31T08:51:00.000Z</time>
      </trkpt>
      <trkpt lat="47.26702" lon="-2.33245">
        <ele>-0.40000000596046</ele>
        <time>2019-10-31T08:51:02.000Z</time>
      </trkpt>
      <trkpt lat="47.26705" lon="-2.33259">
        <ele>-0.40000000596046</ele>
        <time>2019-10-31T08:51:04.000Z</time>
      </trkpt>
      <trkpt lat="47.26707" lon="-2.33281">
        <ele>-0.40000000596046</ele>
        <time>2019-10-31T08:51:07.000Z</time>
      </trkpt>
      <trkpt lat="47.26709" lon="-2.33288">
        <ele>-0.40000000596046</ele>
        <time>2019-10-31T08:51:08.000Z</time>
      </trkpt>
      <trkpt lat="47.26715" lon="-2.33313">
        <ele>-0.40000000596046</ele>
        <time>2019-10-31T08:51:12.000Z</time>
      </trkpt>
      <trkpt lat="47.26727" lon="-2.33326">
        <ele>-0.40000000596046</ele>
        <time>2019-10-31T08:51:16.000Z</time>
      </trkpt>
      <trkpt lat="47.26735" lon="-2.33332">
        <ele>-0.40000000596046</ele>
        <time>2019-10-31T08:51:18.000Z</time>
      </trkpt>
      <trkpt lat="47.26745" lon="-2.33346">
        <ele>-0.40000000596046</ele>
        <time>2019-10-31T08:51:22.000Z</time>
      </trkpt>
      <trkpt lat="47.26749" lon="-2.33373">
        <ele>-0.40000000596046</ele>
        <time>2019-10-31T08:51:26.000Z</time>
      </trkpt>
      <trkpt lat="47.26752" lon="-2.33394">
        <ele>-0.40000000596046</ele>
        <time>2019-10-31T08:51:29.000Z</time>
      </trkpt>
      <trkpt lat="47.26754" lon="-2.3341">
        <ele>-0.40000000596046</ele>
        <time>2019-10-31T08:51:31.000Z</time>
      </trkpt>
      <trkpt lat="47.26756" lon="-2.33425">
        <ele>-0.40000000596046</ele>
        <time>2019-10-31T08:51:33.000Z</time>
      </trkpt>
      <trkpt lat="47.2676" lon="-2.33454">
        <ele>-0.40000000596046</ele>
        <time>2019-10-31T08:51:37.000Z</time>
      </trkpt>
      <trkpt lat="47.26769" lon="-2.33511">
        <ele>-0.40000000596046</ele>
        <time>2019-10-31T08:51:45.000Z</time>
      </trkpt>
      <trkpt lat="47.26778" lon="-2.33561">
        <ele>-0.40000000596046</ele>
        <time>2019-10-31T08:51:53.000Z</time>
      </trkpt>
      <trkpt lat="47.2678" lon="-2.33565">
        <ele>-0.40000000596046</ele>
        <time>2019-10-31T08:51:54.000Z</time>
      </trkpt>
      <trkpt lat="47.26786" lon="-2.33566">
        <ele>-0.40000000596046</ele>
        <time>2019-10-31T08:51:56.000Z</time>
      </trkpt>
      <trkpt lat="47.26804" lon="-2.33554">
        <ele>-0.40000000596046</ele>
        <time>2019-10-31T08:52:01.000Z</time>
      </trkpt>
      <trkpt lat="47.26808" lon="-2.33552">
        <ele>-0.40000000596046</ele>
        <time>2019-10-31T08:52:02.000Z</time>
      </trkpt>
      <trkpt lat="47.26834" lon="-2.33543">
        <ele>-0.40000000596046</ele>
        <time>2019-10-31T08:52:08.000Z</time>
      </trkpt>
      <trkpt lat="47.26843" lon="-2.3354">
        <ele>-0.40000000596046</ele>
        <time>2019-10-31T08:52:10.000Z</time>
      </trkpt>
      <trkpt lat="47.26862" lon="-2.33533">
        <ele>-0.40000000596046</ele>
        <time>2019-10-31T08:52:14.000Z</time>
      </trkpt>
      <trkpt lat="47.26887" lon="-2.33515">
        <ele>-0.40000000596046</ele>
        <time>2019-10-31T08:52:20.000Z</time>
      </trkpt>
      <trkpt lat="47.26887" lon="-2.33504">
        <ele>8.5</ele>
        <time>2019-10-31T08:52:24.000Z</time>
      </trkpt>
      <trkpt lat="47.26886" lon="-2.33498">
        <ele>0.40000000596046</ele>
        <time>2019-10-31T08:52:25.000Z</time>
      </trkpt>
      <trkpt lat="47.26885" lon="-2.33493">
        <ele>0.80000001192093</ele>
        <time>2019-10-31T08:52:26.000Z</time>
      </trkpt>
      <trkpt lat="47.26885" lon="-2.33488">
        <ele>1.6000000238419</ele>
        <time>2019-10-31T08:52:27.000Z</time>
      </trkpt>
      <trkpt lat="47.26884" lon="-2.33482">
        <ele>1.6000000238419</ele>
        <time>2019-10-31T08:52:28.000Z</time>
      </trkpt>
      <trkpt lat="47.26883" lon="-2.33477">
        <ele>2</ele>
        <time>2019-10-31T08:52:29.000Z</time>
      </trkpt>
      <trkpt lat="47.26882" lon="-2.33472">
        <ele>2.4000000953674</ele>
        <time>2019-10-31T08:52:30.000Z</time>
      </trkpt>
      <trkpt lat="47.26881" lon="-2.33467">
        <ele>3</ele>
        <time>2019-10-31T08:52:31.000Z</time>
      </trkpt>
      <trkpt lat="47.2688" lon="-2.33462">
        <ele>3.4000000953674</ele>
        <time>2019-10-31T08:52:32.000Z</time>
      </trkpt>
      <trkpt lat="47.2688" lon="-2.33456">
        <ele>3.7999999523163</ele>
        <time>2019-10-31T08:52:33.000Z</time>
      </trkpt>
      <trkpt lat="47.2688" lon="-2.3345">
        <ele>4.1999998092651</ele>
        <time>2019-10-31T08:52:34.000Z</time>
      </trkpt>
      <trkpt lat="47.26879" lon="-2.33445">
        <ele>4.5999999046326</ele>
        <time>2019-10-31T08:52:35.000Z</time>
      </trkpt>
      <trkpt lat="47.26879" lon="-2.3344">
        <ele>5.1999998092651</ele>
        <time>2019-10-31T08:52:36.000Z</time>
      </trkpt>
      <trkpt lat="47.2688" lon="-2.33435">
        <ele>5.5999999046326</ele>
        <time>2019-10-31T08:52:37.000Z</time>
      </trkpt>
      <trkpt lat="47.26881" lon="-2.33431">
        <ele>6</ele>
        <time>2019-10-31T08:52:38.000Z</time>
      </trkpt>
      <trkpt lat="47.26882" lon="-2.33427">
        <ele>6.4000000953674</ele>
        <time>2019-10-31T08:52:39.000Z</time>
      </trkpt>
      <trkpt lat="47.26882" lon="-2.33424">
        <ele>6.8000001907349</ele>
        <time>2019-10-31T08:52:40.000Z</time>
      </trkpt>
      <trkpt lat="47.26883" lon="-2.3342">
        <ele>7.1999998092651</ele>
        <time>2019-10-31T08:52:41.000Z</time>
      </trkpt>
      <trkpt lat="47.26885" lon="-2.33418">
        <ele>7.5999999046326</ele>
        <time>2019-10-31T08:52:42.000Z</time>
      </trkpt>
      <trkpt lat="47.26887" lon="-2.33415">
        <ele>8</ele>
        <time>2019-10-31T08:52:43.000Z</time>
      </trkpt>
      <trkpt lat="47.2689" lon="-2.33412">
        <ele>8</ele>
        <time>2019-10-31T08:52:44.000Z</time>
      </trkpt>
      <trkpt lat="47.26893" lon="-2.3341">
        <ele>8.3999996185303</ele>
        <time>2019-10-31T08:52:45.000Z</time>
      </trkpt>
      <trkpt lat="47.26897" lon="-2.33409">
        <ele>8.8000001907349</ele>
        <time>2019-10-31T08:52:46.000Z</time>
      </trkpt>
      <trkpt lat="47.26901" lon="-2.33407">
        <ele>9.1999998092651</ele>
        <time>2019-10-31T08:52:47.000Z</time>
      </trkpt>
      <trkpt lat="47.26905" lon="-2.33405">
        <ele>9.8000001907349</ele>
        <time>2019-10-31T08:52:48.000Z</time>
      </trkpt>
      <trkpt lat="47.26909" lon="-2.33403">
        <ele>10.199999809265</ele>
        <time>2019-10-31T08:52:49.000Z</time>
      </trkpt>
      <trkpt lat="47.26921" lon="-2.33398">
        <ele>10.60000038147</ele>
        <time>2019-10-31T08:52:52.000Z</time>
      </trkpt>
      <trkpt lat="47.26925" lon="-2.33396">
        <ele>11</ele>
        <time>2019-10-31T08:52:53.000Z</time>
      </trkpt>
      <trkpt lat="47.26928" lon="-2.33394">
        <ele>11.39999961853</ele>
        <time>2019-10-31T08:52:54.000Z</time>
      </trkpt>
      <trkpt lat="47.26932" lon="-2.33393">
        <ele>11.800000190735</ele>
        <time>2019-10-31T08:52:55.000Z</time>
      </trkpt>
      <trkpt lat="47.26936" lon="-2.33391">
        <ele>12.199999809265</ele>
        <time>2019-10-31T08:52:56.000Z</time>
      </trkpt>
      <trkpt lat="47.2694" lon="-2.33389">
        <ele>12.199999809265</ele>
        <time>2019-10-31T08:52:57.000Z</time>
      </trkpt>
      <trkpt lat="47.26965" lon="-2.33379">
        <ele>12.199999809265</ele>
        <time>2019-10-31T08:53:04.000Z</time>
      </trkpt>
      <trkpt lat="47.26968" lon="-2.33378">
        <ele>12.60000038147</ele>
        <time>2019-10-31T08:53:05.000Z</time>
      </trkpt>
      <trkpt lat="47.26971" lon="-2.33375">
        <ele>13</ele>
        <time>2019-10-31T08:53:06.000Z</time>
      </trkpt>
      <trkpt lat="47.26972" lon="-2.33372">
        <ele>13.60000038147</ele>
        <time>2019-10-31T08:53:07.000Z</time>
      </trkpt>
      <trkpt lat="47.26972" lon="-2.33368">
        <ele>14</ele>
        <time>2019-10-31T08:53:08.000Z</time>
      </trkpt>
      <trkpt lat="47.2697" lon="-2.33364">
        <ele>14.39999961853</ele>
        <time>2019-10-31T08:53:09.000Z</time>
      </trkpt>
      <trkpt lat="47.26962" lon="-2.33346">
        <ele>14.39999961853</ele>
        <time>2019-10-31T08:53:13.000Z</time>
      </trkpt>
      <trkpt lat="47.26948" lon="-2.33302">
        <ele>14.39999961853</ele>
        <time>2019-10-31T08:53:21.000Z</time>
      </trkpt>
      <trkpt lat="47.26944" lon="-2.33291">
        <ele>14.39999961853</ele>
        <time>2019-10-31T08:53:23.000Z</time>
      </trkpt>
      <trkpt lat="47.26938" lon="-2.33275">
        <ele>14.39999961853</ele>
        <time>2019-10-31T08:53:26.000Z</time>
      </trkpt>
      <trkpt lat="47.26936" lon="-2.33269">
        <ele>14.39999961853</ele>
        <time>2019-10-31T08:53:27.000Z</time>
      </trkpt>
      <trkpt lat="47.26928" lon="-2.33233">
        <ele>14.39999961853</ele>
        <time>2019-10-31T08:53:34.000Z</time>
      </trkpt>
      <trkpt lat="47.26932" lon="-2.33218">
        <ele>14.39999961853</ele>
        <time>2019-10-31T08:53:35.000Z</time>
      </trkpt>
      <trkpt lat="47.26934" lon="-2.33214">
        <ele>14.39999961853</ele>
        <time>2019-10-31T08:53:38.000Z</time>
      </trkpt>
      <trkpt lat="47.26938" lon="-2.33211">
        <ele>14.39999961853</ele>
        <time>2019-10-31T08:53:39.000Z</time>
      </trkpt>
      <trkpt lat="47.26948" lon="-2.33206">
        <ele>14.39999961853</ele>
        <time>2019-10-31T08:53:41.000Z</time>
      </trkpt>
      <trkpt lat="47.26962" lon="-2.332">
        <ele>14.39999961853</ele>
        <time>2019-10-31T08:53:44.000Z</time>
      </trkpt>
      <trkpt lat="47.26973" lon="-2.33192">
        <ele>14.39999961853</ele>
        <time>2019-10-31T08:53:47.000Z</time>
      </trkpt>
      <trkpt lat="47.26976" lon="-2.33188">
        <ele>14.39999961853</ele>
        <time>2019-10-31T08:53:48.000Z</time>
      </trkpt>
      <trkpt lat="47.26984" lon="-2.33175">
        <ele>14.39999961853</ele>
        <time>2019-10-31T08:53:51.000Z</time>
      </trkpt>
      <trkpt lat="47.26991" lon="-2.33169">
        <ele>14.39999961853</ele>
        <time>2019-10-31T08:53:53.000Z</time>
      </trkpt>
      <trkpt lat="47.27002" lon="-2.33162">
        <ele>14.39999961853</ele>
        <time>2019-10-31T08:53:56.000Z</time>
      </trkpt>
      <trkpt lat="47.27019" lon="-2.33146">
        <ele>14.39999961853</ele>
        <time>2019-10-31T08:54:02.000Z</time>
      </trkpt>
      <trkpt lat="47.27029" lon="-2.33136">
        <ele>14.39999961853</ele>
        <time>2019-10-31T08:54:07.000Z</time>
      </trkpt>
      <trkpt lat="47.27039" lon="-2.33126">
        <ele>14.39999961853</ele>
        <time>2019-10-31T08:54:13.000Z</time>
      </trkpt>
      <trkpt lat="47.27052" lon="-2.33114">
        <ele>14.39999961853</ele>
        <time>2019-10-31T08:54:20.000Z</time>
      </trkpt>
      <trkpt lat="47.27061" lon="-2.33102">
        <ele>14.39999961853</ele>
        <time>2019-10-31T08:54:25.000Z</time>
      </trkpt>
      <trkpt lat="47.27061" lon="-2.33102">
        <ele>14.39999961853</ele>
        <time>2019-10-31T08:54:26.000Z</time>
      </trkpt>
      <trkpt lat="47.2708" lon="-2.33085">
        <ele>14.39999961853</ele>
        <time>2019-10-31T08:54:33.000Z</time>
      </trkpt>
      <trkpt lat="47.27088" lon="-2.33074">
        <ele>14.39999961853</ele>
        <time>2019-10-31T08:54:42.000Z</time>
      </trkpt>
      <trkpt lat="47.27102" lon="-2.33061">
        <ele>14.39999961853</ele>
        <time>2019-10-31T08:54:47.000Z</time>
      </trkpt>
      <trkpt lat="47.27126" lon="-2.33043">
        <ele>14.39999961853</ele>
        <time>2019-10-31T08:54:55.000Z</time>
      </trkpt>
      <trkpt lat="47.27144" lon="-2.3303">
        <ele>14.39999961853</ele>
        <time>2019-10-31T08:55:01.000Z</time>
      </trkpt>
      <trkpt lat="47.27165" lon="-2.33013">
        <ele>14.39999961853</ele>
        <time>2019-10-31T08:55:08.000Z</time>
      </trkpt>
      <trkpt lat="47.27183" lon="-2.33003">
        <ele>14.39999961853</ele>
        <time>2019-10-31T08:55:14.000Z</time>
      </trkpt>
      <trkpt lat="47.27202" lon="-2.32989">
        <ele>14.39999961853</ele>
        <time>2019-10-31T08:55:21.000Z</time>
      </trkpt>
      <trkpt lat="47.27217" lon="-2.32982">
        <ele>14.39999961853</ele>
        <time>2019-10-31T08:55:26.000Z</time>
      </trkpt>
      <trkpt lat="47.27219" lon="-2.32984">
        <ele>14.39999961853</ele>
        <time>2019-10-31T08:55:27.000Z</time>
      </trkpt>
      <trkpt lat="47.27226" lon="-2.32995">
        <ele>14.39999961853</ele>
        <time>2019-10-31T08:55:30.000Z</time>
      </trkpt>
      <trkpt lat="47.27242" lon="-2.33022">
        <ele>14.39999961853</ele>
        <time>2019-10-31T08:55:37.000Z</time>
      </trkpt>
      <trkpt lat="47.2726" lon="-2.3305">
        <ele>14.39999961853</ele>
        <time>2019-10-31T08:55:44.000Z</time>
      </trkpt>
      <trkpt lat="47.27263" lon="-2.33054">
        <ele>14.800000190735</ele>
        <time>2019-10-31T08:55:45.000Z</time>
      </trkpt>
      <trkpt lat="47.27265" lon="-2.33058">
        <ele>15.60000038147</ele>
        <time>2019-10-31T08:55:46.000Z</time>
      </trkpt>
      <trkpt lat="47.27268" lon="-2.33061">
        <ele>16</ele>
        <time>2019-10-31T08:55:47.000Z</time>
      </trkpt>
      <trkpt lat="47.2727" lon="-2.33065">
        <ele>16.39999961853</ele>
        <time>2019-10-31T08:55:48.000Z</time>
      </trkpt>
      <trkpt lat="47.27274" lon="-2.33071">
        <ele>16.39999961853</ele>
        <time>2019-10-31T08:55:50.000Z</time>
      </trkpt>
      <trkpt lat="47.27292" lon="-2.33096">
        <ele>16.39999961853</ele>
        <time>2019-10-31T08:55:58.000Z</time>
      </trkpt>
      <trkpt lat="47.27306" lon="-2.33114">
        <ele>16.39999961853</ele>
        <time>2019-10-31T08:56:06.000Z</time>
      </trkpt>
      <trkpt lat="47.27306" lon="-2.33115">
        <ele>16.39999961853</ele>
        <time>2019-10-31T08:56:08.000Z</time>
      </trkpt>
      <trkpt lat="47.27309" lon="-2.33114">
        <ele>16.39999961853</ele>
        <time>2019-10-31T08:59:49.000Z</time>
      </trkpt>
      <trkpt lat="47.2731" lon="-2.33113">
        <ele>16.39999961853</ele>
        <time>2019-10-31T08:59:50.000Z</time>
      </trkpt>
      <trkpt lat="47.27317" lon="-2.33104">
        <ele>16.39999961853</ele>
        <time>2019-10-31T08:59:54.000Z</time>
      </trkpt>
      <trkpt lat="47.27319" lon="-2.33099">
        <ele>16.39999961853</ele>
        <time>2019-10-31T08:59:55.000Z</time>
      </trkpt>
      <trkpt lat="47.27332" lon="-2.33067">
        <ele>16.39999961853</ele>
        <time>2019-10-31T09:00:01.000Z</time>
      </trkpt>
      <trkpt lat="47.27345" lon="-2.33027">
        <ele>16.39999961853</ele>
        <time>2019-10-31T09:00:07.000Z</time>
      </trkpt>
      <trkpt lat="47.27363" lon="-2.3298">
        <ele>16.39999961853</ele>
        <time>2019-10-31T09:00:15.000Z</time>
      </trkpt>
      <trkpt lat="47.2738" lon="-2.32943">
        <ele>16.39999961853</ele>
        <time>2019-10-31T09:00:22.000Z</time>
      </trkpt>
      <trkpt lat="47.27383" lon="-2.32938">
        <ele>16</ele>
        <time>2019-10-31T09:00:23.000Z</time>
      </trkpt>
      <trkpt lat="47.27386" lon="-2.32934">
        <ele>15.60000038147</ele>
        <time>2019-10-31T09:00:24.000Z</time>
      </trkpt>
      <trkpt lat="47.27388" lon="-2.32932">
        <ele>15</ele>
        <time>2019-10-31T09:00:25.000Z</time>
      </trkpt>
      <trkpt lat="47.27391" lon="-2.32929">
        <ele>14.60000038147</ele>
        <time>2019-10-31T09:00:26.000Z</time>
      </trkpt>
      <trkpt lat="47.27393" lon="-2.32924">
        <ele>14.199999809265</ele>
        <time>2019-10-31T09:00:27.000Z</time>
      </trkpt>
      <trkpt lat="47.27398" lon="-2.3291">
        <ele>14.199999809265</ele>
        <time>2019-10-31T09:00:30.000Z</time>
      </trkpt>
      <trkpt lat="47.27408" lon="-2.32887">
        <ele>14.199999809265</ele>
        <time>2019-10-31T09:00:35.000Z</time>
      </trkpt>
      <trkpt lat="47.27416" lon="-2.32866">
        <ele>14.199999809265</ele>
        <time>2019-10-31T09:00:40.000Z</time>
      </trkpt>
      <trkpt lat="47.27428" lon="-2.32828">
        <ele>14.199999809265</ele>
        <time>2019-10-31T09:00:46.000Z</time>
      </trkpt>
      <trkpt lat="47.27431" lon="-2.32814">
        <ele>13.800000190735</ele>
        <time>2019-10-31T09:00:48.000Z</time>
      </trkpt>
      <trkpt lat="47.27434" lon="-2.32792">
        <ele>12.39999961853</ele>
        <time>2019-10-31T09:00:49.000Z</time>
      </trkpt>
      <trkpt lat="47.27436" lon="-2.32785">
        <ele>12</ele>
        <time>2019-10-31T09:00:52.000Z</time>
      </trkpt>
      <trkpt lat="47.27445" lon="-2.32757">
        <ele>12</ele>
        <time>2019-10-31T09:00:54.000Z</time>
      </trkpt>
      <trkpt lat="47.27447" lon="-2.3275">
        <ele>11.39999961853</ele>
        <time>2019-10-31T09:00:57.000Z</time>
      </trkpt>
      <trkpt lat="47.2745" lon="-2.32742">
        <ele>11</ele>
        <time>2019-10-31T09:00:58.000Z</time>
      </trkpt>
      <trkpt lat="47.27452" lon="-2.32734">
        <ele>10.60000038147</ele>
        <time>2019-10-31T09:00:59.000Z</time>
      </trkpt>
      <trkpt lat="47.27456" lon="-2.32727">
        <ele>10.199999809265</ele>
        <time>2019-10-31T09:01:00.000Z</time>
      </trkpt>
      <trkpt lat="47.2746" lon="-2.32719">
        <ele>9.6000003814697</ele>
        <time>2019-10-31T09:01:01.000Z</time>
      </trkpt>
      <trkpt lat="47.27463" lon="-2.32713">
        <ele>9.6000003814697</ele>
        <time>2019-10-31T09:01:02.000Z</time>
      </trkpt>
      <trkpt lat="47.27466" lon="-2.32706">
        <ele>9.1999998092651</ele>
        <time>2019-10-31T09:01:03.000Z</time>
      </trkpt>
      <trkpt lat="47.2747" lon="-2.32699">
        <ele>8.8000001907349</ele>
        <time>2019-10-31T09:01:04.000Z</time>
      </trkpt>
      <trkpt lat="47.27473" lon="-2.32692">
        <ele>7.8000001907349</ele>
        <time>2019-10-31T09:01:05.000Z</time>
      </trkpt>
      <trkpt lat="47.27477" lon="-2.32687">
        <ele>7.4000000953674</ele>
        <time>2019-10-31T09:01:06.000Z</time>
      </trkpt>
      <trkpt lat="47.27481" lon="-2.32684">
        <ele>7.4000000953674</ele>
        <time>2019-10-31T09:01:07.000Z</time>
      </trkpt>
      <trkpt lat="47.27491" lon="-2.32677">
        <ele>6.8000001907349</ele>
        <time>2019-10-31T09:01:09.000Z</time>
      </trkpt>
      <trkpt lat="47.27496" lon="-2.32671">
        <ele>6.4000000953674</ele>
        <time>2019-10-31T09:01:10.000Z</time>
      </trkpt>
      <trkpt lat="47.27502" lon="-2.32665">
        <ele>5.8000001907349</ele>
        <time>2019-10-31T09:01:11.000Z</time>
      </trkpt>
      <trkpt lat="47.27506" lon="-2.32658">
        <ele>5.4000000953674</ele>
        <time>2019-10-31T09:01:12.000Z</time>
      </trkpt>
      <trkpt lat="47.2751" lon="-2.3265">
        <ele>4.8000001907349</ele>
        <time>2019-10-31T09:01:13.000Z</time>
      </trkpt>
      <trkpt lat="47.27516" lon="-2.32635">
        <ele>4.8000001907349</ele>
        <time>2019-10-31T09:01:15.000Z</time>
      </trkpt>
      <trkpt lat="47.27533" lon="-2.32616">
        <ele>4.8000001907349</ele>
        <time>2019-10-31T09:01:19.000Z</time>
      </trkpt>
      <trkpt lat="47.2755" lon="-2.32592">
        <ele>4.8000001907349</ele>
        <time>2019-10-31T09:01:23.000Z</time>
      </trkpt>
      <trkpt lat="47.27551" lon="-2.32571">
        <ele>4.8000001907349</ele>
        <time>2019-10-31T09:01:26.000Z</time>
      </trkpt>
      <trkpt lat="47.27541" lon="-2.32549">
        <ele>4.8000001907349</ele>
        <time>2019-10-31T09:01:30.000Z</time>
      </trkpt>
      <trkpt lat="47.27541" lon="-2.32543">
        <ele>4.8000001907349</ele>
        <time>2019-10-31T09:01:31.000Z</time>
      </trkpt>
      <trkpt lat="47.27541" lon="-2.32532">
        <ele>4.8000001907349</ele>
        <time>2019-10-31T09:01:33.000Z</time>
      </trkpt>
      <trkpt lat="47.27542" lon="-2.32526">
        <ele>5.4000000953674</ele>
        <time>2019-10-31T09:01:34.000Z</time>
      </trkpt>
      <trkpt lat="47.27543" lon="-2.32521">
        <ele>5.8000001907349</ele>
        <time>2019-10-31T09:01:35.000Z</time>
      </trkpt>
      <trkpt lat="47.27545" lon="-2.32516">
        <ele>6.1999998092651</ele>
        <time>2019-10-31T09:01:36.000Z</time>
      </trkpt>
      <trkpt lat="47.27546" lon="-2.32511">
        <ele>6.5999999046326</ele>
        <time>2019-10-31T09:01:37.000Z</time>
      </trkpt>
      <trkpt lat="47.27548" lon="-2.32507">
        <ele>7</ele>
        <time>2019-10-31T09:01:38.000Z</time>
      </trkpt>
      <trkpt lat="47.27549" lon="-2.32503">
        <ele>7.5999999046326</ele>
        <time>2019-10-31T09:01:39.000Z</time>
      </trkpt>
      <trkpt lat="47.2755" lon="-2.325">
        <ele>8</ele>
        <time>2019-10-31T09:01:40.000Z</time>
      </trkpt>
      <trkpt lat="47.2755" lon="-2.32497">
        <ele>8.3999996185303</ele>
        <time>2019-10-31T09:01:41.000Z</time>
      </trkpt>
      <trkpt lat="47.27552" lon="-2.32494">
        <ele>8.8000001907349</ele>
        <time>2019-10-31T09:01:42.000Z</time>
      </trkpt>
      <trkpt lat="47.27553" lon="-2.3249">
        <ele>9.1999998092651</ele>
        <time>2019-10-31T09:01:43.000Z</time>
      </trkpt>
      <trkpt lat="47.27556" lon="-2.3248">
        <ele>9.6000003814697</ele>
        <time>2019-10-31T09:01:45.000Z</time>
      </trkpt>
      <trkpt lat="47.27557" lon="-2.32474">
        <ele>10.199999809265</ele>
        <time>2019-10-31T09:01:46.000Z</time>
      </trkpt>
      <trkpt lat="47.27559" lon="-2.32468">
        <ele>10.60000038147</ele>
        <time>2019-10-31T09:01:47.000Z</time>
      </trkpt>
      <trkpt lat="47.2756" lon="-2.32462">
        <ele>11</ele>
        <time>2019-10-31T09:01:48.000Z</time>
      </trkpt>
      <trkpt lat="47.27561" lon="-2.32457">
        <ele>11.39999961853</ele>
        <time>2019-10-31T09:01:49.000Z</time>
      </trkpt>
      <trkpt lat="47.27572" lon="-2.32429">
        <ele>11.800000190735</ele>
        <time>2019-10-31T09:01:56.000Z</time>
      </trkpt>
      <trkpt lat="47.27574" lon="-2.32428">
        <ele>12.199999809265</ele>
        <time>2019-10-31T09:01:57.000Z</time>
      </trkpt>
      <trkpt lat="47.27574" lon="-2.32428">
        <ele>12.60000038147</ele>
        <time>2019-10-31T09:01:58.000Z</time>
      </trkpt>
      <trkpt lat="47.27575" lon="-2.32427">
        <ele>13</ele>
        <time>2019-10-31T09:01:59.000Z</time>
      </trkpt>
      <trkpt lat="47.27575" lon="-2.32427">
        <ele>13.39999961853</ele>
        <time>2019-10-31T09:02:00.000Z</time>
      </trkpt>
      <trkpt lat="47.2758" lon="-2.32425">
        <ele>13.39999961853</ele>
        <time>2019-10-31T09:02:05.000Z</time>
      </trkpt>
      <trkpt lat="47.27587" lon="-2.32429">
        <ele>13.39999961853</ele>
        <time>2019-10-31T09:02:07.000Z</time>
      </trkpt>
      <trkpt lat="47.27601" lon="-2.32444">
        <ele>13.39999961853</ele>
        <time>2019-10-31T09:02:09.000Z</time>
      </trkpt>
      <trkpt lat="47.27609" lon="-2.32453">
        <ele>13.39999961853</ele>
        <time>2019-10-31T09:02:13.000Z</time>
      </trkpt>
      <trkpt lat="47.27612" lon="-2.32459">
        <ele>13.39999961853</ele>
        <time>2019-10-31T09:02:14.000Z</time>
      </trkpt>
      <trkpt lat="47.27622" lon="-2.32483">
        <ele>14.199999809265</ele>
        <time>2019-10-31T09:02:18.000Z</time>
      </trkpt>
      <trkpt lat="47.27625" lon="-2.32489">
        <ele>14.60000038147</ele>
        <time>2019-10-31T09:02:19.000Z</time>
      </trkpt>
      <trkpt lat="47.27627" lon="-2.32496">
        <ele>15</ele>
        <time>2019-10-31T09:02:20.000Z</time>
      </trkpt>
      <trkpt lat="47.27628" lon="-2.32503">
        <ele>15.39999961853</ele>
        <time>2019-10-31T09:02:21.000Z</time>
      </trkpt>
      <trkpt lat="47.27635" lon="-2.32536">
        <ele>15.39999961853</ele>
        <time>2019-10-31T09:02:25.000Z</time>
      </trkpt>
      <trkpt lat="47.27647" lon="-2.32585">
        <ele>15</ele>
        <time>2019-10-31T09:02:30.000Z</time>
      </trkpt>
      <trkpt lat="47.2765" lon="-2.32596">
        <ele>14.39999961853</ele>
        <time>2019-10-31T09:02:31.000Z</time>
      </trkpt>
      <trkpt lat="47.27654" lon="-2.32607">
        <ele>14</ele>
        <time>2019-10-31T09:02:32.000Z</time>
      </trkpt>
      <trkpt lat="47.27658" lon="-2.32619">
        <ele>13.39999961853</ele>
        <time>2019-10-31T09:02:33.000Z</time>
      </trkpt>
      <trkpt lat="47.27663" lon="-2.3263">
        <ele>13</ele>
        <time>2019-10-31T09:02:34.000Z</time>
      </trkpt>
      <trkpt lat="47.27667" lon="-2.32642">
        <ele>12.39999961853</ele>
        <time>2019-10-31T09:02:35.000Z</time>
      </trkpt>
      <trkpt lat="47.27672" lon="-2.32653">
        <ele>12</ele>
        <time>2019-10-31T09:02:36.000Z</time>
      </trkpt>
      <trkpt lat="47.27677" lon="-2.32663">
        <ele>11.39999961853</ele>
        <time>2019-10-31T09:02:37.000Z</time>
      </trkpt>
      <trkpt lat="47.27681" lon="-2.32673">
        <ele>10.800000190735</ele>
        <time>2019-10-31T09:02:38.000Z</time>
      </trkpt>
      <trkpt lat="47.27685" lon="-2.3268">
        <ele>10.199999809265</ele>
        <time>2019-10-31T09:02:39.000Z</time>
      </trkpt>
      <trkpt lat="47.27689" lon="-2.32686">
        <ele>9.6000003814697</ele>
        <time>2019-10-31T09:02:40.000Z</time>
      </trkpt>
      <trkpt lat="47.27692" lon="-2.32692">
        <ele>9</ele>
        <time>2019-10-31T09:02:41.000Z</time>
      </trkpt>
      <trkpt lat="47.27695" lon="-2.32697">
        <ele>7.4000000953674</ele>
        <time>2019-10-31T09:02:42.000Z</time>
      </trkpt>
      <trkpt lat="47.27698" lon="-2.32702">
        <ele>6.5999999046326</ele>
        <time>2019-10-31T09:02:43.000Z</time>
      </trkpt>
      <trkpt lat="47.27702" lon="-2.32707">
        <ele>6</ele>
        <time>2019-10-31T09:02:44.000Z</time>
      </trkpt>
      <trkpt lat="47.27704" lon="-2.32712">
        <ele>6</ele>
        <time>2019-10-31T09:02:45.000Z</time>
      </trkpt>
      <trkpt lat="47.27704" lon="-2.32716">
        <ele>6</ele>
        <time>2019-10-31T09:02:46.000Z</time>
      </trkpt>
      <trkpt lat="47.27702" lon="-2.32722">
        <ele>6</ele>
        <time>2019-10-31T09:02:48.000Z</time>
      </trkpt>
      <trkpt lat="47.27691" lon="-2.32729">
        <ele>6</ele>
        <time>2019-10-31T09:02:52.000Z</time>
      </trkpt>
      <trkpt lat="47.2769" lon="-2.3273">
        <ele>6</ele>
        <time>2019-10-31T09:02:55.000Z</time>
      </trkpt>
      <trkpt lat="47.27688" lon="-2.32731">
        <ele>5.5999999046326</ele>
        <time>2019-10-31T09:02:56.000Z</time>
      </trkpt>
      <trkpt lat="47.27687" lon="-2.32732">
        <ele>5.1999998092651</ele>
        <time>2019-10-31T09:02:57.000Z</time>
      </trkpt>
      <trkpt lat="47.27685" lon="-2.32733">
        <ele>4.5999999046326</ele>
        <time>2019-10-31T09:02:58.000Z</time>
      </trkpt>
      <trkpt lat="47.27683" lon="-2.32733">
        <ele>4.1999998092651</ele>
        <time>2019-10-31T09:02:59.000Z</time>
      </trkpt>
      <trkpt lat="47.2768" lon="-2.32732">
        <ele>3.7999999523163</ele>
        <time>2019-10-31T09:03:00.000Z</time>
      </trkpt>
      <trkpt lat="47.27667" lon="-2.32724">
        <ele>3.7999999523163</ele>
        <time>2019-10-31T09:03:04.000Z</time>
      </trkpt>
      <trkpt lat="47.2766" lon="-2.3272">
        <ele>3.7999999523163</ele>
        <time>2019-10-31T09:03:06.000Z</time>
      </trkpt>
      <trkpt lat="47.27642" lon="-2.32711">
        <ele>3.7999999523163</ele>
        <time>2019-10-31T09:03:11.000Z</time>
      </trkpt>
      <trkpt lat="47.27628" lon="-2.32696">
        <ele>3.7999999523163</ele>
        <time>2019-10-31T09:03:16.000Z</time>
      </trkpt>
      <trkpt lat="47.27626" lon="-2.32695">
        <ele>3.7999999523163</ele>
        <time>2019-10-31T09:03:17.000Z</time>
      </trkpt>
      <trkpt lat="47.27616" lon="-2.32696">
        <ele>3.7999999523163</ele>
        <time>2019-10-31T09:03:20.000Z</time>
      </trkpt>
      <trkpt lat="47.27606" lon="-2.32711">
        <ele>3.7999999523163</ele>
        <time>2019-10-31T09:03:24.000Z</time>
      </trkpt>
      <trkpt lat="47.27604" lon="-2.32715">
        <ele>3.7999999523163</ele>
        <time>2019-10-31T09:03:25.000Z</time>
      </trkpt>
      <trkpt lat="47.27595" lon="-2.32735">
        <ele>3.7999999523163</ele>
        <time>2019-10-31T09:03:30.000Z</time>
      </trkpt>
      <trkpt lat="47.27595" lon="-2.32743">
        <ele>4.1999998092651</ele>
        <time>2019-10-31T09:03:32.000Z</time>
      </trkpt>
      <trkpt lat="47.27594" lon="-2.32747">
        <ele>4.8000001907349</ele>
        <time>2019-10-31T09:03:33.000Z</time>
      </trkpt>
      <trkpt lat="47.27593" lon="-2.3275">
        <ele>5.1999998092651</ele>
        <time>2019-10-31T09:03:34.000Z</time>
      </trkpt>
      <trkpt lat="47.27593" lon="-2.32753">
        <ele>5.5999999046326</ele>
        <time>2019-10-31T09:03:35.000Z</time>
      </trkpt>
      <trkpt lat="47.27592" lon="-2.32755">
        <ele>6.1999998092651</ele>
        <time>2019-10-31T09:03:36.000Z</time>
      </trkpt>
      <trkpt lat="47.27592" lon="-2.32758">
        <ele>6.5999999046326</ele>
        <time>2019-10-31T09:03:37.000Z</time>
      </trkpt>
      <trkpt lat="47.27592" lon="-2.32761">
        <ele>7.1999998092651</ele>
        <time>2019-10-31T09:03:38.000Z</time>
      </trkpt>
      <trkpt lat="47.27591" lon="-2.32764">
        <ele>7.5999999046326</ele>
        <time>2019-10-31T09:03:39.000Z</time>
      </trkpt>
      <trkpt lat="47.2759" lon="-2.32768">
        <ele>8.1999998092651</ele>
        <time>2019-10-31T09:03:40.000Z</time>
      </trkpt>
      <trkpt lat="47.27578" lon="-2.32803">
        <ele>9</ele>
        <time>2019-10-31T09:03:47.000Z</time>
      </trkpt>
      <trkpt lat="47.27576" lon="-2.32806">
        <ele>9.6000003814697</ele>
        <time>2019-10-31T09:03:50.000Z</time>
      </trkpt>
      <trkpt lat="47.27574" lon="-2.3281">
        <ele>10</ele>
        <time>2019-10-31T09:03:51.000Z</time>
      </trkpt>
      <trkpt lat="47.27572" lon="-2.32814">
        <ele>10.39999961853</ele>
        <time>2019-10-31T09:03:52.000Z</time>
      </trkpt>
      <trkpt lat="47.27569" lon="-2.32821">
        <ele>10.39999961853</ele>
        <time>2019-10-31T09:03:55.000Z</time>
      </trkpt>
      <trkpt lat="47.27563" lon="-2.32834">
        <ele>10.39999961853</ele>
        <time>2019-10-31T09:04:00.000Z</time>
      </trkpt>
      <trkpt lat="47.27547" lon="-2.32849">
        <ele>10.39999961853</ele>
        <time>2019-10-31T09:04:05.000Z</time>
      </trkpt>
      <trkpt lat="47.27545" lon="-2.32859">
        <ele>10.39999961853</ele>
        <time>2019-10-31T09:04:07.000Z</time>
      </trkpt>
      <trkpt lat="47.27547" lon="-2.32863">
        <ele>10.800000190735</ele>
        <time>2019-10-31T09:04:08.000Z</time>
      </trkpt>
      <trkpt lat="47.27548" lon="-2.32866">
        <ele>11.199999809265</ele>
        <time>2019-10-31T09:04:09.000Z</time>
      </trkpt>
      <trkpt lat="47.2755" lon="-2.32869">
        <ele>11.60000038147</ele>
        <time>2019-10-31T09:04:10.000Z</time>
      </trkpt>
      <trkpt lat="47.27552" lon="-2.32871">
        <ele>12</ele>
        <time>2019-10-31T09:04:11.000Z</time>
      </trkpt>
      <trkpt lat="47.27553" lon="-2.32873">
        <ele>12.39999961853</ele>
        <time>2019-10-31T09:04:12.000Z</time>
      </trkpt>
      <trkpt lat="47.27559" lon="-2.32885">
        <ele>12.39999961853</ele>
        <time>2019-10-31T09:04:19.000Z</time>
      </trkpt>
      <trkpt lat="47.27563" lon="-2.32892">
        <ele>12.39999961853</ele>
        <time>2019-10-31T09:04:23.000Z</time>
      </trkpt>
      <trkpt lat="47.27567" lon="-2.32893">
        <ele>12.39999961853</ele>
        <time>2019-10-31T09:04:25.000Z</time>
      </trkpt>
      <trkpt lat="47.27573" lon="-2.32894">
        <ele>12.39999961853</ele>
        <time>2019-10-31T09:04:31.000Z</time>
      </trkpt>
      <trkpt lat="47.27579" lon="-2.329">
        <ele>12.39999961853</ele>
        <time>2019-10-31T09:04:41.000Z</time>
      </trkpt>
      <trkpt lat="47.27587" lon="-2.32907">
        <ele>13.800000190735</ele>
        <time>2019-10-31T09:04:42.000Z</time>
      </trkpt>
      <trkpt lat="47.27587" lon="-2.32907">
        <ele>13.800000190735</ele>
        <time>2019-10-31T09:04:44.000Z</time>
      </trkpt>
      <trkpt lat="47.2759" lon="-2.32909">
        <ele>14.199999809265</ele>
        <time>2019-10-31T09:04:45.000Z</time>
      </trkpt>
      <trkpt lat="47.27594" lon="-2.32913">
        <ele>14.60000038147</ele>
        <time>2019-10-31T09:04:46.000Z</time>
      </trkpt>
      <trkpt lat="47.27611" lon="-2.32928">
        <ele>14.60000038147</ele>
        <time>2019-10-31T09:04:51.000Z</time>
      </trkpt>
      <trkpt lat="47.27637" lon="-2.32952">
        <ele>14.60000038147</ele>
        <time>2019-10-31T09:05:00.000Z</time>
      </trkpt>
      <trkpt lat="47.27661" lon="-2.32975">
        <ele>14.60000038147</ele>
        <time>2019-10-31T09:05:09.000Z</time>
      </trkpt>
      <trkpt lat="47.27675" lon="-2.32986">
        <ele>14.60000038147</ele>
        <time>2019-10-31T09:05:13.000Z</time>
      </trkpt>
      <trkpt lat="47.27695" lon="-2.33">
        <ele>14.60000038147</ele>
        <time>2019-10-31T09:05:19.000Z</time>
      </trkpt>
      <trkpt lat="47.2772" lon="-2.32991">
        <ele>14.60000038147</ele>
        <time>2019-10-31T09:05:25.000Z</time>
      </trkpt>
      <trkpt lat="47.2772" lon="-2.32984">
        <ele>14.60000038147</ele>
        <time>2019-10-31T09:05:29.000Z</time>
      </trkpt>
      <trkpt lat="47.27727" lon="-2.32971">
        <ele>14.60000038147</ele>
        <time>2019-10-31T09:05:32.000Z</time>
      </trkpt>
      <trkpt lat="47.27729" lon="-2.32997">
        <ele>14.60000038147</ele>
        <time>2019-10-31T09:05:34.000Z</time>
      </trkpt>
      <trkpt lat="47.27729" lon="-2.32997">
        <ele>14.60000038147</ele>
        <time>2019-10-31T09:05:36.000Z</time>
      </trkpt>
      <trkpt lat="47.27729" lon="-2.33024">
        <ele>14.60000038147</ele>
        <time>2019-10-31T09:05:42.000Z</time>
      </trkpt>
      <trkpt lat="47.27728" lon="-2.33025">
        <ele>14.60000038147</ele>
        <time>2019-10-31T09:05:44.000Z</time>
      </trkpt>
      <trkpt lat="47.27734" lon="-2.33041">
        <ele>14.60000038147</ele>
        <time>2019-10-31T09:06:17.000Z</time>
      </trkpt>
      <trkpt lat="47.27743" lon="-2.33047">
        <ele>14.60000038147</ele>
        <time>2019-10-31T09:06:21.000Z</time>
      </trkpt>
      <trkpt lat="47.27746" lon="-2.33049">
        <ele>14.60000038147</ele>
        <time>2019-10-31T09:06:22.000Z</time>
      </trkpt>
      <trkpt lat="47.27751" lon="-2.33054">
        <ele>14.60000038147</ele>
        <time>2019-10-31T09:06:24.000Z</time>
      </trkpt>
      <trkpt lat="47.27754" lon="-2.33062">
        <ele>14.60000038147</ele>
        <time>2019-10-31T09:06:26.000Z</time>
      </trkpt>
      <trkpt lat="47.27756" lon="-2.33085">
        <ele>14.60000038147</ele>
        <time>2019-10-31T09:06:30.000Z</time>
      </trkpt>
      <trkpt lat="47.27757" lon="-2.33091">
        <ele>14.60000038147</ele>
        <time>2019-10-31T09:06:31.000Z</time>
      </trkpt>
      <trkpt lat="47.2776" lon="-2.3312">
        <ele>14.60000038147</ele>
        <time>2019-10-31T09:06:36.000Z</time>
      </trkpt>
      <trkpt lat="47.27763" lon="-2.33133">
        <ele>14.60000038147</ele>
        <time>2019-10-31T09:06:38.000Z</time>
      </trkpt>
      <trkpt lat="47.27769" lon="-2.3315">
        <ele>14.60000038147</ele>
        <time>2019-10-31T09:06:41.000Z</time>
      </trkpt>
      <trkpt lat="47.27766" lon="-2.33168">
        <ele>14.60000038147</ele>
        <time>2019-10-31T09:06:44.000Z</time>
      </trkpt>
      <trkpt lat="47.27757" lon="-2.33169">
        <ele>14.60000038147</ele>
        <time>2019-10-31T09:06:47.000Z</time>
      </trkpt>
      <trkpt lat="47.27755" lon="-2.33153">
        <ele>14.60000038147</ele>
        <time>2019-10-31T09:06:50.000Z</time>
      </trkpt>
      <trkpt lat="47.27764" lon="-2.33141">
        <ele>14.60000038147</ele>
        <time>2019-10-31T09:06:53.000Z</time>
      </trkpt>
      <trkpt lat="47.27772" lon="-2.33138">
        <ele>14.60000038147</ele>
        <time>2019-10-31T09:06:55.000Z</time>
      </trkpt>
      <trkpt lat="47.2778" lon="-2.33132">
        <ele>14.60000038147</ele>
        <time>2019-10-31T09:06:57.000Z</time>
      </trkpt>
      <trkpt lat="47.27785" lon="-2.33128">
        <ele>14.60000038147</ele>
        <time>2019-10-31T09:06:58.000Z</time>
      </trkpt>
      <trkpt lat="47.27809" lon="-2.33099">
        <ele>14.60000038147</ele>
        <time>2019-10-31T09:07:04.000Z</time>
      </trkpt>
      <trkpt lat="47.27837" lon="-2.33068">
        <ele>14.199999809265</ele>
        <time>2019-10-31T09:07:10.000Z</time>
      </trkpt>
      <trkpt lat="47.27843" lon="-2.33063">
        <ele>13.800000190735</ele>
        <time>2019-10-31T09:07:11.000Z</time>
      </trkpt>
      <trkpt lat="47.27848" lon="-2.33058">
        <ele>13.39999961853</ele>
        <time>2019-10-31T09:07:12.000Z</time>
      </trkpt>
      <trkpt lat="47.27854" lon="-2.33053">
        <ele>13</ele>
        <time>2019-10-31T09:07:13.000Z</time>
      </trkpt>
      <trkpt lat="47.2786" lon="-2.33046">
        <ele>12.60000038147</ele>
        <time>2019-10-31T09:07:14.000Z</time>
      </trkpt>
      <trkpt lat="47.27865" lon="-2.33039">
        <ele>12.199999809265</ele>
        <time>2019-10-31T09:07:15.000Z</time>
      </trkpt>
      <trkpt lat="47.27871" lon="-2.33031">
        <ele>11.60000038147</ele>
        <time>2019-10-31T09:07:16.000Z</time>
      </trkpt>
      <trkpt lat="47.27876" lon="-2.33023">
        <ele>11.199999809265</ele>
        <time>2019-10-31T09:07:17.000Z</time>
      </trkpt>
      <trkpt lat="47.27881" lon="-2.33014">
        <ele>10.800000190735</ele>
        <time>2019-10-31T09:07:18.000Z</time>
      </trkpt>
      <trkpt lat="47.27885" lon="-2.33004">
        <ele>10.39999961853</ele>
        <time>2019-10-31T09:07:19.000Z</time>
      </trkpt>
      <trkpt lat="47.27898" lon="-2.32976">
        <ele>10</ele>
        <time>2019-10-31T09:07:22.000Z</time>
      </trkpt>
      <trkpt lat="47.27901" lon="-2.32967">
        <ele>9.6000003814697</ele>
        <time>2019-10-31T09:07:23.000Z</time>
      </trkpt>
      <trkpt lat="47.27904" lon="-2.32958">
        <ele>9.1999998092651</ele>
        <time>2019-10-31T09:07:24.000Z</time>
      </trkpt>
      <trkpt lat="47.27907" lon="-2.3295">
        <ele>8.8000001907349</ele>
        <time>2019-10-31T09:07:25.000Z</time>
      </trkpt>
      <trkpt lat="47.27909" lon="-2.32942">
        <ele>8.3999996185303</ele>
        <time>2019-10-31T09:07:26.000Z</time>
      </trkpt>
      <trkpt lat="47.27916" lon="-2.32916">
        <ele>8.3999996185303</ele>
        <time>2019-10-31T09:07:29.000Z</time>
      </trkpt>
      <trkpt lat="47.27925" lon="-2.32872">
        <ele>8.3999996185303</ele>
        <time>2019-10-31T09:07:34.000Z</time>
      </trkpt>
      <trkpt lat="47.27935" lon="-2.32827">
        <ele>8.8000001907349</ele>
        <time>2019-10-31T09:07:40.000Z</time>
      </trkpt>
      <trkpt lat="47.27936" lon="-2.32821">
        <ele>9.1999998092651</ele>
        <time>2019-10-31T09:07:41.000Z</time>
      </trkpt>
      <trkpt lat="47.27941" lon="-2.32801">
        <ele>10.60000038147</ele>
        <time>2019-10-31T09:07:42.000Z</time>
      </trkpt>
      <trkpt lat="47.27947" lon="-2.3278">
        <ele>11</ele>
        <time>2019-10-31T09:07:48.000Z</time>
      </trkpt>
      <trkpt lat="47.2795" lon="-2.32773">
        <ele>11.39999961853</ele>
        <time>2019-10-31T09:07:49.000Z</time>
      </trkpt>
      <trkpt lat="47.27952" lon="-2.32765">
        <ele>11.800000190735</ele>
        <time>2019-10-31T09:07:50.000Z</time>
      </trkpt>
      <trkpt lat="47.2796" lon="-2.32743">
        <ele>12.60000038147</ele>
        <time>2019-10-31T09:07:51.000Z</time>
      </trkpt>
      <trkpt lat="47.27979" lon="-2.32698">
        <ele>12.60000038147</ele>
        <time>2019-10-31T09:07:59.000Z</time>
      </trkpt>
      <trkpt lat="47.28002" lon="-2.32643">
        <ele>12.60000038147</ele>
        <time>2019-10-31T09:08:07.000Z</time>
      </trkpt>
      <trkpt lat="47.28016" lon="-2.32611">
        <ele>12.60000038147</ele>
        <time>2019-10-31T09:08:10.000Z</time>
      </trkpt>
      <trkpt lat="47.28024" lon="-2.32593">
        <ele>12.60000038147</ele>
        <time>2019-10-31T09:08:15.000Z</time>
      </trkpt>
      <trkpt lat="47.28045" lon="-2.32546">
        <ele>12.60000038147</ele>
        <time>2019-10-31T09:08:22.000Z</time>
      </trkpt>
      <trkpt lat="47.2807" lon="-2.32495">
        <ele>12.60000038147</ele>
        <time>2019-10-31T09:08:30.000Z</time>
      </trkpt>
      <trkpt lat="47.28087" lon="-2.32466">
        <ele>12.60000038147</ele>
        <time>2019-10-31T09:08:35.000Z</time>
      </trkpt>
      <trkpt lat="47.281" lon="-2.32444">
        <ele>12.60000038147</ele>
        <time>2019-10-31T09:08:40.000Z</time>
      </trkpt>
      <trkpt lat="47.28103" lon="-2.32444">
        <ele>12.60000038147</ele>
        <time>2019-10-31T09:08:41.000Z</time>
      </trkpt>
      <trkpt lat="47.28114" lon="-2.32448">
        <ele>12.60000038147</ele>
        <time>2019-10-31T09:08:44.000Z</time>
      </trkpt>
      <trkpt lat="47.28132" lon="-2.32451">
        <ele>12.60000038147</ele>
        <time>2019-10-31T09:08:48.000Z</time>
      </trkpt>
      <trkpt lat="47.28184" lon="-2.32446">
        <ele>12.60000038147</ele>
        <time>2019-10-31T09:08:58.000Z</time>
      </trkpt>
      <trkpt lat="47.28196" lon="-2.32447">
        <ele>12.60000038147</ele>
        <time>2019-10-31T09:09:00.000Z</time>
      </trkpt>
      <trkpt lat="47.28209" lon="-2.32452">
        <ele>12.60000038147</ele>
        <time>2019-10-31T09:09:02.000Z</time>
      </trkpt>
      <trkpt lat="47.2823" lon="-2.32474">
        <ele>12.60000038147</ele>
        <time>2019-10-31T09:09:06.000Z</time>
      </trkpt>
      <trkpt lat="47.28234" lon="-2.32481">
        <ele>12.60000038147</ele>
        <time>2019-10-31T09:09:07.000Z</time>
      </trkpt>
      <trkpt lat="47.28253" lon="-2.32505">
        <ele>12.60000038147</ele>
        <time>2019-10-31T09:09:11.000Z</time>
      </trkpt>
      <trkpt lat="47.28258" lon="-2.3251">
        <ele>12.199999809265</ele>
        <time>2019-10-31T09:09:12.000Z</time>
      </trkpt>
      <trkpt lat="47.28261" lon="-2.32514">
        <ele>11.800000190735</ele>
        <time>2019-10-31T09:09:13.000Z</time>
      </trkpt>
      <trkpt lat="47.28266" lon="-2.32516">
        <ele>11.39999961853</ele>
        <time>2019-10-31T09:09:14.000Z</time>
      </trkpt>
      <trkpt lat="47.28271" lon="-2.32516">
        <ele>11</ele>
        <time>2019-10-31T09:09:15.000Z</time>
      </trkpt>
      <trkpt lat="47.28277" lon="-2.32517">
        <ele>10.60000038147</ele>
        <time>2019-10-31T09:09:16.000Z</time>
      </trkpt>
      <trkpt lat="47.28304" lon="-2.32517">
        <ele>10.60000038147</ele>
        <time>2019-10-31T09:09:19.000Z</time>
      </trkpt>
      <trkpt lat="47.28346" lon="-2.32521">
        <ele>10.60000038147</ele>
        <time>2019-10-31T09:09:29.000Z</time>
      </trkpt>
      <trkpt lat="47.28354" lon="-2.32527">
        <ele>10.60000038147</ele>
        <time>2019-10-31T09:09:32.000Z</time>
      </trkpt>
      <trkpt lat="47.28356" lon="-2.32529">
        <ele>10.60000038147</ele>
        <time>2019-10-31T09:09:33.000Z</time>
      </trkpt>
      <trkpt lat="47.28355" lon="-2.32534">
        <ele>10.60000038147</ele>
        <time>2019-10-31T09:09:34.000Z</time>
      </trkpt>
      <trkpt lat="47.28354" lon="-2.32545">
        <ele>10.60000038147</ele>
        <time>2019-10-31T09:09:36.000Z</time>
      </trkpt>
      <trkpt lat="47.28352" lon="-2.32554">
        <ele>10.60000038147</ele>
        <time>2019-10-31T09:09:38.000Z</time>
      </trkpt>
      <trkpt lat="47.28353" lon="-2.32555">
        <ele>10.60000038147</ele>
        <time>2019-10-31T09:09:39.000Z</time>
      </trkpt>
      <trkpt lat="47.28353" lon="-2.32558">
        <ele>10.60000038147</ele>
        <time>2019-10-31T09:09:40.000Z</time>
      </trkpt>
      <trkpt lat="47.28354" lon="-2.32572">
        <ele>10.60000038147</ele>
        <time>2019-10-31T09:09:45.000Z</time>
      </trkpt>
      <trkpt lat="47.28362" lon="-2.32574">
        <ele>10.60000038147</ele>
        <time>2019-10-31T09:09:48.000Z</time>
      </trkpt>
      <trkpt lat="47.28371" lon="-2.32571">
        <ele>10.60000038147</ele>
        <time>2019-10-31T09:09:51.000Z</time>
      </trkpt>
      <trkpt lat="47.28376" lon="-2.32574">
        <ele>10.60000038147</ele>
        <time>2019-10-31T09:09:53.000Z</time>
      </trkpt>
      <trkpt lat="47.28378" lon="-2.32576">
        <ele>10.60000038147</ele>
        <time>2019-10-31T09:09:54.000Z</time>
      </trkpt>
      <trkpt lat="47.2839" lon="-2.32597">
        <ele>10.60000038147</ele>
        <time>2019-10-31T09:09:59.000Z</time>
      </trkpt>
      <trkpt lat="47.284" lon="-2.3261">
        <ele>10.60000038147</ele>
        <time>2019-10-31T09:10:02.000Z</time>
      </trkpt>
      <trkpt lat="47.28398" lon="-2.32639">
        <ele>10.60000038147</ele>
        <time>2019-10-31T09:10:06.000Z</time>
      </trkpt>
      <trkpt lat="47.28383" lon="-2.32722">
        <ele>10.60000038147</ele>
        <time>2019-10-31T09:10:14.000Z</time>
      </trkpt>
      <trkpt lat="47.28365" lon="-2.32801">
        <ele>10.60000038147</ele>
        <time>2019-10-31T09:10:25.000Z</time>
      </trkpt>
      <trkpt lat="47.28363" lon="-2.32846">
        <ele>10.60000038147</ele>
        <time>2019-10-31T09:10:30.000Z</time>
      </trkpt>
      <trkpt lat="47.28364" lon="-2.3291">
        <ele>10.60000038147</ele>
        <time>2019-10-31T09:10:37.000Z</time>
      </trkpt>
      <trkpt lat="47.28355" lon="-2.32939">
        <ele>10.60000038147</ele>
        <time>2019-10-31T09:10:41.000Z</time>
      </trkpt>
      <trkpt lat="47.28332" lon="-2.32959">
        <ele>10.60000038147</ele>
        <time>2019-10-31T09:10:45.000Z</time>
      </trkpt>
      <trkpt lat="47.28314" lon="-2.32971">
        <ele>10.60000038147</ele>
        <time>2019-10-31T09:10:48.000Z</time>
      </trkpt>
      <trkpt lat="47.28295" lon="-2.32986">
        <ele>10.60000038147</ele>
        <time>2019-10-31T09:10:51.000Z</time>
      </trkpt>
      <trkpt lat="47.28272" lon="-2.33004">
        <ele>10.60000038147</ele>
        <time>2019-10-31T09:10:55.000Z</time>
      </trkpt>
      <trkpt lat="47.28266" lon="-2.33007">
        <ele>10.199999809265</ele>
        <time>2019-10-31T09:10:56.000Z</time>
      </trkpt>
      <trkpt lat="47.2826" lon="-2.33012">
        <ele>9.3999996185303</ele>
        <time>2019-10-31T09:10:57.000Z</time>
      </trkpt>
      <trkpt lat="47.28254" lon="-2.33016">
        <ele>9</ele>
        <time>2019-10-31T09:10:58.000Z</time>
      </trkpt>
      <trkpt lat="47.28248" lon="-2.3302">
        <ele>8.6000003814697</ele>
        <time>2019-10-31T09:10:59.000Z</time>
      </trkpt>
      <trkpt lat="47.28232" lon="-2.33031">
        <ele>8.6000003814697</ele>
        <time>2019-10-31T09:11:02.000Z</time>
      </trkpt>
      <trkpt lat="47.28227" lon="-2.33036">
        <ele>8.6000003814697</ele>
        <time>2019-10-31T09:11:03.000Z</time>
      </trkpt>
      <trkpt lat="47.28218" lon="-2.33048">
        <ele>8.6000003814697</ele>
        <time>2019-10-31T09:11:05.000Z</time>
      </trkpt>
      <trkpt lat="47.28206" lon="-2.3307">
        <ele>8.6000003814697</ele>
        <time>2019-10-31T09:11:08.000Z</time>
      </trkpt>
      <trkpt lat="47.28202" lon="-2.33078">
        <ele>8.6000003814697</ele>
        <time>2019-10-31T09:11:09.000Z</time>
      </trkpt>
      <trkpt lat="47.28185" lon="-2.33136">
        <ele>8.6000003814697</ele>
        <time>2019-10-31T09:11:15.000Z</time>
      </trkpt>
      <trkpt lat="47.28187" lon="-2.33195">
        <ele>8.6000003814697</ele>
        <time>2019-10-31T09:11:21.000Z</time>
      </trkpt>
      <trkpt lat="47.28185" lon="-2.33233">
        <ele>8.6000003814697</ele>
        <time>2019-10-31T09:11:25.000Z</time>
      </trkpt>
      <trkpt lat="47.28184" lon="-2.33243">
        <ele>8.6000003814697</ele>
        <time>2019-10-31T09:11:26.000Z</time>
      </trkpt>
      <trkpt lat="47.28176" lon="-2.33297">
        <ele>8.6000003814697</ele>
        <time>2019-10-31T09:11:32.000Z</time>
      </trkpt>
      <trkpt lat="47.2817" lon="-2.33321">
        <ele>8.6000003814697</ele>
        <time>2019-10-31T09:11:33.000Z</time>
      </trkpt>
      <trkpt lat="47.28161" lon="-2.33344">
        <ele>8.6000003814697</ele>
        <time>2019-10-31T09:11:39.000Z</time>
      </trkpt>
      <trkpt lat="47.28143" lon="-2.33378">
        <ele>9</ele>
        <time>2019-10-31T09:11:44.000Z</time>
      </trkpt>
      <trkpt lat="47.2814" lon="-2.33385">
        <ele>9.8000001907349</ele>
        <time>2019-10-31T09:11:45.000Z</time>
      </trkpt>
      <trkpt lat="47.28137" lon="-2.33392">
        <ele>10.199999809265</ele>
        <time>2019-10-31T09:11:46.000Z</time>
      </trkpt>
      <trkpt lat="47.28133" lon="-2.33399">
        <ele>10.60000038147</ele>
        <time>2019-10-31T09:11:47.000Z</time>
      </trkpt>
      <trkpt lat="47.28113" lon="-2.33442">
        <ele>10.60000038147</ele>
        <time>2019-10-31T09:11:53.000Z</time>
      </trkpt>
      <trkpt lat="47.28085" lon="-2.33502">
        <ele>10.60000038147</ele>
        <time>2019-10-31T09:12:00.000Z</time>
      </trkpt>
      <trkpt lat="47.28075" lon="-2.33518">
        <ele>10.60000038147</ele>
        <time>2019-10-31T09:12:07.000Z</time>
      </trkpt>
      <trkpt lat="47.28074" lon="-2.33524">
        <ele>10.60000038147</ele>
        <time>2019-10-31T09:12:09.000Z</time>
      </trkpt>
      <trkpt lat="47.28075" lon="-2.33532">
        <ele>10.60000038147</ele>
        <time>2019-10-31T09:12:11.000Z</time>
      </trkpt>
      <trkpt lat="47.28079" lon="-2.33554">
        <ele>10.60000038147</ele>
        <time>2019-10-31T09:12:16.000Z</time>
      </trkpt>
      <trkpt lat="47.28084" lon="-2.3358">
        <ele>10.60000038147</ele>
        <time>2019-10-31T09:12:21.000Z</time>
      </trkpt>
      <trkpt lat="47.28089" lon="-2.33598">
        <ele>11</ele>
        <time>2019-10-31T09:12:24.000Z</time>
      </trkpt>
      <trkpt lat="47.2809" lon="-2.33603">
        <ele>11.39999961853</ele>
        <time>2019-10-31T09:12:25.000Z</time>
      </trkpt>
      <trkpt lat="47.28091" lon="-2.3361">
        <ele>11.800000190735</ele>
        <time>2019-10-31T09:12:26.000Z</time>
      </trkpt>
      <trkpt lat="47.28091" lon="-2.33615">
        <ele>12.199999809265</ele>
        <time>2019-10-31T09:12:27.000Z</time>
      </trkpt>
      <trkpt lat="47.28092" lon="-2.3362">
        <ele>12.60000038147</ele>
        <time>2019-10-31T09:12:28.000Z</time>
      </trkpt>
      <trkpt lat="47.28093" lon="-2.33626">
        <ele>12.60000038147</ele>
        <time>2019-10-31T09:12:30.000Z</time>
      </trkpt>
      <trkpt lat="47.28095" lon="-2.33632">
        <ele>12.60000038147</ele>
        <time>2019-10-31T09:12:35.000Z</time>
      </trkpt>
      <trkpt lat="47.28095" lon="-2.33632">
        <ele>12.60000038147</ele>
        <time>2019-10-31T09:12:36.000Z</time>
      </trkpt>
      <trkpt lat="47.28094" lon="-2.33637">
        <ele>12.60000038147</ele>
        <time>2019-10-31T09:12:38.000Z</time>
      </trkpt>
      <trkpt lat="47.28094" lon="-2.33642">
        <ele>12.60000038147</ele>
        <time>2019-10-31T09:12:40.000Z</time>
      </trkpt>
      <trkpt lat="47.28097" lon="-2.33654">
        <ele>12.60000038147</ele>
        <time>2019-10-31T09:12:43.000Z</time>
      </trkpt>
      <trkpt lat="47.28099" lon="-2.33659">
        <ele>12.60000038147</ele>
        <time>2019-10-31T09:12:44.000Z</time>
      </trkpt>
      <trkpt lat="47.28108" lon="-2.33672">
        <ele>12.60000038147</ele>
        <time>2019-10-31T09:12:45.000Z</time>
      </trkpt>
      <trkpt lat="47.28111" lon="-2.33675">
        <ele>12.60000038147</ele>
        <time>2019-10-31T09:12:48.000Z</time>
      </trkpt>
      <trkpt lat="47.2812" lon="-2.33686">
        <ele>12.60000038147</ele>
        <time>2019-10-31T09:12:52.000Z</time>
      </trkpt>
      <trkpt lat="47.28133" lon="-2.33705">
        <ele>12.60000038147</ele>
        <time>2019-10-31T09:12:58.000Z</time>
      </trkpt>
      <trkpt lat="47.28145" lon="-2.33728">
        <ele>12.60000038147</ele>
        <time>2019-10-31T09:13:04.000Z</time>
      </trkpt>
      <trkpt lat="47.2816" lon="-2.33746">
        <ele>12.60000038147</ele>
        <time>2019-10-31T09:13:10.000Z</time>
      </trkpt>
      <trkpt lat="47.28171" lon="-2.33758">
        <ele>12.60000038147</ele>
        <time>2019-10-31T09:13:15.000Z</time>
      </trkpt>
      <trkpt lat="47.28186" lon="-2.33776">
        <ele>12.60000038147</ele>
        <time>2019-10-31T09:13:21.000Z</time>
      </trkpt>
      <trkpt lat="47.28202" lon="-2.33787">
        <ele>13</ele>
        <time>2019-10-31T09:13:28.000Z</time>
      </trkpt>
      <trkpt lat="47.28206" lon="-2.3379">
        <ele>13.39999961853</ele>
        <time>2019-10-31T09:13:29.000Z</time>
      </trkpt>
      <trkpt lat="47.2821" lon="-2.33791">
        <ele>13.800000190735</ele>
        <time>2019-10-31T09:13:30.000Z</time>
      </trkpt>
      <trkpt lat="47.28214" lon="-2.33792">
        <ele>14.199999809265</ele>
        <time>2019-10-31T09:13:31.000Z</time>
      </trkpt>
      <trkpt lat="47.28219" lon="-2.33795">
        <ele>14.60000038147</ele>
        <time>2019-10-31T09:13:32.000Z</time>
      </trkpt>
      <trkpt lat="47.2824" lon="-2.3381">
        <ele>14.60000038147</ele>
        <time>2019-10-31T09:13:36.000Z</time>
      </trkpt>
      <trkpt lat="47.28254" lon="-2.3382">
        <ele>14.60000038147</ele>
        <time>2019-10-31T09:13:41.000Z</time>
      </trkpt>
      <trkpt lat="47.28263" lon="-2.33833">
        <ele>14.60000038147</ele>
        <time>2019-10-31T09:13:46.000Z</time>
      </trkpt>
      <trkpt lat="47.28274" lon="-2.33859">
        <ele>14.60000038147</ele>
        <time>2019-10-31T09:13:53.000Z</time>
      </trkpt>
      <trkpt lat="47.28285" lon="-2.33887">
        <ele>14.60000038147</ele>
        <time>2019-10-31T09:14:00.000Z</time>
      </trkpt>
      <trkpt lat="47.28298" lon="-2.33914">
        <ele>14.60000038147</ele>
        <time>2019-10-31T09:14:07.000Z</time>
      </trkpt>
      <trkpt lat="47.28305" lon="-2.33933">
        <ele>14.60000038147</ele>
        <time>2019-10-31T09:14:12.000Z</time>
      </trkpt>
      <trkpt lat="47.28308" lon="-2.33942">
        <ele>15.199999809265</ele>
        <time>2019-10-31T09:14:16.000Z</time>
      </trkpt>
      <trkpt lat="47.28309" lon="-2.33947">
        <ele>15.60000038147</ele>
        <time>2019-10-31T09:14:17.000Z</time>
      </trkpt>
      <trkpt lat="47.28311" lon="-2.33951">
        <ele>16</ele>
        <time>2019-10-31T09:14:18.000Z</time>
      </trkpt>
      <trkpt lat="47.28316" lon="-2.33966">
        <ele>16.799999237061</ele>
        <time>2019-10-31T09:14:19.000Z</time>
      </trkpt>
      <trkpt lat="47.28322" lon="-2.33982">
        <ele>16.799999237061</ele>
        <time>2019-10-31T09:14:25.000Z</time>
      </trkpt>
      <trkpt lat="47.28338" lon="-2.34008">
        <ele>16.799999237061</ele>
        <time>2019-10-31T09:14:32.000Z</time>
      </trkpt>
      <trkpt lat="47.28342" lon="-2.34019">
        <ele>16.799999237061</ele>
        <time>2019-10-31T09:14:36.000Z</time>
      </trkpt>
      <trkpt lat="47.28343" lon="-2.34031">
        <ele>16.799999237061</ele>
        <time>2019-10-31T09:14:39.000Z</time>
      </trkpt>
      <trkpt lat="47.28345" lon="-2.3404">
        <ele>16.799999237061</ele>
        <time>2019-10-31T09:14:41.000Z</time>
      </trkpt>
      <trkpt lat="47.28348" lon="-2.34065">
        <ele>16.799999237061</ele>
        <time>2019-10-31T09:14:46.000Z</time>
      </trkpt>
      <trkpt lat="47.2835" lon="-2.34067">
        <ele>16.799999237061</ele>
        <time>2019-10-31T09:14:47.000Z</time>
      </trkpt>
      <trkpt lat="47.28363" lon="-2.34081">
        <ele>17.200000762939</ele>
        <time>2019-10-31T09:14:52.000Z</time>
      </trkpt>
      <trkpt lat="47.28364" lon="-2.34085">
        <ele>17.60000038147</ele>
        <time>2019-10-31T09:14:53.000Z</time>
      </trkpt>
      <trkpt lat="47.28366" lon="-2.3409">
        <ele>18</ele>
        <time>2019-10-31T09:14:54.000Z</time>
      </trkpt>
      <trkpt lat="47.28367" lon="-2.34095">
        <ele>18.39999961853</ele>
        <time>2019-10-31T09:14:55.000Z</time>
      </trkpt>
      <trkpt lat="47.28367" lon="-2.341">
        <ele>18.799999237061</ele>
        <time>2019-10-31T09:14:56.000Z</time>
      </trkpt>
      <trkpt lat="47.28365" lon="-2.34111">
        <ele>18.799999237061</ele>
        <time>2019-10-31T09:14:58.000Z</time>
      </trkpt>
      <trkpt lat="47.28357" lon="-2.34153">
        <ele>18.799999237061</ele>
        <time>2019-10-31T09:15:06.000Z</time>
      </trkpt>
      <trkpt lat="47.28355" lon="-2.34177">
        <ele>18.799999237061</ele>
        <time>2019-10-31T09:15:10.000Z</time>
      </trkpt>
      <trkpt lat="47.28355" lon="-2.34188">
        <ele>18.799999237061</ele>
        <time>2019-10-31T09:15:12.000Z</time>
      </trkpt>
      <trkpt lat="47.28357" lon="-2.34199">
        <ele>18.799999237061</ele>
        <time>2019-10-31T09:15:14.000Z</time>
      </trkpt>
      <trkpt lat="47.28358" lon="-2.34208">
        <ele>18.799999237061</ele>
        <time>2019-10-31T09:15:16.000Z</time>
      </trkpt>
      <trkpt lat="47.28358" lon="-2.34219">
        <ele>18.799999237061</ele>
        <time>2019-10-31T09:15:18.000Z</time>
      </trkpt>
      <trkpt lat="47.28349" lon="-2.34237">
        <ele>18.799999237061</ele>
        <time>2019-10-31T09:15:20.000Z</time>
      </trkpt>
      <trkpt lat="47.28341" lon="-2.34244">
        <ele>18.799999237061</ele>
        <time>2019-10-31T09:15:24.000Z</time>
      </trkpt>
      <trkpt lat="47.28336" lon="-2.34246">
        <ele>19.200000762939</ele>
        <time>2019-10-31T09:15:25.000Z</time>
      </trkpt>
      <trkpt lat="47.28331" lon="-2.34248">
        <ele>19.60000038147</ele>
        <time>2019-10-31T09:15:26.000Z</time>
      </trkpt>
      <trkpt lat="47.28326" lon="-2.34251">
        <ele>20.39999961853</ele>
        <time>2019-10-31T09:15:27.000Z</time>
      </trkpt>
      <trkpt lat="47.28321" lon="-2.34254">
        <ele>20.799999237061</ele>
        <time>2019-10-31T09:15:28.000Z</time>
      </trkpt>
      <trkpt lat="47.28303" lon="-2.34263">
        <ele>20.799999237061</ele>
        <time>2019-10-31T09:15:32.000Z</time>
      </trkpt>
      <trkpt lat="47.28279" lon="-2.34276">
        <ele>20.799999237061</ele>
        <time>2019-10-31T09:15:37.000Z</time>
      </trkpt>
      <trkpt lat="47.28274" lon="-2.34278">
        <ele>20.799999237061</ele>
        <time>2019-10-31T09:15:38.000Z</time>
      </trkpt>
      <trkpt lat="47.28222" lon="-2.34298">
        <ele>20.799999237061</ele>
        <time>2019-10-31T09:15:48.000Z</time>
      </trkpt>
      <trkpt lat="47.28171" lon="-2.34318">
        <ele>20.799999237061</ele>
        <time>2019-10-31T09:15:57.000Z</time>
      </trkpt>
      <trkpt lat="47.28154" lon="-2.34318">
        <ele>20.799999237061</ele>
        <time>2019-10-31T09:16:00.000Z</time>
      </trkpt>
      <trkpt lat="47.28137" lon="-2.34316">
        <ele>20.799999237061</ele>
        <time>2019-10-31T09:16:03.000Z</time>
      </trkpt>
      <trkpt lat="47.28107" lon="-2.34308">
        <ele>20.799999237061</ele>
        <time>2019-10-31T09:16:08.000Z</time>
      </trkpt>
      <trkpt lat="47.28072" lon="-2.34307">
        <ele>20.799999237061</ele>
        <time>2019-10-31T09:16:14.000Z</time>
      </trkpt>
      <trkpt lat="47.28061" lon="-2.3431">
        <ele>20.799999237061</ele>
        <time>2019-10-31T09:16:16.000Z</time>
      </trkpt>
      <trkpt lat="47.28048" lon="-2.34337">
        <ele>20.799999237061</ele>
        <time>2019-10-31T09:16:18.000Z</time>
      </trkpt>
      <trkpt lat="47.28048" lon="-2.34337">
        <ele>20.799999237061</ele>
        <time>2019-10-31T09:16:20.000Z</time>
      </trkpt>
      <trkpt lat="47.28047" lon="-2.34343">
        <ele>20.799999237061</ele>
        <time>2019-10-31T09:16:21.000Z</time>
      </trkpt>
      <trkpt lat="47.28062" lon="-2.34368">
        <ele>21.799999237061</ele>
        <time>2019-10-31T09:16:23.000Z</time>
      </trkpt>
      <trkpt lat="47.28066" lon="-2.34375">
        <ele>22.200000762939</ele>
        <time>2019-10-31T09:16:25.000Z</time>
      </trkpt>
      <trkpt lat="47.2807" lon="-2.34382">
        <ele>22.60000038147</ele>
        <time>2019-10-31T09:16:26.000Z</time>
      </trkpt>
      <trkpt lat="47.28075" lon="-2.3439">
        <ele>23</ele>
        <time>2019-10-31T09:16:27.000Z</time>
      </trkpt>
      <trkpt lat="47.28093" lon="-2.34415">
        <ele>23</ele>
        <time>2019-10-31T09:16:31.000Z</time>
      </trkpt>
      <trkpt lat="47.28118" lon="-2.34451">
        <ele>23</ele>
        <time>2019-10-31T09:16:37.000Z</time>
      </trkpt>
      <trkpt lat="47.28122" lon="-2.34457">
        <ele>23</ele>
        <time>2019-10-31T09:16:38.000Z</time>
      </trkpt>
      <trkpt lat="47.28143" lon="-2.34495">
        <ele>23</ele>
        <time>2019-10-31T09:16:44.000Z</time>
      </trkpt>
      <trkpt lat="47.28147" lon="-2.3451">
        <ele>23</ele>
        <time>2019-10-31T09:16:46.000Z</time>
      </trkpt>
      <trkpt lat="47.28146" lon="-2.34534">
        <ele>23</ele>
        <time>2019-10-31T09:16:50.000Z</time>
      </trkpt>
      <trkpt lat="47.28142" lon="-2.3455">
        <ele>23</ele>
        <time>2019-10-31T09:16:52.000Z</time>
      </trkpt>
      <trkpt lat="47.28132" lon="-2.34559">
        <ele>23</ele>
        <time>2019-10-31T09:16:54.000Z</time>
      </trkpt>
      <trkpt lat="47.28122" lon="-2.34569">
        <ele>23</ele>
        <time>2019-10-31T09:16:56.000Z</time>
      </trkpt>
      <trkpt lat="47.28112" lon="-2.34581">
        <ele>23</ele>
        <time>2019-10-31T09:16:58.000Z</time>
      </trkpt>
      <trkpt lat="47.28108" lon="-2.34597">
        <ele>23</ele>
        <time>2019-10-31T09:17:00.000Z</time>
      </trkpt>
      <trkpt lat="47.2811" lon="-2.34623">
        <ele>23</ele>
        <time>2019-10-31T09:17:03.000Z</time>
      </trkpt>
      <trkpt lat="47.28119" lon="-2.34644">
        <ele>23</ele>
        <time>2019-10-31T09:17:06.000Z</time>
      </trkpt>
      <trkpt lat="47.28121" lon="-2.3465">
        <ele>23</ele>
        <time>2019-10-31T09:17:07.000Z</time>
      </trkpt>
      <trkpt lat="47.28149" lon="-2.34723">
        <ele>22.60000038147</ele>
        <time>2019-10-31T09:17:14.000Z</time>
      </trkpt>
      <trkpt lat="47.28152" lon="-2.3473">
        <ele>22.200000762939</ele>
        <time>2019-10-31T09:17:17.000Z</time>
      </trkpt>
      <trkpt lat="47.28154" lon="-2.34738">
        <ele>21.799999237061</ele>
        <time>2019-10-31T09:17:18.000Z</time>
      </trkpt>
      <trkpt lat="47.28156" lon="-2.34745">
        <ele>21.39999961853</ele>
        <time>2019-10-31T09:17:19.000Z</time>
      </trkpt>
      <trkpt lat="47.28158" lon="-2.34753">
        <ele>21</ele>
        <time>2019-10-31T09:17:20.000Z</time>
      </trkpt>
      <trkpt lat="47.2816" lon="-2.34769">
        <ele>21</ele>
        <time>2019-10-31T09:17:22.000Z</time>
      </trkpt>
      <trkpt lat="47.28164" lon="-2.34775">
        <ele>21</ele>
        <time>2019-10-31T09:17:23.000Z</time>
      </trkpt>
      <trkpt lat="47.28172" lon="-2.34782">
        <ele>21</ele>
        <time>2019-10-31T09:17:25.000Z</time>
      </trkpt>
      <trkpt lat="47.28178" lon="-2.34794">
        <ele>21</ele>
        <time>2019-10-31T09:17:27.000Z</time>
      </trkpt>
      <trkpt lat="47.28181" lon="-2.34808">
        <ele>21</ele>
        <time>2019-10-31T09:17:29.000Z</time>
      </trkpt>
      <trkpt lat="47.28183" lon="-2.34833">
        <ele>21</ele>
        <time>2019-10-31T09:17:32.000Z</time>
      </trkpt>
      <trkpt lat="47.28187" lon="-2.34858">
        <ele>21</ele>
        <time>2019-10-31T09:17:35.000Z</time>
      </trkpt>
      <trkpt lat="47.28193" lon="-2.34881">
        <ele>21</ele>
        <time>2019-10-31T09:17:38.000Z</time>
      </trkpt>
      <trkpt lat="47.2822" lon="-2.34968">
        <ele>21</ele>
        <time>2019-10-31T09:17:49.000Z</time>
      </trkpt>
      <trkpt lat="47.28246" lon="-2.35019">
        <ele>21</ele>
        <time>2019-10-31T09:17:55.000Z</time>
      </trkpt>
      <trkpt lat="47.28246" lon="-2.35019">
        <ele>21</ele>
        <time>2019-10-31T09:17:57.000Z</time>
      </trkpt>
      <trkpt lat="47.28253" lon="-2.35031">
        <ele>21</ele>
        <time>2019-10-31T09:17:59.000Z</time>
      </trkpt>
      <trkpt lat="47.28273" lon="-2.35055">
        <ele>21</ele>
        <time>2019-10-31T09:18:04.000Z</time>
      </trkpt>
      <trkpt lat="47.28292" lon="-2.35071">
        <ele>21</ele>
        <time>2019-10-31T09:18:08.000Z</time>
      </trkpt>
      <trkpt lat="47.28297" lon="-2.35073">
        <ele>21</ele>
        <time>2019-10-31T09:18:09.000Z</time>
      </trkpt>
      <trkpt lat="47.28336" lon="-2.35076">
        <ele>21</ele>
        <time>2019-10-31T09:18:16.000Z</time>
      </trkpt>
      <trkpt lat="47.28342" lon="-2.35074">
        <ele>21</ele>
        <time>2019-10-31T09:18:17.000Z</time>
      </trkpt>
      <trkpt lat="47.28393" lon="-2.35059">
        <ele>21</ele>
        <time>2019-10-31T09:18:25.000Z</time>
      </trkpt>
      <trkpt lat="47.28427" lon="-2.35048">
        <ele>21</ele>
        <time>2019-10-31T09:18:31.000Z</time>
      </trkpt>
      <trkpt lat="47.28443" lon="-2.35044">
        <ele>21</ele>
        <time>2019-10-31T09:18:34.000Z</time>
      </trkpt>
      <trkpt lat="47.28451" lon="-2.35051">
        <ele>21</ele>
        <time>2019-10-31T09:18:36.000Z</time>
      </trkpt>
      <trkpt lat="47.28466" lon="-2.35075">
        <ele>21</ele>
        <time>2019-10-31T09:18:40.000Z</time>
      </trkpt>
      <trkpt lat="47.28481" lon="-2.3512">
        <ele>21</ele>
        <time>2019-10-31T09:18:45.000Z</time>
      </trkpt>
      <trkpt lat="47.28484" lon="-2.35129">
        <ele>20.60000038147</ele>
        <time>2019-10-31T09:18:46.000Z</time>
      </trkpt>
      <trkpt lat="47.28487" lon="-2.35137">
        <ele>20.200000762939</ele>
        <time>2019-10-31T09:18:47.000Z</time>
      </trkpt>
      <trkpt lat="47.28489" lon="-2.35146">
        <ele>19.799999237061</ele>
        <time>2019-10-31T09:18:48.000Z</time>
      </trkpt>
      <trkpt lat="47.28492" lon="-2.35154">
        <ele>19.39999961853</ele>
        <time>2019-10-31T09:18:49.000Z</time>
      </trkpt>
      <trkpt lat="47.28495" lon="-2.35163">
        <ele>19</ele>
        <time>2019-10-31T09:18:50.000Z</time>
      </trkpt>
      <trkpt lat="47.28497" lon="-2.35171">
        <ele>19</ele>
        <time>2019-10-31T09:18:51.000Z</time>
      </trkpt>
      <trkpt lat="47.28508" lon="-2.35218">
        <ele>19</ele>
        <time>2019-10-31T09:18:57.000Z</time>
      </trkpt>
      <trkpt lat="47.28518" lon="-2.35255">
        <ele>19</ele>
        <time>2019-10-31T09:19:02.000Z</time>
      </trkpt>
      <trkpt lat="47.28523" lon="-2.35272">
        <ele>19</ele>
        <time>2019-10-31T09:19:06.000Z</time>
      </trkpt>
      <trkpt lat="47.28526" lon="-2.35287">
        <ele>19</ele>
        <time>2019-10-31T09:19:11.000Z</time>
      </trkpt>
      <trkpt lat="47.2853" lon="-2.35302">
        <ele>19</ele>
        <time>2019-10-31T09:19:17.000Z</time>
      </trkpt>
      <trkpt lat="47.28537" lon="-2.3532">
        <ele>19</ele>
        <time>2019-10-31T09:19:23.000Z</time>
      </trkpt>
      <trkpt lat="47.28551" lon="-2.35352">
        <ele>19</ele>
        <time>2019-10-31T09:19:34.000Z</time>
      </trkpt>
      <trkpt lat="47.28558" lon="-2.35374">
        <ele>19</ele>
        <time>2019-10-31T09:19:40.000Z</time>
      </trkpt>
      <trkpt lat="47.28562" lon="-2.35391">
        <ele>19</ele>
        <time>2019-10-31T09:19:46.000Z</time>
      </trkpt>
      <trkpt lat="47.28563" lon="-2.35403">
        <ele>19</ele>
        <time>2019-10-31T09:19:52.000Z</time>
      </trkpt>
      <trkpt lat="47.28564" lon="-2.35416">
        <ele>19</ele>
        <time>2019-10-31T09:19:59.000Z</time>
      </trkpt>
      <trkpt lat="47.28565" lon="-2.35423">
        <ele>19.39999961853</ele>
        <time>2019-10-31T09:20:02.000Z</time>
      </trkpt>
      <trkpt lat="47.28566" lon="-2.35428">
        <ele>19.799999237061</ele>
        <time>2019-10-31T09:20:03.000Z</time>
      </trkpt>
      <trkpt lat="47.28569" lon="-2.35433">
        <ele>20.200000762939</ele>
        <time>2019-10-31T09:20:04.000Z</time>
      </trkpt>
      <trkpt lat="47.2857" lon="-2.35438">
        <ele>20.60000038147</ele>
        <time>2019-10-31T09:20:05.000Z</time>
      </trkpt>
      <trkpt lat="47.28572" lon="-2.35442">
        <ele>21</ele>
        <time>2019-10-31T09:20:06.000Z</time>
      </trkpt>
      <trkpt lat="47.28575" lon="-2.35453">
        <ele>21</ele>
        <time>2019-10-31T09:20:09.000Z</time>
      </trkpt>
      <trkpt lat="47.28577" lon="-2.35458">
        <ele>21</ele>
        <time>2019-10-31T09:20:11.000Z</time>
      </trkpt>
      <trkpt lat="47.28577" lon="-2.35467">
        <ele>21</ele>
        <time>2019-10-31T09:20:16.000Z</time>
      </trkpt>
      <trkpt lat="47.28576" lon="-2.3547">
        <ele>21</ele>
        <time>2019-10-31T09:20:18.000Z</time>
      </trkpt>
      <trkpt lat="47.28574" lon="-2.35478">
        <ele>21</ele>
        <time>2019-10-31T09:20:35.000Z</time>
      </trkpt>
      <trkpt lat="47.2857" lon="-2.35482">
        <ele>21</ele>
        <time>2019-10-31T09:20:37.000Z</time>
      </trkpt>
      <trkpt lat="47.28565" lon="-2.35486">
        <ele>21</ele>
        <time>2019-10-31T09:20:39.000Z</time>
      </trkpt>
      <trkpt lat="47.28558" lon="-2.35488">
        <ele>21</ele>
        <time>2019-10-31T09:20:42.000Z</time>
      </trkpt>
      <trkpt lat="47.28546" lon="-2.35491">
        <ele>21</ele>
        <time>2019-10-31T09:20:48.000Z</time>
      </trkpt>
      <trkpt lat="47.28533" lon="-2.355">
        <ele>21</ele>
        <time>2019-10-31T09:20:53.000Z</time>
      </trkpt>
      <trkpt lat="47.28529" lon="-2.35505">
        <ele>21.39999961853</ele>
        <time>2019-10-31T09:20:55.000Z</time>
      </trkpt>
      <trkpt lat="47.28528" lon="-2.35508">
        <ele>21.799999237061</ele>
        <time>2019-10-31T09:20:56.000Z</time>
      </trkpt>
      <trkpt lat="47.28528" lon="-2.35511">
        <ele>22.200000762939</ele>
        <time>2019-10-31T09:20:57.000Z</time>
      </trkpt>
      <trkpt lat="47.28527" lon="-2.35513">
        <ele>22.60000038147</ele>
        <time>2019-10-31T09:20:58.000Z</time>
      </trkpt>
      <trkpt lat="47.28528" lon="-2.35517">
        <ele>23</ele>
        <time>2019-10-31T09:20:59.000Z</time>
      </trkpt>
      <trkpt lat="47.28527" lon="-2.35524">
        <ele>23.39999961853</ele>
        <time>2019-10-31T09:21:02.000Z</time>
      </trkpt>
      <trkpt lat="47.28529" lon="-2.35536">
        <ele>25.200000762939</ele>
        <time>2019-10-31T09:21:03.000Z</time>
      </trkpt>
      <trkpt lat="47.2853" lon="-2.35553">
        <ele>25.200000762939</ele>
        <time>2019-10-31T09:21:11.000Z</time>
      </trkpt>
      <trkpt lat="47.2853" lon="-2.35562">
        <ele>25.60000038147</ele>
        <time>2019-10-31T09:21:14.000Z</time>
      </trkpt>
      <trkpt lat="47.28531" lon="-2.35565">
        <ele>26.39999961853</ele>
        <time>2019-10-31T09:21:15.000Z</time>
      </trkpt>
      <trkpt lat="47.28531" lon="-2.35569">
        <ele>26.799999237061</ele>
        <time>2019-10-31T09:21:16.000Z</time>
      </trkpt>
      <trkpt lat="47.2853" lon="-2.35572">
        <ele>27.200000762939</ele>
        <time>2019-10-31T09:21:17.000Z</time>
      </trkpt>
      <trkpt lat="47.28529" lon="-2.35576">
        <ele>27.200000762939</ele>
        <time>2019-10-31T09:21:18.000Z</time>
      </trkpt>
      <trkpt lat="47.28525" lon="-2.35588">
        <ele>27.60000038147</ele>
        <time>2019-10-31T09:21:20.000Z</time>
      </trkpt>
      <trkpt lat="47.28522" lon="-2.35597">
        <ele>29</ele>
        <time>2019-10-31T09:21:24.000Z</time>
      </trkpt>
      <trkpt lat="47.28521" lon="-2.356">
        <ele>29.39999961853</ele>
        <time>2019-10-31T09:21:27.000Z</time>
      </trkpt>
      <trkpt lat="47.28518" lon="-2.35601">
        <ele>29.39999961853</ele>
        <time>2019-10-31T09:21:28.000Z</time>
      </trkpt>
      <trkpt lat="47.28512" lon="-2.35601">
        <ele>30</ele>
        <time>2019-10-31T09:21:31.000Z</time>
      </trkpt>
      <trkpt lat="47.2851" lon="-2.35601">
        <ele>30.39999961853</ele>
        <time>2019-10-31T09:21:32.000Z</time>
      </trkpt>
      <trkpt lat="47.28509" lon="-2.35602">
        <ele>30.799999237061</ele>
        <time>2019-10-31T09:21:33.000Z</time>
      </trkpt>
      <trkpt lat="47.28508" lon="-2.35602">
        <ele>31.200000762939</ele>
        <time>2019-10-31T09:21:34.000Z</time>
      </trkpt>
      <trkpt lat="47.28506" lon="-2.35601">
        <ele>31.60000038147</ele>
        <time>2019-10-31T09:21:35.000Z</time>
      </trkpt>
      <trkpt lat="47.28505" lon="-2.35601">
        <ele>31.60000038147</ele>
        <time>2019-10-31T09:21:36.000Z</time>
      </trkpt>
      <trkpt lat="47.28503" lon="-2.35588">
        <ele>31.60000038147</ele>
        <time>2019-10-31T09:21:41.000Z</time>
      </trkpt>
      <trkpt lat="47.28502" lon="-2.35585">
        <ele>32</ele>
        <time>2019-10-31T09:21:42.000Z</time>
      </trkpt>
      <trkpt lat="47.28501" lon="-2.35582">
        <ele>32.400001525879</ele>
        <time>2019-10-31T09:21:43.000Z</time>
      </trkpt>
      <trkpt lat="47.285" lon="-2.35579">
        <ele>32.799999237061</ele>
        <time>2019-10-31T09:21:44.000Z</time>
      </trkpt>
      <trkpt lat="47.28499" lon="-2.35577">
        <ele>33.200000762939</ele>
        <time>2019-10-31T09:21:45.000Z</time>
      </trkpt>
      <trkpt lat="47.28498" lon="-2.35574">
        <ele>33.599998474121</ele>
        <time>2019-10-31T09:21:46.000Z</time>
      </trkpt>
      <trkpt lat="47.28489" lon="-2.35562">
        <ele>33.599998474121</ele>
        <time>2019-10-31T09:21:51.000Z</time>
      </trkpt>
      <trkpt lat="47.28485" lon="-2.35552">
        <ele>34</ele>
        <time>2019-10-31T09:21:54.000Z</time>
      </trkpt>
      <trkpt lat="47.28485" lon="-2.35549">
        <ele>34.400001525879</ele>
        <time>2019-10-31T09:21:55.000Z</time>
      </trkpt>
      <trkpt lat="47.28485" lon="-2.35546">
        <ele>34.799999237061</ele>
        <time>2019-10-31T09:21:56.000Z</time>
      </trkpt>
      <trkpt lat="47.28484" lon="-2.35542">
        <ele>35.200000762939</ele>
        <time>2019-10-31T09:21:57.000Z</time>
      </trkpt>
      <trkpt lat="47.28485" lon="-2.35538">
        <ele>35.599998474121</ele>
        <time>2019-10-31T09:21:58.000Z</time>
      </trkpt>
      <trkpt lat="47.28485" lon="-2.35531">
        <ele>35.599998474121</ele>
        <time>2019-10-31T09:22:00.000Z</time>
      </trkpt>
      <trkpt lat="47.2848" lon="-2.35512">
        <ele>35.599998474121</ele>
        <time>2019-10-31T09:22:06.000Z</time>
      </trkpt>
      <trkpt lat="47.28472" lon="-2.35498">
        <ele>35.599998474121</ele>
        <time>2019-10-31T09:22:10.000Z</time>
      </trkpt>
      <trkpt lat="47.28462" lon="-2.35481">
        <ele>35.200000762939</ele>
        <time>2019-10-31T09:22:13.000Z</time>
      </trkpt>
      <trkpt lat="47.28459" lon="-2.35476">
        <ele>34.799999237061</ele>
        <time>2019-10-31T09:22:14.000Z</time>
      </trkpt>
      <trkpt lat="47.28458" lon="-2.3547">
        <ele>34.400001525879</ele>
        <time>2019-10-31T09:22:15.000Z</time>
      </trkpt>
      <trkpt lat="47.28456" lon="-2.35465">
        <ele>34</ele>
        <time>2019-10-31T09:22:16.000Z</time>
      </trkpt>
      <trkpt lat="47.28454" lon="-2.3546">
        <ele>33.599998474121</ele>
        <time>2019-10-31T09:22:17.000Z</time>
      </trkpt>
      <trkpt lat="47.28451" lon="-2.35455">
        <ele>33.200000762939</ele>
        <time>2019-10-31T09:22:18.000Z</time>
      </trkpt>
      <trkpt lat="47.28449" lon="-2.35451">
        <ele>32.799999237061</ele>
        <time>2019-10-31T09:22:19.000Z</time>
      </trkpt>
      <trkpt lat="47.28447" lon="-2.35447">
        <ele>32.400001525879</ele>
        <time>2019-10-31T09:22:20.000Z</time>
      </trkpt>
      <trkpt lat="47.28442" lon="-2.35444">
        <ele>32</ele>
        <time>2019-10-31T09:22:21.000Z</time>
      </trkpt>
      <trkpt lat="47.28437" lon="-2.35443">
        <ele>31.39999961853</ele>
        <time>2019-10-31T09:22:22.000Z</time>
      </trkpt>
      <trkpt lat="47.28433" lon="-2.35443">
        <ele>30.799999237061</ele>
        <time>2019-10-31T09:22:23.000Z</time>
      </trkpt>
      <trkpt lat="47.28428" lon="-2.35443">
        <ele>30.39999961853</ele>
        <time>2019-10-31T09:22:24.000Z</time>
      </trkpt>
      <trkpt lat="47.28424" lon="-2.35442">
        <ele>29.799999237061</ele>
        <time>2019-10-31T09:22:25.000Z</time>
      </trkpt>
      <trkpt lat="47.28419" lon="-2.35441">
        <ele>29.200000762939</ele>
        <time>2019-10-31T09:22:26.000Z</time>
      </trkpt>
      <trkpt lat="47.28415" lon="-2.35438">
        <ele>29.200000762939</ele>
        <time>2019-10-31T09:22:27.000Z</time>
      </trkpt>
      <trkpt lat="47.28407" lon="-2.3543">
        <ele>29.200000762939</ele>
        <time>2019-10-31T09:22:29.000Z</time>
      </trkpt>
      <trkpt lat="47.28395" lon="-2.35422">
        <ele>29.200000762939</ele>
        <time>2019-10-31T09:22:34.000Z</time>
      </trkpt>
      <trkpt lat="47.28382" lon="-2.35402">
        <ele>28.799999237061</ele>
        <time>2019-10-31T09:22:40.000Z</time>
      </trkpt>
      <trkpt lat="47.2838" lon="-2.35398">
        <ele>28.39999961853</ele>
        <time>2019-10-31T09:22:41.000Z</time>
      </trkpt>
      <trkpt lat="47.28379" lon="-2.35394">
        <ele>28</ele>
        <time>2019-10-31T09:22:42.000Z</time>
      </trkpt>
      <trkpt lat="47.28377" lon="-2.3539">
        <ele>27.60000038147</ele>
        <time>2019-10-31T09:22:43.000Z</time>
      </trkpt>
      <trkpt lat="47.28376" lon="-2.35385">
        <ele>26.799999237061</ele>
        <time>2019-10-31T09:22:44.000Z</time>
      </trkpt>
      <trkpt lat="47.28375" lon="-2.3538">
        <ele>26.200000762939</ele>
        <time>2019-10-31T09:22:45.000Z</time>
      </trkpt>
      <trkpt lat="47.28373" lon="-2.35375">
        <ele>25.60000038147</ele>
        <time>2019-10-31T09:22:46.000Z</time>
      </trkpt>
      <trkpt lat="47.28371" lon="-2.35372">
        <ele>24.799999237061</ele>
        <time>2019-10-31T09:22:47.000Z</time>
      </trkpt>
      <trkpt lat="47.28369" lon="-2.3537">
        <ele>24.200000762939</ele>
        <time>2019-10-31T09:22:48.000Z</time>
      </trkpt>
      <trkpt lat="47.28367" lon="-2.35366">
        <ele>23.39999961853</ele>
        <time>2019-10-31T09:22:49.000Z</time>
      </trkpt>
      <trkpt lat="47.28365" lon="-2.35364">
        <ele>22.60000038147</ele>
        <time>2019-10-31T09:22:50.000Z</time>
      </trkpt>
      <trkpt lat="47.28363" lon="-2.3536">
        <ele>22</ele>
        <time>2019-10-31T09:22:51.000Z</time>
      </trkpt>
      <trkpt lat="47.28361" lon="-2.35353">
        <ele>21.60000038147</ele>
        <time>2019-10-31T09:22:53.000Z</time>
      </trkpt>
      <trkpt lat="47.28358" lon="-2.35348">
        <ele>21.200000762939</ele>
        <time>2019-10-31T09:22:54.000Z</time>
      </trkpt>
      <trkpt lat="47.28356" lon="-2.35343">
        <ele>20.39999961853</ele>
        <time>2019-10-31T09:22:55.000Z</time>
      </trkpt>
      <trkpt lat="47.28354" lon="-2.3534">
        <ele>20</ele>
        <time>2019-10-31T09:22:56.000Z</time>
      </trkpt>
      <trkpt lat="47.28352" lon="-2.35338">
        <ele>20</ele>
        <time>2019-10-31T09:22:57.000Z</time>
      </trkpt>
      <trkpt lat="47.2835" lon="-2.35338">
        <ele>20</ele>
        <time>2019-10-31T09:22:58.000Z</time>
      </trkpt>
      <trkpt lat="47.28341" lon="-2.35344">
        <ele>20</ele>
        <time>2019-10-31T09:23:01.000Z</time>
      </trkpt>
      <trkpt lat="47.28338" lon="-2.35346">
        <ele>20</ele>
        <time>2019-10-31T09:23:02.000Z</time>
      </trkpt>
      <trkpt lat="47.28316" lon="-2.35357">
        <ele>20</ele>
        <time>2019-10-31T09:23:08.000Z</time>
      </trkpt>
      <trkpt lat="47.28288" lon="-2.35378">
        <ele>20</ele>
        <time>2019-10-31T09:23:16.000Z</time>
      </trkpt>
      <trkpt lat="47.2828" lon="-2.35396">
        <ele>20</ele>
        <time>2019-10-31T09:23:20.000Z</time>
      </trkpt>
      <trkpt lat="47.28276" lon="-2.35404">
        <ele>20</ele>
        <time>2019-10-31T09:23:22.000Z</time>
      </trkpt>
      <trkpt lat="47.28272" lon="-2.35406">
        <ele>20</ele>
        <time>2019-10-31T09:23:23.000Z</time>
      </trkpt>
      <trkpt lat="47.28264" lon="-2.3541">
        <ele>20</ele>
        <time>2019-10-31T09:23:25.000Z</time>
      </trkpt>
      <trkpt lat="47.28256" lon="-2.35409">
        <ele>20</ele>
        <time>2019-10-31T09:23:27.000Z</time>
      </trkpt>
      <trkpt lat="47.28246" lon="-2.35399">
        <ele>20</ele>
        <time>2019-10-31T09:23:30.000Z</time>
      </trkpt>
      <trkpt lat="47.28243" lon="-2.35398">
        <ele>19.60000038147</ele>
        <time>2019-10-31T09:23:31.000Z</time>
      </trkpt>
      <trkpt lat="47.28239" lon="-2.354">
        <ele>19</ele>
        <time>2019-10-31T09:23:32.000Z</time>
      </trkpt>
      <trkpt lat="47.28235" lon="-2.35404">
        <ele>18.60000038147</ele>
        <time>2019-10-31T09:23:33.000Z</time>
      </trkpt>
      <trkpt lat="47.28232" lon="-2.3541">
        <ele>18.200000762939</ele>
        <time>2019-10-31T09:23:34.000Z</time>
      </trkpt>
      <trkpt lat="47.28228" lon="-2.35415">
        <ele>17.799999237061</ele>
        <time>2019-10-31T09:23:35.000Z</time>
      </trkpt>
      <trkpt lat="47.28224" lon="-2.3542">
        <ele>17.799999237061</ele>
        <time>2019-10-31T09:23:36.000Z</time>
      </trkpt>
      <trkpt lat="47.28217" lon="-2.35431">
        <ele>17.799999237061</ele>
        <time>2019-10-31T09:23:38.000Z</time>
      </trkpt>
      <trkpt lat="47.28199" lon="-2.3545">
        <ele>17.799999237061</ele>
        <time>2019-10-31T09:23:42.000Z</time>
      </trkpt>
      <trkpt lat="47.28195" lon="-2.35456">
        <ele>17.799999237061</ele>
        <time>2019-10-31T09:23:43.000Z</time>
      </trkpt>
      <trkpt lat="47.28173" lon="-2.35488">
        <ele>17.799999237061</ele>
        <time>2019-10-31T09:23:49.000Z</time>
      </trkpt>
      <trkpt lat="47.2817" lon="-2.35494">
        <ele>17.799999237061</ele>
        <time>2019-10-31T09:23:50.000Z</time>
      </trkpt>
      <trkpt lat="47.28158" lon="-2.35514">
        <ele>17.799999237061</ele>
        <time>2019-10-31T09:23:54.000Z</time>
      </trkpt>
      <trkpt lat="47.28148" lon="-2.35537">
        <ele>17.799999237061</ele>
        <time>2019-10-31T09:23:59.000Z</time>
      </trkpt>
      <trkpt lat="47.28145" lon="-2.35548">
        <ele>17.799999237061</ele>
        <time>2019-10-31T09:24:04.000Z</time>
      </trkpt>
      <trkpt lat="47.28135" lon="-2.35556">
        <ele>17.799999237061</ele>
        <time>2019-10-31T09:24:08.000Z</time>
      </trkpt>
      <trkpt lat="47.28128" lon="-2.35559">
        <ele>17.799999237061</ele>
        <time>2019-10-31T09:24:10.000Z</time>
      </trkpt>
      <trkpt lat="47.28114" lon="-2.35559">
        <ele>17.799999237061</ele>
        <time>2019-10-31T09:24:13.000Z</time>
      </trkpt>
      <trkpt lat="47.28109" lon="-2.35558">
        <ele>17.799999237061</ele>
        <time>2019-10-31T09:24:14.000Z</time>
      </trkpt>
      <trkpt lat="47.2808" lon="-2.35556">
        <ele>17.799999237061</ele>
        <time>2019-10-31T09:24:19.000Z</time>
      </trkpt>
      <trkpt lat="47.28047" lon="-2.35555">
        <ele>17.799999237061</ele>
        <time>2019-10-31T09:24:24.000Z</time>
      </trkpt>
      <trkpt lat="47.28042" lon="-2.35556">
        <ele>17.799999237061</ele>
        <time>2019-10-31T09:24:25.000Z</time>
      </trkpt>
      <trkpt lat="47.28034" lon="-2.35564">
        <ele>17.39999961853</ele>
        <time>2019-10-31T09:24:27.000Z</time>
      </trkpt>
      <trkpt lat="47.28034" lon="-2.3557">
        <ele>17</ele>
        <time>2019-10-31T09:24:28.000Z</time>
      </trkpt>
      <trkpt lat="47.28035" lon="-2.35576">
        <ele>16.60000038147</ele>
        <time>2019-10-31T09:24:29.000Z</time>
      </trkpt>
      <trkpt lat="47.28036" lon="-2.35581">
        <ele>16.200000762939</ele>
        <time>2019-10-31T09:24:30.000Z</time>
      </trkpt>
      <trkpt lat="47.28037" lon="-2.35587">
        <ele>15.60000038147</ele>
        <time>2019-10-31T09:24:31.000Z</time>
      </trkpt>
      <trkpt lat="47.28038" lon="-2.35592">
        <ele>15.60000038147</ele>
        <time>2019-10-31T09:24:32.000Z</time>
      </trkpt>
      <trkpt lat="47.2804" lon="-2.35597">
        <ele>15.60000038147</ele>
        <time>2019-10-31T09:24:33.000Z</time>
      </trkpt>
      <trkpt lat="47.28048" lon="-2.35601">
        <ele>15.60000038147</ele>
        <time>2019-10-31T09:24:35.000Z</time>
      </trkpt>
      <trkpt lat="47.2806" lon="-2.35606">
        <ele>15.60000038147</ele>
        <time>2019-10-31T09:24:38.000Z</time>
      </trkpt>
      <trkpt lat="47.28064" lon="-2.35607">
        <ele>15.60000038147</ele>
        <time>2019-10-31T09:24:39.000Z</time>
      </trkpt>
      <trkpt lat="47.28071" lon="-2.35603">
        <ele>16</ele>
        <time>2019-10-31T09:24:41.000Z</time>
      </trkpt>
      <trkpt lat="47.28073" lon="-2.35602">
        <ele>16.39999961853</ele>
        <time>2019-10-31T09:24:42.000Z</time>
      </trkpt>
      <trkpt lat="47.28075" lon="-2.35603">
        <ele>16.799999237061</ele>
        <time>2019-10-31T09:24:43.000Z</time>
      </trkpt>
      <trkpt lat="47.28077" lon="-2.35606">
        <ele>17.200000762939</ele>
        <time>2019-10-31T09:24:44.000Z</time>
      </trkpt>
      <trkpt lat="47.28077" lon="-2.35609">
        <ele>17.60000038147</ele>
        <time>2019-10-31T09:24:45.000Z</time>
      </trkpt>
      <trkpt lat="47.28076" lon="-2.3562">
        <ele>17.60000038147</ele>
        <time>2019-10-31T09:24:48.000Z</time>
      </trkpt>
      <trkpt lat="47.28075" lon="-2.35628">
        <ele>17.60000038147</ele>
        <time>2019-10-31T09:24:50.000Z</time>
      </trkpt>
      <trkpt lat="47.28078" lon="-2.35642">
        <ele>18.200000762939</ele>
        <time>2019-10-31T09:24:54.000Z</time>
      </trkpt>
      <trkpt lat="47.28079" lon="-2.35646">
        <ele>18.60000038147</ele>
        <time>2019-10-31T09:24:55.000Z</time>
      </trkpt>
      <trkpt lat="47.2808" lon="-2.3565">
        <ele>19</ele>
        <time>2019-10-31T09:24:56.000Z</time>
      </trkpt>
      <trkpt lat="47.28081" lon="-2.35656">
        <ele>19.39999961853</ele>
        <time>2019-10-31T09:24:57.000Z</time>
      </trkpt>
      <trkpt lat="47.28082" lon="-2.35661">
        <ele>19.799999237061</ele>
        <time>2019-10-31T09:24:58.000Z</time>
      </trkpt>
      <trkpt lat="47.28084" lon="-2.35671">
        <ele>20.200000762939</ele>
        <time>2019-10-31T09:25:00.000Z</time>
      </trkpt>
      <trkpt lat="47.28085" lon="-2.35675">
        <ele>20.60000038147</ele>
        <time>2019-10-31T09:25:01.000Z</time>
      </trkpt>
      <trkpt lat="47.28086" lon="-2.35678">
        <ele>21</ele>
        <time>2019-10-31T09:25:02.000Z</time>
      </trkpt>
      <trkpt lat="47.28087" lon="-2.3568">
        <ele>21.39999961853</ele>
        <time>2019-10-31T09:25:03.000Z</time>
      </trkpt>
      <trkpt lat="47.28087" lon="-2.35682">
        <ele>21.799999237061</ele>
        <time>2019-10-31T09:25:04.000Z</time>
      </trkpt>
      <trkpt lat="47.28087" lon="-2.35684">
        <ele>21.799999237061</ele>
        <time>2019-10-31T09:25:05.000Z</time>
      </trkpt>
      <trkpt lat="47.28089" lon="-2.35691">
        <ele>21.799999237061</ele>
        <time>2019-10-31T09:25:11.000Z</time>
      </trkpt>
      <trkpt lat="47.28095" lon="-2.35692">
        <ele>21.799999237061</ele>
        <time>2019-10-31T09:25:24.000Z</time>
      </trkpt>
      <trkpt lat="47.28096" lon="-2.35691">
        <ele>22.799999237061</ele>
        <time>2019-10-31T09:25:25.000Z</time>
      </trkpt>
      <trkpt lat="47.28097" lon="-2.3569">
        <ele>23.200000762939</ele>
        <time>2019-10-31T09:25:26.000Z</time>
      </trkpt>
      <trkpt lat="47.28099" lon="-2.35689">
        <ele>23.60000038147</ele>
        <time>2019-10-31T09:25:27.000Z</time>
      </trkpt>
      <trkpt lat="47.28102" lon="-2.35687">
        <ele>24</ele>
        <time>2019-10-31T09:25:28.000Z</time>
      </trkpt>
      <trkpt lat="47.28111" lon="-2.35682">
        <ele>24.39999961853</ele>
        <time>2019-10-31T09:25:32.000Z</time>
      </trkpt>
      <trkpt lat="47.28113" lon="-2.35682">
        <ele>24.799999237061</ele>
        <time>2019-10-31T09:25:33.000Z</time>
      </trkpt>
      <trkpt lat="47.28115" lon="-2.35682">
        <ele>25.200000762939</ele>
        <time>2019-10-31T09:25:34.000Z</time>
      </trkpt>
      <trkpt lat="47.28117" lon="-2.35682">
        <ele>25.60000038147</ele>
        <time>2019-10-31T09:25:35.000Z</time>
      </trkpt>
      <trkpt lat="47.28119" lon="-2.35681">
        <ele>26</ele>
        <time>2019-10-31T09:25:36.000Z</time>
      </trkpt>
      <trkpt lat="47.28121" lon="-2.35681">
        <ele>26.60000038147</ele>
        <time>2019-10-31T09:25:37.000Z</time>
      </trkpt>
      <trkpt lat="47.28122" lon="-2.3568">
        <ele>27</ele>
        <time>2019-10-31T09:25:38.000Z</time>
      </trkpt>
      <trkpt lat="47.28123" lon="-2.35679">
        <ele>27.60000038147</ele>
        <time>2019-10-31T09:25:39.000Z</time>
      </trkpt>
      <trkpt lat="47.28124" lon="-2.35678">
        <ele>28</ele>
        <time>2019-10-31T09:25:40.000Z</time>
      </trkpt>
      <trkpt lat="47.28126" lon="-2.35676">
        <ele>28.39999961853</ele>
        <time>2019-10-31T09:25:41.000Z</time>
      </trkpt>
      <trkpt lat="47.28132" lon="-2.35671">
        <ele>28.39999961853</ele>
        <time>2019-10-31T09:25:44.000Z</time>
      </trkpt>
      <trkpt lat="47.28135" lon="-2.35668">
        <ele>28.799999237061</ele>
        <time>2019-10-31T09:25:46.000Z</time>
      </trkpt>
      <trkpt lat="47.28137" lon="-2.35667">
        <ele>29.200000762939</ele>
        <time>2019-10-31T09:25:47.000Z</time>
      </trkpt>
      <trkpt lat="47.28139" lon="-2.35666">
        <ele>29.799999237061</ele>
        <time>2019-10-31T09:25:48.000Z</time>
      </trkpt>
      <trkpt lat="47.28141" lon="-2.35666">
        <ele>30.60000038147</ele>
        <time>2019-10-31T09:25:49.000Z</time>
      </trkpt>
      <trkpt lat="47.28143" lon="-2.35668">
        <ele>30.60000038147</ele>
        <time>2019-10-31T09:25:50.000Z</time>
      </trkpt>
      <trkpt lat="47.28151" lon="-2.35674">
        <ele>30.60000038147</ele>
        <time>2019-10-31T09:25:54.000Z</time>
      </trkpt>
      <trkpt lat="47.28154" lon="-2.35678">
        <ele>30.200000762939</ele>
        <time>2019-10-31T09:25:56.000Z</time>
      </trkpt>
      <trkpt lat="47.28156" lon="-2.35678">
        <ele>29.60000038147</ele>
        <time>2019-10-31T09:25:57.000Z</time>
      </trkpt>
      <trkpt lat="47.28157" lon="-2.35678">
        <ele>29.200000762939</ele>
        <time>2019-10-31T09:25:58.000Z</time>
      </trkpt>
      <trkpt lat="47.28159" lon="-2.35678">
        <ele>28.799999237061</ele>
        <time>2019-10-31T09:25:59.000Z</time>
      </trkpt>
      <trkpt lat="47.2816" lon="-2.35678">
        <ele>28.39999961853</ele>
        <time>2019-10-31T09:26:00.000Z</time>
      </trkpt>
      <trkpt lat="47.28161" lon="-2.35678">
        <ele>28.39999961853</ele>
        <time>2019-10-31T09:26:01.000Z</time>
      </trkpt>
      <trkpt lat="47.28165" lon="-2.35688">
        <ele>27.200000762939</ele>
        <time>2019-10-31T09:26:06.000Z</time>
      </trkpt>
      <trkpt lat="47.28167" lon="-2.35696">
        <ele>25.39999961853</ele>
        <time>2019-10-31T09:26:09.000Z</time>
      </trkpt>
      <trkpt lat="47.28169" lon="-2.357">
        <ele>24.799999237061</ele>
        <time>2019-10-31T09:26:12.000Z</time>
      </trkpt>
      <trkpt lat="47.28174" lon="-2.35703">
        <ele>24.200000762939</ele>
        <time>2019-10-31T09:26:13.000Z</time>
      </trkpt>
      <trkpt lat="47.28178" lon="-2.35705">
        <ele>23.799999237061</ele>
        <time>2019-10-31T09:26:14.000Z</time>
      </trkpt>
      <trkpt lat="47.28186" lon="-2.35707">
        <ele>22.39999961853</ele>
        <time>2019-10-31T09:26:15.000Z</time>
      </trkpt>
      <trkpt lat="47.28186" lon="-2.35707">
        <ele>22.39999961853</ele>
        <time>2019-10-31T09:26:16.000Z</time>
      </trkpt>
      <trkpt lat="47.28193" lon="-2.35714">
        <ele>22</ele>
        <time>2019-10-31T09:26:17.000Z</time>
      </trkpt>
      <trkpt lat="47.282" lon="-2.35731">
        <ele>22</ele>
        <time>2019-10-31T09:26:23.000Z</time>
      </trkpt>
      <trkpt lat="47.28206" lon="-2.35741">
        <ele>22</ele>
        <time>2019-10-31T09:26:28.000Z</time>
      </trkpt>
      <trkpt lat="47.2821" lon="-2.35742">
        <ele>22</ele>
        <time>2019-10-31T09:26:30.000Z</time>
      </trkpt>
      <trkpt lat="47.28214" lon="-2.3575">
        <ele>22</ele>
        <time>2019-10-31T09:26:35.000Z</time>
      </trkpt>
      <trkpt lat="47.28217" lon="-2.35758">
        <ele>22</ele>
        <time>2019-10-31T09:26:38.000Z</time>
      </trkpt>
      <trkpt lat="47.28222" lon="-2.35761">
        <ele>22</ele>
        <time>2019-10-31T09:26:40.000Z</time>
      </trkpt>
      <trkpt lat="47.28223" lon="-2.35762">
        <ele>22.39999961853</ele>
        <time>2019-10-31T09:26:41.000Z</time>
      </trkpt>
      <trkpt lat="47.28225" lon="-2.35763">
        <ele>22.799999237061</ele>
        <time>2019-10-31T09:26:42.000Z</time>
      </trkpt>
      <trkpt lat="47.28227" lon="-2.35764">
        <ele>23.200000762939</ele>
        <time>2019-10-31T09:26:43.000Z</time>
      </trkpt>
      <trkpt lat="47.2823" lon="-2.35765">
        <ele>23.60000038147</ele>
        <time>2019-10-31T09:26:44.000Z</time>
      </trkpt>
      <trkpt lat="47.28233" lon="-2.35767">
        <ele>24</ele>
        <time>2019-10-31T09:26:45.000Z</time>
      </trkpt>
      <trkpt lat="47.28245" lon="-2.3577">
        <ele>24</ele>
        <time>2019-10-31T09:26:49.000Z</time>
      </trkpt>
      <trkpt lat="47.28248" lon="-2.3577">
        <ele>24</ele>
        <time>2019-10-31T09:26:50.000Z</time>
      </trkpt>
      <trkpt lat="47.28252" lon="-2.35773">
        <ele>24</ele>
        <time>2019-10-31T09:26:52.000Z</time>
      </trkpt>
      <trkpt lat="47.28255" lon="-2.35785">
        <ele>24</ele>
        <time>2019-10-31T09:26:56.000Z</time>
      </trkpt>
      <trkpt lat="47.28259" lon="-2.35805">
        <ele>24</ele>
        <time>2019-10-31T09:27:01.000Z</time>
      </trkpt>
      <trkpt lat="47.28264" lon="-2.35821">
        <ele>24</ele>
        <time>2019-10-31T09:27:05.000Z</time>
      </trkpt>
      <trkpt lat="47.28264" lon="-2.35823">
        <ele>24</ele>
        <time>2019-10-31T09:27:06.000Z</time>
      </trkpt>
      <trkpt lat="47.28263" lon="-2.3583">
        <ele>24</ele>
        <time>2019-10-31T09:27:09.000Z</time>
      </trkpt>
      <trkpt lat="47.28262" lon="-2.35833">
        <ele>24</ele>
        <time>2019-10-31T09:27:10.000Z</time>
      </trkpt>
      <trkpt lat="47.28259" lon="-2.35847">
        <ele>23.60000038147</ele>
        <time>2019-10-31T09:27:15.000Z</time>
      </trkpt>
      <trkpt lat="47.28258" lon="-2.3585">
        <ele>23.200000762939</ele>
        <time>2019-10-31T09:27:16.000Z</time>
      </trkpt>
      <trkpt lat="47.28258" lon="-2.35852">
        <ele>22.799999237061</ele>
        <time>2019-10-31T09:27:17.000Z</time>
      </trkpt>
      <trkpt lat="47.28233" lon="-2.35865">
        <ele>24.200000762939</ele>
        <time>2019-10-31T09:28:42.000Z</time>
      </trkpt>
      <trkpt lat="47.28231" lon="-2.35865">
        <ele>24.200000762939</ele>
        <time>2019-10-31T09:28:43.000Z</time>
      </trkpt>
      <trkpt lat="47.28222" lon="-2.35862">
        <ele>24.200000762939</ele>
        <time>2019-10-31T09:28:48.000Z</time>
      </trkpt>
      <trkpt lat="47.2822" lon="-2.3586">
        <ele>23.60000038147</ele>
        <time>2019-10-31T09:28:50.000Z</time>
      </trkpt>
      <trkpt lat="47.2822" lon="-2.35858">
        <ele>23.200000762939</ele>
        <time>2019-10-31T09:28:51.000Z</time>
      </trkpt>
      <trkpt lat="47.28219" lon="-2.35857">
        <ele>22.799999237061</ele>
        <time>2019-10-31T09:28:52.000Z</time>
      </trkpt>
      <trkpt lat="47.2821" lon="-2.35857">
        <ele>21.799999237061</ele>
        <time>2019-10-31T09:28:56.000Z</time>
      </trkpt>
      <trkpt lat="47.28203" lon="-2.35863">
        <ele>21.799999237061</ele>
        <time>2019-10-31T09:28:59.000Z</time>
      </trkpt>
      <trkpt lat="47.28201" lon="-2.35874">
        <ele>21.799999237061</ele>
        <time>2019-10-31T09:29:00.000Z</time>
      </trkpt>
      <trkpt lat="47.28206" lon="-2.35909">
        <ele>21.799999237061</ele>
        <time>2019-10-31T09:29:09.000Z</time>
      </trkpt>
      <trkpt lat="47.28203" lon="-2.35921">
        <ele>21.39999961853</ele>
        <time>2019-10-31T09:29:11.000Z</time>
      </trkpt>
      <trkpt lat="47.28201" lon="-2.35926">
        <ele>21</ele>
        <time>2019-10-31T09:29:12.000Z</time>
      </trkpt>
      <trkpt lat="47.28197" lon="-2.3593">
        <ele>20.60000038147</ele>
        <time>2019-10-31T09:29:13.000Z</time>
      </trkpt>
      <trkpt lat="47.28193" lon="-2.35933">
        <ele>20.200000762939</ele>
        <time>2019-10-31T09:29:14.000Z</time>
      </trkpt>
      <trkpt lat="47.28189" lon="-2.35937">
        <ele>19.799999237061</ele>
        <time>2019-10-31T09:29:15.000Z</time>
      </trkpt>
      <trkpt lat="47.28183" lon="-2.35944">
        <ele>19.799999237061</ele>
        <time>2019-10-31T09:29:17.000Z</time>
      </trkpt>
      <trkpt lat="47.28181" lon="-2.35946">
        <ele>19.799999237061</ele>
        <time>2019-10-31T09:29:18.000Z</time>
      </trkpt>
      <trkpt lat="47.28182" lon="-2.35967">
        <ele>17.60000038147</ele>
        <time>2019-10-31T09:29:35.000Z</time>
      </trkpt>
      <trkpt lat="47.28184" lon="-2.35975">
        <ele>17.60000038147</ele>
        <time>2019-10-31T09:29:37.000Z</time>
      </trkpt>
      <trkpt lat="47.28187" lon="-2.35982">
        <ele>17.60000038147</ele>
        <time>2019-10-31T09:29:39.000Z</time>
      </trkpt>
      <trkpt lat="47.28191" lon="-2.35991">
        <ele>17.60000038147</ele>
        <time>2019-10-31T09:29:41.000Z</time>
      </trkpt>
      <trkpt lat="47.28204" lon="-2.36017">
        <ele>17.60000038147</ele>
        <time>2019-10-31T09:29:47.000Z</time>
      </trkpt>
      <trkpt lat="47.28209" lon="-2.36026">
        <ele>17.60000038147</ele>
        <time>2019-10-31T09:29:50.000Z</time>
      </trkpt>
      <trkpt lat="47.28211" lon="-2.36027">
        <ele>17.60000038147</ele>
        <time>2019-10-31T09:29:51.000Z</time>
      </trkpt>
      <trkpt lat="47.28214" lon="-2.36037">
        <ele>17.60000038147</ele>
        <time>2019-10-31T09:29:55.000Z</time>
      </trkpt>
      <trkpt lat="47.2821" lon="-2.36047">
        <ele>17.60000038147</ele>
        <time>2019-10-31T09:29:58.000Z</time>
      </trkpt>
      <trkpt lat="47.28209" lon="-2.36051">
        <ele>17.60000038147</ele>
        <time>2019-10-31T09:29:59.000Z</time>
      </trkpt>
      <trkpt lat="47.2821" lon="-2.36056">
        <ele>17.60000038147</ele>
        <time>2019-10-31T09:30:00.000Z</time>
      </trkpt>
      <trkpt lat="47.28215" lon="-2.36077">
        <ele>17.60000038147</ele>
        <time>2019-10-31T09:30:04.000Z</time>
      </trkpt>
      <trkpt lat="47.28223" lon="-2.36102">
        <ele>17.60000038147</ele>
        <time>2019-10-31T09:30:09.000Z</time>
      </trkpt>
      <trkpt lat="47.28227" lon="-2.36113">
        <ele>17.60000038147</ele>
        <time>2019-10-31T09:30:13.000Z</time>
      </trkpt>
      <trkpt lat="47.28227" lon="-2.36113">
        <ele>17.60000038147</ele>
        <time>2019-10-31T09:30:15.000Z</time>
      </trkpt>
      <trkpt lat="47.28249" lon="-2.36127">
        <ele>19.60000038147</ele>
        <time>2019-10-31T09:30:56.000Z</time>
      </trkpt>
      <trkpt lat="47.28249" lon="-2.36129">
        <ele>19.60000038147</ele>
        <time>2019-10-31T09:30:57.000Z</time>
      </trkpt>
      <trkpt lat="47.28251" lon="-2.36131">
        <ele>19.60000038147</ele>
        <time>2019-10-31T09:30:58.000Z</time>
      </trkpt>
      <trkpt lat="47.28258" lon="-2.36142">
        <ele>19.60000038147</ele>
        <time>2019-10-31T09:31:02.000Z</time>
      </trkpt>
      <trkpt lat="47.28261" lon="-2.36155">
        <ele>19.60000038147</ele>
        <time>2019-10-31T09:31:05.000Z</time>
      </trkpt>
      <trkpt lat="47.28262" lon="-2.3616">
        <ele>19.60000038147</ele>
        <time>2019-10-31T09:31:06.000Z</time>
      </trkpt>
      <trkpt lat="47.28267" lon="-2.36183">
        <ele>19.60000038147</ele>
        <time>2019-10-31T09:31:11.000Z</time>
      </trkpt>
      <trkpt lat="47.28272" lon="-2.36202">
        <ele>19.60000038147</ele>
        <time>2019-10-31T09:31:15.000Z</time>
      </trkpt>
      <trkpt lat="47.28281" lon="-2.36236">
        <ele>19.60000038147</ele>
        <time>2019-10-31T09:31:21.000Z</time>
      </trkpt>
      <trkpt lat="47.28284" lon="-2.3624">
        <ele>19.60000038147</ele>
        <time>2019-10-31T09:31:22.000Z</time>
      </trkpt>
      <trkpt lat="47.28292" lon="-2.36244">
        <ele>19.60000038147</ele>
        <time>2019-10-31T09:31:24.000Z</time>
      </trkpt>
      <trkpt lat="47.28296" lon="-2.36244">
        <ele>19.60000038147</ele>
        <time>2019-10-31T09:31:25.000Z</time>
      </trkpt>
      <trkpt lat="47.28306" lon="-2.36244">
        <ele>19.60000038147</ele>
        <time>2019-10-31T09:31:27.000Z</time>
      </trkpt>
      <trkpt lat="47.28322" lon="-2.36249">
        <ele>19.60000038147</ele>
        <time>2019-10-31T09:31:31.000Z</time>
      </trkpt>
      <trkpt lat="47.28326" lon="-2.36251">
        <ele>19.60000038147</ele>
        <time>2019-10-31T09:31:32.000Z</time>
      </trkpt>
      <trkpt lat="47.28339" lon="-2.36257">
        <ele>19.60000038147</ele>
        <time>2019-10-31T09:31:36.000Z</time>
      </trkpt>
      <trkpt lat="47.28359" lon="-2.36262">
        <ele>19.60000038147</ele>
        <time>2019-10-31T09:31:41.000Z</time>
      </trkpt>
      <trkpt lat="47.28379" lon="-2.36273">
        <ele>20</ele>
        <time>2019-10-31T09:31:47.000Z</time>
      </trkpt>
      <trkpt lat="47.28383" lon="-2.36272">
        <ele>20.39999961853</ele>
        <time>2019-10-31T09:31:48.000Z</time>
      </trkpt>
      <trkpt lat="47.28387" lon="-2.36272">
        <ele>20.799999237061</ele>
        <time>2019-10-31T09:31:49.000Z</time>
      </trkpt>
      <trkpt lat="47.2839" lon="-2.36273">
        <ele>21.200000762939</ele>
        <time>2019-10-31T09:31:50.000Z</time>
      </trkpt>
      <trkpt lat="47.28393" lon="-2.36275">
        <ele>21.60000038147</ele>
        <time>2019-10-31T09:31:51.000Z</time>
      </trkpt>
      <trkpt lat="47.28397" lon="-2.36279">
        <ele>21.60000038147</ele>
        <time>2019-10-31T09:31:53.000Z</time>
      </trkpt>
      <trkpt lat="47.284" lon="-2.36285">
        <ele>21.60000038147</ele>
        <time>2019-10-31T09:31:55.000Z</time>
      </trkpt>
      <trkpt lat="47.28408" lon="-2.36289">
        <ele>22.60000038147</ele>
        <time>2019-10-31T09:31:58.000Z</time>
      </trkpt>
      <trkpt lat="47.28411" lon="-2.36289">
        <ele>23</ele>
        <time>2019-10-31T09:31:59.000Z</time>
      </trkpt>
      <trkpt lat="47.28413" lon="-2.36288">
        <ele>23.39999961853</ele>
        <time>2019-10-31T09:32:00.000Z</time>
      </trkpt>
      <trkpt lat="47.28416" lon="-2.36288">
        <ele>23.799999237061</ele>
        <time>2019-10-31T09:32:01.000Z</time>
      </trkpt>
      <trkpt lat="47.28423" lon="-2.36289">
        <ele>23.799999237061</ele>
        <time>2019-10-31T09:32:03.000Z</time>
      </trkpt>
      <trkpt lat="47.28442" lon="-2.36296">
        <ele>23.799999237061</ele>
        <time>2019-10-31T09:32:09.000Z</time>
      </trkpt>
      <trkpt lat="47.2845" lon="-2.36297">
        <ele>23.799999237061</ele>
        <time>2019-10-31T09:32:12.000Z</time>
      </trkpt>
      <trkpt lat="47.28451" lon="-2.36296">
        <ele>24.200000762939</ele>
        <time>2019-10-31T09:32:13.000Z</time>
      </trkpt>
      <trkpt lat="47.28453" lon="-2.36295">
        <ele>24.60000038147</ele>
        <time>2019-10-31T09:32:14.000Z</time>
      </trkpt>
      <trkpt lat="47.28454" lon="-2.36294">
        <ele>25</ele>
        <time>2019-10-31T09:32:15.000Z</time>
      </trkpt>
      <trkpt lat="47.28455" lon="-2.36292">
        <ele>25.39999961853</ele>
        <time>2019-10-31T09:32:16.000Z</time>
      </trkpt>
      <trkpt lat="47.28456" lon="-2.36289">
        <ele>25.799999237061</ele>
        <time>2019-10-31T09:32:17.000Z</time>
      </trkpt>
      <trkpt lat="47.28456" lon="-2.36282">
        <ele>25.799999237061</ele>
        <time>2019-10-31T09:32:19.000Z</time>
      </trkpt>
      <trkpt lat="47.28457" lon="-2.3626">
        <ele>25.799999237061</ele>
        <time>2019-10-31T09:32:24.000Z</time>
      </trkpt>
      <trkpt lat="47.28455" lon="-2.36242">
        <ele>25.799999237061</ele>
        <time>2019-10-31T09:32:29.000Z</time>
      </trkpt>
      <trkpt lat="47.28453" lon="-2.3622">
        <ele>25.799999237061</ele>
        <time>2019-10-31T09:32:34.000Z</time>
      </trkpt>
      <trkpt lat="47.28453" lon="-2.36211">
        <ele>25.799999237061</ele>
        <time>2019-10-31T09:32:36.000Z</time>
      </trkpt>
      <trkpt lat="47.28453" lon="-2.36207">
        <ele>26.200000762939</ele>
        <time>2019-10-31T09:32:37.000Z</time>
      </trkpt>
      <trkpt lat="47.28453" lon="-2.36203">
        <ele>26.60000038147</ele>
        <time>2019-10-31T09:32:38.000Z</time>
      </trkpt>
      <trkpt lat="47.28452" lon="-2.36198">
        <ele>27</ele>
        <time>2019-10-31T09:32:39.000Z</time>
      </trkpt>
      <trkpt lat="47.28451" lon="-2.36195">
        <ele>27.39999961853</ele>
        <time>2019-10-31T09:32:40.000Z</time>
      </trkpt>
      <trkpt lat="47.28449" lon="-2.36191">
        <ele>27.799999237061</ele>
        <time>2019-10-31T09:32:41.000Z</time>
      </trkpt>
      <trkpt lat="47.28448" lon="-2.36188">
        <ele>27.799999237061</ele>
        <time>2019-10-31T09:32:42.000Z</time>
      </trkpt>
      <trkpt lat="47.28448" lon="-2.36168">
        <ele>28.799999237061</ele>
        <time>2019-10-31T09:32:47.000Z</time>
      </trkpt>
      <trkpt lat="47.28449" lon="-2.36164">
        <ele>29.200000762939</ele>
        <time>2019-10-31T09:32:48.000Z</time>
      </trkpt>
      <trkpt lat="47.28449" lon="-2.3616">
        <ele>29.60000038147</ele>
        <time>2019-10-31T09:32:49.000Z</time>
      </trkpt>
      <trkpt lat="47.28448" lon="-2.36157">
        <ele>30.200000762939</ele>
        <time>2019-10-31T09:32:50.000Z</time>
      </trkpt>
      <trkpt lat="47.28447" lon="-2.36152">
        <ele>30.200000762939</ele>
        <time>2019-10-31T09:32:52.000Z</time>
      </trkpt>
      <trkpt lat="47.28445" lon="-2.3614">
        <ele>30.60000038147</ele>
        <time>2019-10-31T09:32:55.000Z</time>
      </trkpt>
      <trkpt lat="47.28444" lon="-2.36136">
        <ele>31</ele>
        <time>2019-10-31T09:32:56.000Z</time>
      </trkpt>
      <trkpt lat="47.28443" lon="-2.36132">
        <ele>31.39999961853</ele>
        <time>2019-10-31T09:32:57.000Z</time>
      </trkpt>
      <trkpt lat="47.28442" lon="-2.36128">
        <ele>31.799999237061</ele>
        <time>2019-10-31T09:32:58.000Z</time>
      </trkpt>
      <trkpt lat="47.28441" lon="-2.36124">
        <ele>32.200000762939</ele>
        <time>2019-10-31T09:32:59.000Z</time>
      </trkpt>
      <trkpt lat="47.28439" lon="-2.36107">
        <ele>32.200000762939</ele>
        <time>2019-10-31T09:33:03.000Z</time>
      </trkpt>
      <trkpt lat="47.28438" lon="-2.36099">
        <ele>32.599998474121</ele>
        <time>2019-10-31T09:33:05.000Z</time>
      </trkpt>
      <trkpt lat="47.28438" lon="-2.36096">
        <ele>33</ele>
        <time>2019-10-31T09:33:06.000Z</time>
      </trkpt>
      <trkpt lat="47.28438" lon="-2.36091">
        <ele>33.400001525879</ele>
        <time>2019-10-31T09:33:07.000Z</time>
      </trkpt>
      <trkpt lat="47.28437" lon="-2.36087">
        <ele>34</ele>
        <time>2019-10-31T09:33:08.000Z</time>
      </trkpt>
      <trkpt lat="47.28436" lon="-2.36082">
        <ele>34.400001525879</ele>
        <time>2019-10-31T09:33:09.000Z</time>
      </trkpt>
      <trkpt lat="47.28436" lon="-2.36078">
        <ele>34.400001525879</ele>
        <time>2019-10-31T09:33:10.000Z</time>
      </trkpt>
      <trkpt lat="47.28435" lon="-2.36059">
        <ele>34.799999237061</ele>
        <time>2019-10-31T09:33:15.000Z</time>
      </trkpt>
      <trkpt lat="47.28435" lon="-2.36055">
        <ele>35.200000762939</ele>
        <time>2019-10-31T09:33:16.000Z</time>
      </trkpt>
      <trkpt lat="47.28435" lon="-2.36052">
        <ele>35.599998474121</ele>
        <time>2019-10-31T09:33:17.000Z</time>
      </trkpt>
      <trkpt lat="47.28436" lon="-2.36048">
        <ele>36</ele>
        <time>2019-10-31T09:33:18.000Z</time>
      </trkpt>
      <trkpt lat="47.28437" lon="-2.36044">
        <ele>36.400001525879</ele>
        <time>2019-10-31T09:33:19.000Z</time>
      </trkpt>
      <trkpt lat="47.28438" lon="-2.3604">
        <ele>36.400001525879</ele>
        <time>2019-10-31T09:33:20.000Z</time>
      </trkpt>
      <trkpt lat="47.28439" lon="-2.36024">
        <ele>36.400001525879</ele>
        <time>2019-10-31T09:33:25.000Z</time>
      </trkpt>
      <trkpt lat="47.2844" lon="-2.36022">
        <ele>36.400001525879</ele>
        <time>2019-10-31T09:33:26.000Z</time>
      </trkpt>
      <trkpt lat="47.28443" lon="-2.36021">
        <ele>36.400001525879</ele>
        <time>2019-10-31T09:33:29.000Z</time>
      </trkpt>
      <trkpt lat="47.28444" lon="-2.36015">
        <ele>36.400001525879</ele>
        <time>2019-10-31T09:33:33.000Z</time>
      </trkpt>
      <trkpt lat="47.28444" lon="-2.36014">
        <ele>36.400001525879</ele>
        <time>2019-10-31T09:33:34.000Z</time>
      </trkpt>
      <trkpt lat="47.28445" lon="-2.3601">
        <ele>36.400001525879</ele>
        <time>2019-10-31T09:33:37.000Z</time>
      </trkpt>
      <trkpt lat="47.28446" lon="-2.36007">
        <ele>36.400001525879</ele>
        <time>2019-10-31T09:34:24.000Z</time>
      </trkpt>
      <trkpt lat="47.28447" lon="-2.36005">
        <ele>36.400001525879</ele>
        <time>2019-10-31T09:34:25.000Z</time>
      </trkpt>
      <trkpt lat="47.28449" lon="-2.35996">
        <ele>36.400001525879</ele>
        <time>2019-10-31T09:34:29.000Z</time>
      </trkpt>
      <trkpt lat="47.28448" lon="-2.35992">
        <ele>36.400001525879</ele>
        <time>2019-10-31T09:34:30.000Z</time>
      </trkpt>
      <trkpt lat="47.28442" lon="-2.35989">
        <ele>36.400001525879</ele>
        <time>2019-10-31T09:34:33.000Z</time>
      </trkpt>
      <trkpt lat="47.2844" lon="-2.3599">
        <ele>36.400001525879</ele>
        <time>2019-10-31T09:34:34.000Z</time>
      </trkpt>
      <trkpt lat="47.2843" lon="-2.35998">
        <ele>36.400001525879</ele>
        <time>2019-10-31T09:34:38.000Z</time>
      </trkpt>
      <trkpt lat="47.28409" lon="-2.36017">
        <ele>36.400001525879</ele>
        <time>2019-10-31T09:34:45.000Z</time>
      </trkpt>
      <trkpt lat="47.28394" lon="-2.36023">
        <ele>36.400001525879</ele>
        <time>2019-10-31T09:34:50.000Z</time>
      </trkpt>
      <trkpt lat="47.28386" lon="-2.36022">
        <ele>36.400001525879</ele>
        <time>2019-10-31T09:34:55.000Z</time>
      </trkpt>
      <trkpt lat="47.28385" lon="-2.36022">
        <ele>36</ele>
        <time>2019-10-31T09:34:56.000Z</time>
      </trkpt>
      <trkpt lat="47.28384" lon="-2.36021">
        <ele>35.599998474121</ele>
        <time>2019-10-31T09:34:57.000Z</time>
      </trkpt>
      <trkpt lat="47.28372" lon="-2.36009">
        <ele>33.799999237061</ele>
        <time>2019-10-31T09:35:29.000Z</time>
      </trkpt>
      <trkpt lat="47.28368" lon="-2.36004">
        <ele>32.400001525879</ele>
        <time>2019-10-31T09:35:30.000Z</time>
      </trkpt>
      <trkpt lat="47.28368" lon="-2.36004">
        <ele>32.400001525879</ele>
        <time>2019-10-31T09:35:33.000Z</time>
      </trkpt>
      <trkpt lat="47.28368" lon="-2.36002">
        <ele>32</ele>
        <time>2019-10-31T09:35:34.000Z</time>
      </trkpt>
      <trkpt lat="47.28368" lon="-2.36">
        <ele>32</ele>
        <time>2019-10-31T09:35:35.000Z</time>
      </trkpt>
      <trkpt lat="47.28369" lon="-2.35987">
        <ele>30.60000038147</ele>
        <time>2019-10-31T09:35:36.000Z</time>
      </trkpt>
      <trkpt lat="47.28369" lon="-2.35982">
        <ele>30</ele>
        <time>2019-10-31T09:35:39.000Z</time>
      </trkpt>
      <trkpt lat="47.28369" lon="-2.35974">
        <ele>29</ele>
        <time>2019-10-31T09:35:40.000Z</time>
      </trkpt>
      <trkpt lat="47.2837" lon="-2.35967">
        <ele>28.39999961853</ele>
        <time>2019-10-31T09:35:41.000Z</time>
      </trkpt>
      <trkpt lat="47.28369" lon="-2.3596">
        <ele>28</ele>
        <time>2019-10-31T09:35:42.000Z</time>
      </trkpt>
      <trkpt lat="47.28368" lon="-2.35953">
        <ele>27.39999961853</ele>
        <time>2019-10-31T09:35:43.000Z</time>
      </trkpt>
      <trkpt lat="47.28364" lon="-2.35926">
        <ele>27.39999961853</ele>
        <time>2019-10-31T09:35:48.000Z</time>
      </trkpt>
      <trkpt lat="47.28363" lon="-2.35912">
        <ele>27.39999961853</ele>
        <time>2019-10-31T09:35:51.000Z</time>
      </trkpt>
      <trkpt lat="47.28366" lon="-2.35908">
        <ele>27</ele>
        <time>2019-10-31T09:35:52.000Z</time>
      </trkpt>
      <trkpt lat="47.28369" lon="-2.35903">
        <ele>26.60000038147</ele>
        <time>2019-10-31T09:35:53.000Z</time>
      </trkpt>
      <trkpt lat="47.28372" lon="-2.35899">
        <ele>26.200000762939</ele>
        <time>2019-10-31T09:35:54.000Z</time>
      </trkpt>
      <trkpt lat="47.28376" lon="-2.35896">
        <ele>25.799999237061</ele>
        <time>2019-10-31T09:35:55.000Z</time>
      </trkpt>
      <trkpt lat="47.2838" lon="-2.35893">
        <ele>25.39999961853</ele>
        <time>2019-10-31T09:35:56.000Z</time>
      </trkpt>
      <trkpt lat="47.28383" lon="-2.3589">
        <ele>25.39999961853</ele>
        <time>2019-10-31T09:35:57.000Z</time>
      </trkpt>
      <trkpt lat="47.28387" lon="-2.35886">
        <ele>25.39999961853</ele>
        <time>2019-10-31T09:35:58.000Z</time>
      </trkpt>
      <trkpt lat="47.28405" lon="-2.35874">
        <ele>25.39999961853</ele>
        <time>2019-10-31T09:36:03.000Z</time>
      </trkpt>
      <trkpt lat="47.28416" lon="-2.35861">
        <ele>25.39999961853</ele>
        <time>2019-10-31T09:36:07.000Z</time>
      </trkpt>
      <trkpt lat="47.28418" lon="-2.35857">
        <ele>25.39999961853</ele>
        <time>2019-10-31T09:36:08.000Z</time>
      </trkpt>
      <trkpt lat="47.28418" lon="-2.35849">
        <ele>25.39999961853</ele>
        <time>2019-10-31T09:36:10.000Z</time>
      </trkpt>
      <trkpt lat="47.28424" lon="-2.3584">
        <ele>25.39999961853</ele>
        <time>2019-10-31T09:36:14.000Z</time>
      </trkpt>
      <trkpt lat="47.28435" lon="-2.35838">
        <ele>25.39999961853</ele>
        <time>2019-10-31T09:36:17.000Z</time>
      </trkpt>
      <trkpt lat="47.28452" lon="-2.35828">
        <ele>25.39999961853</ele>
        <time>2019-10-31T09:36:21.000Z</time>
      </trkpt>
      <trkpt lat="47.28456" lon="-2.35829">
        <ele>25.39999961853</ele>
        <time>2019-10-31T09:36:25.000Z</time>
      </trkpt>
      <trkpt lat="47.28457" lon="-2.35834">
        <ele>25.39999961853</ele>
        <time>2019-10-31T09:36:27.000Z</time>
      </trkpt>
      <trkpt lat="47.28459" lon="-2.35842">
        <ele>25.39999961853</ele>
        <time>2019-10-31T09:36:29.000Z</time>
      </trkpt>
      <trkpt lat="47.28463" lon="-2.35854">
        <ele>25.39999961853</ele>
        <time>2019-10-31T09:36:33.000Z</time>
      </trkpt>
      <trkpt lat="47.28468" lon="-2.35857">
        <ele>25.799999237061</ele>
        <time>2019-10-31T09:36:35.000Z</time>
      </trkpt>
      <trkpt lat="47.28472" lon="-2.35858">
        <ele>26.200000762939</ele>
        <time>2019-10-31T09:36:36.000Z</time>
      </trkpt>
      <trkpt lat="47.28474" lon="-2.3586">
        <ele>26.60000038147</ele>
        <time>2019-10-31T09:36:37.000Z</time>
      </trkpt>
      <trkpt lat="47.28477" lon="-2.35861">
        <ele>27</ele>
        <time>2019-10-31T09:36:38.000Z</time>
      </trkpt>
      <trkpt lat="47.28481" lon="-2.35863">
        <ele>27.39999961853</ele>
        <time>2019-10-31T09:36:39.000Z</time>
      </trkpt>
      <trkpt lat="47.28491" lon="-2.35869">
        <ele>27.39999961853</ele>
        <time>2019-10-31T09:36:42.000Z</time>
      </trkpt>
      <trkpt lat="47.28496" lon="-2.35868">
        <ele>27.39999961853</ele>
        <time>2019-10-31T09:36:44.000Z</time>
      </trkpt>
      <trkpt lat="47.28498" lon="-2.35869">
        <ele>27.39999961853</ele>
        <time>2019-10-31T09:36:45.000Z</time>
      </trkpt>
      <trkpt lat="47.28503" lon="-2.35873">
        <ele>27.39999961853</ele>
        <time>2019-10-31T09:36:47.000Z</time>
      </trkpt>
      <trkpt lat="47.28509" lon="-2.35875">
        <ele>27.799999237061</ele>
        <time>2019-10-31T09:36:52.000Z</time>
      </trkpt>
      <trkpt lat="47.28513" lon="-2.35879">
        <ele>29.60000038147</ele>
        <time>2019-10-31T09:36:53.000Z</time>
      </trkpt>
      <trkpt lat="47.28513" lon="-2.3588">
        <ele>29.60000038147</ele>
        <time>2019-10-31T09:36:56.000Z</time>
      </trkpt>
      <trkpt lat="47.28528" lon="-2.35891">
        <ele>31.60000038147</ele>
        <time>2019-10-31T09:37:03.000Z</time>
      </trkpt>
      <trkpt lat="47.28532" lon="-2.35891">
        <ele>31.60000038147</ele>
        <time>2019-10-31T09:37:05.000Z</time>
      </trkpt>
      <trkpt lat="47.28533" lon="-2.35892">
        <ele>32</ele>
        <time>2019-10-31T09:37:06.000Z</time>
      </trkpt>
      <trkpt lat="47.28535" lon="-2.35893">
        <ele>32.599998474121</ele>
        <time>2019-10-31T09:37:07.000Z</time>
      </trkpt>
      <trkpt lat="47.28537" lon="-2.35894">
        <ele>33</ele>
        <time>2019-10-31T09:37:08.000Z</time>
      </trkpt>
      <trkpt lat="47.28538" lon="-2.35895">
        <ele>33.400001525879</ele>
        <time>2019-10-31T09:37:09.000Z</time>
      </trkpt>
      <trkpt lat="47.28539" lon="-2.35896">
        <ele>33.799999237061</ele>
        <time>2019-10-31T09:37:10.000Z</time>
      </trkpt>
      <trkpt lat="47.28541" lon="-2.35897">
        <ele>33.799999237061</ele>
        <time>2019-10-31T09:37:11.000Z</time>
      </trkpt>
      <trkpt lat="47.28549" lon="-2.3591">
        <ele>33.799999237061</ele>
        <time>2019-10-31T09:37:39.000Z</time>
      </trkpt>
      <trkpt lat="47.28548" lon="-2.35914">
        <ele>33.799999237061</ele>
        <time>2019-10-31T09:37:41.000Z</time>
      </trkpt>
      <trkpt lat="47.28546" lon="-2.35919">
        <ele>34.599998474121</ele>
        <time>2019-10-31T09:37:45.000Z</time>
      </trkpt>
      <trkpt lat="47.28545" lon="-2.35921">
        <ele>35.200000762939</ele>
        <time>2019-10-31T09:37:46.000Z</time>
      </trkpt>
      <trkpt lat="47.28541" lon="-2.35928">
        <ele>36</ele>
        <time>2019-10-31T09:37:47.000Z</time>
      </trkpt>
      <trkpt lat="47.28541" lon="-2.35928">
        <ele>36</ele>
        <time>2019-10-31T09:37:49.000Z</time>
      </trkpt>
      <trkpt lat="47.28535" lon="-2.35933">
        <ele>37.200000762939</ele>
        <time>2019-10-31T09:37:52.000Z</time>
      </trkpt>
      <trkpt lat="47.28529" lon="-2.35936">
        <ele>38.200000762939</ele>
        <time>2019-10-31T09:37:55.000Z</time>
      </trkpt>
      <trkpt lat="47.28529" lon="-2.35936">
        <ele>38.200000762939</ele>
        <time>2019-10-31T09:37:57.000Z</time>
      </trkpt>
      <trkpt lat="47.28506" lon="-2.35939">
        <ele>38.200000762939</ele>
        <time>2019-10-31T09:38:03.000Z</time>
      </trkpt>
      <trkpt lat="47.28487" lon="-2.35946">
        <ele>38.200000762939</ele>
        <time>2019-10-31T09:38:07.000Z</time>
      </trkpt>
      <trkpt lat="47.28473" lon="-2.35963">
        <ele>38.200000762939</ele>
        <time>2019-10-31T09:38:11.000Z</time>
      </trkpt>
      <trkpt lat="47.28465" lon="-2.35972">
        <ele>38.200000762939</ele>
        <time>2019-10-31T09:38:15.000Z</time>
      </trkpt>
      <trkpt lat="47.28455" lon="-2.35988">
        <ele>38.200000762939</ele>
        <time>2019-10-31T09:38:20.000Z</time>
      </trkpt>
      <trkpt lat="47.28456" lon="-2.36002">
        <ele>38.200000762939</ele>
        <time>2019-10-31T09:38:24.000Z</time>
      </trkpt>
      <trkpt lat="47.2846" lon="-2.36013">
        <ele>38.200000762939</ele>
        <time>2019-10-31T09:38:28.000Z</time>
      </trkpt>
      <trkpt lat="47.2847" lon="-2.36023">
        <ele>38.200000762939</ele>
        <time>2019-10-31T09:38:32.000Z</time>
      </trkpt>
      <trkpt lat="47.28486" lon="-2.36033">
        <ele>38.200000762939</ele>
        <time>2019-10-31T09:38:38.000Z</time>
      </trkpt>
      <trkpt lat="47.28499" lon="-2.36047">
        <ele>38.200000762939</ele>
        <time>2019-10-31T09:38:43.000Z</time>
      </trkpt>
      <trkpt lat="47.28516" lon="-2.36068">
        <ele>38.200000762939</ele>
        <time>2019-10-31T09:38:49.000Z</time>
      </trkpt>
      <trkpt lat="47.28524" lon="-2.36082">
        <ele>38.200000762939</ele>
        <time>2019-10-31T09:38:52.000Z</time>
      </trkpt>
      <trkpt lat="47.28526" lon="-2.36089">
        <ele>38.200000762939</ele>
        <time>2019-10-31T09:38:53.000Z</time>
      </trkpt>
      <trkpt lat="47.28528" lon="-2.36096">
        <ele>38.200000762939</ele>
        <time>2019-10-31T09:38:54.000Z</time>
      </trkpt>
      <trkpt lat="47.28532" lon="-2.36115">
        <ele>38.200000762939</ele>
        <time>2019-10-31T09:38:56.000Z</time>
      </trkpt>
      <trkpt lat="47.28536" lon="-2.36131">
        <ele>38.200000762939</ele>
        <time>2019-10-31T09:38:58.000Z</time>
      </trkpt>
      <trkpt lat="47.28542" lon="-2.36142">
        <ele>38.200000762939</ele>
        <time>2019-10-31T09:39:00.000Z</time>
      </trkpt>
      <trkpt lat="47.28549" lon="-2.36148">
        <ele>38.200000762939</ele>
        <time>2019-10-31T09:39:03.000Z</time>
      </trkpt>
      <trkpt lat="47.28558" lon="-2.36145">
        <ele>38.200000762939</ele>
        <time>2019-10-31T09:39:05.000Z</time>
      </trkpt>
      <trkpt lat="47.28562" lon="-2.36144">
        <ele>38.599998474121</ele>
        <time>2019-10-31T09:39:08.000Z</time>
      </trkpt>
      <trkpt lat="47.28564" lon="-2.36143">
        <ele>39</ele>
        <time>2019-10-31T09:39:09.000Z</time>
      </trkpt>
      <trkpt lat="47.28567" lon="-2.36142">
        <ele>39.400001525879</ele>
        <time>2019-10-31T09:39:10.000Z</time>
      </trkpt>
      <trkpt lat="47.28569" lon="-2.36142">
        <ele>39.799999237061</ele>
        <time>2019-10-31T09:39:11.000Z</time>
      </trkpt>
      <trkpt lat="47.28571" lon="-2.36143">
        <ele>40.200000762939</ele>
        <time>2019-10-31T09:39:12.000Z</time>
      </trkpt>
      <trkpt lat="47.28573" lon="-2.36144">
        <ele>40.799999237061</ele>
        <time>2019-10-31T09:39:13.000Z</time>
      </trkpt>
      <trkpt lat="47.28575" lon="-2.36146">
        <ele>41.200000762939</ele>
        <time>2019-10-31T09:39:14.000Z</time>
      </trkpt>
      <trkpt lat="47.28577" lon="-2.36147">
        <ele>41.599998474121</ele>
        <time>2019-10-31T09:39:15.000Z</time>
      </trkpt>
      <trkpt lat="47.28579" lon="-2.36148">
        <ele>42</ele>
        <time>2019-10-31T09:39:16.000Z</time>
      </trkpt>
      <trkpt lat="47.28582" lon="-2.36149">
        <ele>42.400001525879</ele>
        <time>2019-10-31T09:39:17.000Z</time>
      </trkpt>
      <trkpt lat="47.28584" lon="-2.3615">
        <ele>42.400001525879</ele>
        <time>2019-10-31T09:39:18.000Z</time>
      </trkpt>
      <trkpt lat="47.28588" lon="-2.36151">
        <ele>42.400001525879</ele>
        <time>2019-10-31T09:39:20.000Z</time>
      </trkpt>
      <trkpt lat="47.28597" lon="-2.3615">
        <ele>42.400001525879</ele>
        <time>2019-10-31T09:39:23.000Z</time>
      </trkpt>
      <trkpt lat="47.28602" lon="-2.36146">
        <ele>42.400001525879</ele>
        <time>2019-10-31T09:39:25.000Z</time>
      </trkpt>
      <trkpt lat="47.28613" lon="-2.36142">
        <ele>42.400001525879</ele>
        <time>2019-10-31T09:39:30.000Z</time>
      </trkpt>
      <trkpt lat="47.28617" lon="-2.36141">
        <ele>42.400001525879</ele>
        <time>2019-10-31T09:39:31.000Z</time>
      </trkpt>
      <trkpt lat="47.28623" lon="-2.36149">
        <ele>42.400001525879</ele>
        <time>2019-10-31T09:39:34.000Z</time>
      </trkpt>
      <trkpt lat="47.28625" lon="-2.36153">
        <ele>42.400001525879</ele>
        <time>2019-10-31T09:39:35.000Z</time>
      </trkpt>
      <trkpt lat="47.28635" lon="-2.36164">
        <ele>42.400001525879</ele>
        <time>2019-10-31T09:39:38.000Z</time>
      </trkpt>
      <trkpt lat="47.28645" lon="-2.36172">
        <ele>42</ele>
        <time>2019-10-31T09:39:41.000Z</time>
      </trkpt>
      <trkpt lat="47.28648" lon="-2.36176">
        <ele>41.599998474121</ele>
        <time>2019-10-31T09:39:42.000Z</time>
      </trkpt>
      <trkpt lat="47.2865" lon="-2.36179">
        <ele>41.200000762939</ele>
        <time>2019-10-31T09:39:43.000Z</time>
      </trkpt>
      <trkpt lat="47.28652" lon="-2.36183">
        <ele>40.799999237061</ele>
        <time>2019-10-31T09:39:44.000Z</time>
      </trkpt>
      <trkpt lat="47.28654" lon="-2.36188">
        <ele>40.400001525879</ele>
        <time>2019-10-31T09:39:45.000Z</time>
      </trkpt>
      <trkpt lat="47.28655" lon="-2.36194">
        <ele>40.400001525879</ele>
        <time>2019-10-31T09:39:46.000Z</time>
      </trkpt>
      <trkpt lat="47.28657" lon="-2.36204">
        <ele>40.400001525879</ele>
        <time>2019-10-31T09:39:48.000Z</time>
      </trkpt>
      <trkpt lat="47.28657" lon="-2.36216">
        <ele>40.400001525879</ele>
        <time>2019-10-31T09:39:50.000Z</time>
      </trkpt>
      <trkpt lat="47.2866" lon="-2.36237">
        <ele>39.799999237061</ele>
        <time>2019-10-31T09:39:53.000Z</time>
      </trkpt>
      <trkpt lat="47.28661" lon="-2.36242">
        <ele>39.400001525879</ele>
        <time>2019-10-31T09:39:54.000Z</time>
      </trkpt>
      <trkpt lat="47.28662" lon="-2.36246">
        <ele>39</ele>
        <time>2019-10-31T09:39:55.000Z</time>
      </trkpt>
      <trkpt lat="47.28663" lon="-2.36249">
        <ele>38.599998474121</ele>
        <time>2019-10-31T09:39:56.000Z</time>
      </trkpt>
      <trkpt lat="47.28664" lon="-2.36253">
        <ele>38.200000762939</ele>
        <time>2019-10-31T09:39:57.000Z</time>
      </trkpt>
      <trkpt lat="47.28677" lon="-2.36263">
        <ele>38.200000762939</ele>
        <time>2019-10-31T09:39:59.000Z</time>
      </trkpt>
      <trkpt lat="47.28695" lon="-2.36273">
        <ele>37.799999237061</ele>
        <time>2019-10-31T09:40:06.000Z</time>
      </trkpt>
      <trkpt lat="47.28699" lon="-2.36277">
        <ele>37.200000762939</ele>
        <time>2019-10-31T09:40:07.000Z</time>
      </trkpt>
      <trkpt lat="47.28701" lon="-2.36279">
        <ele>36.799999237061</ele>
        <time>2019-10-31T09:40:08.000Z</time>
      </trkpt>
      <trkpt lat="47.28703" lon="-2.36283">
        <ele>36.400001525879</ele>
        <time>2019-10-31T09:40:09.000Z</time>
      </trkpt>
      <trkpt lat="47.28704" lon="-2.36285">
        <ele>36</ele>
        <time>2019-10-31T09:40:10.000Z</time>
      </trkpt>
      <trkpt lat="47.28705" lon="-2.36288">
        <ele>36</ele>
        <time>2019-10-31T09:40:11.000Z</time>
      </trkpt>
      <trkpt lat="47.28705" lon="-2.36291">
        <ele>36</ele>
        <time>2019-10-31T09:40:13.000Z</time>
      </trkpt>
      <trkpt lat="47.28703" lon="-2.36299">
        <ele>36</ele>
        <time>2019-10-31T09:40:16.000Z</time>
      </trkpt>
      <trkpt lat="47.28701" lon="-2.36307">
        <ele>36.400001525879</ele>
        <time>2019-10-31T09:40:19.000Z</time>
      </trkpt>
      <trkpt lat="47.28701" lon="-2.36311">
        <ele>36.799999237061</ele>
        <time>2019-10-31T09:40:20.000Z</time>
      </trkpt>
      <trkpt lat="47.28701" lon="-2.36314">
        <ele>37.400001525879</ele>
        <time>2019-10-31T09:40:21.000Z</time>
      </trkpt>
      <trkpt lat="47.28701" lon="-2.36318">
        <ele>37.799999237061</ele>
        <time>2019-10-31T09:40:22.000Z</time>
      </trkpt>
      <trkpt lat="47.28701" lon="-2.36322">
        <ele>38.200000762939</ele>
        <time>2019-10-31T09:40:23.000Z</time>
      </trkpt>
      <trkpt lat="47.28701" lon="-2.36331">
        <ele>38.200000762939</ele>
        <time>2019-10-31T09:40:25.000Z</time>
      </trkpt>
      <trkpt lat="47.287" lon="-2.36349">
        <ele>38.599998474121</ele>
        <time>2019-10-31T09:40:28.000Z</time>
      </trkpt>
      <trkpt lat="47.28699" lon="-2.36354">
        <ele>39</ele>
        <time>2019-10-31T09:40:29.000Z</time>
      </trkpt>
      <trkpt lat="47.28698" lon="-2.36358">
        <ele>39.400001525879</ele>
        <time>2019-10-31T09:40:30.000Z</time>
      </trkpt>
      <trkpt lat="47.28697" lon="-2.36362">
        <ele>39.799999237061</ele>
        <time>2019-10-31T09:40:31.000Z</time>
      </trkpt>
      <trkpt lat="47.28697" lon="-2.36368">
        <ele>40.200000762939</ele>
        <time>2019-10-31T09:40:32.000Z</time>
      </trkpt>
      <trkpt lat="47.28694" lon="-2.36395">
        <ele>40.200000762939</ele>
        <time>2019-10-31T09:40:37.000Z</time>
      </trkpt>
      <trkpt lat="47.28695" lon="-2.36417">
        <ele>40.599998474121</ele>
        <time>2019-10-31T09:40:41.000Z</time>
      </trkpt>
      <trkpt lat="47.28695" lon="-2.36422">
        <ele>41</ele>
        <time>2019-10-31T09:40:42.000Z</time>
      </trkpt>
      <trkpt lat="47.28696" lon="-2.36427">
        <ele>41.400001525879</ele>
        <time>2019-10-31T09:40:43.000Z</time>
      </trkpt>
      <trkpt lat="47.28696" lon="-2.36432">
        <ele>41.799999237061</ele>
        <time>2019-10-31T09:40:44.000Z</time>
      </trkpt>
      <trkpt lat="47.28695" lon="-2.36436">
        <ele>42.400001525879</ele>
        <time>2019-10-31T09:40:45.000Z</time>
      </trkpt>
      <trkpt lat="47.28693" lon="-2.36447">
        <ele>42.400001525879</ele>
        <time>2019-10-31T09:40:47.000Z</time>
      </trkpt>
      <trkpt lat="47.28691" lon="-2.36476">
        <ele>42.400001525879</ele>
        <time>2019-10-31T09:40:52.000Z</time>
      </trkpt>
      <trkpt lat="47.28691" lon="-2.36484">
        <ele>42.400001525879</ele>
        <time>2019-10-31T09:40:54.000Z</time>
      </trkpt>
      <trkpt lat="47.28691" lon="-2.36493">
        <ele>42.400001525879</ele>
        <time>2019-10-31T09:40:56.000Z</time>
      </trkpt>
      <trkpt lat="47.28691" lon="-2.36515">
        <ele>42.400001525879</ele>
        <time>2019-10-31T09:41:01.000Z</time>
      </trkpt>
      <trkpt lat="47.28693" lon="-2.36539">
        <ele>41.799999237061</ele>
        <time>2019-10-31T09:41:05.000Z</time>
      </trkpt>
      <trkpt lat="47.28693" lon="-2.36543">
        <ele>41.400001525879</ele>
        <time>2019-10-31T09:41:06.000Z</time>
      </trkpt>
      <trkpt lat="47.28693" lon="-2.36548">
        <ele>41</ele>
        <time>2019-10-31T09:41:07.000Z</time>
      </trkpt>
      <trkpt lat="47.28694" lon="-2.36554">
        <ele>40.400001525879</ele>
        <time>2019-10-31T09:41:08.000Z</time>
      </trkpt>
      <trkpt lat="47.28694" lon="-2.36559">
        <ele>40</ele>
        <time>2019-10-31T09:41:09.000Z</time>
      </trkpt>
      <trkpt lat="47.28693" lon="-2.36563">
        <ele>40</ele>
        <time>2019-10-31T09:41:10.000Z</time>
      </trkpt>
      <trkpt lat="47.28692" lon="-2.36568">
        <ele>39.599998474121</ele>
        <time>2019-10-31T09:41:11.000Z</time>
      </trkpt>
      <trkpt lat="47.28691" lon="-2.36574">
        <ele>39.200000762939</ele>
        <time>2019-10-31T09:41:12.000Z</time>
      </trkpt>
      <trkpt lat="47.28689" lon="-2.36579">
        <ele>38.599998474121</ele>
        <time>2019-10-31T09:41:13.000Z</time>
      </trkpt>
      <trkpt lat="47.28688" lon="-2.36585">
        <ele>38</ele>
        <time>2019-10-31T09:41:14.000Z</time>
      </trkpt>
      <trkpt lat="47.28682" lon="-2.36601">
        <ele>36.400001525879</ele>
        <time>2019-10-31T09:41:15.000Z</time>
      </trkpt>
      <trkpt lat="47.2868" lon="-2.36605">
        <ele>35.799999237061</ele>
        <time>2019-10-31T09:41:19.000Z</time>
      </trkpt>
      <trkpt lat="47.28677" lon="-2.36609">
        <ele>35.799999237061</ele>
        <time>2019-10-31T09:41:20.000Z</time>
      </trkpt>
      <trkpt lat="47.28667" lon="-2.36614">
        <ele>35.400001525879</ele>
        <time>2019-10-31T09:41:22.000Z</time>
      </trkpt>
      <trkpt lat="47.28661" lon="-2.36614">
        <ele>35</ele>
        <time>2019-10-31T09:41:23.000Z</time>
      </trkpt>
      <trkpt lat="47.28655" lon="-2.36615">
        <ele>34.599998474121</ele>
        <time>2019-10-31T09:41:24.000Z</time>
      </trkpt>
      <trkpt lat="47.2865" lon="-2.36617">
        <ele>34.200000762939</ele>
        <time>2019-10-31T09:41:25.000Z</time>
      </trkpt>
      <trkpt lat="47.28645" lon="-2.36619">
        <ele>33.799999237061</ele>
        <time>2019-10-31T09:41:26.000Z</time>
      </trkpt>
      <trkpt lat="47.28632" lon="-2.36624">
        <ele>33.799999237061</ele>
        <time>2019-10-31T09:41:29.000Z</time>
      </trkpt>
      <trkpt lat="47.2862" lon="-2.3663">
        <ele>32.799999237061</ele>
        <time>2019-10-31T09:41:32.000Z</time>
      </trkpt>
      <trkpt lat="47.28616" lon="-2.36632">
        <ele>32.400001525879</ele>
        <time>2019-10-31T09:41:33.000Z</time>
      </trkpt>
      <trkpt lat="47.28613" lon="-2.36634">
        <ele>32</ele>
        <time>2019-10-31T09:41:34.000Z</time>
      </trkpt>
      <trkpt lat="47.28609" lon="-2.36634">
        <ele>31.39999961853</ele>
        <time>2019-10-31T09:41:35.000Z</time>
      </trkpt>
      <trkpt lat="47.28605" lon="-2.36637">
        <ele>30.799999237061</ele>
        <time>2019-10-31T09:41:36.000Z</time>
      </trkpt>
      <trkpt lat="47.28603" lon="-2.36639">
        <ele>30.200000762939</ele>
        <time>2019-10-31T09:41:37.000Z</time>
      </trkpt>
      <trkpt lat="47.28601" lon="-2.3664">
        <ele>29.60000038147</ele>
        <time>2019-10-31T09:41:38.000Z</time>
      </trkpt>
      <trkpt lat="47.28599" lon="-2.36641">
        <ele>29</ele>
        <time>2019-10-31T09:41:39.000Z</time>
      </trkpt>
      <trkpt lat="47.28597" lon="-2.36641">
        <ele>28.39999961853</ele>
        <time>2019-10-31T09:41:40.000Z</time>
      </trkpt>
      <trkpt lat="47.28596" lon="-2.36642">
        <ele>28</ele>
        <time>2019-10-31T09:41:41.000Z</time>
      </trkpt>
      <trkpt lat="47.28593" lon="-2.36642">
        <ele>27.39999961853</ele>
        <time>2019-10-31T09:41:42.000Z</time>
      </trkpt>
      <trkpt lat="47.2859" lon="-2.36643">
        <ele>26.799999237061</ele>
        <time>2019-10-31T09:41:43.000Z</time>
      </trkpt>
      <trkpt lat="47.28584" lon="-2.36653">
        <ele>26.799999237061</ele>
        <time>2019-10-31T09:41:44.000Z</time>
      </trkpt>
      <trkpt lat="47.28583" lon="-2.36656">
        <ele>26.200000762939</ele>
        <time>2019-10-31T09:41:47.000Z</time>
      </trkpt>
      <trkpt lat="47.28583" lon="-2.3666">
        <ele>25.799999237061</ele>
        <time>2019-10-31T09:41:48.000Z</time>
      </trkpt>
      <trkpt lat="47.28584" lon="-2.36663">
        <ele>25.200000762939</ele>
        <time>2019-10-31T09:41:49.000Z</time>
      </trkpt>
      <trkpt lat="47.28587" lon="-2.36662">
        <ele>24.799999237061</ele>
        <time>2019-10-31T09:41:50.000Z</time>
      </trkpt>
      <trkpt lat="47.28592" lon="-2.36662">
        <ele>24.200000762939</ele>
        <time>2019-10-31T09:41:51.000Z</time>
      </trkpt>
      <trkpt lat="47.28603" lon="-2.36661">
        <ele>24.200000762939</ele>
        <time>2019-10-31T09:41:54.000Z</time>
      </trkpt>
      <trkpt lat="47.28617" lon="-2.36659">
        <ele>24.200000762939</ele>
        <time>2019-10-31T09:41:59.000Z</time>
      </trkpt>
      <trkpt lat="47.28623" lon="-2.36657">
        <ele>24.200000762939</ele>
        <time>2019-10-31T09:42:01.000Z</time>
      </trkpt>
      <trkpt lat="47.28629" lon="-2.36652">
        <ele>24.799999237061</ele>
        <time>2019-10-31T09:42:03.000Z</time>
      </trkpt>
      <trkpt lat="47.28632" lon="-2.3665">
        <ele>25.200000762939</ele>
        <time>2019-10-31T09:42:04.000Z</time>
      </trkpt>
      <trkpt lat="47.28635" lon="-2.36647">
        <ele>25.60000038147</ele>
        <time>2019-10-31T09:42:05.000Z</time>
      </trkpt>
      <trkpt lat="47.28638" lon="-2.36645">
        <ele>26</ele>
        <time>2019-10-31T09:42:06.000Z</time>
      </trkpt>
      <trkpt lat="47.2864" lon="-2.36642">
        <ele>26.39999961853</ele>
        <time>2019-10-31T09:42:07.000Z</time>
      </trkpt>
      <trkpt lat="47.28651" lon="-2.36635">
        <ele>26.39999961853</ele>
        <time>2019-10-31T09:42:10.000Z</time>
      </trkpt>
      <trkpt lat="47.28654" lon="-2.36633">
        <ele>26.799999237061</ele>
        <time>2019-10-31T09:42:11.000Z</time>
      </trkpt>
      <trkpt lat="47.28658" lon="-2.3663">
        <ele>27.200000762939</ele>
        <time>2019-10-31T09:42:12.000Z</time>
      </trkpt>
      <trkpt lat="47.28662" lon="-2.36627">
        <ele>27.60000038147</ele>
        <time>2019-10-31T09:42:13.000Z</time>
      </trkpt>
      <trkpt lat="47.28665" lon="-2.36625">
        <ele>28</ele>
        <time>2019-10-31T09:42:14.000Z</time>
      </trkpt>
      <trkpt lat="47.28668" lon="-2.36622">
        <ele>28.39999961853</ele>
        <time>2019-10-31T09:42:15.000Z</time>
      </trkpt>
      <trkpt lat="47.28689" lon="-2.36609">
        <ele>28.799999237061</ele>
        <time>2019-10-31T09:42:20.000Z</time>
      </trkpt>
      <trkpt lat="47.28693" lon="-2.36607">
        <ele>29.200000762939</ele>
        <time>2019-10-31T09:42:21.000Z</time>
      </trkpt>
      <trkpt lat="47.28696" lon="-2.36603">
        <ele>30</ele>
        <time>2019-10-31T09:42:22.000Z</time>
      </trkpt>
      <trkpt lat="47.28698" lon="-2.366">
        <ele>30.60000038147</ele>
        <time>2019-10-31T09:42:23.000Z</time>
      </trkpt>
      <trkpt lat="47.28703" lon="-2.36593">
        <ele>30.60000038147</ele>
        <time>2019-10-31T09:42:25.000Z</time>
      </trkpt>
      <trkpt lat="47.2871" lon="-2.36581">
        <ele>31</ele>
        <time>2019-10-31T09:42:28.000Z</time>
      </trkpt>
      <trkpt lat="47.28712" lon="-2.36576">
        <ele>31.39999961853</ele>
        <time>2019-10-31T09:42:29.000Z</time>
      </trkpt>
      <trkpt lat="47.28715" lon="-2.36571">
        <ele>31.799999237061</ele>
        <time>2019-10-31T09:42:30.000Z</time>
      </trkpt>
      <trkpt lat="47.28717" lon="-2.36566">
        <ele>32.200000762939</ele>
        <time>2019-10-31T09:42:31.000Z</time>
      </trkpt>
      <trkpt lat="47.2872" lon="-2.36561">
        <ele>32.599998474121</ele>
        <time>2019-10-31T09:42:32.000Z</time>
      </trkpt>
      <trkpt lat="47.28732" lon="-2.36542">
        <ele>32.599998474121</ele>
        <time>2019-10-31T09:42:36.000Z</time>
      </trkpt>
      <trkpt lat="47.28737" lon="-2.36531">
        <ele>32.599998474121</ele>
        <time>2019-10-31T09:42:38.000Z</time>
      </trkpt>
      <trkpt lat="47.28746" lon="-2.36512">
        <ele>32.599998474121</ele>
        <time>2019-10-31T09:42:42.000Z</time>
      </trkpt>
      <trkpt lat="47.28763" lon="-2.36488">
        <ele>32.599998474121</ele>
        <time>2019-10-31T09:42:48.000Z</time>
      </trkpt>
      <trkpt lat="47.28767" lon="-2.36485">
        <ele>32.599998474121</ele>
        <time>2019-10-31T09:42:49.000Z</time>
      </trkpt>
      <trkpt lat="47.28778" lon="-2.36467">
        <ele>32.599998474121</ele>
        <time>2019-10-31T09:42:53.000Z</time>
      </trkpt>
      <trkpt lat="47.28789" lon="-2.36445">
        <ele>32.599998474121</ele>
        <time>2019-10-31T09:42:58.000Z</time>
      </trkpt>
      <trkpt lat="47.28798" lon="-2.36442">
        <ele>32.599998474121</ele>
        <time>2019-10-31T09:43:01.000Z</time>
      </trkpt>
      <trkpt lat="47.28811" lon="-2.36442">
        <ele>32.599998474121</ele>
        <time>2019-10-31T09:43:06.000Z</time>
      </trkpt>
      <trkpt lat="47.28814" lon="-2.36439">
        <ele>33</ele>
        <time>2019-10-31T09:43:08.000Z</time>
      </trkpt>
      <trkpt lat="47.28815" lon="-2.36435">
        <ele>33.400001525879</ele>
        <time>2019-10-31T09:43:09.000Z</time>
      </trkpt>
      <trkpt lat="47.28815" lon="-2.36432">
        <ele>34.200000762939</ele>
        <time>2019-10-31T09:43:10.000Z</time>
      </trkpt>
      <trkpt lat="47.28816" lon="-2.36429">
        <ele>34.599998474121</ele>
        <time>2019-10-31T09:43:11.000Z</time>
      </trkpt>
      <trkpt lat="47.28825" lon="-2.36414">
        <ele>34.599998474121</ele>
        <time>2019-10-31T09:43:15.000Z</time>
      </trkpt>
      <trkpt lat="47.28833" lon="-2.36408">
        <ele>34.599998474121</ele>
        <time>2019-10-31T09:43:16.000Z</time>
      </trkpt>
      <trkpt lat="47.28838" lon="-2.36408">
        <ele>34.599998474121</ele>
        <time>2019-10-31T09:43:20.000Z</time>
      </trkpt>
      <trkpt lat="47.2885" lon="-2.36423">
        <ele>34.599998474121</ele>
        <time>2019-10-31T09:43:25.000Z</time>
      </trkpt>
      <trkpt lat="47.28854" lon="-2.36439">
        <ele>34.599998474121</ele>
        <time>2019-10-31T09:43:27.000Z</time>
      </trkpt>
      <trkpt lat="47.28857" lon="-2.36459">
        <ele>34.599998474121</ele>
        <time>2019-10-31T09:43:29.000Z</time>
      </trkpt>
      <trkpt lat="47.28858" lon="-2.36468">
        <ele>34.200000762939</ele>
        <time>2019-10-31T09:43:30.000Z</time>
      </trkpt>
      <trkpt lat="47.28859" lon="-2.36476">
        <ele>33.599998474121</ele>
        <time>2019-10-31T09:43:31.000Z</time>
      </trkpt>
      <trkpt lat="47.2886" lon="-2.36482">
        <ele>33.200000762939</ele>
        <time>2019-10-31T09:43:32.000Z</time>
      </trkpt>
      <trkpt lat="47.28861" lon="-2.36488">
        <ele>32.200000762939</ele>
        <time>2019-10-31T09:43:33.000Z</time>
      </trkpt>
      <trkpt lat="47.28863" lon="-2.36495">
        <ele>31.799999237061</ele>
        <time>2019-10-31T09:43:34.000Z</time>
      </trkpt>
      <trkpt lat="47.28864" lon="-2.36502">
        <ele>31.200000762939</ele>
        <time>2019-10-31T09:43:35.000Z</time>
      </trkpt>
      <trkpt lat="47.28866" lon="-2.36508">
        <ele>30.799999237061</ele>
        <time>2019-10-31T09:43:36.000Z</time>
      </trkpt>
      <trkpt lat="47.28867" lon="-2.36514">
        <ele>30.200000762939</ele>
        <time>2019-10-31T09:43:37.000Z</time>
      </trkpt>
      <trkpt lat="47.28868" lon="-2.36518">
        <ele>29.60000038147</ele>
        <time>2019-10-31T09:43:38.000Z</time>
      </trkpt>
      <trkpt lat="47.28868" lon="-2.36522">
        <ele>29</ele>
        <time>2019-10-31T09:43:39.000Z</time>
      </trkpt>
      <trkpt lat="47.28869" lon="-2.36525">
        <ele>28.39999961853</ele>
        <time>2019-10-31T09:43:40.000Z</time>
      </trkpt>
      <trkpt lat="47.28869" lon="-2.36528">
        <ele>27.799999237061</ele>
        <time>2019-10-31T09:43:41.000Z</time>
      </trkpt>
      <trkpt lat="47.28869" lon="-2.36531">
        <ele>27.39999961853</ele>
        <time>2019-10-31T09:43:42.000Z</time>
      </trkpt>
      <trkpt lat="47.28869" lon="-2.36533">
        <ele>26.799999237061</ele>
        <time>2019-10-31T09:43:43.000Z</time>
      </trkpt>
      <trkpt lat="47.28869" lon="-2.36537">
        <ele>26.39999961853</ele>
        <time>2019-10-31T09:43:44.000Z</time>
      </trkpt>
      <trkpt lat="47.28869" lon="-2.36541">
        <ele>26</ele>
        <time>2019-10-31T09:43:45.000Z</time>
      </trkpt>
      <trkpt lat="47.28869" lon="-2.36545">
        <ele>25.60000038147</ele>
        <time>2019-10-31T09:43:46.000Z</time>
      </trkpt>
      <trkpt lat="47.28867" lon="-2.36554">
        <ele>25.60000038147</ele>
        <time>2019-10-31T09:43:47.000Z</time>
      </trkpt>
      <trkpt lat="47.28859" lon="-2.36577">
        <ele>25.60000038147</ele>
        <time>2019-10-31T09:43:56.000Z</time>
      </trkpt>
      <trkpt lat="47.28855" lon="-2.36595">
        <ele>25.60000038147</ele>
        <time>2019-10-31T09:44:01.000Z</time>
      </trkpt>
      <trkpt lat="47.28846" lon="-2.36619">
        <ele>25.60000038147</ele>
        <time>2019-10-31T09:44:06.000Z</time>
      </trkpt>
      <trkpt lat="47.28837" lon="-2.36633">
        <ele>25.60000038147</ele>
        <time>2019-10-31T09:44:11.000Z</time>
      </trkpt>
      <trkpt lat="47.28831" lon="-2.36638">
        <ele>25.60000038147</ele>
        <time>2019-10-31T09:44:14.000Z</time>
      </trkpt>
      <trkpt lat="47.2883" lon="-2.36637">
        <ele>25.60000038147</ele>
        <time>2019-10-31T09:44:15.000Z</time>
      </trkpt>
      <trkpt lat="47.28824" lon="-2.3663">
        <ele>25.60000038147</ele>
        <time>2019-10-31T09:44:19.000Z</time>
      </trkpt>
      <trkpt lat="47.28823" lon="-2.36625">
        <ele>25.60000038147</ele>
        <time>2019-10-31T09:44:21.000Z</time>
      </trkpt>
      <trkpt lat="47.28822" lon="-2.36617">
        <ele>25.60000038147</ele>
        <time>2019-10-31T09:44:23.000Z</time>
      </trkpt>
      <trkpt lat="47.28819" lon="-2.36611">
        <ele>25.60000038147</ele>
        <time>2019-10-31T09:44:25.000Z</time>
      </trkpt>
      <trkpt lat="47.28816" lon="-2.36606">
        <ele>25.60000038147</ele>
        <time>2019-10-31T09:44:27.000Z</time>
      </trkpt>
      <trkpt lat="47.28811" lon="-2.36598">
        <ele>26</ele>
        <time>2019-10-31T09:44:30.000Z</time>
      </trkpt>
      <trkpt lat="47.2881" lon="-2.36596">
        <ele>26.39999961853</ele>
        <time>2019-10-31T09:44:31.000Z</time>
      </trkpt>
      <trkpt lat="47.28808" lon="-2.36592">
        <ele>26.799999237061</ele>
        <time>2019-10-31T09:44:32.000Z</time>
      </trkpt>
      <trkpt lat="47.28806" lon="-2.36587">
        <ele>27.200000762939</ele>
        <time>2019-10-31T09:44:33.000Z</time>
      </trkpt>
      <trkpt lat="47.28805" lon="-2.36581">
        <ele>27.60000038147</ele>
        <time>2019-10-31T09:44:34.000Z</time>
      </trkpt>
      <trkpt lat="47.28804" lon="-2.36578">
        <ele>27.60000038147</ele>
        <time>2019-10-31T09:44:35.000Z</time>
      </trkpt>
      <trkpt lat="47.28799" lon="-2.36564">
        <ele>28</ele>
        <time>2019-10-31T09:44:41.000Z</time>
      </trkpt>
      <trkpt lat="47.28799" lon="-2.36562">
        <ele>28.39999961853</ele>
        <time>2019-10-31T09:44:42.000Z</time>
      </trkpt>
      <trkpt lat="47.28799" lon="-2.3656">
        <ele>28.799999237061</ele>
        <time>2019-10-31T09:44:43.000Z</time>
      </trkpt>
      <trkpt lat="47.28797" lon="-2.36557">
        <ele>29.200000762939</ele>
        <time>2019-10-31T09:44:44.000Z</time>
      </trkpt>
      <trkpt lat="47.28795" lon="-2.36555">
        <ele>29.60000038147</ele>
        <time>2019-10-31T09:44:45.000Z</time>
      </trkpt>
      <trkpt lat="47.28791" lon="-2.36554">
        <ele>29.60000038147</ele>
        <time>2019-10-31T09:44:46.000Z</time>
      </trkpt>
      <trkpt lat="47.28783" lon="-2.36561">
        <ele>29.60000038147</ele>
        <time>2019-10-31T09:44:50.000Z</time>
      </trkpt>
      <trkpt lat="47.28782" lon="-2.36567">
        <ele>29.60000038147</ele>
        <time>2019-10-31T09:44:53.000Z</time>
      </trkpt>
      <trkpt lat="47.28783" lon="-2.3657">
        <ele>29.60000038147</ele>
        <time>2019-10-31T09:44:55.000Z</time>
      </trkpt>
      <trkpt lat="47.28785" lon="-2.36582">
        <ele>29.60000038147</ele>
        <time>2019-10-31T09:44:58.000Z</time>
      </trkpt>
      <trkpt lat="47.28784" lon="-2.36586">
        <ele>29.60000038147</ele>
        <time>2019-10-31T09:44:59.000Z</time>
      </trkpt>
      <trkpt lat="47.28779" lon="-2.36597">
        <ele>29.60000038147</ele>
        <time>2019-10-31T09:45:02.000Z</time>
      </trkpt>
      <trkpt lat="47.28773" lon="-2.36606">
        <ele>29.60000038147</ele>
        <time>2019-10-31T09:45:04.000Z</time>
      </trkpt>
      <trkpt lat="47.2876" lon="-2.36632">
        <ele>29.60000038147</ele>
        <time>2019-10-31T09:45:09.000Z</time>
      </trkpt>
      <trkpt lat="47.28753" lon="-2.36643">
        <ele>29.60000038147</ele>
        <time>2019-10-31T09:45:11.000Z</time>
      </trkpt>
      <trkpt lat="47.28742" lon="-2.36662">
        <ele>29.60000038147</ele>
        <time>2019-10-31T09:45:14.000Z</time>
      </trkpt>
      <trkpt lat="47.28734" lon="-2.36675">
        <ele>29.200000762939</ele>
        <time>2019-10-31T09:45:16.000Z</time>
      </trkpt>
      <trkpt lat="47.28729" lon="-2.36682">
        <ele>28.799999237061</ele>
        <time>2019-10-31T09:45:17.000Z</time>
      </trkpt>
      <trkpt lat="47.28724" lon="-2.36691">
        <ele>28.39999961853</ele>
        <time>2019-10-31T09:45:18.000Z</time>
      </trkpt>
      <trkpt lat="47.2872" lon="-2.36699">
        <ele>28</ele>
        <time>2019-10-31T09:45:19.000Z</time>
      </trkpt>
      <trkpt lat="47.28716" lon="-2.36708">
        <ele>27.60000038147</ele>
        <time>2019-10-31T09:45:20.000Z</time>
      </trkpt>
      <trkpt lat="47.28712" lon="-2.36716">
        <ele>27.200000762939</ele>
        <time>2019-10-31T09:45:21.000Z</time>
      </trkpt>
      <trkpt lat="47.28708" lon="-2.36722">
        <ele>26.60000038147</ele>
        <time>2019-10-31T09:45:22.000Z</time>
      </trkpt>
      <trkpt lat="47.28704" lon="-2.36727">
        <ele>26.200000762939</ele>
        <time>2019-10-31T09:45:23.000Z</time>
      </trkpt>
      <trkpt lat="47.28701" lon="-2.36733">
        <ele>25.799999237061</ele>
        <time>2019-10-31T09:45:24.000Z</time>
      </trkpt>
      <trkpt lat="47.28699" lon="-2.36737">
        <ele>25.200000762939</ele>
        <time>2019-10-31T09:45:25.000Z</time>
      </trkpt>
      <trkpt lat="47.28697" lon="-2.36743">
        <ele>25.200000762939</ele>
        <time>2019-10-31T09:45:26.000Z</time>
      </trkpt>
      <trkpt lat="47.28697" lon="-2.36746">
        <ele>24.799999237061</ele>
        <time>2019-10-31T09:45:27.000Z</time>
      </trkpt>
      <trkpt lat="47.28697" lon="-2.36751">
        <ele>24.39999961853</ele>
        <time>2019-10-31T09:45:28.000Z</time>
      </trkpt>
      <trkpt lat="47.28697" lon="-2.36755">
        <ele>24</ele>
        <time>2019-10-31T09:45:29.000Z</time>
      </trkpt>
      <trkpt lat="47.28696" lon="-2.3676">
        <ele>23.39999961853</ele>
        <time>2019-10-31T09:45:30.000Z</time>
      </trkpt>
      <trkpt lat="47.28696" lon="-2.36766">
        <ele>23</ele>
        <time>2019-10-31T09:45:31.000Z</time>
      </trkpt>
      <trkpt lat="47.28696" lon="-2.36791">
        <ele>23</ele>
        <time>2019-10-31T09:45:35.000Z</time>
      </trkpt>
      <trkpt lat="47.28697" lon="-2.36799">
        <ele>22.60000038147</ele>
        <time>2019-10-31T09:45:36.000Z</time>
      </trkpt>
      <trkpt lat="47.28698" lon="-2.36806">
        <ele>21.799999237061</ele>
        <time>2019-10-31T09:45:37.000Z</time>
      </trkpt>
      <trkpt lat="47.287" lon="-2.36814">
        <ele>21.39999961853</ele>
        <time>2019-10-31T09:45:38.000Z</time>
      </trkpt>
      <trkpt lat="47.28702" lon="-2.3682">
        <ele>21</ele>
        <time>2019-10-31T09:45:39.000Z</time>
      </trkpt>
      <trkpt lat="47.28703" lon="-2.36827">
        <ele>21</ele>
        <time>2019-10-31T09:45:40.000Z</time>
      </trkpt>
      <trkpt lat="47.28707" lon="-2.36841">
        <ele>20.60000038147</ele>
        <time>2019-10-31T09:45:42.000Z</time>
      </trkpt>
      <trkpt lat="47.28709" lon="-2.3685">
        <ele>20</ele>
        <time>2019-10-31T09:45:43.000Z</time>
      </trkpt>
      <trkpt lat="47.28711" lon="-2.36859">
        <ele>19.60000038147</ele>
        <time>2019-10-31T09:45:44.000Z</time>
      </trkpt>
      <trkpt lat="47.28713" lon="-2.36867">
        <ele>19.200000762939</ele>
        <time>2019-10-31T09:45:45.000Z</time>
      </trkpt>
      <trkpt lat="47.28716" lon="-2.36875">
        <ele>18.799999237061</ele>
        <time>2019-10-31T09:45:46.000Z</time>
      </trkpt>
      <trkpt lat="47.2872" lon="-2.36882">
        <ele>18.39999961853</ele>
        <time>2019-10-31T09:45:47.000Z</time>
      </trkpt>
      <trkpt lat="47.28723" lon="-2.36889">
        <ele>17.799999237061</ele>
        <time>2019-10-31T09:45:48.000Z</time>
      </trkpt>
      <trkpt lat="47.28727" lon="-2.36898">
        <ele>17.39999961853</ele>
        <time>2019-10-31T09:45:49.000Z</time>
      </trkpt>
      <trkpt lat="47.2873" lon="-2.36905">
        <ele>16.799999237061</ele>
        <time>2019-10-31T09:45:50.000Z</time>
      </trkpt>
      <trkpt lat="47.28734" lon="-2.36913">
        <ele>16.39999961853</ele>
        <time>2019-10-31T09:45:51.000Z</time>
      </trkpt>
      <trkpt lat="47.28736" lon="-2.36919">
        <ele>16.39999961853</ele>
        <time>2019-10-31T09:45:52.000Z</time>
      </trkpt>
      <trkpt lat="47.28745" lon="-2.36933">
        <ele>16.39999961853</ele>
        <time>2019-10-31T09:45:56.000Z</time>
      </trkpt>
      <trkpt lat="47.28746" lon="-2.3694">
        <ele>16.39999961853</ele>
        <time>2019-10-31T09:45:58.000Z</time>
      </trkpt>
      <trkpt lat="47.28747" lon="-2.36951">
        <ele>16.39999961853</ele>
        <time>2019-10-31T09:46:01.000Z</time>
      </trkpt>
      <trkpt lat="47.28747" lon="-2.36955">
        <ele>17.200000762939</ele>
        <time>2019-10-31T09:46:02.000Z</time>
      </trkpt>
      <trkpt lat="47.28747" lon="-2.36958">
        <ele>17.799999237061</ele>
        <time>2019-10-31T09:46:03.000Z</time>
      </trkpt>
      <trkpt lat="47.28747" lon="-2.36961">
        <ele>18.200000762939</ele>
        <time>2019-10-31T09:46:04.000Z</time>
      </trkpt>
      <trkpt lat="47.28748" lon="-2.36965">
        <ele>18.60000038147</ele>
        <time>2019-10-31T09:46:05.000Z</time>
      </trkpt>
      <trkpt lat="47.2875" lon="-2.3697">
        <ele>18.60000038147</ele>
        <time>2019-10-31T09:46:06.000Z</time>
      </trkpt>
      <trkpt lat="47.28763" lon="-2.36988">
        <ele>18.60000038147</ele>
        <time>2019-10-31T09:46:11.000Z</time>
      </trkpt>
      <trkpt lat="47.28766" lon="-2.36992">
        <ele>18.60000038147</ele>
        <time>2019-10-31T09:46:12.000Z</time>
      </trkpt>
      <trkpt lat="47.28771" lon="-2.37005">
        <ele>18.60000038147</ele>
        <time>2019-10-31T09:46:15.000Z</time>
      </trkpt>
      <trkpt lat="47.28777" lon="-2.37026">
        <ele>18.60000038147</ele>
        <time>2019-10-31T09:46:20.000Z</time>
      </trkpt>
      <trkpt lat="47.2878" lon="-2.37039">
        <ele>18.60000038147</ele>
        <time>2019-10-31T09:46:22.000Z</time>
      </trkpt>
      <trkpt lat="47.28784" lon="-2.37048">
        <ele>18.60000038147</ele>
        <time>2019-10-31T09:46:27.000Z</time>
      </trkpt>
      <trkpt lat="47.28784" lon="-2.37053">
        <ele>18.200000762939</ele>
        <time>2019-10-31T09:46:28.000Z</time>
      </trkpt>
      <trkpt lat="47.28785" lon="-2.37058">
        <ele>17.799999237061</ele>
        <time>2019-10-31T09:46:29.000Z</time>
      </trkpt>
      <trkpt lat="47.28785" lon="-2.37062">
        <ele>17.39999961853</ele>
        <time>2019-10-31T09:46:30.000Z</time>
      </trkpt>
      <trkpt lat="47.28786" lon="-2.37067">
        <ele>17</ele>
        <time>2019-10-31T09:46:31.000Z</time>
      </trkpt>
      <trkpt lat="47.28787" lon="-2.37071">
        <ele>16.60000038147</ele>
        <time>2019-10-31T09:46:32.000Z</time>
      </trkpt>
      <trkpt lat="47.28788" lon="-2.37076">
        <ele>16.60000038147</ele>
        <time>2019-10-31T09:46:33.000Z</time>
      </trkpt>
      <trkpt lat="47.2879" lon="-2.37087">
        <ele>16.200000762939</ele>
        <time>2019-10-31T09:46:37.000Z</time>
      </trkpt>
      <trkpt lat="47.28791" lon="-2.37091">
        <ele>15.60000038147</ele>
        <time>2019-10-31T09:46:38.000Z</time>
      </trkpt>
      <trkpt lat="47.28791" lon="-2.37094">
        <ele>15.199999809265</ele>
        <time>2019-10-31T09:46:39.000Z</time>
      </trkpt>
      <trkpt lat="47.28792" lon="-2.37098">
        <ele>14.800000190735</ele>
        <time>2019-10-31T09:46:40.000Z</time>
      </trkpt>
      <trkpt lat="47.28793" lon="-2.37101">
        <ele>14.39999961853</ele>
        <time>2019-10-31T09:46:41.000Z</time>
      </trkpt>
      <trkpt lat="47.28795" lon="-2.37106">
        <ele>14.39999961853</ele>
        <time>2019-10-31T09:46:44.000Z</time>
      </trkpt>
      <trkpt lat="47.28799" lon="-2.3711">
        <ele>14.39999961853</ele>
        <time>2019-10-31T09:46:46.000Z</time>
      </trkpt>
      <trkpt lat="47.28806" lon="-2.37111">
        <ele>14.39999961853</ele>
        <time>2019-10-31T09:46:49.000Z</time>
      </trkpt>
      <trkpt lat="47.28808" lon="-2.37111">
        <ele>14</ele>
        <time>2019-10-31T09:46:50.000Z</time>
      </trkpt>
      <trkpt lat="47.28811" lon="-2.3711">
        <ele>13.60000038147</ele>
        <time>2019-10-31T09:46:51.000Z</time>
      </trkpt>
      <trkpt lat="47.28814" lon="-2.3711">
        <ele>13.199999809265</ele>
        <time>2019-10-31T09:46:52.000Z</time>
      </trkpt>
      <trkpt lat="47.28818" lon="-2.37107">
        <ele>12.199999809265</ele>
        <time>2019-10-31T09:46:53.000Z</time>
      </trkpt>
      <trkpt lat="47.28824" lon="-2.37108">
        <ele>11.800000190735</ele>
        <time>2019-10-31T09:46:55.000Z</time>
      </trkpt>
      <trkpt lat="47.28828" lon="-2.37109">
        <ele>11.39999961853</ele>
        <time>2019-10-31T09:46:56.000Z</time>
      </trkpt>
      <trkpt lat="47.28831" lon="-2.37113">
        <ele>10.800000190735</ele>
        <time>2019-10-31T09:46:57.000Z</time>
      </trkpt>
      <trkpt lat="47.28831" lon="-2.37118">
        <ele>10.39999961853</ele>
        <time>2019-10-31T09:46:58.000Z</time>
      </trkpt>
      <trkpt lat="47.2883" lon="-2.37122">
        <ele>10</ele>
        <time>2019-10-31T09:46:59.000Z</time>
      </trkpt>
      <trkpt lat="47.28829" lon="-2.3714">
        <ele>10</ele>
        <time>2019-10-31T09:47:02.000Z</time>
      </trkpt>
      <trkpt lat="47.28831" lon="-2.37158">
        <ele>10</ele>
        <time>2019-10-31T09:47:05.000Z</time>
      </trkpt>
      <trkpt lat="47.28833" lon="-2.3717">
        <ele>10</ele>
        <time>2019-10-31T09:47:07.000Z</time>
      </trkpt>
      <trkpt lat="47.28838" lon="-2.37205">
        <ele>10</ele>
        <time>2019-10-31T09:47:13.000Z</time>
      </trkpt>
      <trkpt lat="47.28841" lon="-2.37225">
        <ele>10</ele>
        <time>2019-10-31T09:47:17.000Z</time>
      </trkpt>
      <trkpt lat="47.28846" lon="-2.37239">
        <ele>10</ele>
        <time>2019-10-31T09:47:20.000Z</time>
      </trkpt>
      <trkpt lat="47.28848" lon="-2.3724">
        <ele>10</ele>
        <time>2019-10-31T09:47:21.000Z</time>
      </trkpt>
      <trkpt lat="47.28854" lon="-2.37242">
        <ele>9.6000003814697</ele>
        <time>2019-10-31T09:47:23.000Z</time>
      </trkpt>
      <trkpt lat="47.28856" lon="-2.37242">
        <ele>9.1999998092651</ele>
        <time>2019-10-31T09:47:24.000Z</time>
      </trkpt>
      <trkpt lat="47.28859" lon="-2.37242">
        <ele>8.8000001907349</ele>
        <time>2019-10-31T09:47:25.000Z</time>
      </trkpt>
      <trkpt lat="47.28862" lon="-2.3724">
        <ele>8.3999996185303</ele>
        <time>2019-10-31T09:47:26.000Z</time>
      </trkpt>
      <trkpt lat="47.28866" lon="-2.37237">
        <ele>8</ele>
        <time>2019-10-31T09:47:27.000Z</time>
      </trkpt>
      <trkpt lat="47.28871" lon="-2.37235">
        <ele>8</ele>
        <time>2019-10-31T09:47:28.000Z</time>
      </trkpt>
      <trkpt lat="47.28879" lon="-2.3723">
        <ele>8</ele>
        <time>2019-10-31T09:47:30.000Z</time>
      </trkpt>
      <trkpt lat="47.28892" lon="-2.37224">
        <ele>8</ele>
        <time>2019-10-31T09:47:33.000Z</time>
      </trkpt>
      <trkpt lat="47.28916" lon="-2.37216">
        <ele>8</ele>
        <time>2019-10-31T09:47:39.000Z</time>
      </trkpt>
      <trkpt lat="47.28934" lon="-2.37207">
        <ele>8</ele>
        <time>2019-10-31T09:47:44.000Z</time>
      </trkpt>
      <trkpt lat="47.28942" lon="-2.37204">
        <ele>8.3999996185303</ele>
        <time>2019-10-31T09:47:48.000Z</time>
      </trkpt>
      <trkpt lat="47.28944" lon="-2.37203">
        <ele>8.8000001907349</ele>
        <time>2019-10-31T09:47:49.000Z</time>
      </trkpt>
      <trkpt lat="47.28946" lon="-2.37202">
        <ele>9.1999998092651</ele>
        <time>2019-10-31T09:47:50.000Z</time>
      </trkpt>
      <trkpt lat="47.28948" lon="-2.37202">
        <ele>9.6000003814697</ele>
        <time>2019-10-31T09:47:51.000Z</time>
      </trkpt>
      <trkpt lat="47.28949" lon="-2.37201">
        <ele>10</ele>
        <time>2019-10-31T09:47:52.000Z</time>
      </trkpt>
      <trkpt lat="47.28952" lon="-2.37201">
        <ele>10</ele>
        <time>2019-10-31T09:47:55.000Z</time>
      </trkpt>
      <trkpt lat="47.28956" lon="-2.37199">
        <ele>10</ele>
        <time>2019-10-31T09:48:37.000Z</time>
      </trkpt>
      <trkpt lat="47.28963" lon="-2.37193">
        <ele>10</ele>
        <time>2019-10-31T09:48:40.000Z</time>
      </trkpt>
      <trkpt lat="47.28968" lon="-2.3719">
        <ele>10.39999961853</ele>
        <time>2019-10-31T09:48:42.000Z</time>
      </trkpt>
      <trkpt lat="47.28971" lon="-2.37188">
        <ele>10.800000190735</ele>
        <time>2019-10-31T09:48:43.000Z</time>
      </trkpt>
      <trkpt lat="47.28974" lon="-2.37185">
        <ele>11.199999809265</ele>
        <time>2019-10-31T09:48:44.000Z</time>
      </trkpt>
      <trkpt lat="47.28977" lon="-2.37183">
        <ele>11.60000038147</ele>
        <time>2019-10-31T09:48:45.000Z</time>
      </trkpt>
      <trkpt lat="47.28979" lon="-2.37181">
        <ele>12</ele>
        <time>2019-10-31T09:48:46.000Z</time>
      </trkpt>
      <trkpt lat="47.28997" lon="-2.37171">
        <ele>12</ele>
        <time>2019-10-31T09:48:52.000Z</time>
      </trkpt>
      <trkpt lat="47.29005" lon="-2.37173">
        <ele>12.39999961853</ele>
        <time>2019-10-31T09:48:55.000Z</time>
      </trkpt>
      <trkpt lat="47.29008" lon="-2.37174">
        <ele>13</ele>
        <time>2019-10-31T09:48:56.000Z</time>
      </trkpt>
      <trkpt lat="47.2901" lon="-2.37176">
        <ele>13.800000190735</ele>
        <time>2019-10-31T09:48:57.000Z</time>
      </trkpt>
      <trkpt lat="47.29021" lon="-2.37185">
        <ele>14.39999961853</ele>
        <time>2019-10-31T09:48:58.000Z</time>
      </trkpt>
      <trkpt lat="47.29021" lon="-2.37185">
        <ele>14.39999961853</ele>
        <time>2019-10-31T09:49:00.000Z</time>
      </trkpt>
      <trkpt lat="47.29028" lon="-2.37195">
        <ele>14.800000190735</ele>
        <time>2019-10-31T09:49:03.000Z</time>
      </trkpt>
      <trkpt lat="47.2903" lon="-2.37198">
        <ele>15.199999809265</ele>
        <time>2019-10-31T09:49:04.000Z</time>
      </trkpt>
      <trkpt lat="47.29033" lon="-2.37201">
        <ele>15.60000038147</ele>
        <time>2019-10-31T09:49:05.000Z</time>
      </trkpt>
      <trkpt lat="47.29035" lon="-2.37204">
        <ele>16</ele>
        <time>2019-10-31T09:49:06.000Z</time>
      </trkpt>
      <trkpt lat="47.29038" lon="-2.37207">
        <ele>16.39999961853</ele>
        <time>2019-10-31T09:49:07.000Z</time>
      </trkpt>
      <trkpt lat="47.29046" lon="-2.37215">
        <ele>16.39999961853</ele>
        <time>2019-10-31T09:49:10.000Z</time>
      </trkpt>
      <trkpt lat="47.29066" lon="-2.37239">
        <ele>16.799999237061</ele>
        <time>2019-10-31T09:49:17.000Z</time>
      </trkpt>
      <trkpt lat="47.29069" lon="-2.37242">
        <ele>17.39999961853</ele>
        <time>2019-10-31T09:49:18.000Z</time>
      </trkpt>
      <trkpt lat="47.29072" lon="-2.37245">
        <ele>17.799999237061</ele>
        <time>2019-10-31T09:49:19.000Z</time>
      </trkpt>
      <trkpt lat="47.29082" lon="-2.37255">
        <ele>18.60000038147</ele>
        <time>2019-10-31T09:49:20.000Z</time>
      </trkpt>
      <trkpt lat="47.29101" lon="-2.37275">
        <ele>18.60000038147</ele>
        <time>2019-10-31T09:49:29.000Z</time>
      </trkpt>
      <trkpt lat="47.2912" lon="-2.37295">
        <ele>19</ele>
        <time>2019-10-31T09:49:35.000Z</time>
      </trkpt>
      <trkpt lat="47.29124" lon="-2.37299">
        <ele>19.39999961853</ele>
        <time>2019-10-31T09:49:36.000Z</time>
      </trkpt>
      <trkpt lat="47.29127" lon="-2.37301">
        <ele>19.799999237061</ele>
        <time>2019-10-31T09:49:37.000Z</time>
      </trkpt>
      <trkpt lat="47.2913" lon="-2.37305">
        <ele>20.200000762939</ele>
        <time>2019-10-31T09:49:38.000Z</time>
      </trkpt>
      <trkpt lat="47.29134" lon="-2.37308">
        <ele>20.60000038147</ele>
        <time>2019-10-31T09:49:39.000Z</time>
      </trkpt>
      <trkpt lat="47.2914" lon="-2.37316">
        <ele>20.60000038147</ele>
        <time>2019-10-31T09:49:41.000Z</time>
      </trkpt>
      <trkpt lat="47.29143" lon="-2.3732">
        <ele>20.60000038147</ele>
        <time>2019-10-31T09:49:42.000Z</time>
      </trkpt>
      <trkpt lat="47.29149" lon="-2.3733">
        <ele>20.60000038147</ele>
        <time>2019-10-31T09:49:44.000Z</time>
      </trkpt>
      <trkpt lat="47.29158" lon="-2.37348">
        <ele>20.60000038147</ele>
        <time>2019-10-31T09:49:47.000Z</time>
      </trkpt>
      <trkpt lat="47.29176" lon="-2.37386">
        <ele>20.60000038147</ele>
        <time>2019-10-31T09:49:51.000Z</time>
      </trkpt>
      <trkpt lat="47.2918" lon="-2.37392">
        <ele>20.60000038147</ele>
        <time>2019-10-31T09:49:54.000Z</time>
      </trkpt>
      <trkpt lat="47.29207" lon="-2.37435">
        <ele>20.60000038147</ele>
        <time>2019-10-31T09:50:01.000Z</time>
      </trkpt>
      <trkpt lat="47.29215" lon="-2.37447">
        <ele>20.200000762939</ele>
        <time>2019-10-31T09:50:03.000Z</time>
      </trkpt>
      <trkpt lat="47.29219" lon="-2.37453">
        <ele>19.799999237061</ele>
        <time>2019-10-31T09:50:04.000Z</time>
      </trkpt>
      <trkpt lat="47.29223" lon="-2.3746">
        <ele>19.39999961853</ele>
        <time>2019-10-31T09:50:05.000Z</time>
      </trkpt>
      <trkpt lat="47.29228" lon="-2.37466">
        <ele>19</ele>
        <time>2019-10-31T09:50:06.000Z</time>
      </trkpt>
      <trkpt lat="47.29232" lon="-2.37472">
        <ele>18.60000038147</ele>
        <time>2019-10-31T09:50:07.000Z</time>
      </trkpt>
      <trkpt lat="47.29251" lon="-2.37504">
        <ele>18.200000762939</ele>
        <time>2019-10-31T09:50:12.000Z</time>
      </trkpt>
      <trkpt lat="47.29255" lon="-2.3751">
        <ele>17.799999237061</ele>
        <time>2019-10-31T09:50:13.000Z</time>
      </trkpt>
      <trkpt lat="47.2926" lon="-2.37514">
        <ele>17.200000762939</ele>
        <time>2019-10-31T09:50:14.000Z</time>
      </trkpt>
      <trkpt lat="47.29266" lon="-2.37517">
        <ele>16.799999237061</ele>
        <time>2019-10-31T09:50:15.000Z</time>
      </trkpt>
      <trkpt lat="47.29278" lon="-2.37531">
        <ele>16.39999961853</ele>
        <time>2019-10-31T09:50:16.000Z</time>
      </trkpt>
      <trkpt lat="47.29278" lon="-2.37531">
        <ele>16.39999961853</ele>
        <time>2019-10-31T09:50:18.000Z</time>
      </trkpt>
      <trkpt lat="47.29292" lon="-2.37559">
        <ele>16.39999961853</ele>
        <time>2019-10-31T09:50:22.000Z</time>
      </trkpt>
      <trkpt lat="47.29322" lon="-2.37612">
        <ele>16.39999961853</ele>
        <time>2019-10-31T09:50:30.000Z</time>
      </trkpt>
      <trkpt lat="47.29325" lon="-2.37619">
        <ele>16.39999961853</ele>
        <time>2019-10-31T09:50:31.000Z</time>
      </trkpt>
      <trkpt lat="47.29335" lon="-2.37648">
        <ele>16.39999961853</ele>
        <time>2019-10-31T09:50:35.000Z</time>
      </trkpt>
      <trkpt lat="47.29336" lon="-2.37656">
        <ele>16.39999961853</ele>
        <time>2019-10-31T09:50:36.000Z</time>
      </trkpt>
      <trkpt lat="47.29338" lon="-2.37679">
        <ele>16.39999961853</ele>
        <time>2019-10-31T09:50:39.000Z</time>
      </trkpt>
      <trkpt lat="47.29336" lon="-2.37697">
        <ele>16.39999961853</ele>
        <time>2019-10-31T09:50:41.000Z</time>
      </trkpt>
      <trkpt lat="47.29336" lon="-2.37707">
        <ele>16.39999961853</ele>
        <time>2019-10-31T09:50:42.000Z</time>
      </trkpt>
      <trkpt lat="47.29335" lon="-2.37717">
        <ele>16.39999961853</ele>
        <time>2019-10-31T09:50:43.000Z</time>
      </trkpt>
      <trkpt lat="47.29336" lon="-2.37758">
        <ele>16</ele>
        <time>2019-10-31T09:50:47.000Z</time>
      </trkpt>
      <trkpt lat="47.29337" lon="-2.37769">
        <ele>15.60000038147</ele>
        <time>2019-10-31T09:50:48.000Z</time>
      </trkpt>
      <trkpt lat="47.29337" lon="-2.37781">
        <ele>15</ele>
        <time>2019-10-31T09:50:49.000Z</time>
      </trkpt>
      <trkpt lat="47.29338" lon="-2.37793">
        <ele>14.60000038147</ele>
        <time>2019-10-31T09:50:50.000Z</time>
      </trkpt>
      <trkpt lat="47.29339" lon="-2.37804">
        <ele>14.199999809265</ele>
        <time>2019-10-31T09:50:51.000Z</time>
      </trkpt>
      <trkpt lat="47.29341" lon="-2.37838">
        <ele>13.800000190735</ele>
        <time>2019-10-31T09:50:54.000Z</time>
      </trkpt>
      <trkpt lat="47.29342" lon="-2.37849">
        <ele>13.39999961853</ele>
        <time>2019-10-31T09:50:55.000Z</time>
      </trkpt>
      <trkpt lat="47.29344" lon="-2.37861">
        <ele>12.800000190735</ele>
        <time>2019-10-31T09:50:56.000Z</time>
      </trkpt>
      <trkpt lat="47.29347" lon="-2.37872">
        <ele>12.39999961853</ele>
        <time>2019-10-31T09:50:57.000Z</time>
      </trkpt>
      <trkpt lat="47.2935" lon="-2.37883">
        <ele>12</ele>
        <time>2019-10-31T09:50:58.000Z</time>
      </trkpt>
      <trkpt lat="47.29359" lon="-2.37913">
        <ele>12</ele>
        <time>2019-10-31T09:51:01.000Z</time>
      </trkpt>
      <trkpt lat="47.2938" lon="-2.3797">
        <ele>11.199999809265</ele>
        <time>2019-10-31T09:51:07.000Z</time>
      </trkpt>
      <trkpt lat="47.29384" lon="-2.37981">
        <ele>10.60000038147</ele>
        <time>2019-10-31T09:51:08.000Z</time>
      </trkpt>
      <trkpt lat="47.29388" lon="-2.37991">
        <ele>9.8000001907349</ele>
        <time>2019-10-31T09:51:09.000Z</time>
      </trkpt>
      <trkpt lat="47.294" lon="-2.38023">
        <ele>8.3999996185303</ele>
        <time>2019-10-31T09:51:10.000Z</time>
      </trkpt>
      <trkpt lat="47.29403" lon="-2.38033">
        <ele>8</ele>
        <time>2019-10-31T09:51:13.000Z</time>
      </trkpt>
      <trkpt lat="47.29414" lon="-2.38064">
        <ele>6.5999999046326</ele>
        <time>2019-10-31T09:51:14.000Z</time>
      </trkpt>
      <trkpt lat="47.29418" lon="-2.38075">
        <ele>6.1999998092651</ele>
        <time>2019-10-31T09:51:16.000Z</time>
      </trkpt>
      <trkpt lat="47.29431" lon="-2.38114">
        <ele>5.8000001907349</ele>
        <time>2019-10-31T09:51:21.000Z</time>
      </trkpt>
      <trkpt lat="47.29434" lon="-2.38123">
        <ele>5.4000000953674</ele>
        <time>2019-10-31T09:51:22.000Z</time>
      </trkpt>
      <trkpt lat="47.29437" lon="-2.38131">
        <ele>4.8000001907349</ele>
        <time>2019-10-31T09:51:23.000Z</time>
      </trkpt>
      <trkpt lat="47.29439" lon="-2.38138">
        <ele>4.4000000953674</ele>
        <time>2019-10-31T09:51:24.000Z</time>
      </trkpt>
      <trkpt lat="47.29441" lon="-2.38145">
        <ele>4</ele>
        <time>2019-10-31T09:51:25.000Z</time>
      </trkpt>
      <trkpt lat="47.29445" lon="-2.38155">
        <ele>4</ele>
        <time>2019-10-31T09:51:27.000Z</time>
      </trkpt>
      <trkpt lat="47.29454" lon="-2.38154">
        <ele>4</ele>
        <time>2019-10-31T09:51:30.000Z</time>
      </trkpt>
      <trkpt lat="47.29466" lon="-2.38143">
        <ele>4</ele>
        <time>2019-10-31T09:51:35.000Z</time>
      </trkpt>
      <trkpt lat="47.29472" lon="-2.38138">
        <ele>4</ele>
        <time>2019-10-31T09:51:37.000Z</time>
      </trkpt>
      <trkpt lat="47.2949" lon="-2.38126">
        <ele>4</ele>
        <time>2019-10-31T09:51:42.000Z</time>
      </trkpt>
      <trkpt lat="47.29512" lon="-2.38125">
        <ele>4</ele>
        <time>2019-10-31T09:51:47.000Z</time>
      </trkpt>
      <trkpt lat="47.29517" lon="-2.38125">
        <ele>4.4000000953674</ele>
        <time>2019-10-31T09:51:48.000Z</time>
      </trkpt>
      <trkpt lat="47.29521" lon="-2.38125">
        <ele>5</ele>
        <time>2019-10-31T09:51:49.000Z</time>
      </trkpt>
      <trkpt lat="47.29525" lon="-2.38126">
        <ele>5.8000001907349</ele>
        <time>2019-10-31T09:51:50.000Z</time>
      </trkpt>
      <trkpt lat="47.29529" lon="-2.38126">
        <ele>6.1999998092651</ele>
        <time>2019-10-31T09:51:51.000Z</time>
      </trkpt>
      <trkpt lat="47.29532" lon="-2.38126">
        <ele>6.1999998092651</ele>
        <time>2019-10-31T09:51:52.000Z</time>
      </trkpt>
      <trkpt lat="47.29554" lon="-2.38125">
        <ele>6.1999998092651</ele>
        <time>2019-10-31T09:51:58.000Z</time>
      </trkpt>
      <trkpt lat="47.29568" lon="-2.3812">
        <ele>6.5999999046326</ele>
        <time>2019-10-31T09:52:02.000Z</time>
      </trkpt>
      <trkpt lat="47.29572" lon="-2.38119">
        <ele>7.1999998092651</ele>
        <time>2019-10-31T09:52:03.000Z</time>
      </trkpt>
      <trkpt lat="47.29575" lon="-2.38118">
        <ele>7.5999999046326</ele>
        <time>2019-10-31T09:52:04.000Z</time>
      </trkpt>
      <trkpt lat="47.29579" lon="-2.38117">
        <ele>8</ele>
        <time>2019-10-31T09:52:05.000Z</time>
      </trkpt>
      <trkpt lat="47.29583" lon="-2.38117">
        <ele>8.3999996185303</ele>
        <time>2019-10-31T09:52:06.000Z</time>
      </trkpt>
      <trkpt lat="47.29605" lon="-2.38112">
        <ele>8.3999996185303</ele>
        <time>2019-10-31T09:52:12.000Z</time>
      </trkpt>
      <trkpt lat="47.29615" lon="-2.3811">
        <ele>8.8000001907349</ele>
        <time>2019-10-31T09:52:15.000Z</time>
      </trkpt>
      <trkpt lat="47.29619" lon="-2.38108">
        <ele>9.3999996185303</ele>
        <time>2019-10-31T09:52:16.000Z</time>
      </trkpt>
      <trkpt lat="47.29622" lon="-2.38107">
        <ele>9.8000001907349</ele>
        <time>2019-10-31T09:52:17.000Z</time>
      </trkpt>
      <trkpt lat="47.29625" lon="-2.38105">
        <ele>10.199999809265</ele>
        <time>2019-10-31T09:52:18.000Z</time>
      </trkpt>
      <trkpt lat="47.29629" lon="-2.38104">
        <ele>10.60000038147</ele>
        <time>2019-10-31T09:52:19.000Z</time>
      </trkpt>
      <trkpt lat="47.29632" lon="-2.38102">
        <ele>10.60000038147</ele>
        <time>2019-10-31T09:52:20.000Z</time>
      </trkpt>
      <trkpt lat="47.29662" lon="-2.38086">
        <ele>10.60000038147</ele>
        <time>2019-10-31T09:52:29.000Z</time>
      </trkpt>
      <trkpt lat="47.29665" lon="-2.38084">
        <ele>11</ele>
        <time>2019-10-31T09:52:30.000Z</time>
      </trkpt>
      <trkpt lat="47.29667" lon="-2.38083">
        <ele>11.39999961853</ele>
        <time>2019-10-31T09:52:31.000Z</time>
      </trkpt>
      <trkpt lat="47.2967" lon="-2.38081">
        <ele>11.800000190735</ele>
        <time>2019-10-31T09:52:32.000Z</time>
      </trkpt>
      <trkpt lat="47.29673" lon="-2.3808">
        <ele>12.199999809265</ele>
        <time>2019-10-31T09:52:33.000Z</time>
      </trkpt>
      <trkpt lat="47.29676" lon="-2.38079">
        <ele>12.60000038147</ele>
        <time>2019-10-31T09:52:34.000Z</time>
      </trkpt>
      <trkpt lat="47.29682" lon="-2.38074">
        <ele>12.60000038147</ele>
        <time>2019-10-31T09:52:37.000Z</time>
      </trkpt>
      <trkpt lat="47.29689" lon="-2.38069">
        <ele>13</ele>
        <time>2019-10-31T09:52:40.000Z</time>
      </trkpt>
      <trkpt lat="47.2969" lon="-2.38068">
        <ele>13.39999961853</ele>
        <time>2019-10-31T09:52:41.000Z</time>
      </trkpt>
      <trkpt lat="47.29692" lon="-2.38066">
        <ele>14</ele>
        <time>2019-10-31T09:52:42.000Z</time>
      </trkpt>
      <trkpt lat="47.29694" lon="-2.38065">
        <ele>14.39999961853</ele>
        <time>2019-10-31T09:52:43.000Z</time>
      </trkpt>
      <trkpt lat="47.29696" lon="-2.38064">
        <ele>14.800000190735</ele>
        <time>2019-10-31T09:52:44.000Z</time>
      </trkpt>
      <trkpt lat="47.29704" lon="-2.38058">
        <ele>15.199999809265</ele>
        <time>2019-10-31T09:52:48.000Z</time>
      </trkpt>
      <trkpt lat="47.29706" lon="-2.38056">
        <ele>15.60000038147</ele>
        <time>2019-10-31T09:52:49.000Z</time>
      </trkpt>
      <trkpt lat="47.29708" lon="-2.38054">
        <ele>16</ele>
        <time>2019-10-31T09:52:50.000Z</time>
      </trkpt>
      <trkpt lat="47.2971" lon="-2.38053">
        <ele>16.39999961853</ele>
        <time>2019-10-31T09:52:51.000Z</time>
      </trkpt>
      <trkpt lat="47.29712" lon="-2.38051">
        <ele>16.799999237061</ele>
        <time>2019-10-31T09:52:52.000Z</time>
      </trkpt>
      <trkpt lat="47.2972" lon="-2.38047">
        <ele>17.39999961853</ele>
        <time>2019-10-31T09:52:56.000Z</time>
      </trkpt>
      <trkpt lat="47.29721" lon="-2.38045">
        <ele>17.799999237061</ele>
        <time>2019-10-31T09:52:57.000Z</time>
      </trkpt>
      <trkpt lat="47.29723" lon="-2.38043">
        <ele>18.200000762939</ele>
        <time>2019-10-31T09:52:58.000Z</time>
      </trkpt>
      <trkpt lat="47.29724" lon="-2.38042">
        <ele>18.799999237061</ele>
        <time>2019-10-31T09:52:59.000Z</time>
      </trkpt>
      <trkpt lat="47.29726" lon="-2.3804">
        <ele>19.200000762939</ele>
        <time>2019-10-31T09:53:00.000Z</time>
      </trkpt>
      <trkpt lat="47.29729" lon="-2.38037">
        <ele>19.200000762939</ele>
        <time>2019-10-31T09:53:02.000Z</time>
      </trkpt>
      <trkpt lat="47.29731" lon="-2.38035">
        <ele>19.60000038147</ele>
        <time>2019-10-31T09:53:03.000Z</time>
      </trkpt>
      <trkpt lat="47.29732" lon="-2.38034">
        <ele>20.39999961853</ele>
        <time>2019-10-31T09:53:04.000Z</time>
      </trkpt>
      <trkpt lat="47.29732" lon="-2.38032">
        <ele>21</ele>
        <time>2019-10-31T09:53:05.000Z</time>
      </trkpt>
      <trkpt lat="47.29734" lon="-2.38029">
        <ele>21.39999961853</ele>
        <time>2019-10-31T09:53:06.000Z</time>
      </trkpt>
      <trkpt lat="47.29735" lon="-2.38026">
        <ele>21.39999961853</ele>
        <time>2019-10-31T09:53:07.000Z</time>
      </trkpt>
      <trkpt lat="47.29735" lon="-2.38022">
        <ele>21.799999237061</ele>
        <time>2019-10-31T09:53:09.000Z</time>
      </trkpt>
      <trkpt lat="47.29735" lon="-2.38021">
        <ele>22.200000762939</ele>
        <time>2019-10-31T09:53:10.000Z</time>
      </trkpt>
      <trkpt lat="47.29735" lon="-2.38018">
        <ele>22.60000038147</ele>
        <time>2019-10-31T09:53:11.000Z</time>
      </trkpt>
      <trkpt lat="47.29734" lon="-2.38015">
        <ele>23</ele>
        <time>2019-10-31T09:53:12.000Z</time>
      </trkpt>
      <trkpt lat="47.29734" lon="-2.38012">
        <ele>23.39999961853</ele>
        <time>2019-10-31T09:53:13.000Z</time>
      </trkpt>
      <trkpt lat="47.29732" lon="-2.38007">
        <ele>23.39999961853</ele>
        <time>2019-10-31T09:53:16.000Z</time>
      </trkpt>
      <trkpt lat="47.29731" lon="-2.38005">
        <ele>23.799999237061</ele>
        <time>2019-10-31T09:53:17.000Z</time>
      </trkpt>
      <trkpt lat="47.29731" lon="-2.38003">
        <ele>24.200000762939</ele>
        <time>2019-10-31T09:53:18.000Z</time>
      </trkpt>
      <trkpt lat="47.29731" lon="-2.38">
        <ele>24.799999237061</ele>
        <time>2019-10-31T09:53:19.000Z</time>
      </trkpt>
      <trkpt lat="47.29731" lon="-2.37998">
        <ele>25.200000762939</ele>
        <time>2019-10-31T09:53:20.000Z</time>
      </trkpt>
      <trkpt lat="47.29731" lon="-2.37995">
        <ele>25.60000038147</ele>
        <time>2019-10-31T09:53:21.000Z</time>
      </trkpt>
      <trkpt lat="47.29732" lon="-2.37988">
        <ele>26</ele>
        <time>2019-10-31T09:53:24.000Z</time>
      </trkpt>
      <trkpt lat="47.29733" lon="-2.37985">
        <ele>26.39999961853</ele>
        <time>2019-10-31T09:53:25.000Z</time>
      </trkpt>
      <trkpt lat="47.29735" lon="-2.37978">
        <ele>27.799999237061</ele>
        <time>2019-10-31T09:53:26.000Z</time>
      </trkpt>
      <trkpt lat="47.29735" lon="-2.37978">
        <ele>27.799999237061</ele>
        <time>2019-10-31T09:53:27.000Z</time>
      </trkpt>
      <trkpt lat="47.29738" lon="-2.37971">
        <ele>28.200000762939</ele>
        <time>2019-10-31T09:53:30.000Z</time>
      </trkpt>
      <trkpt lat="47.29739" lon="-2.37969">
        <ele>28.60000038147</ele>
        <time>2019-10-31T09:53:31.000Z</time>
      </trkpt>
      <trkpt lat="47.2974" lon="-2.37966">
        <ele>29</ele>
        <time>2019-10-31T09:53:32.000Z</time>
      </trkpt>
      <trkpt lat="47.2974" lon="-2.37964">
        <ele>29.39999961853</ele>
        <time>2019-10-31T09:53:33.000Z</time>
      </trkpt>
      <trkpt lat="47.29741" lon="-2.37961">
        <ele>29.799999237061</ele>
        <time>2019-10-31T09:53:34.000Z</time>
      </trkpt>
      <trkpt lat="47.29746" lon="-2.37951">
        <ele>30.200000762939</ele>
        <time>2019-10-31T09:53:39.000Z</time>
      </trkpt>
      <trkpt lat="47.29748" lon="-2.37948">
        <ele>30.60000038147</ele>
        <time>2019-10-31T09:53:40.000Z</time>
      </trkpt>
      <trkpt lat="47.2975" lon="-2.37946">
        <ele>31</ele>
        <time>2019-10-31T09:53:41.000Z</time>
      </trkpt>
      <trkpt lat="47.29751" lon="-2.37944">
        <ele>31.39999961853</ele>
        <time>2019-10-31T09:53:42.000Z</time>
      </trkpt>
      <trkpt lat="47.29753" lon="-2.37942">
        <ele>31.799999237061</ele>
        <time>2019-10-31T09:53:43.000Z</time>
      </trkpt>
      <trkpt lat="47.29757" lon="-2.37936">
        <ele>31.799999237061</ele>
        <time>2019-10-31T09:53:46.000Z</time>
      </trkpt>
      <trkpt lat="47.29771" lon="-2.37925">
        <ele>32.200000762939</ele>
        <time>2019-10-31T09:53:53.000Z</time>
      </trkpt>
      <trkpt lat="47.29773" lon="-2.37923">
        <ele>32.799999237061</ele>
        <time>2019-10-31T09:53:54.000Z</time>
      </trkpt>
      <trkpt lat="47.29775" lon="-2.37922">
        <ele>33.200000762939</ele>
        <time>2019-10-31T09:53:55.000Z</time>
      </trkpt>
      <trkpt lat="47.29776" lon="-2.37921">
        <ele>33.599998474121</ele>
        <time>2019-10-31T09:53:56.000Z</time>
      </trkpt>
      <trkpt lat="47.29777" lon="-2.37919">
        <ele>34</ele>
        <time>2019-10-31T09:53:57.000Z</time>
      </trkpt>
      <trkpt lat="47.29781" lon="-2.37917">
        <ele>34</ele>
        <time>2019-10-31T09:53:59.000Z</time>
      </trkpt>
      <trkpt lat="47.29792" lon="-2.37906">
        <ele>34</ele>
        <time>2019-10-31T09:54:05.000Z</time>
      </trkpt>
      <trkpt lat="47.29805" lon="-2.379">
        <ele>34</ele>
        <time>2019-10-31T09:54:10.000Z</time>
      </trkpt>
      <trkpt lat="47.29821" lon="-2.37891">
        <ele>34</ele>
        <time>2019-10-31T09:54:14.000Z</time>
      </trkpt>
      <trkpt lat="47.29825" lon="-2.37888">
        <ele>34</ele>
        <time>2019-10-31T09:54:15.000Z</time>
      </trkpt>
      <trkpt lat="47.2984" lon="-2.37874">
        <ele>34</ele>
        <time>2019-10-31T09:54:19.000Z</time>
      </trkpt>
      <trkpt lat="47.29843" lon="-2.3787">
        <ele>34</ele>
        <time>2019-10-31T09:54:20.000Z</time>
      </trkpt>
      <trkpt lat="47.2985" lon="-2.3786">
        <ele>34</ele>
        <time>2019-10-31T09:54:22.000Z</time>
      </trkpt>
      <trkpt lat="47.29859" lon="-2.37839">
        <ele>34</ele>
        <time>2019-10-31T09:54:26.000Z</time>
      </trkpt>
      <trkpt lat="47.29869" lon="-2.37818">
        <ele>34</ele>
        <time>2019-10-31T09:54:31.000Z</time>
      </trkpt>
      <trkpt lat="47.29879" lon="-2.37811">
        <ele>34</ele>
        <time>2019-10-31T09:54:36.000Z</time>
      </trkpt>
      <trkpt lat="47.29889" lon="-2.37825">
        <ele>34</ele>
        <time>2019-10-31T09:54:40.000Z</time>
      </trkpt>
      <trkpt lat="47.29898" lon="-2.37837">
        <ele>33.599998474121</ele>
        <time>2019-10-31T09:54:42.000Z</time>
      </trkpt>
      <trkpt lat="47.29903" lon="-2.37844">
        <ele>33.200000762939</ele>
        <time>2019-10-31T09:54:43.000Z</time>
      </trkpt>
      <trkpt lat="47.29908" lon="-2.37853">
        <ele>32.599998474121</ele>
        <time>2019-10-31T09:54:44.000Z</time>
      </trkpt>
      <trkpt lat="47.29914" lon="-2.3786">
        <ele>32.200000762939</ele>
        <time>2019-10-31T09:54:45.000Z</time>
      </trkpt>
      <trkpt lat="47.29921" lon="-2.37869">
        <ele>31.799999237061</ele>
        <time>2019-10-31T09:54:46.000Z</time>
      </trkpt>
      <trkpt lat="47.2994" lon="-2.37891">
        <ele>31.799999237061</ele>
        <time>2019-10-31T09:54:49.000Z</time>
      </trkpt>
      <trkpt lat="47.29946" lon="-2.37898">
        <ele>31.39999961853</ele>
        <time>2019-10-31T09:54:50.000Z</time>
      </trkpt>
      <trkpt lat="47.29953" lon="-2.37905">
        <ele>31</ele>
        <time>2019-10-31T09:54:51.000Z</time>
      </trkpt>
      <trkpt lat="47.29959" lon="-2.37912">
        <ele>30.60000038147</ele>
        <time>2019-10-31T09:54:52.000Z</time>
      </trkpt>
      <trkpt lat="47.29964" lon="-2.37919">
        <ele>30.200000762939</ele>
        <time>2019-10-31T09:54:53.000Z</time>
      </trkpt>
      <trkpt lat="47.2997" lon="-2.37925">
        <ele>29.60000038147</ele>
        <time>2019-10-31T09:54:54.000Z</time>
      </trkpt>
      <trkpt lat="47.29981" lon="-2.37938">
        <ele>29.60000038147</ele>
        <time>2019-10-31T09:54:56.000Z</time>
      </trkpt>
      <trkpt lat="47.29992" lon="-2.37947">
        <ele>29.60000038147</ele>
        <time>2019-10-31T09:54:58.000Z</time>
      </trkpt>
      <trkpt lat="47.29997" lon="-2.3795">
        <ele>29.200000762939</ele>
        <time>2019-10-31T09:54:59.000Z</time>
      </trkpt>
      <trkpt lat="47.30001" lon="-2.37952">
        <ele>28.799999237061</ele>
        <time>2019-10-31T09:55:00.000Z</time>
      </trkpt>
      <trkpt lat="47.30005" lon="-2.37956">
        <ele>28.39999961853</ele>
        <time>2019-10-31T09:55:01.000Z</time>
      </trkpt>
      <trkpt lat="47.30004" lon="-2.37962">
        <ele>28</ele>
        <time>2019-10-31T09:55:02.000Z</time>
      </trkpt>
      <trkpt lat="47.30002" lon="-2.37967">
        <ele>27.60000038147</ele>
        <time>2019-10-31T09:55:03.000Z</time>
      </trkpt>
      <trkpt lat="47.29997" lon="-2.37976">
        <ele>27.60000038147</ele>
        <time>2019-10-31T09:55:05.000Z</time>
      </trkpt>
      <trkpt lat="47.29994" lon="-2.37982">
        <ele>27.60000038147</ele>
        <time>2019-10-31T09:55:06.000Z</time>
      </trkpt>
      <trkpt lat="47.29993" lon="-2.37988">
        <ele>27.60000038147</ele>
        <time>2019-10-31T09:55:07.000Z</time>
      </trkpt>
      <trkpt lat="47.2999" lon="-2.38016">
        <ele>27.60000038147</ele>
        <time>2019-10-31T09:55:11.000Z</time>
      </trkpt>
      <trkpt lat="47.2999" lon="-2.38023">
        <ele>27.60000038147</ele>
        <time>2019-10-31T09:55:12.000Z</time>
      </trkpt>
      <trkpt lat="47.29989" lon="-2.38058">
        <ele>27.60000038147</ele>
        <time>2019-10-31T09:55:18.000Z</time>
      </trkpt>
      <trkpt lat="47.29988" lon="-2.38092">
        <ele>27.60000038147</ele>
        <time>2019-10-31T09:55:25.000Z</time>
      </trkpt>
      <trkpt lat="47.29988" lon="-2.38122">
        <ele>27.60000038147</ele>
        <time>2019-10-31T09:55:32.000Z</time>
      </trkpt>
      <trkpt lat="47.2999" lon="-2.38148">
        <ele>27.60000038147</ele>
        <time>2019-10-31T09:55:38.000Z</time>
      </trkpt>
      <trkpt lat="47.29992" lon="-2.38175">
        <ele>27.60000038147</ele>
        <time>2019-10-31T09:55:44.000Z</time>
      </trkpt>
      <trkpt lat="47.29994" lon="-2.38193">
        <ele>28</ele>
        <time>2019-10-31T09:55:48.000Z</time>
      </trkpt>
      <trkpt lat="47.29994" lon="-2.38197">
        <ele>28.39999961853</ele>
        <time>2019-10-31T09:55:49.000Z</time>
      </trkpt>
      <trkpt lat="47.29994" lon="-2.38202">
        <ele>29</ele>
        <time>2019-10-31T09:55:50.000Z</time>
      </trkpt>
      <trkpt lat="47.29995" lon="-2.38207">
        <ele>29.39999961853</ele>
        <time>2019-10-31T09:55:51.000Z</time>
      </trkpt>
      <trkpt lat="47.29996" lon="-2.38211">
        <ele>29.799999237061</ele>
        <time>2019-10-31T09:55:52.000Z</time>
      </trkpt>
      <trkpt lat="47.29996" lon="-2.3823">
        <ele>29.799999237061</ele>
        <time>2019-10-31T09:55:56.000Z</time>
      </trkpt>
      <trkpt lat="47.29997" lon="-2.38271">
        <ele>29.799999237061</ele>
        <time>2019-10-31T09:56:04.000Z</time>
      </trkpt>
      <trkpt lat="47.29997" lon="-2.38286">
        <ele>30.200000762939</ele>
        <time>2019-10-31T09:56:07.000Z</time>
      </trkpt>
      <trkpt lat="47.29998" lon="-2.38291">
        <ele>30.60000038147</ele>
        <time>2019-10-31T09:56:08.000Z</time>
      </trkpt>
      <trkpt lat="47.29998" lon="-2.38296">
        <ele>31</ele>
        <time>2019-10-31T09:56:09.000Z</time>
      </trkpt>
      <trkpt lat="47.29997" lon="-2.38301">
        <ele>31.39999961853</ele>
        <time>2019-10-31T09:56:10.000Z</time>
      </trkpt>
      <trkpt lat="47.29997" lon="-2.38306">
        <ele>31.799999237061</ele>
        <time>2019-10-31T09:56:11.000Z</time>
      </trkpt>
      <trkpt lat="47.29998" lon="-2.38333">
        <ele>31.799999237061</ele>
        <time>2019-10-31T09:56:16.000Z</time>
      </trkpt>
      <trkpt lat="47.29998" lon="-2.3836">
        <ele>32.400001525879</ele>
        <time>2019-10-31T09:56:21.000Z</time>
      </trkpt>
      <trkpt lat="47.29999" lon="-2.38381">
        <ele>32.599998474121</ele>
        <time>2019-10-31T09:56:22.000Z</time>
      </trkpt>
      <trkpt lat="47.29999" lon="-2.38381">
        <ele>32.599998474121</ele>
        <time>2019-10-31T09:56:25.000Z</time>
      </trkpt>
      <trkpt lat="47.29999" lon="-2.38386">
        <ele>32.599998474121</ele>
        <time>2019-10-31T09:56:26.000Z</time>
      </trkpt>
      <trkpt lat="47.30001" lon="-2.38423">
        <ele>32.599998474121</ele>
        <time>2019-10-31T09:56:34.000Z</time>
      </trkpt>
      <trkpt lat="47.30006" lon="-2.38451">
        <ele>32.599998474121</ele>
        <time>2019-10-31T09:56:40.000Z</time>
      </trkpt>
      <trkpt lat="47.30012" lon="-2.38489">
        <ele>32.599998474121</ele>
        <time>2019-10-31T09:56:48.000Z</time>
      </trkpt>
      <trkpt lat="47.3002" lon="-2.38533">
        <ele>32.599998474121</ele>
        <time>2019-10-31T09:56:57.000Z</time>
      </trkpt>
      <trkpt lat="47.30022" lon="-2.38563">
        <ele>32.200000762939</ele>
        <time>2019-10-31T09:57:02.000Z</time>
      </trkpt>
      <trkpt lat="47.30022" lon="-2.38568">
        <ele>31.60000038147</ele>
        <time>2019-10-31T09:57:03.000Z</time>
      </trkpt>
      <trkpt lat="47.30024" lon="-2.38574">
        <ele>31.200000762939</ele>
        <time>2019-10-31T09:57:04.000Z</time>
      </trkpt>
      <trkpt lat="47.30025" lon="-2.38581">
        <ele>30.799999237061</ele>
        <time>2019-10-31T09:57:05.000Z</time>
      </trkpt>
      <trkpt lat="47.30025" lon="-2.38587">
        <ele>30.39999961853</ele>
        <time>2019-10-31T09:57:06.000Z</time>
      </trkpt>
      <trkpt lat="47.30028" lon="-2.38602">
        <ele>29.799999237061</ele>
        <time>2019-10-31T09:57:09.000Z</time>
      </trkpt>
      <trkpt lat="47.30028" lon="-2.38605">
        <ele>29.39999961853</ele>
        <time>2019-10-31T09:57:10.000Z</time>
      </trkpt>
      <trkpt lat="47.30027" lon="-2.3861">
        <ele>29</ele>
        <time>2019-10-31T09:57:11.000Z</time>
      </trkpt>
      <trkpt lat="47.30026" lon="-2.38614">
        <ele>28.39999961853</ele>
        <time>2019-10-31T09:57:12.000Z</time>
      </trkpt>
      <trkpt lat="47.30025" lon="-2.3862">
        <ele>28</ele>
        <time>2019-10-31T09:57:13.000Z</time>
      </trkpt>
      <trkpt lat="47.30026" lon="-2.38642">
        <ele>28</ele>
        <time>2019-10-31T09:57:17.000Z</time>
      </trkpt>
      <trkpt lat="47.30029" lon="-2.38666">
        <ele>27.60000038147</ele>
        <time>2019-10-31T09:57:22.000Z</time>
      </trkpt>
      <trkpt lat="47.30029" lon="-2.38672">
        <ele>27.200000762939</ele>
        <time>2019-10-31T09:57:23.000Z</time>
      </trkpt>
      <trkpt lat="47.30029" lon="-2.38678">
        <ele>26.799999237061</ele>
        <time>2019-10-31T09:57:24.000Z</time>
      </trkpt>
      <trkpt lat="47.30029" lon="-2.38684">
        <ele>26.39999961853</ele>
        <time>2019-10-31T09:57:25.000Z</time>
      </trkpt>
      <trkpt lat="47.30029" lon="-2.3869">
        <ele>26</ele>
        <time>2019-10-31T09:57:26.000Z</time>
      </trkpt>
      <trkpt lat="47.30028" lon="-2.38704">
        <ele>26</ele>
        <time>2019-10-31T09:57:28.000Z</time>
      </trkpt>
      <trkpt lat="47.30026" lon="-2.3872">
        <ele>26</ele>
        <time>2019-10-31T09:57:30.000Z</time>
      </trkpt>
      <trkpt lat="47.30023" lon="-2.38743">
        <ele>26</ele>
        <time>2019-10-31T09:57:33.000Z</time>
      </trkpt>
      <trkpt lat="47.30018" lon="-2.38778">
        <ele>25</ele>
        <time>2019-10-31T09:57:35.000Z</time>
      </trkpt>
      <trkpt lat="47.30017" lon="-2.38787">
        <ele>24.60000038147</ele>
        <time>2019-10-31T09:57:38.000Z</time>
      </trkpt>
      <trkpt lat="47.30016" lon="-2.38798">
        <ele>24.200000762939</ele>
        <time>2019-10-31T09:57:39.000Z</time>
      </trkpt>
      <trkpt lat="47.30015" lon="-2.38809">
        <ele>23.799999237061</ele>
        <time>2019-10-31T09:57:40.000Z</time>
      </trkpt>
      <trkpt lat="47.30012" lon="-2.38841">
        <ele>23.200000762939</ele>
        <time>2019-10-31T09:57:43.000Z</time>
      </trkpt>
      <trkpt lat="47.30011" lon="-2.38852">
        <ele>22.799999237061</ele>
        <time>2019-10-31T09:57:44.000Z</time>
      </trkpt>
      <trkpt lat="47.3001" lon="-2.38863">
        <ele>22.200000762939</ele>
        <time>2019-10-31T09:57:45.000Z</time>
      </trkpt>
      <trkpt lat="47.3001" lon="-2.38873">
        <ele>21.799999237061</ele>
        <time>2019-10-31T09:57:46.000Z</time>
      </trkpt>
      <trkpt lat="47.3001" lon="-2.38884">
        <ele>21.200000762939</ele>
        <time>2019-10-31T09:57:47.000Z</time>
      </trkpt>
      <trkpt lat="47.3001" lon="-2.38918">
        <ele>20.799999237061</ele>
        <time>2019-10-31T09:57:48.000Z</time>
      </trkpt>
      <trkpt lat="47.30011" lon="-2.38928">
        <ele>20.39999961853</ele>
        <time>2019-10-31T09:57:51.000Z</time>
      </trkpt>
      <trkpt lat="47.3001" lon="-2.38939">
        <ele>20</ele>
        <time>2019-10-31T09:57:52.000Z</time>
      </trkpt>
      <trkpt lat="47.3001" lon="-2.38949">
        <ele>19.60000038147</ele>
        <time>2019-10-31T09:57:53.000Z</time>
      </trkpt>
      <trkpt lat="47.3001" lon="-2.38957">
        <ele>19</ele>
        <time>2019-10-31T09:57:54.000Z</time>
      </trkpt>
      <trkpt lat="47.30011" lon="-2.38964">
        <ele>18.60000038147</ele>
        <time>2019-10-31T09:57:55.000Z</time>
      </trkpt>
      <trkpt lat="47.30013" lon="-2.3897">
        <ele>17.200000762939</ele>
        <time>2019-10-31T09:57:56.000Z</time>
      </trkpt>
      <trkpt lat="47.30017" lon="-2.38972">
        <ele>16.39999961853</ele>
        <time>2019-10-31T09:57:57.000Z</time>
      </trkpt>
      <trkpt lat="47.30021" lon="-2.38972">
        <ele>15.800000190735</ele>
        <time>2019-10-31T09:57:58.000Z</time>
      </trkpt>
      <trkpt lat="47.30026" lon="-2.38973">
        <ele>15</ele>
        <time>2019-10-31T09:57:59.000Z</time>
      </trkpt>
      <trkpt lat="47.30036" lon="-2.38972">
        <ele>15</ele>
        <time>2019-10-31T09:58:01.000Z</time>
      </trkpt>
      <trkpt lat="47.3004" lon="-2.38968">
        <ele>15</ele>
        <time>2019-10-31T09:58:02.000Z</time>
      </trkpt>
      <trkpt lat="47.3006" lon="-2.38946">
        <ele>15</ele>
        <time>2019-10-31T09:58:07.000Z</time>
      </trkpt>
      <trkpt lat="47.30081" lon="-2.38931">
        <ele>15</ele>
        <time>2019-10-31T09:58:12.000Z</time>
      </trkpt>
      <trkpt lat="47.30092" lon="-2.38922">
        <ele>15</ele>
        <time>2019-10-31T09:58:15.000Z</time>
      </trkpt>
      <trkpt lat="47.30106" lon="-2.38909">
        <ele>15</ele>
        <time>2019-10-31T09:58:19.000Z</time>
      </trkpt>
      <trkpt lat="47.30109" lon="-2.38906">
        <ele>16</ele>
        <time>2019-10-31T09:58:20.000Z</time>
      </trkpt>
      <trkpt lat="47.30112" lon="-2.38902">
        <ele>16.39999961853</ele>
        <time>2019-10-31T09:58:21.000Z</time>
      </trkpt>
      <trkpt lat="47.30115" lon="-2.38898">
        <ele>16.799999237061</ele>
        <time>2019-10-31T09:58:22.000Z</time>
      </trkpt>
      <trkpt lat="47.30118" lon="-2.38893">
        <ele>17.39999961853</ele>
        <time>2019-10-31T09:58:23.000Z</time>
      </trkpt>
      <trkpt lat="47.30135" lon="-2.38863">
        <ele>17.39999961853</ele>
        <time>2019-10-31T09:58:27.000Z</time>
      </trkpt>
      <trkpt lat="47.30145" lon="-2.38843">
        <ele>17.799999237061</ele>
        <time>2019-10-31T09:58:33.000Z</time>
      </trkpt>
      <trkpt lat="47.30148" lon="-2.38838">
        <ele>18.200000762939</ele>
        <time>2019-10-31T09:58:34.000Z</time>
      </trkpt>
      <trkpt lat="47.30151" lon="-2.38833">
        <ele>18.60000038147</ele>
        <time>2019-10-31T09:58:35.000Z</time>
      </trkpt>
      <trkpt lat="47.30154" lon="-2.38828">
        <ele>19</ele>
        <time>2019-10-31T09:58:36.000Z</time>
      </trkpt>
      <trkpt lat="47.30156" lon="-2.38823">
        <ele>19.39999961853</ele>
        <time>2019-10-31T09:58:37.000Z</time>
      </trkpt>
      <trkpt lat="47.30172" lon="-2.38803">
        <ele>19.799999237061</ele>
        <time>2019-10-31T09:58:42.000Z</time>
      </trkpt>
      <trkpt lat="47.30176" lon="-2.388">
        <ele>20.39999961853</ele>
        <time>2019-10-31T09:58:43.000Z</time>
      </trkpt>
      <trkpt lat="47.30178" lon="-2.38796">
        <ele>21.200000762939</ele>
        <time>2019-10-31T09:58:44.000Z</time>
      </trkpt>
      <trkpt lat="47.30181" lon="-2.38792">
        <ele>21.60000038147</ele>
        <time>2019-10-31T09:58:45.000Z</time>
      </trkpt>
      <trkpt lat="47.3019" lon="-2.38781">
        <ele>21.60000038147</ele>
        <time>2019-10-31T09:58:48.000Z</time>
      </trkpt>
      <trkpt lat="47.30196" lon="-2.38776">
        <ele>22</ele>
        <time>2019-10-31T09:58:50.000Z</time>
      </trkpt>
      <trkpt lat="47.302" lon="-2.38774">
        <ele>22.60000038147</ele>
        <time>2019-10-31T09:58:51.000Z</time>
      </trkpt>
      <trkpt lat="47.30203" lon="-2.38772">
        <ele>23</ele>
        <time>2019-10-31T09:58:52.000Z</time>
      </trkpt>
      <trkpt lat="47.30207" lon="-2.38772">
        <ele>23.39999961853</ele>
        <time>2019-10-31T09:58:53.000Z</time>
      </trkpt>
      <trkpt lat="47.3021" lon="-2.38772">
        <ele>23.799999237061</ele>
        <time>2019-10-31T09:58:54.000Z</time>
      </trkpt>
      <trkpt lat="47.30223" lon="-2.3878">
        <ele>25</ele>
        <time>2019-10-31T09:58:56.000Z</time>
      </trkpt>
      <trkpt lat="47.30223" lon="-2.3878">
        <ele>25</ele>
        <time>2019-10-31T09:58:58.000Z</time>
      </trkpt>
      <trkpt lat="47.30225" lon="-2.38782">
        <ele>25.39999961853</ele>
        <time>2019-10-31T09:58:59.000Z</time>
      </trkpt>
      <trkpt lat="47.30229" lon="-2.38784">
        <ele>25.799999237061</ele>
        <time>2019-10-31T09:59:00.000Z</time>
      </trkpt>
      <trkpt lat="47.30231" lon="-2.38787">
        <ele>26.200000762939</ele>
        <time>2019-10-31T09:59:01.000Z</time>
      </trkpt>
      <trkpt lat="47.30234" lon="-2.38791">
        <ele>26.799999237061</ele>
        <time>2019-10-31T09:59:02.000Z</time>
      </trkpt>
      <trkpt lat="47.30236" lon="-2.38793">
        <ele>27.200000762939</ele>
        <time>2019-10-31T09:59:03.000Z</time>
      </trkpt>
      <trkpt lat="47.30238" lon="-2.38796">
        <ele>27.60000038147</ele>
        <time>2019-10-31T09:59:04.000Z</time>
      </trkpt>
      <trkpt lat="47.30241" lon="-2.38799">
        <ele>28</ele>
        <time>2019-10-31T09:59:05.000Z</time>
      </trkpt>
      <trkpt lat="47.30243" lon="-2.38802">
        <ele>28.39999961853</ele>
        <time>2019-10-31T09:59:06.000Z</time>
      </trkpt>
      <trkpt lat="47.30246" lon="-2.38804">
        <ele>28.799999237061</ele>
        <time>2019-10-31T09:59:07.000Z</time>
      </trkpt>
      <trkpt lat="47.30248" lon="-2.38807">
        <ele>29.200000762939</ele>
        <time>2019-10-31T09:59:08.000Z</time>
      </trkpt>
      <trkpt lat="47.3025" lon="-2.38811">
        <ele>30</ele>
        <time>2019-10-31T09:59:09.000Z</time>
      </trkpt>
      <trkpt lat="47.30258" lon="-2.38822">
        <ele>30.39999961853</ele>
        <time>2019-10-31T09:59:10.000Z</time>
      </trkpt>
      <trkpt lat="47.3026" lon="-2.38825">
        <ele>30.799999237061</ele>
        <time>2019-10-31T09:59:13.000Z</time>
      </trkpt>
      <trkpt lat="47.30262" lon="-2.38829">
        <ele>31.200000762939</ele>
        <time>2019-10-31T09:59:14.000Z</time>
      </trkpt>
      <trkpt lat="47.30263" lon="-2.38832">
        <ele>31.799999237061</ele>
        <time>2019-10-31T09:59:15.000Z</time>
      </trkpt>
      <trkpt lat="47.30265" lon="-2.38836">
        <ele>32.200000762939</ele>
        <time>2019-10-31T09:59:16.000Z</time>
      </trkpt>
      <trkpt lat="47.30271" lon="-2.3885">
        <ele>32.200000762939</ele>
        <time>2019-10-31T09:59:19.000Z</time>
      </trkpt>
      <trkpt lat="47.30283" lon="-2.38883">
        <ele>32.599998474121</ele>
        <time>2019-10-31T09:59:24.000Z</time>
      </trkpt>
      <trkpt lat="47.30283" lon="-2.38883">
        <ele>32.599998474121</ele>
        <time>2019-10-31T09:59:26.000Z</time>
      </trkpt>
      <trkpt lat="47.30285" lon="-2.38888">
        <ele>33</ele>
        <time>2019-10-31T09:59:27.000Z</time>
      </trkpt>
      <trkpt lat="47.30287" lon="-2.38893">
        <ele>33.400001525879</ele>
        <time>2019-10-31T09:59:28.000Z</time>
      </trkpt>
      <trkpt lat="47.30289" lon="-2.38897">
        <ele>33.799999237061</ele>
        <time>2019-10-31T09:59:29.000Z</time>
      </trkpt>
      <trkpt lat="47.30291" lon="-2.38902">
        <ele>34.200000762939</ele>
        <time>2019-10-31T09:59:30.000Z</time>
      </trkpt>
      <trkpt lat="47.30297" lon="-2.38918">
        <ele>34.200000762939</ele>
        <time>2019-10-31T09:59:33.000Z</time>
      </trkpt>
      <trkpt lat="47.30316" lon="-2.38958">
        <ele>34.200000762939</ele>
        <time>2019-10-31T09:59:39.000Z</time>
      </trkpt>
      <trkpt lat="47.30316" lon="-2.38958">
        <ele>34.200000762939</ele>
        <time>2019-10-31T09:59:40.000Z</time>
      </trkpt>
      <trkpt lat="47.30333" lon="-2.3898">
        <ele>34.599998474121</ele>
        <time>2019-10-31T09:59:46.000Z</time>
      </trkpt>
      <trkpt lat="47.30335" lon="-2.38985">
        <ele>35</ele>
        <time>2019-10-31T09:59:47.000Z</time>
      </trkpt>
      <trkpt lat="47.30337" lon="-2.38991">
        <ele>35.400001525879</ele>
        <time>2019-10-31T09:59:48.000Z</time>
      </trkpt>
      <trkpt lat="47.30339" lon="-2.38996">
        <ele>35.799999237061</ele>
        <time>2019-10-31T09:59:49.000Z</time>
      </trkpt>
      <trkpt lat="47.3034" lon="-2.39002">
        <ele>36.200000762939</ele>
        <time>2019-10-31T09:59:50.000Z</time>
      </trkpt>
      <trkpt lat="47.30345" lon="-2.39018">
        <ele>36.200000762939</ele>
        <time>2019-10-31T09:59:53.000Z</time>
      </trkpt>
      <trkpt lat="47.30352" lon="-2.39045">
        <ele>37.200000762939</ele>
        <time>2019-10-31T09:59:58.000Z</time>
      </trkpt>
      <trkpt lat="47.30354" lon="-2.39051">
        <ele>37.599998474121</ele>
        <time>2019-10-31T09:59:59.000Z</time>
      </trkpt>
      <trkpt lat="47.30355" lon="-2.39057">
        <ele>38</ele>
        <time>2019-10-31T10:00:00.000Z</time>
      </trkpt>
      <trkpt lat="47.30356" lon="-2.39064">
        <ele>38.400001525879</ele>
        <time>2019-10-31T10:00:01.000Z</time>
      </trkpt>
      <trkpt lat="47.30362" lon="-2.39095">
        <ele>38.400001525879</ele>
        <time>2019-10-31T10:00:05.000Z</time>
      </trkpt>
      <trkpt lat="47.30378" lon="-2.39145">
        <ele>38.400001525879</ele>
        <time>2019-10-31T10:00:11.000Z</time>
      </trkpt>
      <trkpt lat="47.30397" lon="-2.39171">
        <ele>38.400001525879</ele>
        <time>2019-10-31T10:00:15.000Z</time>
      </trkpt>
      <trkpt lat="47.30402" lon="-2.39175">
        <ele>38.400001525879</ele>
        <time>2019-10-31T10:00:16.000Z</time>
      </trkpt>
      <trkpt lat="47.3042" lon="-2.39176">
        <ele>38.400001525879</ele>
        <time>2019-10-31T10:00:20.000Z</time>
      </trkpt>
      <trkpt lat="47.3044" lon="-2.39162">
        <ele>38.400001525879</ele>
        <time>2019-10-31T10:00:24.000Z</time>
      </trkpt>
      <trkpt lat="47.30456" lon="-2.39143">
        <ele>38.400001525879</ele>
        <time>2019-10-31T10:00:28.000Z</time>
      </trkpt>
      <trkpt lat="47.3046" lon="-2.39138">
        <ele>38.400001525879</ele>
        <time>2019-10-31T10:00:29.000Z</time>
      </trkpt>
      <trkpt lat="47.30468" lon="-2.3913">
        <ele>38.400001525879</ele>
        <time>2019-10-31T10:00:31.000Z</time>
      </trkpt>
      <trkpt lat="47.30484" lon="-2.39112">
        <ele>38.400001525879</ele>
        <time>2019-10-31T10:00:35.000Z</time>
      </trkpt>
      <trkpt lat="47.30498" lon="-2.391">
        <ele>38.400001525879</ele>
        <time>2019-10-31T10:00:38.000Z</time>
      </trkpt>
      <trkpt lat="47.30519" lon="-2.39078">
        <ele>38.400001525879</ele>
        <time>2019-10-31T10:00:41.000Z</time>
      </trkpt>
      <trkpt lat="47.30543" lon="-2.39057">
        <ele>38.400001525879</ele>
        <time>2019-10-31T10:00:47.000Z</time>
      </trkpt>
      <trkpt lat="47.30548" lon="-2.39052">
        <ele>38.799999237061</ele>
        <time>2019-10-31T10:00:48.000Z</time>
      </trkpt>
      <trkpt lat="47.30553" lon="-2.39047">
        <ele>39.200000762939</ele>
        <time>2019-10-31T10:00:49.000Z</time>
      </trkpt>
      <trkpt lat="47.30558" lon="-2.39042">
        <ele>39.599998474121</ele>
        <time>2019-10-31T10:00:50.000Z</time>
      </trkpt>
      <trkpt lat="47.30563" lon="-2.39037">
        <ele>40.200000762939</ele>
        <time>2019-10-31T10:00:51.000Z</time>
      </trkpt>
      <trkpt lat="47.30567" lon="-2.39032">
        <ele>40.599998474121</ele>
        <time>2019-10-31T10:00:52.000Z</time>
      </trkpt>
      <trkpt lat="47.30576" lon="-2.3902">
        <ele>40.599998474121</ele>
        <time>2019-10-31T10:00:54.000Z</time>
      </trkpt>
      <trkpt lat="47.30584" lon="-2.39009">
        <ele>40.599998474121</ele>
        <time>2019-10-31T10:00:56.000Z</time>
      </trkpt>
      <trkpt lat="47.30601" lon="-2.38987">
        <ele>41.400001525879</ele>
        <time>2019-10-31T10:00:58.000Z</time>
      </trkpt>
      <trkpt lat="47.30606" lon="-2.38983">
        <ele>41.799999237061</ele>
        <time>2019-10-31T10:01:02.000Z</time>
      </trkpt>
      <trkpt lat="47.3061" lon="-2.38977">
        <ele>42.200000762939</ele>
        <time>2019-10-31T10:01:03.000Z</time>
      </trkpt>
      <trkpt lat="47.30615" lon="-2.38973">
        <ele>42.599998474121</ele>
        <time>2019-10-31T10:01:04.000Z</time>
      </trkpt>
      <trkpt lat="47.30619" lon="-2.38968">
        <ele>42.599998474121</ele>
        <time>2019-10-31T10:01:05.000Z</time>
      </trkpt>
      <trkpt lat="47.3065" lon="-2.3894">
        <ele>42.599998474121</ele>
        <time>2019-10-31T10:01:12.000Z</time>
      </trkpt>
      <trkpt lat="47.3068" lon="-2.38916">
        <ele>42.599998474121</ele>
        <time>2019-10-31T10:01:20.000Z</time>
      </trkpt>
      <trkpt lat="47.30684" lon="-2.38913">
        <ele>43</ele>
        <time>2019-10-31T10:01:21.000Z</time>
      </trkpt>
      <trkpt lat="47.30687" lon="-2.38912">
        <ele>43.400001525879</ele>
        <time>2019-10-31T10:01:22.000Z</time>
      </trkpt>
      <trkpt lat="47.30691" lon="-2.38911">
        <ele>43.799999237061</ele>
        <time>2019-10-31T10:01:23.000Z</time>
      </trkpt>
      <trkpt lat="47.30694" lon="-2.38911">
        <ele>44.200000762939</ele>
        <time>2019-10-31T10:01:24.000Z</time>
      </trkpt>
      <trkpt lat="47.30698" lon="-2.38914">
        <ele>44.599998474121</ele>
        <time>2019-10-31T10:01:25.000Z</time>
      </trkpt>
      <trkpt lat="47.30703" lon="-2.38948">
        <ele>44.599998474121</ele>
        <time>2019-10-31T10:01:29.000Z</time>
      </trkpt>
      <trkpt lat="47.30703" lon="-2.38948">
        <ele>44.599998474121</ele>
        <time>2019-10-31T10:01:30.000Z</time>
      </trkpt>
      <trkpt lat="47.30707" lon="-2.38969">
        <ele>44.599998474121</ele>
        <time>2019-10-31T10:01:31.000Z</time>
      </trkpt>
      <trkpt lat="47.3071" lon="-2.38972">
        <ele>44.599998474121</ele>
        <time>2019-10-31T10:01:34.000Z</time>
      </trkpt>
      <trkpt lat="47.30714" lon="-2.38969">
        <ele>44.599998474121</ele>
        <time>2019-10-31T10:01:35.000Z</time>
      </trkpt>
      <trkpt lat="47.30719" lon="-2.38966">
        <ele>44.599998474121</ele>
        <time>2019-10-31T10:01:36.000Z</time>
      </trkpt>
      <trkpt lat="47.30723" lon="-2.38962">
        <ele>43.799999237061</ele>
        <time>2019-10-31T10:01:37.000Z</time>
      </trkpt>
      <trkpt lat="47.30728" lon="-2.38959">
        <ele>43.400001525879</ele>
        <time>2019-10-31T10:01:38.000Z</time>
      </trkpt>
      <trkpt lat="47.30732" lon="-2.38957">
        <ele>42.799999237061</ele>
        <time>2019-10-31T10:01:39.000Z</time>
      </trkpt>
      <trkpt lat="47.30737" lon="-2.38957">
        <ele>42.400001525879</ele>
        <time>2019-10-31T10:01:40.000Z</time>
      </trkpt>
      <trkpt lat="47.30752" lon="-2.38958">
        <ele>42.400001525879</ele>
        <time>2019-10-31T10:01:41.000Z</time>
      </trkpt>
      <trkpt lat="47.30752" lon="-2.38958">
        <ele>42.400001525879</ele>
        <time>2019-10-31T10:01:43.000Z</time>
      </trkpt>
      <trkpt lat="47.30763" lon="-2.38955">
        <ele>42.400001525879</ele>
        <time>2019-10-31T10:01:45.000Z</time>
      </trkpt>
      <trkpt lat="47.3078" lon="-2.38942">
        <ele>42.400001525879</ele>
        <time>2019-10-31T10:01:49.000Z</time>
      </trkpt>
      <trkpt lat="47.30803" lon="-2.38924">
        <ele>42</ele>
        <time>2019-10-31T10:01:53.000Z</time>
      </trkpt>
      <trkpt lat="47.30809" lon="-2.38919">
        <ele>41.599998474121</ele>
        <time>2019-10-31T10:01:54.000Z</time>
      </trkpt>
      <trkpt lat="47.30815" lon="-2.38915">
        <ele>41</ele>
        <time>2019-10-31T10:01:55.000Z</time>
      </trkpt>
      <trkpt lat="47.30821" lon="-2.3891">
        <ele>40.599998474121</ele>
        <time>2019-10-31T10:01:56.000Z</time>
      </trkpt>
      <trkpt lat="47.30826" lon="-2.38906">
        <ele>40.200000762939</ele>
        <time>2019-10-31T10:01:57.000Z</time>
      </trkpt>
      <trkpt lat="47.30845" lon="-2.38891">
        <ele>40.200000762939</ele>
        <time>2019-10-31T10:02:01.000Z</time>
      </trkpt>
      <trkpt lat="47.3086" lon="-2.38877">
        <ele>40.599998474121</ele>
        <time>2019-10-31T10:02:03.000Z</time>
      </trkpt>
      <trkpt lat="47.30863" lon="-2.38873">
        <ele>41</ele>
        <time>2019-10-31T10:02:05.000Z</time>
      </trkpt>
      <trkpt lat="47.30866" lon="-2.38867">
        <ele>41.400001525879</ele>
        <time>2019-10-31T10:02:06.000Z</time>
      </trkpt>
      <trkpt lat="47.30867" lon="-2.38862">
        <ele>41.799999237061</ele>
        <time>2019-10-31T10:02:07.000Z</time>
      </trkpt>
      <trkpt lat="47.30869" lon="-2.38855">
        <ele>42.200000762939</ele>
        <time>2019-10-31T10:02:08.000Z</time>
      </trkpt>
      <trkpt lat="47.30879" lon="-2.38841">
        <ele>42.200000762939</ele>
        <time>2019-10-31T10:02:11.000Z</time>
      </trkpt>
      <trkpt lat="47.30892" lon="-2.38839">
        <ele>42.200000762939</ele>
        <time>2019-10-31T10:02:14.000Z</time>
      </trkpt>
      <trkpt lat="47.30896" lon="-2.38842">
        <ele>42.599998474121</ele>
        <time>2019-10-31T10:02:15.000Z</time>
      </trkpt>
      <trkpt lat="47.309" lon="-2.38848">
        <ele>43</ele>
        <time>2019-10-31T10:02:16.000Z</time>
      </trkpt>
      <trkpt lat="47.30903" lon="-2.38852">
        <ele>43.400001525879</ele>
        <time>2019-10-31T10:02:17.000Z</time>
      </trkpt>
      <trkpt lat="47.30905" lon="-2.38858">
        <ele>43.799999237061</ele>
        <time>2019-10-31T10:02:18.000Z</time>
      </trkpt>
      <trkpt lat="47.30907" lon="-2.38864">
        <ele>44.200000762939</ele>
        <time>2019-10-31T10:02:19.000Z</time>
      </trkpt>
      <trkpt lat="47.30912" lon="-2.38884">
        <ele>44.200000762939</ele>
        <time>2019-10-31T10:02:22.000Z</time>
      </trkpt>
      <trkpt lat="47.30924" lon="-2.38897">
        <ele>44.200000762939</ele>
        <time>2019-10-31T10:02:25.000Z</time>
      </trkpt>
      <trkpt lat="47.30932" lon="-2.38919">
        <ele>44.200000762939</ele>
        <time>2019-10-31T10:02:29.000Z</time>
      </trkpt>
      <trkpt lat="47.30933" lon="-2.38924">
        <ele>44.200000762939</ele>
        <time>2019-10-31T10:02:30.000Z</time>
      </trkpt>
      <trkpt lat="47.30928" lon="-2.38942">
        <ele>44.200000762939</ele>
        <time>2019-10-31T10:02:31.000Z</time>
      </trkpt>
      <trkpt lat="47.30921" lon="-2.38958">
        <ele>44.200000762939</ele>
        <time>2019-10-31T10:02:37.000Z</time>
      </trkpt>
      <trkpt lat="47.3091" lon="-2.38984">
        <ele>44.200000762939</ele>
        <time>2019-10-31T10:02:41.000Z</time>
      </trkpt>
      <trkpt lat="47.30908" lon="-2.38992">
        <ele>44.200000762939</ele>
        <time>2019-10-31T10:02:42.000Z</time>
      </trkpt>
      <trkpt lat="47.30906" lon="-2.39016">
        <ele>44.200000762939</ele>
        <time>2019-10-31T10:02:45.000Z</time>
      </trkpt>
      <trkpt lat="47.30904" lon="-2.39032">
        <ele>44.200000762939</ele>
        <time>2019-10-31T10:02:47.000Z</time>
      </trkpt>
      <trkpt lat="47.30902" lon="-2.39071">
        <ele>44.200000762939</ele>
        <time>2019-10-31T10:02:52.000Z</time>
      </trkpt>
      <trkpt lat="47.30903" lon="-2.39086">
        <ele>44.200000762939</ele>
        <time>2019-10-31T10:02:54.000Z</time>
      </trkpt>
      <trkpt lat="47.30906" lon="-2.39101">
        <ele>44.200000762939</ele>
        <time>2019-10-31T10:02:56.000Z</time>
      </trkpt>
      <trkpt lat="47.30919" lon="-2.39134">
        <ele>44.200000762939</ele>
        <time>2019-10-31T10:03:01.000Z</time>
      </trkpt>
      <trkpt lat="47.30937" lon="-2.3918">
        <ele>44.200000762939</ele>
        <time>2019-10-31T10:03:08.000Z</time>
      </trkpt>
      <trkpt lat="47.30962" lon="-2.39239">
        <ele>44.200000762939</ele>
        <time>2019-10-31T10:03:17.000Z</time>
      </trkpt>
      <trkpt lat="47.30987" lon="-2.39301">
        <ele>44.200000762939</ele>
        <time>2019-10-31T10:03:26.000Z</time>
      </trkpt>
      <trkpt lat="47.31015" lon="-2.39385">
        <ele>44.200000762939</ele>
        <time>2019-10-31T10:03:38.000Z</time>
      </trkpt>
      <trkpt lat="47.3104" lon="-2.39458">
        <ele>44.200000762939</ele>
        <time>2019-10-31T10:03:49.000Z</time>
      </trkpt>
      <trkpt lat="47.31059" lon="-2.39514">
        <ele>44.200000762939</ele>
        <time>2019-10-31T10:03:56.000Z</time>
      </trkpt>
      <trkpt lat="47.31078" lon="-2.39569">
        <ele>44.200000762939</ele>
        <time>2019-10-31T10:04:04.000Z</time>
      </trkpt>
      <trkpt lat="47.31101" lon="-2.39637">
        <ele>44.200000762939</ele>
        <time>2019-10-31T10:04:14.000Z</time>
      </trkpt>
      <trkpt lat="47.31123" lon="-2.39698">
        <ele>44.200000762939</ele>
        <time>2019-10-31T10:04:23.000Z</time>
      </trkpt>
      <trkpt lat="47.31127" lon="-2.39712">
        <ele>44.200000762939</ele>
        <time>2019-10-31T10:04:25.000Z</time>
      </trkpt>
      <trkpt lat="47.31137" lon="-2.39736">
        <ele>44.200000762939</ele>
        <time>2019-10-31T10:04:29.000Z</time>
      </trkpt>
      <trkpt lat="47.31152" lon="-2.39779">
        <ele>43.799999237061</ele>
        <time>2019-10-31T10:04:35.000Z</time>
      </trkpt>
      <trkpt lat="47.31154" lon="-2.39785">
        <ele>43.400001525879</ele>
        <time>2019-10-31T10:04:36.000Z</time>
      </trkpt>
      <trkpt lat="47.31156" lon="-2.3979">
        <ele>43</ele>
        <time>2019-10-31T10:04:37.000Z</time>
      </trkpt>
      <trkpt lat="47.31158" lon="-2.39795">
        <ele>42.599998474121</ele>
        <time>2019-10-31T10:04:38.000Z</time>
      </trkpt>
      <trkpt lat="47.3116" lon="-2.39801">
        <ele>42.200000762939</ele>
        <time>2019-10-31T10:04:39.000Z</time>
      </trkpt>
      <trkpt lat="47.31164" lon="-2.39812">
        <ele>42.200000762939</ele>
        <time>2019-10-31T10:04:41.000Z</time>
      </trkpt>
      <trkpt lat="47.31171" lon="-2.3983">
        <ele>42.200000762939</ele>
        <time>2019-10-31T10:04:44.000Z</time>
      </trkpt>
      <trkpt lat="47.31177" lon="-2.39846">
        <ele>42.200000762939</ele>
        <time>2019-10-31T10:04:47.000Z</time>
      </trkpt>
      <trkpt lat="47.31183" lon="-2.39866">
        <ele>42.200000762939</ele>
        <time>2019-10-31T10:04:51.000Z</time>
      </trkpt>
      <trkpt lat="47.31188" lon="-2.39884">
        <ele>42.200000762939</ele>
        <time>2019-10-31T10:04:55.000Z</time>
      </trkpt>
      <trkpt lat="47.31193" lon="-2.39905">
        <ele>42.200000762939</ele>
        <time>2019-10-31T10:04:59.000Z</time>
      </trkpt>
      <trkpt lat="47.31197" lon="-2.39914">
        <ele>41.599998474121</ele>
        <time>2019-10-31T10:05:01.000Z</time>
      </trkpt>
      <trkpt lat="47.31199" lon="-2.39917">
        <ele>41.200000762939</ele>
        <time>2019-10-31T10:05:02.000Z</time>
      </trkpt>
      <trkpt lat="47.31201" lon="-2.39922">
        <ele>40.799999237061</ele>
        <time>2019-10-31T10:05:03.000Z</time>
      </trkpt>
      <trkpt lat="47.31202" lon="-2.39926">
        <ele>40.400001525879</ele>
        <time>2019-10-31T10:05:04.000Z</time>
      </trkpt>
      <trkpt lat="47.31205" lon="-2.39931">
        <ele>39.799999237061</ele>
        <time>2019-10-31T10:05:05.000Z</time>
      </trkpt>
      <trkpt lat="47.31216" lon="-2.39957">
        <ele>39.799999237061</ele>
        <time>2019-10-31T10:05:10.000Z</time>
      </trkpt>
      <trkpt lat="47.31229" lon="-2.39992">
        <ele>39.400001525879</ele>
        <time>2019-10-31T10:05:16.000Z</time>
      </trkpt>
      <trkpt lat="47.31231" lon="-2.39998">
        <ele>39</ele>
        <time>2019-10-31T10:05:17.000Z</time>
      </trkpt>
      <trkpt lat="47.31233" lon="-2.40005">
        <ele>38.400001525879</ele>
        <time>2019-10-31T10:05:18.000Z</time>
      </trkpt>
      <trkpt lat="47.31234" lon="-2.40012">
        <ele>38</ele>
        <time>2019-10-31T10:05:19.000Z</time>
      </trkpt>
      <trkpt lat="47.31236" lon="-2.40018">
        <ele>37.599998474121</ele>
        <time>2019-10-31T10:05:20.000Z</time>
      </trkpt>
      <trkpt lat="47.31237" lon="-2.40024">
        <ele>37.200000762939</ele>
        <time>2019-10-31T10:05:21.000Z</time>
      </trkpt>
      <trkpt lat="47.31238" lon="-2.4003">
        <ele>36.599998474121</ele>
        <time>2019-10-31T10:05:22.000Z</time>
      </trkpt>
      <trkpt lat="47.3124" lon="-2.40034">
        <ele>36.200000762939</ele>
        <time>2019-10-31T10:05:23.000Z</time>
      </trkpt>
      <trkpt lat="47.31242" lon="-2.40037">
        <ele>35.799999237061</ele>
        <time>2019-10-31T10:05:24.000Z</time>
      </trkpt>
      <trkpt lat="47.31243" lon="-2.40037">
        <ele>35.400001525879</ele>
        <time>2019-10-31T10:05:25.000Z</time>
      </trkpt>
      <trkpt lat="47.31248" lon="-2.40041">
        <ele>35.400001525879</ele>
        <time>2019-10-31T10:05:28.000Z</time>
      </trkpt>
      <trkpt lat="47.31248" lon="-2.40041">
        <ele>35.400001525879</ele>
        <time>2019-10-31T10:05:30.000Z</time>
      </trkpt>
      <trkpt lat="47.31256" lon="-2.40054">
        <ele>35.400001525879</ele>
        <time>2019-10-31T10:05:34.000Z</time>
      </trkpt>
      <trkpt lat="47.31281" lon="-2.40061">
        <ele>35.400001525879</ele>
        <time>2019-10-31T10:05:39.000Z</time>
      </trkpt>
      <trkpt lat="47.31307" lon="-2.40069">
        <ele>35.400001525879</ele>
        <time>2019-10-31T10:05:45.000Z</time>
      </trkpt>
      <trkpt lat="47.31326" lon="-2.40076">
        <ele>35.400001525879</ele>
        <time>2019-10-31T10:05:50.000Z</time>
      </trkpt>
      <trkpt lat="47.31342" lon="-2.40085">
        <ele>35.400001525879</ele>
        <time>2019-10-31T10:05:53.000Z</time>
      </trkpt>
      <trkpt lat="47.31371" lon="-2.40101">
        <ele>35.400001525879</ele>
        <time>2019-10-31T10:05:59.000Z</time>
      </trkpt>
      <trkpt lat="47.31395" lon="-2.40115">
        <ele>35.400001525879</ele>
        <time>2019-10-31T10:06:05.000Z</time>
      </trkpt>
      <trkpt lat="47.31412" lon="-2.40127">
        <ele>35.400001525879</ele>
        <time>2019-10-31T10:06:10.000Z</time>
      </trkpt>
      <trkpt lat="47.31428" lon="-2.4014">
        <ele>35.799999237061</ele>
        <time>2019-10-31T10:06:14.000Z</time>
      </trkpt>
      <trkpt lat="47.31432" lon="-2.40143">
        <ele>36.200000762939</ele>
        <time>2019-10-31T10:06:15.000Z</time>
      </trkpt>
      <trkpt lat="47.31437" lon="-2.40145">
        <ele>36.599998474121</ele>
        <time>2019-10-31T10:06:16.000Z</time>
      </trkpt>
      <trkpt lat="47.31441" lon="-2.40148">
        <ele>37.200000762939</ele>
        <time>2019-10-31T10:06:17.000Z</time>
      </trkpt>
      <trkpt lat="47.31445" lon="-2.40151">
        <ele>37.599998474121</ele>
        <time>2019-10-31T10:06:18.000Z</time>
      </trkpt>
      <trkpt lat="47.31456" lon="-2.40161">
        <ele>37.599998474121</ele>
        <time>2019-10-31T10:06:21.000Z</time>
      </trkpt>
      <trkpt lat="47.31482" lon="-2.4018">
        <ele>37.599998474121</ele>
        <time>2019-10-31T10:06:28.000Z</time>
      </trkpt>
      <trkpt lat="47.31506" lon="-2.40197">
        <ele>37.599998474121</ele>
        <time>2019-10-31T10:06:35.000Z</time>
      </trkpt>
      <trkpt lat="47.31531" lon="-2.40216">
        <ele>37.599998474121</ele>
        <time>2019-10-31T10:06:42.000Z</time>
      </trkpt>
      <trkpt lat="47.31538" lon="-2.40222">
        <ele>38</ele>
        <time>2019-10-31T10:06:44.000Z</time>
      </trkpt>
      <trkpt lat="47.31542" lon="-2.40225">
        <ele>38.400001525879</ele>
        <time>2019-10-31T10:06:45.000Z</time>
      </trkpt>
      <trkpt lat="47.31545" lon="-2.40228">
        <ele>38.799999237061</ele>
        <time>2019-10-31T10:06:46.000Z</time>
      </trkpt>
      <trkpt lat="47.31548" lon="-2.40231">
        <ele>39.200000762939</ele>
        <time>2019-10-31T10:06:47.000Z</time>
      </trkpt>
      <trkpt lat="47.31551" lon="-2.40234">
        <ele>39.599998474121</ele>
        <time>2019-10-31T10:06:48.000Z</time>
      </trkpt>
      <trkpt lat="47.31573" lon="-2.40252">
        <ele>39.599998474121</ele>
        <time>2019-10-31T10:06:54.000Z</time>
      </trkpt>
      <trkpt lat="47.31597" lon="-2.40268">
        <ele>39.599998474121</ele>
        <time>2019-10-31T10:07:00.000Z</time>
      </trkpt>
      <trkpt lat="47.31615" lon="-2.4028">
        <ele>39.599998474121</ele>
        <time>2019-10-31T10:07:05.000Z</time>
      </trkpt>
      <trkpt lat="47.31639" lon="-2.40298">
        <ele>39.599998474121</ele>
        <time>2019-10-31T10:07:12.000Z</time>
      </trkpt>
      <trkpt lat="47.31654" lon="-2.40311">
        <ele>40</ele>
        <time>2019-10-31T10:07:17.000Z</time>
      </trkpt>
      <trkpt lat="47.31657" lon="-2.40313">
        <ele>40.400001525879</ele>
        <time>2019-10-31T10:07:18.000Z</time>
      </trkpt>
      <trkpt lat="47.31661" lon="-2.40315">
        <ele>40.799999237061</ele>
        <time>2019-10-31T10:07:19.000Z</time>
      </trkpt>
      <trkpt lat="47.31664" lon="-2.40317">
        <ele>41.200000762939</ele>
        <time>2019-10-31T10:07:20.000Z</time>
      </trkpt>
      <trkpt lat="47.31667" lon="-2.4032">
        <ele>41.599998474121</ele>
        <time>2019-10-31T10:07:21.000Z</time>
      </trkpt>
      <trkpt lat="47.3167" lon="-2.40323">
        <ele>41.599998474121</ele>
        <time>2019-10-31T10:07:23.000Z</time>
      </trkpt>
      <trkpt lat="47.31677" lon="-2.40331">
        <ele>41.599998474121</ele>
        <time>2019-10-31T10:07:27.000Z</time>
      </trkpt>
      <trkpt lat="47.31681" lon="-2.4033">
        <ele>41.599998474121</ele>
        <time>2019-10-31T10:07:29.000Z</time>
      </trkpt>
      <trkpt lat="47.31685" lon="-2.40329">
        <ele>41.599998474121</ele>
        <time>2019-10-31T10:07:33.000Z</time>
      </trkpt>
      <trkpt lat="47.31685" lon="-2.40329">
        <ele>41.599998474121</ele>
        <time>2019-10-31T10:07:34.000Z</time>
      </trkpt>
      <trkpt lat="47.31685" lon="-2.40327">
        <ele>41.599998474121</ele>
        <time>2019-10-31T10:07:57.000Z</time>
      </trkpt>
      <trkpt lat="47.31685" lon="-2.40323">
        <ele>41.599998474121</ele>
        <time>2019-10-31T10:07:59.000Z</time>
      </trkpt>
      <trkpt lat="47.31686" lon="-2.40316">
        <ele>41.599998474121</ele>
        <time>2019-10-31T10:08:01.000Z</time>
      </trkpt>
      <trkpt lat="47.31687" lon="-2.40314">
        <ele>41.599998474121</ele>
        <time>2019-10-31T10:08:04.000Z</time>
      </trkpt>
      <trkpt lat="47.31687" lon="-2.4031">
        <ele>41.599998474121</ele>
        <time>2019-10-31T10:08:05.000Z</time>
      </trkpt>
      <trkpt lat="47.31689" lon="-2.40307">
        <ele>41.599998474121</ele>
        <time>2019-10-31T10:08:09.000Z</time>
      </trkpt>
      <trkpt lat="47.31688" lon="-2.40319">
        <ele>43.599998474121</ele>
        <time>2019-10-31T10:20:02.000Z</time>
      </trkpt>
      <trkpt lat="47.31688" lon="-2.40322">
        <ele>43.599998474121</ele>
        <time>2019-10-31T10:20:03.000Z</time>
      </trkpt>
      <trkpt lat="47.31691" lon="-2.40336">
        <ele>43.599998474121</ele>
        <time>2019-10-31T10:20:06.000Z</time>
      </trkpt>
      <trkpt lat="47.3171" lon="-2.40353">
        <ele>43.599998474121</ele>
        <time>2019-10-31T10:20:10.000Z</time>
      </trkpt>
      <trkpt lat="47.3171" lon="-2.40353">
        <ele>43.599998474121</ele>
        <time>2019-10-31T10:20:13.000Z</time>
      </trkpt>
      <trkpt lat="47.31733" lon="-2.40368">
        <ele>43.599998474121</ele>
        <time>2019-10-31T10:20:20.000Z</time>
      </trkpt>
      <trkpt lat="47.31757" lon="-2.40388">
        <ele>43.599998474121</ele>
        <time>2019-10-31T10:20:27.000Z</time>
      </trkpt>
      <trkpt lat="47.31767" lon="-2.40395">
        <ele>44</ele>
        <time>2019-10-31T10:20:30.000Z</time>
      </trkpt>
      <trkpt lat="47.31771" lon="-2.40399">
        <ele>44.400001525879</ele>
        <time>2019-10-31T10:20:31.000Z</time>
      </trkpt>
      <trkpt lat="47.31775" lon="-2.40402">
        <ele>44.799999237061</ele>
        <time>2019-10-31T10:20:32.000Z</time>
      </trkpt>
      <trkpt lat="47.31779" lon="-2.40406">
        <ele>45.200000762939</ele>
        <time>2019-10-31T10:20:33.000Z</time>
      </trkpt>
      <trkpt lat="47.31783" lon="-2.40409">
        <ele>45.599998474121</ele>
        <time>2019-10-31T10:20:34.000Z</time>
      </trkpt>
      <trkpt lat="47.31807" lon="-2.40428">
        <ele>45.599998474121</ele>
        <time>2019-10-31T10:20:40.000Z</time>
      </trkpt>
      <trkpt lat="47.31838" lon="-2.40452">
        <ele>45.599998474121</ele>
        <time>2019-10-31T10:20:47.000Z</time>
      </trkpt>
      <trkpt lat="47.31866" lon="-2.40476">
        <ele>45.599998474121</ele>
        <time>2019-10-31T10:20:55.000Z</time>
      </trkpt>
      <trkpt lat="47.31876" lon="-2.40482">
        <ele>46.200000762939</ele>
        <time>2019-10-31T10:20:58.000Z</time>
      </trkpt>
      <trkpt lat="47.31879" lon="-2.40484">
        <ele>46.599998474121</ele>
        <time>2019-10-31T10:20:59.000Z</time>
      </trkpt>
      <trkpt lat="47.31882" lon="-2.40486">
        <ele>47.400001525879</ele>
        <time>2019-10-31T10:21:00.000Z</time>
      </trkpt>
      <trkpt lat="47.31885" lon="-2.40488">
        <ele>47.799999237061</ele>
        <time>2019-10-31T10:21:01.000Z</time>
      </trkpt>
      <trkpt lat="47.31901" lon="-2.40501">
        <ele>47.799999237061</ele>
        <time>2019-10-31T10:21:06.000Z</time>
      </trkpt>
      <trkpt lat="47.31923" lon="-2.40517">
        <ele>47.799999237061</ele>
        <time>2019-10-31T10:21:13.000Z</time>
      </trkpt>
      <trkpt lat="47.31941" lon="-2.40533">
        <ele>47.799999237061</ele>
        <time>2019-10-31T10:21:18.000Z</time>
      </trkpt>
      <trkpt lat="47.31954" lon="-2.40543">
        <ele>48.200000762939</ele>
        <time>2019-10-31T10:21:25.000Z</time>
      </trkpt>
      <trkpt lat="47.31957" lon="-2.40547">
        <ele>48.599998474121</ele>
        <time>2019-10-31T10:21:26.000Z</time>
      </trkpt>
      <trkpt lat="47.31961" lon="-2.4055">
        <ele>49</ele>
        <time>2019-10-31T10:21:27.000Z</time>
      </trkpt>
      <trkpt lat="47.31966" lon="-2.40553">
        <ele>49.400001525879</ele>
        <time>2019-10-31T10:21:28.000Z</time>
      </trkpt>
      <trkpt lat="47.31973" lon="-2.40558">
        <ele>49.799999237061</ele>
        <time>2019-10-31T10:21:29.000Z</time>
      </trkpt>
      <trkpt lat="47.31991" lon="-2.40571">
        <ele>49.799999237061</ele>
        <time>2019-10-31T10:21:35.000Z</time>
      </trkpt>
      <trkpt lat="47.32017" lon="-2.40594">
        <ele>49.799999237061</ele>
        <time>2019-10-31T10:21:43.000Z</time>
      </trkpt>
      <trkpt lat="47.32045" lon="-2.40621">
        <ele>49.799999237061</ele>
        <time>2019-10-31T10:21:51.000Z</time>
      </trkpt>
      <trkpt lat="47.32056" lon="-2.40633">
        <ele>50.200000762939</ele>
        <time>2019-10-31T10:21:54.000Z</time>
      </trkpt>
      <trkpt lat="47.3206" lon="-2.40637">
        <ele>50.599998474121</ele>
        <time>2019-10-31T10:21:55.000Z</time>
      </trkpt>
      <trkpt lat="47.32064" lon="-2.40642">
        <ele>51</ele>
        <time>2019-10-31T10:21:56.000Z</time>
      </trkpt>
      <trkpt lat="47.32068" lon="-2.40646">
        <ele>51.400001525879</ele>
        <time>2019-10-31T10:21:57.000Z</time>
      </trkpt>
      <trkpt lat="47.32072" lon="-2.4065">
        <ele>51.799999237061</ele>
        <time>2019-10-31T10:21:58.000Z</time>
      </trkpt>
      <trkpt lat="47.32095" lon="-2.40675">
        <ele>51.799999237061</ele>
        <time>2019-10-31T10:22:04.000Z</time>
      </trkpt>
      <trkpt lat="47.32125" lon="-2.40707">
        <ele>51.799999237061</ele>
        <time>2019-10-31T10:22:12.000Z</time>
      </trkpt>
      <trkpt lat="47.32162" lon="-2.40752">
        <ele>51.799999237061</ele>
        <time>2019-10-31T10:22:20.000Z</time>
      </trkpt>
      <trkpt lat="47.32162" lon="-2.40752">
        <ele>51.799999237061</ele>
        <time>2019-10-31T10:22:22.000Z</time>
      </trkpt>
      <trkpt lat="47.32181" lon="-2.40777">
        <ele>51.799999237061</ele>
        <time>2019-10-31T10:22:28.000Z</time>
      </trkpt>
      <trkpt lat="47.32191" lon="-2.40788">
        <ele>51.799999237061</ele>
        <time>2019-10-31T10:22:33.000Z</time>
      </trkpt>
      <trkpt lat="47.32202" lon="-2.40803">
        <ele>51.799999237061</ele>
        <time>2019-10-31T10:22:39.000Z</time>
      </trkpt>
      <trkpt lat="47.32219" lon="-2.4082">
        <ele>51.799999237061</ele>
        <time>2019-10-31T10:22:44.000Z</time>
      </trkpt>
      <trkpt lat="47.32222" lon="-2.40823">
        <ele>51.799999237061</ele>
        <time>2019-10-31T10:22:45.000Z</time>
      </trkpt>
      <trkpt lat="47.32232" lon="-2.40836">
        <ele>52.200000762939</ele>
        <time>2019-10-31T10:22:48.000Z</time>
      </trkpt>
      <trkpt lat="47.32235" lon="-2.40842">
        <ele>52.599998474121</ele>
        <time>2019-10-31T10:22:49.000Z</time>
      </trkpt>
      <trkpt lat="47.32238" lon="-2.40847">
        <ele>53</ele>
        <time>2019-10-31T10:22:50.000Z</time>
      </trkpt>
      <trkpt lat="47.32241" lon="-2.40852">
        <ele>53.400001525879</ele>
        <time>2019-10-31T10:22:51.000Z</time>
      </trkpt>
      <trkpt lat="47.32245" lon="-2.40857">
        <ele>53.799999237061</ele>
        <time>2019-10-31T10:22:52.000Z</time>
      </trkpt>
      <trkpt lat="47.32257" lon="-2.40879">
        <ele>53.799999237061</ele>
        <time>2019-10-31T10:22:56.000Z</time>
      </trkpt>
      <trkpt lat="47.32261" lon="-2.40884">
        <ele>53.799999237061</ele>
        <time>2019-10-31T10:22:57.000Z</time>
      </trkpt>
      <trkpt lat="47.32274" lon="-2.40905">
        <ele>53.799999237061</ele>
        <time>2019-10-31T10:23:01.000Z</time>
      </trkpt>
      <trkpt lat="47.32299" lon="-2.40952">
        <ele>53.799999237061</ele>
        <time>2019-10-31T10:23:09.000Z</time>
      </trkpt>
      <trkpt lat="47.32315" lon="-2.40981">
        <ele>54.200000762939</ele>
        <time>2019-10-31T10:23:13.000Z</time>
      </trkpt>
      <trkpt lat="47.32319" lon="-2.40987">
        <ele>54.599998474121</ele>
        <time>2019-10-31T10:23:14.000Z</time>
      </trkpt>
      <trkpt lat="47.32322" lon="-2.40993">
        <ele>55</ele>
        <time>2019-10-31T10:23:15.000Z</time>
      </trkpt>
      <trkpt lat="47.32331" lon="-2.41011">
        <ele>56</ele>
        <time>2019-10-31T10:23:16.000Z</time>
      </trkpt>
      <trkpt lat="47.32355" lon="-2.41057">
        <ele>56</ele>
        <time>2019-10-31T10:23:27.000Z</time>
      </trkpt>
      <trkpt lat="47.32366" lon="-2.41079">
        <ele>56</ele>
        <time>2019-10-31T10:23:32.000Z</time>
      </trkpt>
      <trkpt lat="47.32374" lon="-2.41093">
        <ele>56</ele>
        <time>2019-10-31T10:23:36.000Z</time>
      </trkpt>
      <trkpt lat="47.32379" lon="-2.41103">
        <ele>56.400001525879</ele>
        <time>2019-10-31T10:23:38.000Z</time>
      </trkpt>
      <trkpt lat="47.32381" lon="-2.41109">
        <ele>56.799999237061</ele>
        <time>2019-10-31T10:23:39.000Z</time>
      </trkpt>
      <trkpt lat="47.32384" lon="-2.41114">
        <ele>57.200000762939</ele>
        <time>2019-10-31T10:23:40.000Z</time>
      </trkpt>
      <trkpt lat="47.32387" lon="-2.41118">
        <ele>57.599998474121</ele>
        <time>2019-10-31T10:23:41.000Z</time>
      </trkpt>
      <trkpt lat="47.3239" lon="-2.41123">
        <ele>58</ele>
        <time>2019-10-31T10:23:42.000Z</time>
      </trkpt>
      <trkpt lat="47.32393" lon="-2.41128">
        <ele>58</ele>
        <time>2019-10-31T10:23:43.000Z</time>
      </trkpt>
      <trkpt lat="47.32405" lon="-2.41152">
        <ele>58</ele>
        <time>2019-10-31T10:23:49.000Z</time>
      </trkpt>
      <trkpt lat="47.32411" lon="-2.41158">
        <ele>58</ele>
        <time>2019-10-31T10:23:55.000Z</time>
      </trkpt>
      <trkpt lat="47.32415" lon="-2.41164">
        <ele>58</ele>
        <time>2019-10-31T10:24:00.000Z</time>
      </trkpt>
      <trkpt lat="47.32422" lon="-2.41182">
        <ele>57.200000762939</ele>
        <time>2019-10-31T10:24:04.000Z</time>
      </trkpt>
      <trkpt lat="47.32422" lon="-2.41182">
        <ele>57.200000762939</ele>
        <time>2019-10-31T10:24:06.000Z</time>
      </trkpt>
      <trkpt lat="47.32423" lon="-2.41185">
        <ele>56.799999237061</ele>
        <time>2019-10-31T10:24:07.000Z</time>
      </trkpt>
      <trkpt lat="47.32424" lon="-2.41186">
        <ele>56.400001525879</ele>
        <time>2019-10-31T10:24:08.000Z</time>
      </trkpt>
      <trkpt lat="47.32424" lon="-2.41187">
        <ele>56</ele>
        <time>2019-10-31T10:24:09.000Z</time>
      </trkpt>
      <trkpt lat="47.32425" lon="-2.41189">
        <ele>56</ele>
        <time>2019-10-31T10:24:10.000Z</time>
      </trkpt>
      <trkpt lat="47.32426" lon="-2.41191">
        <ele>56</ele>
        <time>2019-10-31T10:24:11.000Z</time>
      </trkpt>
      <trkpt lat="47.32435" lon="-2.41207">
        <ele>56</ele>
        <time>2019-10-31T10:24:15.000Z</time>
      </trkpt>
      <trkpt lat="47.32453" lon="-2.41243">
        <ele>56</ele>
        <time>2019-10-31T10:24:21.000Z</time>
      </trkpt>
      <trkpt lat="47.32475" lon="-2.41282">
        <ele>56</ele>
        <time>2019-10-31T10:24:28.000Z</time>
      </trkpt>
      <trkpt lat="47.32495" lon="-2.4132">
        <ele>56</ele>
        <time>2019-10-31T10:24:35.000Z</time>
      </trkpt>
      <trkpt lat="47.32517" lon="-2.41365">
        <ele>56</ele>
        <time>2019-10-31T10:24:42.000Z</time>
      </trkpt>
      <trkpt lat="47.32534" lon="-2.41397">
        <ele>56</ele>
        <time>2019-10-31T10:24:48.000Z</time>
      </trkpt>
      <trkpt lat="47.32556" lon="-2.41441">
        <ele>56</ele>
        <time>2019-10-31T10:24:56.000Z</time>
      </trkpt>
      <trkpt lat="47.32564" lon="-2.41456">
        <ele>56</ele>
        <time>2019-10-31T10:25:00.000Z</time>
      </trkpt>
      <trkpt lat="47.32571" lon="-2.41475">
        <ele>56</ele>
        <time>2019-10-31T10:25:05.000Z</time>
      </trkpt>
      <trkpt lat="47.32573" lon="-2.41501">
        <ele>56</ele>
        <time>2019-10-31T10:25:10.000Z</time>
      </trkpt>
      <trkpt lat="47.32584" lon="-2.41517">
        <ele>56</ele>
        <time>2019-10-31T10:25:14.000Z</time>
      </trkpt>
      <trkpt lat="47.32598" lon="-2.4152">
        <ele>56</ele>
        <time>2019-10-31T10:25:17.000Z</time>
      </trkpt>
      <trkpt lat="47.32612" lon="-2.41524">
        <ele>56</ele>
        <time>2019-10-31T10:25:20.000Z</time>
      </trkpt>
      <trkpt lat="47.32644" lon="-2.4153">
        <ele>55.599998474121</ele>
        <time>2019-10-31T10:25:26.000Z</time>
      </trkpt>
      <trkpt lat="47.32648" lon="-2.41531">
        <ele>55.200000762939</ele>
        <time>2019-10-31T10:25:27.000Z</time>
      </trkpt>
      <trkpt lat="47.32652" lon="-2.41532">
        <ele>54.799999237061</ele>
        <time>2019-10-31T10:25:28.000Z</time>
      </trkpt>
      <trkpt lat="47.32657" lon="-2.41533">
        <ele>54.400001525879</ele>
        <time>2019-10-31T10:25:29.000Z</time>
      </trkpt>
      <trkpt lat="47.32662" lon="-2.41534">
        <ele>54</ele>
        <time>2019-10-31T10:25:30.000Z</time>
      </trkpt>
      <trkpt lat="47.32699" lon="-2.41543">
        <ele>52.200000762939</ele>
        <time>2019-10-31T10:25:36.000Z</time>
      </trkpt>
      <trkpt lat="47.32699" lon="-2.41543">
        <ele>52.200000762939</ele>
        <time>2019-10-31T10:25:39.000Z</time>
      </trkpt>
      <trkpt lat="47.32701" lon="-2.41544">
        <ele>51.799999237061</ele>
        <time>2019-10-31T10:25:40.000Z</time>
      </trkpt>
      <trkpt lat="47.32705" lon="-2.41554">
        <ele>51.799999237061</ele>
        <time>2019-10-31T10:25:41.000Z</time>
      </trkpt>
      <trkpt lat="47.32705" lon="-2.41554">
        <ele>51.799999237061</ele>
        <time>2019-10-31T10:25:44.000Z</time>
      </trkpt>
      <trkpt lat="47.32705" lon="-2.41557">
        <ele>51.799999237061</ele>
        <time>2019-10-31T10:25:45.000Z</time>
      </trkpt>
      <trkpt lat="47.32703" lon="-2.41569">
        <ele>51.799999237061</ele>
        <time>2019-10-31T10:25:48.000Z</time>
      </trkpt>
      <trkpt lat="47.32702" lon="-2.41577">
        <ele>51.799999237061</ele>
        <time>2019-10-31T10:25:53.000Z</time>
      </trkpt>
      <trkpt lat="47.32706" lon="-2.41586">
        <ele>51.799999237061</ele>
        <time>2019-10-31T10:25:58.000Z</time>
      </trkpt>
      <trkpt lat="47.32709" lon="-2.41605">
        <ele>51.799999237061</ele>
        <time>2019-10-31T10:26:01.000Z</time>
      </trkpt>
      <trkpt lat="47.32712" lon="-2.41611">
        <ele>51.799999237061</ele>
        <time>2019-10-31T10:26:02.000Z</time>
      </trkpt>
      <trkpt lat="47.32717" lon="-2.41618">
        <ele>51.799999237061</ele>
        <time>2019-10-31T10:26:05.000Z</time>
      </trkpt>
      <trkpt lat="47.32718" lon="-2.41623">
        <ele>51.799999237061</ele>
        <time>2019-10-31T10:26:07.000Z</time>
      </trkpt>
      <trkpt lat="47.32715" lon="-2.41625">
        <ele>51.799999237061</ele>
        <time>2019-10-31T10:26:09.000Z</time>
      </trkpt>
      <trkpt lat="47.32713" lon="-2.41625">
        <ele>51.400001525879</ele>
        <time>2019-10-31T10:26:10.000Z</time>
      </trkpt>
      <trkpt lat="47.32704" lon="-2.41625">
        <ele>50.200000762939</ele>
        <time>2019-10-31T10:26:11.000Z</time>
      </trkpt>
      <trkpt lat="47.32704" lon="-2.41625">
        <ele>50.200000762939</ele>
        <time>2019-10-31T10:26:13.000Z</time>
      </trkpt>
      <trkpt lat="47.327" lon="-2.41626">
        <ele>49.799999237061</ele>
        <time>2019-10-31T10:26:14.000Z</time>
      </trkpt>
      <trkpt lat="47.32691" lon="-2.41626">
        <ele>49.799999237061</ele>
        <time>2019-10-31T10:26:16.000Z</time>
      </trkpt>
      <trkpt lat="47.32677" lon="-2.41623">
        <ele>49.799999237061</ele>
        <time>2019-10-31T10:26:19.000Z</time>
      </trkpt>
      <trkpt lat="47.32672" lon="-2.41621">
        <ele>50.400001525879</ele>
        <time>2019-10-31T10:26:20.000Z</time>
      </trkpt>
      <trkpt lat="47.32666" lon="-2.41619">
        <ele>50.799999237061</ele>
        <time>2019-10-31T10:26:21.000Z</time>
      </trkpt>
      <trkpt lat="47.3266" lon="-2.41617">
        <ele>51.200000762939</ele>
        <time>2019-10-31T10:26:22.000Z</time>
      </trkpt>
      <trkpt lat="47.32655" lon="-2.41616">
        <ele>52.200000762939</ele>
        <time>2019-10-31T10:26:23.000Z</time>
      </trkpt>
      <trkpt lat="47.32634" lon="-2.41609">
        <ele>52.200000762939</ele>
        <time>2019-10-31T10:26:25.000Z</time>
      </trkpt>
      <trkpt lat="47.32614" lon="-2.41602">
        <ele>52.200000762939</ele>
        <time>2019-10-31T10:26:32.000Z</time>
      </trkpt>
      <trkpt lat="47.32602" lon="-2.41603">
        <ele>52.599998474121</ele>
        <time>2019-10-31T10:26:35.000Z</time>
      </trkpt>
      <trkpt lat="47.32598" lon="-2.41604">
        <ele>53</ele>
        <time>2019-10-31T10:26:36.000Z</time>
      </trkpt>
      <trkpt lat="47.32594" lon="-2.41603">
        <ele>53.400001525879</ele>
        <time>2019-10-31T10:26:37.000Z</time>
      </trkpt>
      <trkpt lat="47.3259" lon="-2.41604">
        <ele>54</ele>
        <time>2019-10-31T10:26:38.000Z</time>
      </trkpt>
      <trkpt lat="47.32586" lon="-2.41603">
        <ele>54.400001525879</ele>
        <time>2019-10-31T10:26:39.000Z</time>
      </trkpt>
      <trkpt lat="47.32574" lon="-2.41596">
        <ele>54.400001525879</ele>
        <time>2019-10-31T10:26:42.000Z</time>
      </trkpt>
      <trkpt lat="47.32571" lon="-2.41592">
        <ele>54.400001525879</ele>
        <time>2019-10-31T10:26:43.000Z</time>
      </trkpt>
      <trkpt lat="47.32555" lon="-2.41578">
        <ele>54.400001525879</ele>
        <time>2019-10-31T10:26:47.000Z</time>
      </trkpt>
      <trkpt lat="47.32551" lon="-2.41577">
        <ele>54.400001525879</ele>
        <time>2019-10-31T10:26:48.000Z</time>
      </trkpt>
      <trkpt lat="47.32534" lon="-2.4158">
        <ele>54.400001525879</ele>
        <time>2019-10-31T10:26:52.000Z</time>
      </trkpt>
      <trkpt lat="47.32529" lon="-2.41581">
        <ele>54.400001525879</ele>
        <time>2019-10-31T10:26:53.000Z</time>
      </trkpt>
      <trkpt lat="47.3251" lon="-2.41588">
        <ele>54.400001525879</ele>
        <time>2019-10-31T10:26:57.000Z</time>
      </trkpt>
      <trkpt lat="47.325" lon="-2.41587">
        <ele>54.400001525879</ele>
        <time>2019-10-31T10:26:59.000Z</time>
      </trkpt>
      <trkpt lat="47.32489" lon="-2.41584">
        <ele>54.400001525879</ele>
        <time>2019-10-31T10:27:01.000Z</time>
      </trkpt>
      <trkpt lat="47.32474" lon="-2.41578">
        <ele>54.400001525879</ele>
        <time>2019-10-31T10:27:04.000Z</time>
      </trkpt>
      <trkpt lat="47.32434" lon="-2.41565">
        <ele>54.400001525879</ele>
        <time>2019-10-31T10:27:12.000Z</time>
      </trkpt>
      <trkpt lat="47.32397" lon="-2.41562">
        <ele>54.400001525879</ele>
        <time>2019-10-31T10:27:19.000Z</time>
      </trkpt>
      <trkpt lat="47.32376" lon="-2.41549">
        <ele>54.400001525879</ele>
        <time>2019-10-31T10:27:23.000Z</time>
      </trkpt>
      <trkpt lat="47.32355" lon="-2.41545">
        <ele>54.400001525879</ele>
        <time>2019-10-31T10:27:27.000Z</time>
      </trkpt>
      <trkpt lat="47.3235" lon="-2.41546">
        <ele>54.400001525879</ele>
        <time>2019-10-31T10:27:28.000Z</time>
      </trkpt>
      <trkpt lat="47.3233" lon="-2.4156">
        <ele>54.400001525879</ele>
        <time>2019-10-31T10:27:32.000Z</time>
      </trkpt>
      <trkpt lat="47.32318" lon="-2.41585">
        <ele>54.400001525879</ele>
        <time>2019-10-31T10:27:36.000Z</time>
      </trkpt>
      <trkpt lat="47.32315" lon="-2.416">
        <ele>54.400001525879</ele>
        <time>2019-10-31T10:27:38.000Z</time>
      </trkpt>
      <trkpt lat="47.32309" lon="-2.41622">
        <ele>54.400001525879</ele>
        <time>2019-10-31T10:27:41.000Z</time>
      </trkpt>
      <trkpt lat="47.32306" lon="-2.41629">
        <ele>54.400001525879</ele>
        <time>2019-10-31T10:27:42.000Z</time>
      </trkpt>
      <trkpt lat="47.32298" lon="-2.41657">
        <ele>54.400001525879</ele>
        <time>2019-10-31T10:27:46.000Z</time>
      </trkpt>
      <trkpt lat="47.32298" lon="-2.41665">
        <ele>54.400001525879</ele>
        <time>2019-10-31T10:27:47.000Z</time>
      </trkpt>
      <trkpt lat="47.32299" lon="-2.41705">
        <ele>54.400001525879</ele>
        <time>2019-10-31T10:27:52.000Z</time>
      </trkpt>
      <trkpt lat="47.32298" lon="-2.41713">
        <ele>54.400001525879</ele>
        <time>2019-10-31T10:27:53.000Z</time>
      </trkpt>
      <trkpt lat="47.32291" lon="-2.41733">
        <ele>54.400001525879</ele>
        <time>2019-10-31T10:27:56.000Z</time>
      </trkpt>
      <trkpt lat="47.32288" lon="-2.41737">
        <ele>54.400001525879</ele>
        <time>2019-10-31T10:27:57.000Z</time>
      </trkpt>
      <trkpt lat="47.32286" lon="-2.41742">
        <ele>53.799999237061</ele>
        <time>2019-10-31T10:27:58.000Z</time>
      </trkpt>
      <trkpt lat="47.32284" lon="-2.41747">
        <ele>53.400001525879</ele>
        <time>2019-10-31T10:27:59.000Z</time>
      </trkpt>
      <trkpt lat="47.32282" lon="-2.41753">
        <ele>52.400001525879</ele>
        <time>2019-10-31T10:28:00.000Z</time>
      </trkpt>
      <trkpt lat="47.32282" lon="-2.41759">
        <ele>52</ele>
        <time>2019-10-31T10:28:01.000Z</time>
      </trkpt>
      <trkpt lat="47.32282" lon="-2.41764">
        <ele>52</ele>
        <time>2019-10-31T10:28:02.000Z</time>
      </trkpt>
      <trkpt lat="47.32286" lon="-2.41777">
        <ele>52</ele>
        <time>2019-10-31T10:28:06.000Z</time>
      </trkpt>
      <trkpt lat="47.32294" lon="-2.41789">
        <ele>52</ele>
        <time>2019-10-31T10:28:10.000Z</time>
      </trkpt>
      <trkpt lat="47.32298" lon="-2.41795">
        <ele>52</ele>
        <time>2019-10-31T10:28:12.000Z</time>
      </trkpt>
      <trkpt lat="47.32299" lon="-2.41806">
        <ele>52</ele>
        <time>2019-10-31T10:28:16.000Z</time>
      </trkpt>
      <trkpt lat="47.323" lon="-2.41808">
        <ele>52</ele>
        <time>2019-10-31T10:28:17.000Z</time>
      </trkpt>
      <trkpt lat="47.323" lon="-2.41817">
        <ele>52</ele>
        <time>2019-10-31T10:28:21.000Z</time>
      </trkpt>
      <trkpt lat="47.32295" lon="-2.41822">
        <ele>52</ele>
        <time>2019-10-31T10:28:23.000Z</time>
      </trkpt>
      <trkpt lat="47.32289" lon="-2.41831">
        <ele>52</ele>
        <time>2019-10-31T10:28:25.000Z</time>
      </trkpt>
      <trkpt lat="47.32282" lon="-2.4184">
        <ele>51.599998474121</ele>
        <time>2019-10-31T10:28:28.000Z</time>
      </trkpt>
      <trkpt lat="47.3228" lon="-2.41843">
        <ele>51.200000762939</ele>
        <time>2019-10-31T10:28:29.000Z</time>
      </trkpt>
      <trkpt lat="47.32278" lon="-2.41846">
        <ele>50.799999237061</ele>
        <time>2019-10-31T10:28:30.000Z</time>
      </trkpt>
      <trkpt lat="47.32276" lon="-2.41848">
        <ele>50.400001525879</ele>
        <time>2019-10-31T10:28:31.000Z</time>
      </trkpt>
      <trkpt lat="47.32274" lon="-2.4185">
        <ele>50</ele>
        <time>2019-10-31T10:28:32.000Z</time>
      </trkpt>
      <trkpt lat="47.32263" lon="-2.41866">
        <ele>50</ele>
        <time>2019-10-31T10:28:38.000Z</time>
      </trkpt>
      <trkpt lat="47.32256" lon="-2.41875">
        <ele>50</ele>
        <time>2019-10-31T10:28:45.000Z</time>
      </trkpt>
      <trkpt lat="47.32255" lon="-2.4188">
        <ele>50</ele>
        <time>2019-10-31T10:28:47.000Z</time>
      </trkpt>
      <trkpt lat="47.32259" lon="-2.41887">
        <ele>50</ele>
        <time>2019-10-31T10:28:49.000Z</time>
      </trkpt>
      <trkpt lat="47.3227" lon="-2.41903">
        <ele>50</ele>
        <time>2019-10-31T10:28:54.000Z</time>
      </trkpt>
      <trkpt lat="47.32282" lon="-2.4192">
        <ele>50</ele>
        <time>2019-10-31T10:29:00.000Z</time>
      </trkpt>
      <trkpt lat="47.32293" lon="-2.41944">
        <ele>50</ele>
        <time>2019-10-31T10:29:05.000Z</time>
      </trkpt>
      <trkpt lat="47.32306" lon="-2.4196">
        <ele>50</ele>
        <time>2019-10-31T10:29:13.000Z</time>
      </trkpt>
      <trkpt lat="47.32332" lon="-2.41988">
        <ele>50</ele>
        <time>2019-10-31T10:29:20.000Z</time>
      </trkpt>
      <trkpt lat="47.32354" lon="-2.4201">
        <ele>50.799999237061</ele>
        <time>2019-10-31T10:29:27.000Z</time>
      </trkpt>
      <trkpt lat="47.32357" lon="-2.42012">
        <ele>51.200000762939</ele>
        <time>2019-10-31T10:29:30.000Z</time>
      </trkpt>
      <trkpt lat="47.32361" lon="-2.42015">
        <ele>51.599998474121</ele>
        <time>2019-10-31T10:29:31.000Z</time>
      </trkpt>
      <trkpt lat="47.32363" lon="-2.42019">
        <ele>52</ele>
        <time>2019-10-31T10:29:32.000Z</time>
      </trkpt>
      <trkpt lat="47.32378" lon="-2.42035">
        <ele>52</ele>
        <time>2019-10-31T10:29:36.000Z</time>
      </trkpt>
      <trkpt lat="47.32402" lon="-2.42062">
        <ele>52</ele>
        <time>2019-10-31T10:29:44.000Z</time>
      </trkpt>
      <trkpt lat="47.32412" lon="-2.42074">
        <ele>52.400001525879</ele>
        <time>2019-10-31T10:29:48.000Z</time>
      </trkpt>
      <trkpt lat="47.32415" lon="-2.42077">
        <ele>52.799999237061</ele>
        <time>2019-10-31T10:29:49.000Z</time>
      </trkpt>
      <trkpt lat="47.32418" lon="-2.42081">
        <ele>53.200000762939</ele>
        <time>2019-10-31T10:29:50.000Z</time>
      </trkpt>
      <trkpt lat="47.32421" lon="-2.42085">
        <ele>53.799999237061</ele>
        <time>2019-10-31T10:29:51.000Z</time>
      </trkpt>
      <trkpt lat="47.32424" lon="-2.42088">
        <ele>54.200000762939</ele>
        <time>2019-10-31T10:29:52.000Z</time>
      </trkpt>
      <trkpt lat="47.32438" lon="-2.42108">
        <ele>54.200000762939</ele>
        <time>2019-10-31T10:29:58.000Z</time>
      </trkpt>
      <trkpt lat="47.32442" lon="-2.42122">
        <ele>54.200000762939</ele>
        <time>2019-10-31T10:30:02.000Z</time>
      </trkpt>
      <trkpt lat="47.32433" lon="-2.42142">
        <ele>54.599998474121</ele>
        <time>2019-10-31T10:30:06.000Z</time>
      </trkpt>
      <trkpt lat="47.32429" lon="-2.42147">
        <ele>55</ele>
        <time>2019-10-31T10:30:07.000Z</time>
      </trkpt>
      <trkpt lat="47.32426" lon="-2.42152">
        <ele>55.400001525879</ele>
        <time>2019-10-31T10:30:08.000Z</time>
      </trkpt>
      <trkpt lat="47.32423" lon="-2.42157">
        <ele>55.799999237061</ele>
        <time>2019-10-31T10:30:09.000Z</time>
      </trkpt>
      <trkpt lat="47.3242" lon="-2.42163">
        <ele>56.200000762939</ele>
        <time>2019-10-31T10:30:10.000Z</time>
      </trkpt>
      <trkpt lat="47.32412" lon="-2.42173">
        <ele>56.200000762939</ele>
        <time>2019-10-31T10:30:12.000Z</time>
      </trkpt>
      <trkpt lat="47.32386" lon="-2.422">
        <ele>56.200000762939</ele>
        <time>2019-10-31T10:30:18.000Z</time>
      </trkpt>
      <trkpt lat="47.32356" lon="-2.42238">
        <ele>56.200000762939</ele>
        <time>2019-10-31T10:30:25.000Z</time>
      </trkpt>
      <trkpt lat="47.32324" lon="-2.42287">
        <ele>56.200000762939</ele>
        <time>2019-10-31T10:30:33.000Z</time>
      </trkpt>
      <trkpt lat="47.32321" lon="-2.42295">
        <ele>56.200000762939</ele>
        <time>2019-10-31T10:30:34.000Z</time>
      </trkpt>
      <trkpt lat="47.32319" lon="-2.42311">
        <ele>56.200000762939</ele>
        <time>2019-10-31T10:30:36.000Z</time>
      </trkpt>
      <trkpt lat="47.32321" lon="-2.42335">
        <ele>56.200000762939</ele>
        <time>2019-10-31T10:30:39.000Z</time>
      </trkpt>
      <trkpt lat="47.32322" lon="-2.42343">
        <ele>56.200000762939</ele>
        <time>2019-10-31T10:30:40.000Z</time>
      </trkpt>
      <trkpt lat="47.32326" lon="-2.42388">
        <ele>55.799999237061</ele>
        <time>2019-10-31T10:30:46.000Z</time>
      </trkpt>
      <trkpt lat="47.32326" lon="-2.42395">
        <ele>55.400001525879</ele>
        <time>2019-10-31T10:30:47.000Z</time>
      </trkpt>
      <trkpt lat="47.32326" lon="-2.42403">
        <ele>55</ele>
        <time>2019-10-31T10:30:48.000Z</time>
      </trkpt>
      <trkpt lat="47.32324" lon="-2.42409">
        <ele>54.599998474121</ele>
        <time>2019-10-31T10:30:49.000Z</time>
      </trkpt>
      <trkpt lat="47.32321" lon="-2.42415">
        <ele>54.200000762939</ele>
        <time>2019-10-31T10:30:50.000Z</time>
      </trkpt>
      <trkpt lat="47.32318" lon="-2.42421">
        <ele>54.200000762939</ele>
        <time>2019-10-31T10:30:51.000Z</time>
      </trkpt>
      <trkpt lat="47.32315" lon="-2.42427">
        <ele>53.799999237061</ele>
        <time>2019-10-31T10:30:52.000Z</time>
      </trkpt>
      <trkpt lat="47.32312" lon="-2.42433">
        <ele>53.200000762939</ele>
        <time>2019-10-31T10:30:53.000Z</time>
      </trkpt>
      <trkpt lat="47.32309" lon="-2.4244">
        <ele>52.400001525879</ele>
        <time>2019-10-31T10:30:54.000Z</time>
      </trkpt>
      <trkpt lat="47.32306" lon="-2.42446">
        <ele>52</ele>
        <time>2019-10-31T10:30:55.000Z</time>
      </trkpt>
      <trkpt lat="47.32299" lon="-2.42467">
        <ele>52</ele>
        <time>2019-10-31T10:30:58.000Z</time>
      </trkpt>
      <trkpt lat="47.32276" lon="-2.42517">
        <ele>52</ele>
        <time>2019-10-31T10:31:04.000Z</time>
      </trkpt>
      <trkpt lat="47.32272" lon="-2.42526">
        <ele>51.599998474121</ele>
        <time>2019-10-31T10:31:05.000Z</time>
      </trkpt>
      <trkpt lat="47.32267" lon="-2.42535">
        <ele>51.200000762939</ele>
        <time>2019-10-31T10:31:06.000Z</time>
      </trkpt>
      <trkpt lat="47.32263" lon="-2.42545">
        <ele>50.799999237061</ele>
        <time>2019-10-31T10:31:07.000Z</time>
      </trkpt>
      <trkpt lat="47.32258" lon="-2.42555">
        <ele>50.400001525879</ele>
        <time>2019-10-31T10:31:08.000Z</time>
      </trkpt>
      <trkpt lat="47.32253" lon="-2.42564">
        <ele>50</ele>
        <time>2019-10-31T10:31:09.000Z</time>
      </trkpt>
      <trkpt lat="47.32242" lon="-2.42585">
        <ele>49.599998474121</ele>
        <time>2019-10-31T10:31:11.000Z</time>
      </trkpt>
      <trkpt lat="47.32236" lon="-2.42595">
        <ele>49.200000762939</ele>
        <time>2019-10-31T10:31:12.000Z</time>
      </trkpt>
      <trkpt lat="47.32229" lon="-2.42605">
        <ele>48.799999237061</ele>
        <time>2019-10-31T10:31:13.000Z</time>
      </trkpt>
      <trkpt lat="47.32202" lon="-2.42642">
        <ele>46.400001525879</ele>
        <time>2019-10-31T10:31:14.000Z</time>
      </trkpt>
      <trkpt lat="47.32202" lon="-2.42642">
        <ele>46.400001525879</ele>
        <time>2019-10-31T10:31:17.000Z</time>
      </trkpt>
      <trkpt lat="47.32196" lon="-2.42651">
        <ele>46</ele>
        <time>2019-10-31T10:31:18.000Z</time>
      </trkpt>
      <trkpt lat="47.32189" lon="-2.4266">
        <ele>45.400001525879</ele>
        <time>2019-10-31T10:31:19.000Z</time>
      </trkpt>
      <trkpt lat="47.32182" lon="-2.4267">
        <ele>45</ele>
        <time>2019-10-31T10:31:20.000Z</time>
      </trkpt>
      <trkpt lat="47.32176" lon="-2.42679">
        <ele>44.400001525879</ele>
        <time>2019-10-31T10:31:21.000Z</time>
      </trkpt>
      <trkpt lat="47.32158" lon="-2.42704">
        <ele>43</ele>
        <time>2019-10-31T10:31:22.000Z</time>
      </trkpt>
      <trkpt lat="47.32158" lon="-2.42704">
        <ele>43</ele>
        <time>2019-10-31T10:31:25.000Z</time>
      </trkpt>
      <trkpt lat="47.32153" lon="-2.42712">
        <ele>42.400001525879</ele>
        <time>2019-10-31T10:31:26.000Z</time>
      </trkpt>
      <trkpt lat="47.32148" lon="-2.42719">
        <ele>42</ele>
        <time>2019-10-31T10:31:27.000Z</time>
      </trkpt>
      <trkpt lat="47.32142" lon="-2.42727">
        <ele>41.400001525879</ele>
        <time>2019-10-31T10:31:28.000Z</time>
      </trkpt>
      <trkpt lat="47.32137" lon="-2.42734">
        <ele>41</ele>
        <time>2019-10-31T10:31:29.000Z</time>
      </trkpt>
      <trkpt lat="47.32132" lon="-2.42742">
        <ele>40.599998474121</ele>
        <time>2019-10-31T10:31:30.000Z</time>
      </trkpt>
      <trkpt lat="47.32126" lon="-2.42749">
        <ele>40.200000762939</ele>
        <time>2019-10-31T10:31:31.000Z</time>
      </trkpt>
      <trkpt lat="47.3212" lon="-2.42756">
        <ele>39.599998474121</ele>
        <time>2019-10-31T10:31:32.000Z</time>
      </trkpt>
      <trkpt lat="47.32113" lon="-2.42761">
        <ele>39.200000762939</ele>
        <time>2019-10-31T10:31:33.000Z</time>
      </trkpt>
      <trkpt lat="47.32105" lon="-2.42766">
        <ele>39.200000762939</ele>
        <time>2019-10-31T10:31:34.000Z</time>
      </trkpt>
      <trkpt lat="47.32098" lon="-2.42769">
        <ele>39.200000762939</ele>
        <time>2019-10-31T10:31:35.000Z</time>
      </trkpt>
      <trkpt lat="47.3209" lon="-2.42772">
        <ele>38.799999237061</ele>
        <time>2019-10-31T10:31:36.000Z</time>
      </trkpt>
      <trkpt lat="47.32082" lon="-2.42776">
        <ele>38.400001525879</ele>
        <time>2019-10-31T10:31:37.000Z</time>
      </trkpt>
      <trkpt lat="47.32075" lon="-2.4278">
        <ele>37.799999237061</ele>
        <time>2019-10-31T10:31:38.000Z</time>
      </trkpt>
      <trkpt lat="47.32068" lon="-2.42784">
        <ele>37.400001525879</ele>
        <time>2019-10-31T10:31:39.000Z</time>
      </trkpt>
      <trkpt lat="47.32061" lon="-2.42789">
        <ele>37</ele>
        <time>2019-10-31T10:31:40.000Z</time>
      </trkpt>
      <trkpt lat="47.32054" lon="-2.42794">
        <ele>37</ele>
        <time>2019-10-31T10:31:41.000Z</time>
      </trkpt>
      <trkpt lat="47.32038" lon="-2.42806">
        <ele>36.599998474121</ele>
        <time>2019-10-31T10:31:44.000Z</time>
      </trkpt>
      <trkpt lat="47.32034" lon="-2.42809">
        <ele>36</ele>
        <time>2019-10-31T10:31:45.000Z</time>
      </trkpt>
      <trkpt lat="47.3203" lon="-2.42814">
        <ele>35.599998474121</ele>
        <time>2019-10-31T10:31:46.000Z</time>
      </trkpt>
      <trkpt lat="47.32028" lon="-2.4282">
        <ele>35.200000762939</ele>
        <time>2019-10-31T10:31:47.000Z</time>
      </trkpt>
      <trkpt lat="47.32026" lon="-2.42826">
        <ele>34.799999237061</ele>
        <time>2019-10-31T10:31:48.000Z</time>
      </trkpt>
      <trkpt lat="47.32022" lon="-2.42836">
        <ele>34.799999237061</ele>
        <time>2019-10-31T10:31:50.000Z</time>
      </trkpt>
      <trkpt lat="47.32009" lon="-2.42849">
        <ele>34.799999237061</ele>
        <time>2019-10-31T10:31:53.000Z</time>
      </trkpt>
      <trkpt lat="47.3199" lon="-2.42866">
        <ele>34</ele>
        <time>2019-10-31T10:31:55.000Z</time>
      </trkpt>
      <trkpt lat="47.31986" lon="-2.42871">
        <ele>33.599998474121</ele>
        <time>2019-10-31T10:31:57.000Z</time>
      </trkpt>
      <trkpt lat="47.31982" lon="-2.42877">
        <ele>33.200000762939</ele>
        <time>2019-10-31T10:31:58.000Z</time>
      </trkpt>
      <trkpt lat="47.31978" lon="-2.42883">
        <ele>32.799999237061</ele>
        <time>2019-10-31T10:31:59.000Z</time>
      </trkpt>
      <trkpt lat="47.31947" lon="-2.42923">
        <ele>32.200000762939</ele>
        <time>2019-10-31T10:32:05.000Z</time>
      </trkpt>
      <trkpt lat="47.31941" lon="-2.4293">
        <ele>31.799999237061</ele>
        <time>2019-10-31T10:32:06.000Z</time>
      </trkpt>
      <trkpt lat="47.31935" lon="-2.42937">
        <ele>31</ele>
        <time>2019-10-31T10:32:07.000Z</time>
      </trkpt>
      <trkpt lat="47.3193" lon="-2.42944">
        <ele>30.60000038147</ele>
        <time>2019-10-31T10:32:08.000Z</time>
      </trkpt>
      <trkpt lat="47.31896" lon="-2.42985">
        <ele>30.200000762939</ele>
        <time>2019-10-31T10:32:14.000Z</time>
      </trkpt>
      <trkpt lat="47.3189" lon="-2.42991">
        <ele>29.799999237061</ele>
        <time>2019-10-31T10:32:15.000Z</time>
      </trkpt>
      <trkpt lat="47.31883" lon="-2.42998">
        <ele>29.39999961853</ele>
        <time>2019-10-31T10:32:16.000Z</time>
      </trkpt>
      <trkpt lat="47.31876" lon="-2.43002">
        <ele>29</ele>
        <time>2019-10-31T10:32:17.000Z</time>
      </trkpt>
      <trkpt lat="47.31869" lon="-2.43007">
        <ele>28.60000038147</ele>
        <time>2019-10-31T10:32:18.000Z</time>
      </trkpt>
      <trkpt lat="47.31855" lon="-2.43014">
        <ele>28.60000038147</ele>
        <time>2019-10-31T10:32:20.000Z</time>
      </trkpt>
      <trkpt lat="47.31832" lon="-2.43015">
        <ele>28.60000038147</ele>
        <time>2019-10-31T10:32:24.000Z</time>
      </trkpt>
      <trkpt lat="47.31825" lon="-2.43014">
        <ele>28.60000038147</ele>
        <time>2019-10-31T10:32:25.000Z</time>
      </trkpt>
      <trkpt lat="47.31817" lon="-2.43012">
        <ele>28.60000038147</ele>
        <time>2019-10-31T10:32:26.000Z</time>
      </trkpt>
      <trkpt lat="47.31784" lon="-2.42999">
        <ele>28.60000038147</ele>
        <time>2019-10-31T10:32:30.000Z</time>
      </trkpt>
      <trkpt lat="47.31776" lon="-2.42995">
        <ele>28.200000762939</ele>
        <time>2019-10-31T10:32:31.000Z</time>
      </trkpt>
      <trkpt lat="47.31766" lon="-2.42992">
        <ele>27.200000762939</ele>
        <time>2019-10-31T10:32:32.000Z</time>
      </trkpt>
      <trkpt lat="47.31757" lon="-2.42988">
        <ele>26.799999237061</ele>
        <time>2019-10-31T10:32:33.000Z</time>
      </trkpt>
      <trkpt lat="47.31748" lon="-2.42984">
        <ele>26.39999961853</ele>
        <time>2019-10-31T10:32:34.000Z</time>
      </trkpt>
      <trkpt lat="47.31728" lon="-2.42976">
        <ele>26.39999961853</ele>
        <time>2019-10-31T10:32:36.000Z</time>
      </trkpt>
      <trkpt lat="47.31708" lon="-2.42968">
        <ele>26</ele>
        <time>2019-10-31T10:32:38.000Z</time>
      </trkpt>
      <trkpt lat="47.31698" lon="-2.42964">
        <ele>25.60000038147</ele>
        <time>2019-10-31T10:32:39.000Z</time>
      </trkpt>
      <trkpt lat="47.31689" lon="-2.4296">
        <ele>25</ele>
        <time>2019-10-31T10:32:40.000Z</time>
      </trkpt>
      <trkpt lat="47.31679" lon="-2.42956">
        <ele>24.60000038147</ele>
        <time>2019-10-31T10:32:41.000Z</time>
      </trkpt>
      <trkpt lat="47.31651" lon="-2.42945">
        <ele>23.60000038147</ele>
        <time>2019-10-31T10:32:42.000Z</time>
      </trkpt>
      <trkpt lat="47.31641" lon="-2.42941">
        <ele>23.200000762939</ele>
        <time>2019-10-31T10:32:45.000Z</time>
      </trkpt>
      <trkpt lat="47.31632" lon="-2.42937">
        <ele>22.60000038147</ele>
        <time>2019-10-31T10:32:46.000Z</time>
      </trkpt>
      <trkpt lat="47.31622" lon="-2.42933">
        <ele>22.200000762939</ele>
        <time>2019-10-31T10:32:47.000Z</time>
      </trkpt>
      <trkpt lat="47.31613" lon="-2.4293">
        <ele>21.799999237061</ele>
        <time>2019-10-31T10:32:48.000Z</time>
      </trkpt>
      <trkpt lat="47.31586" lon="-2.42918">
        <ele>21.200000762939</ele>
        <time>2019-10-31T10:32:51.000Z</time>
      </trkpt>
      <trkpt lat="47.31577" lon="-2.42915">
        <ele>20.799999237061</ele>
        <time>2019-10-31T10:32:52.000Z</time>
      </trkpt>
      <trkpt lat="47.31569" lon="-2.42913">
        <ele>20.39999961853</ele>
        <time>2019-10-31T10:32:53.000Z</time>
      </trkpt>
      <trkpt lat="47.3156" lon="-2.4291">
        <ele>19.799999237061</ele>
        <time>2019-10-31T10:32:54.000Z</time>
      </trkpt>
      <trkpt lat="47.31551" lon="-2.42908">
        <ele>19.39999961853</ele>
        <time>2019-10-31T10:32:55.000Z</time>
      </trkpt>
      <trkpt lat="47.31526" lon="-2.42908">
        <ele>17.799999237061</ele>
        <time>2019-10-31T10:32:56.000Z</time>
      </trkpt>
      <trkpt lat="47.31526" lon="-2.42908">
        <ele>17.799999237061</ele>
        <time>2019-10-31T10:32:58.000Z</time>
      </trkpt>
      <trkpt lat="47.31518" lon="-2.42909">
        <ele>17.39999961853</ele>
        <time>2019-10-31T10:32:59.000Z</time>
      </trkpt>
      <trkpt lat="47.31511" lon="-2.4291">
        <ele>16.799999237061</ele>
        <time>2019-10-31T10:33:00.000Z</time>
      </trkpt>
      <trkpt lat="47.31504" lon="-2.4291">
        <ele>16.200000762939</ele>
        <time>2019-10-31T10:33:01.000Z</time>
      </trkpt>
      <trkpt lat="47.31497" lon="-2.42908">
        <ele>15.39999961853</ele>
        <time>2019-10-31T10:33:02.000Z</time>
      </trkpt>
      <trkpt lat="47.3149" lon="-2.42903">
        <ele>14.800000190735</ele>
        <time>2019-10-31T10:33:03.000Z</time>
      </trkpt>
      <trkpt lat="47.31485" lon="-2.42896">
        <ele>14.199999809265</ele>
        <time>2019-10-31T10:33:04.000Z</time>
      </trkpt>
      <trkpt lat="47.31474" lon="-2.42883">
        <ele>14.199999809265</ele>
        <time>2019-10-31T10:33:06.000Z</time>
      </trkpt>
      <trkpt lat="47.31469" lon="-2.42875">
        <ele>14.199999809265</ele>
        <time>2019-10-31T10:33:07.000Z</time>
      </trkpt>
      <trkpt lat="47.31465" lon="-2.42856">
        <ele>14.199999809265</ele>
        <time>2019-10-31T10:33:09.000Z</time>
      </trkpt>
      <trkpt lat="47.31463" lon="-2.42833">
        <ele>14.199999809265</ele>
        <time>2019-10-31T10:33:11.000Z</time>
      </trkpt>
      <trkpt lat="47.31462" lon="-2.42808">
        <ele>14.199999809265</ele>
        <time>2019-10-31T10:33:13.000Z</time>
      </trkpt>
      <trkpt lat="47.3146" lon="-2.42796">
        <ele>14.199999809265</ele>
        <time>2019-10-31T10:33:14.000Z</time>
      </trkpt>
      <trkpt lat="47.31452" lon="-2.42757">
        <ele>14.199999809265</ele>
        <time>2019-10-31T10:33:17.000Z</time>
      </trkpt>
      <trkpt lat="47.3143" lon="-2.42715">
        <ele>13.800000190735</ele>
        <time>2019-10-31T10:33:19.000Z</time>
      </trkpt>
      <trkpt lat="47.3143" lon="-2.42715">
        <ele>13.800000190735</ele>
        <time>2019-10-31T10:33:21.000Z</time>
      </trkpt>
      <trkpt lat="47.31424" lon="-2.42705">
        <ele>13.39999961853</ele>
        <time>2019-10-31T10:33:22.000Z</time>
      </trkpt>
      <trkpt lat="47.31418" lon="-2.42696">
        <ele>13</ele>
        <time>2019-10-31T10:33:23.000Z</time>
      </trkpt>
      <trkpt lat="47.31412" lon="-2.42687">
        <ele>12.60000038147</ele>
        <time>2019-10-31T10:33:24.000Z</time>
      </trkpt>
      <trkpt lat="47.31407" lon="-2.42678">
        <ele>12.199999809265</ele>
        <time>2019-10-31T10:33:25.000Z</time>
      </trkpt>
      <trkpt lat="47.31391" lon="-2.42652">
        <ele>12.199999809265</ele>
        <time>2019-10-31T10:33:28.000Z</time>
      </trkpt>
      <trkpt lat="47.31368" lon="-2.42606">
        <ele>12.199999809265</ele>
        <time>2019-10-31T10:33:33.000Z</time>
      </trkpt>
      <trkpt lat="47.31364" lon="-2.42596">
        <ele>12.199999809265</ele>
        <time>2019-10-31T10:33:34.000Z</time>
      </trkpt>
      <trkpt lat="47.31354" lon="-2.42533">
        <ele>12.199999809265</ele>
        <time>2019-10-31T10:33:38.000Z</time>
      </trkpt>
      <trkpt lat="47.31354" lon="-2.42533">
        <ele>12.199999809265</ele>
        <time>2019-10-31T10:33:40.000Z</time>
      </trkpt>
      <trkpt lat="47.31342" lon="-2.42462">
        <ele>12.199999809265</ele>
        <time>2019-10-31T10:33:47.000Z</time>
      </trkpt>
      <trkpt lat="47.31338" lon="-2.42452">
        <ele>12.199999809265</ele>
        <time>2019-10-31T10:33:48.000Z</time>
      </trkpt>
      <trkpt lat="47.31325" lon="-2.42426">
        <ele>12.199999809265</ele>
        <time>2019-10-31T10:33:51.000Z</time>
      </trkpt>
      <trkpt lat="47.31288" lon="-2.42366">
        <ele>12.199999809265</ele>
        <time>2019-10-31T10:33:58.000Z</time>
      </trkpt>
      <trkpt lat="47.31277" lon="-2.4235">
        <ele>12.199999809265</ele>
        <time>2019-10-31T10:34:00.000Z</time>
      </trkpt>
      <trkpt lat="47.31251" lon="-2.42321">
        <ele>11.800000190735</ele>
        <time>2019-10-31T10:34:04.000Z</time>
      </trkpt>
      <trkpt lat="47.31245" lon="-2.42315">
        <ele>11</ele>
        <time>2019-10-31T10:34:05.000Z</time>
      </trkpt>
      <trkpt lat="47.31238" lon="-2.42309">
        <ele>10.60000038147</ele>
        <time>2019-10-31T10:34:06.000Z</time>
      </trkpt>
      <trkpt lat="47.31232" lon="-2.42302">
        <ele>10</ele>
        <time>2019-10-31T10:34:07.000Z</time>
      </trkpt>
      <trkpt lat="47.31227" lon="-2.42295">
        <ele>10</ele>
        <time>2019-10-31T10:34:08.000Z</time>
      </trkpt>
      <trkpt lat="47.31217" lon="-2.42279">
        <ele>10</ele>
        <time>2019-10-31T10:34:10.000Z</time>
      </trkpt>
      <trkpt lat="47.31183" lon="-2.42209">
        <ele>10</ele>
        <time>2019-10-31T10:34:18.000Z</time>
      </trkpt>
      <trkpt lat="47.31136" lon="-2.42108">
        <ele>10</ele>
        <time>2019-10-31T10:34:27.000Z</time>
      </trkpt>
      <trkpt lat="47.31136" lon="-2.42108">
        <ele>10</ele>
        <time>2019-10-31T10:34:30.000Z</time>
      </trkpt>
      <trkpt lat="47.31108" lon="-2.42041">
        <ele>10</ele>
        <time>2019-10-31T10:34:38.000Z</time>
      </trkpt>
      <trkpt lat="47.31091" lon="-2.41987">
        <ele>10</ele>
        <time>2019-10-31T10:34:45.000Z</time>
      </trkpt>
      <trkpt lat="47.31081" lon="-2.41951">
        <ele>10</ele>
        <time>2019-10-31T10:34:50.000Z</time>
      </trkpt>
      <trkpt lat="47.31077" lon="-2.41947">
        <ele>10</ele>
        <time>2019-10-31T10:34:51.000Z</time>
      </trkpt>
      <trkpt lat="47.31062" lon="-2.41952">
        <ele>10</ele>
        <time>2019-10-31T10:34:54.000Z</time>
      </trkpt>
      <trkpt lat="47.31048" lon="-2.41971">
        <ele>10</ele>
        <time>2019-10-31T10:34:57.000Z</time>
      </trkpt>
      <trkpt lat="47.31029" lon="-2.41995">
        <ele>10</ele>
        <time>2019-10-31T10:34:59.000Z</time>
      </trkpt>
      <trkpt lat="47.30987" lon="-2.42044">
        <ele>10</ele>
        <time>2019-10-31T10:35:09.000Z</time>
      </trkpt>
      <trkpt lat="47.30942" lon="-2.42089">
        <ele>10</ele>
        <time>2019-10-31T10:35:17.000Z</time>
      </trkpt>
      <trkpt lat="47.30907" lon="-2.42125">
        <ele>9.6000003814697</ele>
        <time>2019-10-31T10:35:23.000Z</time>
      </trkpt>
      <trkpt lat="47.30901" lon="-2.42132">
        <ele>9.1999998092651</ele>
        <time>2019-10-31T10:35:24.000Z</time>
      </trkpt>
      <trkpt lat="47.30896" lon="-2.42139">
        <ele>8.8000001907349</ele>
        <time>2019-10-31T10:35:25.000Z</time>
      </trkpt>
      <trkpt lat="47.3089" lon="-2.42147">
        <ele>8.3999996185303</ele>
        <time>2019-10-31T10:35:26.000Z</time>
      </trkpt>
      <trkpt lat="47.30884" lon="-2.42154">
        <ele>8</ele>
        <time>2019-10-31T10:35:27.000Z</time>
      </trkpt>
      <trkpt lat="47.30869" lon="-2.42179">
        <ele>8</ele>
        <time>2019-10-31T10:35:30.000Z</time>
      </trkpt>
      <trkpt lat="47.30858" lon="-2.42201">
        <ele>7.4000000953674</ele>
        <time>2019-10-31T10:35:33.000Z</time>
      </trkpt>
      <trkpt lat="47.30854" lon="-2.42206">
        <ele>7</ele>
        <time>2019-10-31T10:35:34.000Z</time>
      </trkpt>
      <trkpt lat="47.30849" lon="-2.42209">
        <ele>6.4000000953674</ele>
        <time>2019-10-31T10:35:35.000Z</time>
      </trkpt>
      <trkpt lat="47.30844" lon="-2.4221">
        <ele>6</ele>
        <time>2019-10-31T10:35:36.000Z</time>
      </trkpt>
      <trkpt lat="47.30837" lon="-2.42209">
        <ele>5.4000000953674</ele>
        <time>2019-10-31T10:35:37.000Z</time>
      </trkpt>
      <trkpt lat="47.30817" lon="-2.42203">
        <ele>5.4000000953674</ele>
        <time>2019-10-31T10:35:40.000Z</time>
      </trkpt>
      <trkpt lat="47.3081" lon="-2.42198">
        <ele>5.4000000953674</ele>
        <time>2019-10-31T10:35:41.000Z</time>
      </trkpt>
      <trkpt lat="47.30794" lon="-2.42176">
        <ele>5.4000000953674</ele>
        <time>2019-10-31T10:35:44.000Z</time>
      </trkpt>
      <trkpt lat="47.30785" lon="-2.42158">
        <ele>5.4000000953674</ele>
        <time>2019-10-31T10:35:46.000Z</time>
      </trkpt>
      <trkpt lat="47.30768" lon="-2.42123">
        <ele>5.4000000953674</ele>
        <time>2019-10-31T10:35:50.000Z</time>
      </trkpt>
      <trkpt lat="47.30738" lon="-2.42068">
        <ele>5.4000000953674</ele>
        <time>2019-10-31T10:35:57.000Z</time>
      </trkpt>
      <trkpt lat="47.30721" lon="-2.4205">
        <ele>5.4000000953674</ele>
        <time>2019-10-31T10:36:00.000Z</time>
      </trkpt>
      <trkpt lat="47.30709" lon="-2.42041">
        <ele>5.4000000953674</ele>
        <time>2019-10-31T10:36:02.000Z</time>
      </trkpt>
      <trkpt lat="47.30698" lon="-2.4203">
        <ele>5.4000000953674</ele>
        <time>2019-10-31T10:36:04.000Z</time>
      </trkpt>
      <trkpt lat="47.30682" lon="-2.42011">
        <ele>5.4000000953674</ele>
        <time>2019-10-31T10:36:07.000Z</time>
      </trkpt>
      <trkpt lat="47.30657" lon="-2.41976">
        <ele>5.4000000953674</ele>
        <time>2019-10-31T10:36:12.000Z</time>
      </trkpt>
      <trkpt lat="47.30643" lon="-2.41943">
        <ele>5.4000000953674</ele>
        <time>2019-10-31T10:36:16.000Z</time>
      </trkpt>
      <trkpt lat="47.30634" lon="-2.41905">
        <ele>5.4000000953674</ele>
        <time>2019-10-31T10:36:17.000Z</time>
      </trkpt>
      <trkpt lat="47.30632" lon="-2.41896">
        <ele>5.4000000953674</ele>
        <time>2019-10-31T10:36:21.000Z</time>
      </trkpt>
      <trkpt lat="47.30614" lon="-2.41853">
        <ele>5.4000000953674</ele>
        <time>2019-10-31T10:36:26.000Z</time>
      </trkpt>
      <trkpt lat="47.30592" lon="-2.41804">
        <ele>5.4000000953674</ele>
        <time>2019-10-31T10:36:32.000Z</time>
      </trkpt>
      <trkpt lat="47.30565" lon="-2.41737">
        <ele>5.4000000953674</ele>
        <time>2019-10-31T10:36:40.000Z</time>
      </trkpt>
      <trkpt lat="47.30527" lon="-2.41682">
        <ele>5.4000000953674</ele>
        <time>2019-10-31T10:36:48.000Z</time>
      </trkpt>
      <trkpt lat="47.30518" lon="-2.41668">
        <ele>5.4000000953674</ele>
        <time>2019-10-31T10:36:50.000Z</time>
      </trkpt>
      <trkpt lat="47.30508" lon="-2.41644">
        <ele>5.4000000953674</ele>
        <time>2019-10-31T10:36:53.000Z</time>
      </trkpt>
      <trkpt lat="47.30502" lon="-2.41605">
        <ele>5.4000000953674</ele>
        <time>2019-10-31T10:36:57.000Z</time>
      </trkpt>
      <trkpt lat="47.30501" lon="-2.41595">
        <ele>5.4000000953674</ele>
        <time>2019-10-31T10:36:58.000Z</time>
      </trkpt>
      <trkpt lat="47.305" lon="-2.41575">
        <ele>5.4000000953674</ele>
        <time>2019-10-31T10:37:00.000Z</time>
      </trkpt>
      <trkpt lat="47.30493" lon="-2.41547">
        <ele>5.4000000953674</ele>
        <time>2019-10-31T10:37:03.000Z</time>
      </trkpt>
      <trkpt lat="47.3049" lon="-2.41538">
        <ele>5.4000000953674</ele>
        <time>2019-10-31T10:37:04.000Z</time>
      </trkpt>
      <trkpt lat="47.30483" lon="-2.41505">
        <ele>5.4000000953674</ele>
        <time>2019-10-31T10:37:06.000Z</time>
      </trkpt>
      <trkpt lat="47.30483" lon="-2.41505">
        <ele>5.4000000953674</ele>
        <time>2019-10-31T10:37:08.000Z</time>
      </trkpt>
      <trkpt lat="47.30484" lon="-2.41497">
        <ele>5.4000000953674</ele>
        <time>2019-10-31T10:37:09.000Z</time>
      </trkpt>
      <trkpt lat="47.30494" lon="-2.41474">
        <ele>5.4000000953674</ele>
        <time>2019-10-31T10:37:12.000Z</time>
      </trkpt>
      <trkpt lat="47.305" lon="-2.41458">
        <ele>5.4000000953674</ele>
        <time>2019-10-31T10:37:14.000Z</time>
      </trkpt>
      <trkpt lat="47.30502" lon="-2.41439">
        <ele>5.4000000953674</ele>
        <time>2019-10-31T10:37:16.000Z</time>
      </trkpt>
      <trkpt lat="47.30495" lon="-2.41399">
        <ele>5.4000000953674</ele>
        <time>2019-10-31T10:37:20.000Z</time>
      </trkpt>
      <trkpt lat="47.30486" lon="-2.41361">
        <ele>5.4000000953674</ele>
        <time>2019-10-31T10:37:21.000Z</time>
      </trkpt>
      <trkpt lat="47.30475" lon="-2.41312">
        <ele>5.4000000953674</ele>
        <time>2019-10-31T10:37:29.000Z</time>
      </trkpt>
      <trkpt lat="47.30471" lon="-2.41293">
        <ele>5.4000000953674</ele>
        <time>2019-10-31T10:37:31.000Z</time>
      </trkpt>
      <trkpt lat="47.30464" lon="-2.41265">
        <ele>5.4000000953674</ele>
        <time>2019-10-31T10:37:34.000Z</time>
      </trkpt>
      <trkpt lat="47.3045" lon="-2.4118">
        <ele>5.4000000953674</ele>
        <time>2019-10-31T10:37:43.000Z</time>
      </trkpt>
      <trkpt lat="47.30441" lon="-2.41159">
        <ele>5.4000000953674</ele>
        <time>2019-10-31T10:37:46.000Z</time>
      </trkpt>
      <trkpt lat="47.30416" lon="-2.41152">
        <ele>5.4000000953674</ele>
        <time>2019-10-31T10:37:50.000Z</time>
      </trkpt>
      <trkpt lat="47.30371" lon="-2.41155">
        <ele>5.4000000953674</ele>
        <time>2019-10-31T10:37:57.000Z</time>
      </trkpt>
      <trkpt lat="47.30347" lon="-2.41145">
        <ele>5.4000000953674</ele>
        <time>2019-10-31T10:38:01.000Z</time>
      </trkpt>
      <trkpt lat="47.3033" lon="-2.41137">
        <ele>5.4000000953674</ele>
        <time>2019-10-31T10:38:04.000Z</time>
      </trkpt>
      <trkpt lat="47.30298" lon="-2.41125">
        <ele>5.4000000953674</ele>
        <time>2019-10-31T10:38:10.000Z</time>
      </trkpt>
      <trkpt lat="47.30281" lon="-2.41106">
        <ele>5.4000000953674</ele>
        <time>2019-10-31T10:38:14.000Z</time>
      </trkpt>
      <trkpt lat="47.30271" lon="-2.41075">
        <ele>5.4000000953674</ele>
        <time>2019-10-31T10:38:18.000Z</time>
      </trkpt>
      <trkpt lat="47.30271" lon="-2.41043">
        <ele>5.4000000953674</ele>
        <time>2019-10-31T10:38:23.000Z</time>
      </trkpt>
      <trkpt lat="47.3027" lon="-2.41035">
        <ele>5.4000000953674</ele>
        <time>2019-10-31T10:38:24.000Z</time>
      </trkpt>
      <trkpt lat="47.30266" lon="-2.4102">
        <ele>5.4000000953674</ele>
        <time>2019-10-31T10:38:26.000Z</time>
      </trkpt>
      <trkpt lat="47.30255" lon="-2.41005">
        <ele>5.4000000953674</ele>
        <time>2019-10-31T10:38:29.000Z</time>
      </trkpt>
      <trkpt lat="47.30251" lon="-2.41001">
        <ele>5.4000000953674</ele>
        <time>2019-10-31T10:38:30.000Z</time>
      </trkpt>
      <trkpt lat="47.30227" lon="-2.40973">
        <ele>5.4000000953674</ele>
        <time>2019-10-31T10:38:37.000Z</time>
      </trkpt>
      <trkpt lat="47.3022" lon="-2.40953">
        <ele>5.4000000953674</ele>
        <time>2019-10-31T10:38:42.000Z</time>
      </trkpt>
      <trkpt lat="47.30221" lon="-2.40944">
        <ele>5.8000001907349</ele>
        <time>2019-10-31T10:38:45.000Z</time>
      </trkpt>
      <trkpt lat="47.30221" lon="-2.40942">
        <ele>6.1999998092651</ele>
        <time>2019-10-31T10:38:46.000Z</time>
      </trkpt>
      <trkpt lat="47.30221" lon="-2.40941">
        <ele>6.5999999046326</ele>
        <time>2019-10-31T10:38:47.000Z</time>
      </trkpt>
      <trkpt lat="47.30221" lon="-2.40941">
        <ele>7.5999999046326</ele>
        <time>2019-10-31T10:39:03.000Z</time>
      </trkpt>
      <trkpt lat="47.30222" lon="-2.40938">
        <ele>7.5999999046326</ele>
        <time>2019-10-31T10:39:05.000Z</time>
      </trkpt>
      <trkpt lat="47.3023" lon="-2.4093">
        <ele>7.5999999046326</ele>
        <time>2019-10-31T10:39:09.000Z</time>
      </trkpt>
      <trkpt lat="47.30238" lon="-2.4093">
        <ele>7.5999999046326</ele>
        <time>2019-10-31T10:39:11.000Z</time>
      </trkpt>
      <trkpt lat="47.30242" lon="-2.4093">
        <ele>7.5999999046326</ele>
        <time>2019-10-31T10:39:12.000Z</time>
      </trkpt>
      <trkpt lat="47.30251" lon="-2.4093">
        <ele>7.5999999046326</ele>
        <time>2019-10-31T10:39:14.000Z</time>
      </trkpt>
      <trkpt lat="47.30288" lon="-2.4093">
        <ele>7.5999999046326</ele>
        <time>2019-10-31T10:39:22.000Z</time>
      </trkpt>
      <trkpt lat="47.3033" lon="-2.40922">
        <ele>7.5999999046326</ele>
        <time>2019-10-31T10:39:30.000Z</time>
      </trkpt>
      <trkpt lat="47.30371" lon="-2.40907">
        <ele>7.5999999046326</ele>
        <time>2019-10-31T10:39:37.000Z</time>
      </trkpt>
      <trkpt lat="47.30419" lon="-2.40891">
        <ele>7.5999999046326</ele>
        <time>2019-10-31T10:39:45.000Z</time>
      </trkpt>
      <trkpt lat="47.30479" lon="-2.4087">
        <ele>7.5999999046326</ele>
        <time>2019-10-31T10:39:54.000Z</time>
      </trkpt>
      <trkpt lat="47.30514" lon="-2.40858">
        <ele>7.5999999046326</ele>
        <time>2019-10-31T10:40:03.000Z</time>
      </trkpt>
      <trkpt lat="47.30535" lon="-2.40852">
        <ele>7.5999999046326</ele>
        <time>2019-10-31T10:40:05.000Z</time>
      </trkpt>
      <trkpt lat="47.30549" lon="-2.40848">
        <ele>7.5999999046326</ele>
        <time>2019-10-31T10:40:10.000Z</time>
      </trkpt>
      <trkpt lat="47.30559" lon="-2.40845">
        <ele>8</ele>
        <time>2019-10-31T10:40:12.000Z</time>
      </trkpt>
      <trkpt lat="47.30563" lon="-2.40843">
        <ele>8.3999996185303</ele>
        <time>2019-10-31T10:40:13.000Z</time>
      </trkpt>
      <trkpt lat="47.30568" lon="-2.40842">
        <ele>8.8000001907349</ele>
        <time>2019-10-31T10:40:14.000Z</time>
      </trkpt>
      <trkpt lat="47.30572" lon="-2.40841">
        <ele>9.1999998092651</ele>
        <time>2019-10-31T10:40:15.000Z</time>
      </trkpt>
      <trkpt lat="47.30576" lon="-2.40841">
        <ele>9.8000001907349</ele>
        <time>2019-10-31T10:40:16.000Z</time>
      </trkpt>
      <trkpt lat="47.30597" lon="-2.40837">
        <ele>9.8000001907349</ele>
        <time>2019-10-31T10:40:22.000Z</time>
      </trkpt>
      <trkpt lat="47.30601" lon="-2.40824">
        <ele>9.8000001907349</ele>
        <time>2019-10-31T10:40:23.000Z</time>
      </trkpt>
      <trkpt lat="47.30601" lon="-2.40824">
        <ele>9.8000001907349</ele>
        <time>2019-10-31T10:40:26.000Z</time>
      </trkpt>
      <trkpt lat="47.30592" lon="-2.40801">
        <ele>10.199999809265</ele>
        <time>2019-10-31T10:40:30.000Z</time>
      </trkpt>
      <trkpt lat="47.30589" lon="-2.40795">
        <ele>10.60000038147</ele>
        <time>2019-10-31T10:40:31.000Z</time>
      </trkpt>
      <trkpt lat="47.30587" lon="-2.40788">
        <ele>11</ele>
        <time>2019-10-31T10:40:32.000Z</time>
      </trkpt>
      <trkpt lat="47.30584" lon="-2.40781">
        <ele>11.60000038147</ele>
        <time>2019-10-31T10:40:33.000Z</time>
      </trkpt>
      <trkpt lat="47.30581" lon="-2.40774">
        <ele>12</ele>
        <time>2019-10-31T10:40:34.000Z</time>
      </trkpt>
      <trkpt lat="47.30578" lon="-2.40767">
        <ele>12</ele>
        <time>2019-10-31T10:40:35.000Z</time>
      </trkpt>
      <trkpt lat="47.30561" lon="-2.40724">
        <ele>12</ele>
        <time>2019-10-31T10:40:40.000Z</time>
      </trkpt>
      <trkpt lat="47.30531" lon="-2.40647">
        <ele>12</ele>
        <time>2019-10-31T10:40:48.000Z</time>
      </trkpt>
      <trkpt lat="47.30511" lon="-2.40599">
        <ele>12</ele>
        <time>2019-10-31T10:40:53.000Z</time>
      </trkpt>
      <trkpt lat="47.30508" lon="-2.4059">
        <ele>12</ele>
        <time>2019-10-31T10:40:54.000Z</time>
      </trkpt>
      <trkpt lat="47.305" lon="-2.40569">
        <ele>11.60000038147</ele>
        <time>2019-10-31T10:40:56.000Z</time>
      </trkpt>
      <trkpt lat="47.30496" lon="-2.40559">
        <ele>11.199999809265</ele>
        <time>2019-10-31T10:40:57.000Z</time>
      </trkpt>
      <trkpt lat="47.30493" lon="-2.4055">
        <ele>10.60000038147</ele>
        <time>2019-10-31T10:40:58.000Z</time>
      </trkpt>
      <trkpt lat="47.30489" lon="-2.40541">
        <ele>10.199999809265</ele>
        <time>2019-10-31T10:40:59.000Z</time>
      </trkpt>
      <trkpt lat="47.30486" lon="-2.40532">
        <ele>9.8000001907349</ele>
        <time>2019-10-31T10:41:00.000Z</time>
      </trkpt>
      <trkpt lat="47.3047" lon="-2.40489">
        <ele>9.8000001907349</ele>
        <time>2019-10-31T10:41:05.000Z</time>
      </trkpt>
      <trkpt lat="47.30453" lon="-2.40443">
        <ele>9.8000001907349</ele>
        <time>2019-10-31T10:41:11.000Z</time>
      </trkpt>
      <trkpt lat="47.30434" lon="-2.40394">
        <ele>10.199999809265</ele>
        <time>2019-10-31T10:41:18.000Z</time>
      </trkpt>
      <trkpt lat="47.30427" lon="-2.40375">
        <ele>11.39999961853</ele>
        <time>2019-10-31T10:41:19.000Z</time>
      </trkpt>
      <trkpt lat="47.3042" lon="-2.40358">
        <ele>11.800000190735</ele>
        <time>2019-10-31T10:41:22.000Z</time>
      </trkpt>
      <trkpt lat="47.30411" lon="-2.40339">
        <ele>11.800000190735</ele>
        <time>2019-10-31T10:41:27.000Z</time>
      </trkpt>
      <trkpt lat="47.30406" lon="-2.40325">
        <ele>12.800000190735</ele>
        <time>2019-10-31T10:41:29.000Z</time>
      </trkpt>
      <trkpt lat="47.30403" lon="-2.40318">
        <ele>13.199999809265</ele>
        <time>2019-10-31T10:41:30.000Z</time>
      </trkpt>
      <trkpt lat="47.30401" lon="-2.40311">
        <ele>13.60000038147</ele>
        <time>2019-10-31T10:41:31.000Z</time>
      </trkpt>
      <trkpt lat="47.30398" lon="-2.40305">
        <ele>14</ele>
        <time>2019-10-31T10:41:32.000Z</time>
      </trkpt>
      <trkpt lat="47.3039" lon="-2.40284">
        <ele>14</ele>
        <time>2019-10-31T10:41:35.000Z</time>
      </trkpt>
      <trkpt lat="47.30379" lon="-2.40253">
        <ele>14</ele>
        <time>2019-10-31T10:41:37.000Z</time>
      </trkpt>
      <trkpt lat="47.30374" lon="-2.40236">
        <ele>14</ele>
        <time>2019-10-31T10:41:41.000Z</time>
      </trkpt>
      <trkpt lat="47.30363" lon="-2.40205">
        <ele>14</ele>
        <time>2019-10-31T10:41:45.000Z</time>
      </trkpt>
      <trkpt lat="47.30354" lon="-2.40195">
        <ele>14</ele>
        <time>2019-10-31T10:41:47.000Z</time>
      </trkpt>
      <trkpt lat="47.30334" lon="-2.402">
        <ele>14</ele>
        <time>2019-10-31T10:41:50.000Z</time>
      </trkpt>
      <trkpt lat="47.30291" lon="-2.40246">
        <ele>14</ele>
        <time>2019-10-31T10:41:59.000Z</time>
      </trkpt>
      <trkpt lat="47.30248" lon="-2.4029">
        <ele>14</ele>
        <time>2019-10-31T10:42:08.000Z</time>
      </trkpt>
      <trkpt lat="47.30217" lon="-2.40326">
        <ele>12.39999961853</ele>
        <time>2019-10-31T10:42:11.000Z</time>
      </trkpt>
      <trkpt lat="47.30212" lon="-2.40333">
        <ele>12</ele>
        <time>2019-10-31T10:42:15.000Z</time>
      </trkpt>
      <trkpt lat="47.30208" lon="-2.40341">
        <ele>12</ele>
        <time>2019-10-31T10:42:16.000Z</time>
      </trkpt>
      <trkpt lat="47.30199" lon="-2.40356">
        <ele>12</ele>
        <time>2019-10-31T10:42:18.000Z</time>
      </trkpt>
      <trkpt lat="47.30186" lon="-2.40365">
        <ele>12</ele>
        <time>2019-10-31T10:42:20.000Z</time>
      </trkpt>
      <trkpt lat="47.30173" lon="-2.40371">
        <ele>12</ele>
        <time>2019-10-31T10:42:22.000Z</time>
      </trkpt>
      <trkpt lat="47.30135" lon="-2.40384">
        <ele>12</ele>
        <time>2019-10-31T10:42:27.000Z</time>
      </trkpt>
      <trkpt lat="47.3011" lon="-2.40393">
        <ele>11.60000038147</ele>
        <time>2019-10-31T10:42:32.000Z</time>
      </trkpt>
      <trkpt lat="47.30106" lon="-2.40395">
        <ele>11.199999809265</ele>
        <time>2019-10-31T10:42:33.000Z</time>
      </trkpt>
      <trkpt lat="47.30101" lon="-2.40397">
        <ele>10.800000190735</ele>
        <time>2019-10-31T10:42:34.000Z</time>
      </trkpt>
      <trkpt lat="47.30097" lon="-2.40399">
        <ele>10.39999961853</ele>
        <time>2019-10-31T10:42:35.000Z</time>
      </trkpt>
      <trkpt lat="47.30093" lon="-2.40401">
        <ele>10</ele>
        <time>2019-10-31T10:42:36.000Z</time>
      </trkpt>
      <trkpt lat="47.30086" lon="-2.40405">
        <ele>10</ele>
        <time>2019-10-31T10:42:38.000Z</time>
      </trkpt>
      <trkpt lat="47.30076" lon="-2.4041">
        <ele>10</ele>
        <time>2019-10-31T10:42:43.000Z</time>
      </trkpt>
      <trkpt lat="47.30063" lon="-2.40417">
        <ele>10</ele>
        <time>2019-10-31T10:42:49.000Z</time>
      </trkpt>
      <trkpt lat="47.30049" lon="-2.40421">
        <ele>10</ele>
        <time>2019-10-31T10:42:56.000Z</time>
      </trkpt>
      <trkpt lat="47.30048" lon="-2.40422">
        <ele>10</ele>
        <time>2019-10-31T10:42:58.000Z</time>
      </trkpt>
      <trkpt lat="47.30054" lon="-2.4042">
        <ele>10</ele>
        <time>2019-10-31T10:43:27.000Z</time>
      </trkpt>
      <trkpt lat="47.30056" lon="-2.4042">
        <ele>10</ele>
        <time>2019-10-31T10:43:28.000Z</time>
      </trkpt>
      <trkpt lat="47.30071" lon="-2.40411">
        <ele>10</ele>
        <time>2019-10-31T10:43:34.000Z</time>
      </trkpt>
      <trkpt lat="47.30084" lon="-2.40403">
        <ele>10</ele>
        <time>2019-10-31T10:43:40.000Z</time>
      </trkpt>
      <trkpt lat="47.30101" lon="-2.40396">
        <ele>10</ele>
        <time>2019-10-31T10:43:45.000Z</time>
      </trkpt>
      <trkpt lat="47.3011" lon="-2.40394">
        <ele>10</ele>
        <time>2019-10-31T10:43:47.000Z</time>
      </trkpt>
      <trkpt lat="47.30123" lon="-2.4039">
        <ele>10</ele>
        <time>2019-10-31T10:43:50.000Z</time>
      </trkpt>
      <trkpt lat="47.3017" lon="-2.40372">
        <ele>10</ele>
        <time>2019-10-31T10:44:00.000Z</time>
      </trkpt>
      <trkpt lat="47.30193" lon="-2.40363">
        <ele>10</ele>
        <time>2019-10-31T10:44:06.000Z</time>
      </trkpt>
      <trkpt lat="47.30205" lon="-2.40352">
        <ele>10</ele>
        <time>2019-10-31T10:44:07.000Z</time>
      </trkpt>
      <trkpt lat="47.30208" lon="-2.40347">
        <ele>10</ele>
        <time>2019-10-31T10:44:10.000Z</time>
      </trkpt>
      <trkpt lat="47.30219" lon="-2.40325">
        <ele>10</ele>
        <time>2019-10-31T10:44:14.000Z</time>
      </trkpt>
      <trkpt lat="47.30224" lon="-2.40317">
        <ele>10</ele>
        <time>2019-10-31T10:44:16.000Z</time>
      </trkpt>
      <trkpt lat="47.30238" lon="-2.40302">
        <ele>10</ele>
        <time>2019-10-31T10:44:20.000Z</time>
      </trkpt>
      <trkpt lat="47.30245" lon="-2.40294">
        <ele>10.39999961853</ele>
        <time>2019-10-31T10:44:22.000Z</time>
      </trkpt>
      <trkpt lat="47.30249" lon="-2.4029">
        <ele>10.800000190735</ele>
        <time>2019-10-31T10:44:23.000Z</time>
      </trkpt>
      <trkpt lat="47.30253" lon="-2.40286">
        <ele>11.60000038147</ele>
        <time>2019-10-31T10:44:24.000Z</time>
      </trkpt>
      <trkpt lat="47.30257" lon="-2.40282">
        <ele>12</ele>
        <time>2019-10-31T10:44:25.000Z</time>
      </trkpt>
      <trkpt lat="47.30269" lon="-2.40271">
        <ele>12</ele>
        <time>2019-10-31T10:44:28.000Z</time>
      </trkpt>
      <trkpt lat="47.30302" lon="-2.40238">
        <ele>12</ele>
        <time>2019-10-31T10:44:36.000Z</time>
      </trkpt>
      <trkpt lat="47.30333" lon="-2.40207">
        <ele>12</ele>
        <time>2019-10-31T10:44:43.000Z</time>
      </trkpt>
      <trkpt lat="47.30336" lon="-2.40203">
        <ele>12</ele>
        <time>2019-10-31T10:44:46.000Z</time>
      </trkpt>
      <trkpt lat="47.30342" lon="-2.40185">
        <ele>12</ele>
        <time>2019-10-31T10:44:49.000Z</time>
      </trkpt>
      <trkpt lat="47.30341" lon="-2.40178">
        <ele>12</ele>
        <time>2019-10-31T10:44:50.000Z</time>
      </trkpt>
      <trkpt lat="47.30335" lon="-2.40149">
        <ele>12</ele>
        <time>2019-10-31T10:44:54.000Z</time>
      </trkpt>
      <trkpt lat="47.30322" lon="-2.40102">
        <ele>12</ele>
        <time>2019-10-31T10:45:00.000Z</time>
      </trkpt>
      <trkpt lat="47.303" lon="-2.40036">
        <ele>12</ele>
        <time>2019-10-31T10:45:08.000Z</time>
      </trkpt>
      <trkpt lat="47.30297" lon="-2.40028">
        <ele>12</ele>
        <time>2019-10-31T10:45:09.000Z</time>
      </trkpt>
      <trkpt lat="47.30287" lon="-2.39995">
        <ele>12</ele>
        <time>2019-10-31T10:45:13.000Z</time>
      </trkpt>
      <trkpt lat="47.30272" lon="-2.39944">
        <ele>12.39999961853</ele>
        <time>2019-10-31T10:45:19.000Z</time>
      </trkpt>
      <trkpt lat="47.3027" lon="-2.39936">
        <ele>12.800000190735</ele>
        <time>2019-10-31T10:45:20.000Z</time>
      </trkpt>
      <trkpt lat="47.30267" lon="-2.39927">
        <ele>13.199999809265</ele>
        <time>2019-10-31T10:45:21.000Z</time>
      </trkpt>
      <trkpt lat="47.30264" lon="-2.39919">
        <ele>13.60000038147</ele>
        <time>2019-10-31T10:45:22.000Z</time>
      </trkpt>
      <trkpt lat="47.30261" lon="-2.39911">
        <ele>14</ele>
        <time>2019-10-31T10:45:23.000Z</time>
      </trkpt>
      <trkpt lat="47.30245" lon="-2.39859">
        <ele>14</ele>
        <time>2019-10-31T10:45:29.000Z</time>
      </trkpt>
      <trkpt lat="47.30239" lon="-2.39842">
        <ele>14.39999961853</ele>
        <time>2019-10-31T10:45:31.000Z</time>
      </trkpt>
      <trkpt lat="47.30237" lon="-2.39833">
        <ele>14.800000190735</ele>
        <time>2019-10-31T10:45:32.000Z</time>
      </trkpt>
      <trkpt lat="47.30233" lon="-2.39825">
        <ele>15.199999809265</ele>
        <time>2019-10-31T10:45:33.000Z</time>
      </trkpt>
      <trkpt lat="47.3023" lon="-2.39816">
        <ele>15.800000190735</ele>
        <time>2019-10-31T10:45:34.000Z</time>
      </trkpt>
      <trkpt lat="47.30227" lon="-2.39807">
        <ele>16.200000762939</ele>
        <time>2019-10-31T10:45:35.000Z</time>
      </trkpt>
      <trkpt lat="47.30225" lon="-2.39798">
        <ele>16.200000762939</ele>
        <time>2019-10-31T10:45:36.000Z</time>
      </trkpt>
      <trkpt lat="47.30197" lon="-2.3971">
        <ele>16.200000762939</ele>
        <time>2019-10-31T10:45:46.000Z</time>
      </trkpt>
      <trkpt lat="47.30187" lon="-2.39687">
        <ele>16.200000762939</ele>
        <time>2019-10-31T10:45:49.000Z</time>
      </trkpt>
      <trkpt lat="47.30176" lon="-2.39676">
        <ele>16.200000762939</ele>
        <time>2019-10-31T10:45:51.000Z</time>
      </trkpt>
      <trkpt lat="47.30157" lon="-2.39672">
        <ele>16.200000762939</ele>
        <time>2019-10-31T10:45:54.000Z</time>
      </trkpt>
      <trkpt lat="47.30122" lon="-2.39665">
        <ele>16.200000762939</ele>
        <time>2019-10-31T10:46:00.000Z</time>
      </trkpt>
      <trkpt lat="47.30079" lon="-2.39656">
        <ele>16.200000762939</ele>
        <time>2019-10-31T10:46:07.000Z</time>
      </trkpt>
      <trkpt lat="47.30023" lon="-2.39644">
        <ele>16.200000762939</ele>
        <time>2019-10-31T10:46:16.000Z</time>
      </trkpt>
      <trkpt lat="47.29978" lon="-2.39636">
        <ele>16.200000762939</ele>
        <time>2019-10-31T10:46:23.000Z</time>
      </trkpt>
      <trkpt lat="47.29957" lon="-2.39634">
        <ele>16.200000762939</ele>
        <time>2019-10-31T10:46:27.000Z</time>
      </trkpt>
      <trkpt lat="47.29951" lon="-2.39627">
        <ele>15.199999809265</ele>
        <time>2019-10-31T10:46:30.000Z</time>
      </trkpt>
      <trkpt lat="47.2995" lon="-2.39625">
        <ele>14.800000190735</ele>
        <time>2019-10-31T10:46:31.000Z</time>
      </trkpt>
      <trkpt lat="47.29949" lon="-2.39622">
        <ele>14.39999961853</ele>
        <time>2019-10-31T10:46:32.000Z</time>
      </trkpt>
      <trkpt lat="47.29947" lon="-2.3962">
        <ele>14</ele>
        <time>2019-10-31T10:46:33.000Z</time>
      </trkpt>
      <trkpt lat="47.29943" lon="-2.39619">
        <ele>14</ele>
        <time>2019-10-31T10:46:35.000Z</time>
      </trkpt>
      <trkpt lat="47.29927" lon="-2.39617">
        <ele>14</ele>
        <time>2019-10-31T10:46:39.000Z</time>
      </trkpt>
      <trkpt lat="47.29889" lon="-2.3961">
        <ele>14</ele>
        <time>2019-10-31T10:46:46.000Z</time>
      </trkpt>
      <trkpt lat="47.2984" lon="-2.396">
        <ele>12.39999961853</ele>
        <time>2019-10-31T10:46:53.000Z</time>
      </trkpt>
      <trkpt lat="47.29834" lon="-2.39599">
        <ele>12</ele>
        <time>2019-10-31T10:46:56.000Z</time>
      </trkpt>
      <trkpt lat="47.29792" lon="-2.3959">
        <ele>12</ele>
        <time>2019-10-31T10:47:03.000Z</time>
      </trkpt>
      <trkpt lat="47.29731" lon="-2.39579">
        <ele>12</ele>
        <time>2019-10-31T10:47:13.000Z</time>
      </trkpt>
      <trkpt lat="47.29699" lon="-2.39572">
        <ele>11</ele>
        <time>2019-10-31T10:47:18.000Z</time>
      </trkpt>
      <trkpt lat="47.29693" lon="-2.3957">
        <ele>10.60000038147</ele>
        <time>2019-10-31T10:47:19.000Z</time>
      </trkpt>
      <trkpt lat="47.29686" lon="-2.39569">
        <ele>10.199999809265</ele>
        <time>2019-10-31T10:47:20.000Z</time>
      </trkpt>
      <trkpt lat="47.2968" lon="-2.39568">
        <ele>9.8000001907349</ele>
        <time>2019-10-31T10:47:21.000Z</time>
      </trkpt>
      <trkpt lat="47.29635" lon="-2.39559">
        <ele>9.8000001907349</ele>
        <time>2019-10-31T10:47:28.000Z</time>
      </trkpt>
      <trkpt lat="47.296" lon="-2.39553">
        <ele>9.8000001907349</ele>
        <time>2019-10-31T10:47:34.000Z</time>
      </trkpt>
      <trkpt lat="47.29579" lon="-2.39548">
        <ele>9.8000001907349</ele>
        <time>2019-10-31T10:47:39.000Z</time>
      </trkpt>
      <trkpt lat="47.29549" lon="-2.3954">
        <ele>9.8000001907349</ele>
        <time>2019-10-31T10:47:44.000Z</time>
      </trkpt>
      <trkpt lat="47.29534" lon="-2.39537">
        <ele>9.1999998092651</ele>
        <time>2019-10-31T10:47:46.000Z</time>
      </trkpt>
      <trkpt lat="47.29527" lon="-2.39536">
        <ele>8.8000001907349</ele>
        <time>2019-10-31T10:47:47.000Z</time>
      </trkpt>
      <trkpt lat="47.2952" lon="-2.39535">
        <ele>8.1999998092651</ele>
        <time>2019-10-31T10:47:48.000Z</time>
      </trkpt>
      <trkpt lat="47.29512" lon="-2.39534">
        <ele>7.8000001907349</ele>
        <time>2019-10-31T10:47:49.000Z</time>
      </trkpt>
      <trkpt lat="47.29504" lon="-2.39533">
        <ele>7.4000000953674</ele>
        <time>2019-10-31T10:47:50.000Z</time>
      </trkpt>
      <trkpt lat="47.29456" lon="-2.39522">
        <ele>7.4000000953674</ele>
        <time>2019-10-31T10:47:56.000Z</time>
      </trkpt>
      <trkpt lat="47.29392" lon="-2.39511">
        <ele>7.4000000953674</ele>
        <time>2019-10-31T10:48:04.000Z</time>
      </trkpt>
      <trkpt lat="47.29384" lon="-2.39509">
        <ele>7.4000000953674</ele>
        <time>2019-10-31T10:48:05.000Z</time>
      </trkpt>
      <trkpt lat="47.29343" lon="-2.39502">
        <ele>6.8000001907349</ele>
        <time>2019-10-31T10:48:11.000Z</time>
      </trkpt>
      <trkpt lat="47.29337" lon="-2.39501">
        <ele>6.4000000953674</ele>
        <time>2019-10-31T10:48:12.000Z</time>
      </trkpt>
      <trkpt lat="47.2933" lon="-2.39499">
        <ele>6</ele>
        <time>2019-10-31T10:48:13.000Z</time>
      </trkpt>
      <trkpt lat="47.29324" lon="-2.39498">
        <ele>5.5999999046326</ele>
        <time>2019-10-31T10:48:14.000Z</time>
      </trkpt>
      <trkpt lat="47.29317" lon="-2.39497">
        <ele>5</ele>
        <time>2019-10-31T10:48:15.000Z</time>
      </trkpt>
      <trkpt lat="47.29292" lon="-2.39492">
        <ele>5</ele>
        <time>2019-10-31T10:48:19.000Z</time>
      </trkpt>
      <trkpt lat="47.29251" lon="-2.39484">
        <ele>5</ele>
        <time>2019-10-31T10:48:26.000Z</time>
      </trkpt>
      <trkpt lat="47.29245" lon="-2.39482">
        <ele>5</ele>
        <time>2019-10-31T10:48:27.000Z</time>
      </trkpt>
      <trkpt lat="47.29222" lon="-2.39478">
        <ele>5</ele>
        <time>2019-10-31T10:48:31.000Z</time>
      </trkpt>
      <trkpt lat="47.29171" lon="-2.39467">
        <ele>5</ele>
        <time>2019-10-31T10:48:40.000Z</time>
      </trkpt>
      <trkpt lat="47.29147" lon="-2.39463">
        <ele>5</ele>
        <time>2019-10-31T10:48:45.000Z</time>
      </trkpt>
      <trkpt lat="47.29137" lon="-2.3946">
        <ele>5</ele>
        <time>2019-10-31T10:48:49.000Z</time>
      </trkpt>
      <trkpt lat="47.29133" lon="-2.39431">
        <ele>5</ele>
        <time>2019-10-31T10:48:55.000Z</time>
      </trkpt>
      <trkpt lat="47.29134" lon="-2.39385">
        <ele>5</ele>
        <time>2019-10-31T10:49:03.000Z</time>
      </trkpt>
      <trkpt lat="47.29125" lon="-2.39367">
        <ele>5</ele>
        <time>2019-10-31T10:49:06.000Z</time>
      </trkpt>
      <trkpt lat="47.2911" lon="-2.39372">
        <ele>5</ele>
        <time>2019-10-31T10:49:09.000Z</time>
      </trkpt>
      <trkpt lat="47.29106" lon="-2.39375">
        <ele>5</ele>
        <time>2019-10-31T10:49:10.000Z</time>
      </trkpt>
      <trkpt lat="47.29102" lon="-2.39377">
        <ele>5</ele>
        <time>2019-10-31T10:49:11.000Z</time>
      </trkpt>
      <trkpt lat="47.29095" lon="-2.39377">
        <ele>5</ele>
        <time>2019-10-31T10:49:13.000Z</time>
      </trkpt>
      <trkpt lat="47.29083" lon="-2.39367">
        <ele>5</ele>
        <time>2019-10-31T10:49:16.000Z</time>
      </trkpt>
      <trkpt lat="47.29078" lon="-2.39362">
        <ele>5</ele>
        <time>2019-10-31T10:49:17.000Z</time>
      </trkpt>
      <trkpt lat="47.29053" lon="-2.39349">
        <ele>5</ele>
        <time>2019-10-31T10:49:21.000Z</time>
      </trkpt>
      <trkpt lat="47.29005" lon="-2.39327">
        <ele>5</ele>
        <time>2019-10-31T10:49:28.000Z</time>
      </trkpt>
      <trkpt lat="47.28976" lon="-2.39319">
        <ele>5</ele>
        <time>2019-10-31T10:49:33.000Z</time>
      </trkpt>
      <trkpt lat="47.2897" lon="-2.39319">
        <ele>5</ele>
        <time>2019-10-31T10:49:34.000Z</time>
      </trkpt>
      <trkpt lat="47.28955" lon="-2.39321">
        <ele>5</ele>
        <time>2019-10-31T10:49:37.000Z</time>
      </trkpt>
      <trkpt lat="47.28951" lon="-2.39319">
        <ele>5</ele>
        <time>2019-10-31T10:49:38.000Z</time>
      </trkpt>
      <trkpt lat="47.28942" lon="-2.39299">
        <ele>5</ele>
        <time>2019-10-31T10:49:41.000Z</time>
      </trkpt>
      <trkpt lat="47.28937" lon="-2.39282">
        <ele>5</ele>
        <time>2019-10-31T10:49:43.000Z</time>
      </trkpt>
      <trkpt lat="47.28935" lon="-2.39261">
        <ele>5</ele>
        <time>2019-10-31T10:49:45.000Z</time>
      </trkpt>
      <trkpt lat="47.28932" lon="-2.3919">
        <ele>5</ele>
        <time>2019-10-31T10:49:52.000Z</time>
      </trkpt>
      <trkpt lat="47.28932" lon="-2.39171">
        <ele>5</ele>
        <time>2019-10-31T10:49:54.000Z</time>
      </trkpt>
      <trkpt lat="47.28936" lon="-2.39134">
        <ele>5</ele>
        <time>2019-10-31T10:49:58.000Z</time>
      </trkpt>
      <trkpt lat="47.28944" lon="-2.39072">
        <ele>5</ele>
        <time>2019-10-31T10:50:05.000Z</time>
      </trkpt>
      <trkpt lat="47.2895" lon="-2.39016">
        <ele>5</ele>
        <time>2019-10-31T10:50:11.000Z</time>
      </trkpt>
      <trkpt lat="47.28954" lon="-2.38939">
        <ele>5</ele>
        <time>2019-10-31T10:50:19.000Z</time>
      </trkpt>
      <trkpt lat="47.28958" lon="-2.38871">
        <ele>5</ele>
        <time>2019-10-31T10:50:26.000Z</time>
      </trkpt>
      <trkpt lat="47.28959" lon="-2.38816">
        <ele>5</ele>
        <time>2019-10-31T10:50:32.000Z</time>
      </trkpt>
      <trkpt lat="47.28959" lon="-2.38751">
        <ele>5</ele>
        <time>2019-10-31T10:50:39.000Z</time>
      </trkpt>
      <trkpt lat="47.28957" lon="-2.38655">
        <ele>5</ele>
        <time>2019-10-31T10:50:49.000Z</time>
      </trkpt>
      <trkpt lat="47.28955" lon="-2.38575">
        <ele>5</ele>
        <time>2019-10-31T10:50:57.000Z</time>
      </trkpt>
      <trkpt lat="47.28954" lon="-2.38565">
        <ele>5</ele>
        <time>2019-10-31T10:50:58.000Z</time>
      </trkpt>
      <trkpt lat="47.28948" lon="-2.38496">
        <ele>5</ele>
        <time>2019-10-31T10:51:05.000Z</time>
      </trkpt>
      <trkpt lat="47.28941" lon="-2.38441">
        <ele>5</ele>
        <time>2019-10-31T10:51:11.000Z</time>
      </trkpt>
      <trkpt lat="47.28936" lon="-2.38368">
        <ele>5</ele>
        <time>2019-10-31T10:51:19.000Z</time>
      </trkpt>
      <trkpt lat="47.28934" lon="-2.3831">
        <ele>5</ele>
        <time>2019-10-31T10:51:25.000Z</time>
      </trkpt>
      <trkpt lat="47.28938" lon="-2.3825">
        <ele>5</ele>
        <time>2019-10-31T10:51:31.000Z</time>
      </trkpt>
      <trkpt lat="47.28937" lon="-2.3824">
        <ele>5</ele>
        <time>2019-10-31T10:51:32.000Z</time>
      </trkpt>
      <trkpt lat="47.28931" lon="-2.38225">
        <ele>5</ele>
        <time>2019-10-31T10:51:34.000Z</time>
      </trkpt>
      <trkpt lat="47.28916" lon="-2.38211">
        <ele>5</ele>
        <time>2019-10-31T10:51:37.000Z</time>
      </trkpt>
      <trkpt lat="47.28911" lon="-2.38207">
        <ele>5</ele>
        <time>2019-10-31T10:51:38.000Z</time>
      </trkpt>
      <trkpt lat="47.28906" lon="-2.38202">
        <ele>5</ele>
        <time>2019-10-31T10:51:39.000Z</time>
      </trkpt>
      <trkpt lat="47.28901" lon="-2.38187">
        <ele>5</ele>
        <time>2019-10-31T10:51:41.000Z</time>
      </trkpt>
      <trkpt lat="47.28903" lon="-2.38151">
        <ele>5</ele>
        <time>2019-10-31T10:51:45.000Z</time>
      </trkpt>
      <trkpt lat="47.28907" lon="-2.38068">
        <ele>5</ele>
        <time>2019-10-31T10:51:54.000Z</time>
      </trkpt>
      <trkpt lat="47.28912" lon="-2.37983">
        <ele>5</ele>
        <time>2019-10-31T10:52:03.000Z</time>
      </trkpt>
      <trkpt lat="47.28917" lon="-2.37914">
        <ele>5</ele>
        <time>2019-10-31T10:52:10.000Z</time>
      </trkpt>
      <trkpt lat="47.28923" lon="-2.37835">
        <ele>5</ele>
        <time>2019-10-31T10:52:18.000Z</time>
      </trkpt>
      <trkpt lat="47.28928" lon="-2.37776">
        <ele>5</ele>
        <time>2019-10-31T10:52:24.000Z</time>
      </trkpt>
      <trkpt lat="47.28934" lon="-2.37712">
        <ele>5</ele>
        <time>2019-10-31T10:52:31.000Z</time>
      </trkpt>
      <trkpt lat="47.28937" lon="-2.37659">
        <ele>5</ele>
        <time>2019-10-31T10:52:37.000Z</time>
      </trkpt>
      <trkpt lat="47.28934" lon="-2.37652">
        <ele>5</ele>
        <time>2019-10-31T10:52:38.000Z</time>
      </trkpt>
      <trkpt lat="47.28923" lon="-2.37645">
        <ele>5</ele>
        <time>2019-10-31T10:52:40.000Z</time>
      </trkpt>
      <trkpt lat="47.28907" lon="-2.37647">
        <ele>5</ele>
        <time>2019-10-31T10:52:43.000Z</time>
      </trkpt>
      <trkpt lat="47.28867" lon="-2.37656">
        <ele>5</ele>
        <time>2019-10-31T10:52:51.000Z</time>
      </trkpt>
      <trkpt lat="47.28863" lon="-2.37654">
        <ele>5.4000000953674</ele>
        <time>2019-10-31T10:52:52.000Z</time>
      </trkpt>
      <trkpt lat="47.28861" lon="-2.3765">
        <ele>6</ele>
        <time>2019-10-31T10:52:53.000Z</time>
      </trkpt>
      <trkpt lat="47.2886" lon="-2.37647">
        <ele>6.4000000953674</ele>
        <time>2019-10-31T10:52:54.000Z</time>
      </trkpt>
      <trkpt lat="47.28859" lon="-2.37644">
        <ele>6.8000001907349</ele>
        <time>2019-10-31T10:52:55.000Z</time>
      </trkpt>
      <trkpt lat="47.28859" lon="-2.3764">
        <ele>7.1999998092651</ele>
        <time>2019-10-31T10:52:56.000Z</time>
      </trkpt>
      <trkpt lat="47.28856" lon="-2.37631">
        <ele>7.1999998092651</ele>
        <time>2019-10-31T10:52:59.000Z</time>
      </trkpt>
      <trkpt lat="47.28855" lon="-2.37628">
        <ele>7.1999998092651</ele>
        <time>2019-10-31T10:53:00.000Z</time>
      </trkpt>
      <trkpt lat="47.28853" lon="-2.37611">
        <ele>7.1999998092651</ele>
        <time>2019-10-31T10:53:03.000Z</time>
      </trkpt>
      <trkpt lat="47.28854" lon="-2.37604">
        <ele>7.1999998092651</ele>
        <time>2019-10-31T10:53:04.000Z</time>
      </trkpt>
      <trkpt lat="47.28864" lon="-2.37565">
        <ele>7.1999998092651</ele>
        <time>2019-10-31T10:53:11.000Z</time>
      </trkpt>
      <trkpt lat="47.28867" lon="-2.37547">
        <ele>7.1999998092651</ele>
        <time>2019-10-31T10:53:15.000Z</time>
      </trkpt>
      <trkpt lat="47.28875" lon="-2.37532">
        <ele>7.1999998092651</ele>
        <time>2019-10-31T10:53:20.000Z</time>
      </trkpt>
      <trkpt lat="47.28881" lon="-2.37525">
        <ele>7.1999998092651</ele>
        <time>2019-10-31T10:53:26.000Z</time>
      </trkpt>
      <trkpt lat="47.28882" lon="-2.37521">
        <ele>7.1999998092651</ele>
        <time>2019-10-31T10:53:27.000Z</time>
      </trkpt>
      <trkpt lat="47.28882" lon="-2.37505">
        <ele>7.1999998092651</ele>
        <time>2019-10-31T10:53:30.000Z</time>
      </trkpt>
      <trkpt lat="47.28876" lon="-2.37472">
        <ele>7.1999998092651</ele>
        <time>2019-10-31T10:53:35.000Z</time>
      </trkpt>
      <trkpt lat="47.28876" lon="-2.37465">
        <ele>7.1999998092651</ele>
        <time>2019-10-31T10:53:36.000Z</time>
      </trkpt>
      <trkpt lat="47.28871" lon="-2.37429">
        <ele>7.1999998092651</ele>
        <time>2019-10-31T10:53:41.000Z</time>
      </trkpt>
      <trkpt lat="47.28862" lon="-2.37376">
        <ele>7.1999998092651</ele>
        <time>2019-10-31T10:53:48.000Z</time>
      </trkpt>
      <trkpt lat="47.28861" lon="-2.37368">
        <ele>7.1999998092651</ele>
        <time>2019-10-31T10:53:49.000Z</time>
      </trkpt>
      <trkpt lat="47.28857" lon="-2.37336">
        <ele>7.1999998092651</ele>
        <time>2019-10-31T10:53:53.000Z</time>
      </trkpt>
      <trkpt lat="47.28852" lon="-2.37276">
        <ele>7.1999998092651</ele>
        <time>2019-10-31T10:54:01.000Z</time>
      </trkpt>
      <trkpt lat="47.28851" lon="-2.37262">
        <ele>7.1999998092651</ele>
        <time>2019-10-31T10:54:03.000Z</time>
      </trkpt>
      <trkpt lat="47.28847" lon="-2.37246">
        <ele>7.1999998092651</ele>
        <time>2019-10-31T10:54:06.000Z</time>
      </trkpt>
      <trkpt lat="47.2884" lon="-2.37222">
        <ele>7.1999998092651</ele>
        <time>2019-10-31T10:54:10.000Z</time>
      </trkpt>
      <trkpt lat="47.2884" lon="-2.37217">
        <ele>7.1999998092651</ele>
        <time>2019-10-31T10:54:11.000Z</time>
      </trkpt>
      <trkpt lat="47.28836" lon="-2.37193">
        <ele>7.1999998092651</ele>
        <time>2019-10-31T10:54:15.000Z</time>
      </trkpt>
      <trkpt lat="47.28829" lon="-2.37152">
        <ele>7.1999998092651</ele>
        <time>2019-10-31T10:54:22.000Z</time>
      </trkpt>
      <trkpt lat="47.28829" lon="-2.37146">
        <ele>7.5999999046326</ele>
        <time>2019-10-31T10:54:23.000Z</time>
      </trkpt>
      <trkpt lat="47.28828" lon="-2.37142">
        <ele>8</ele>
        <time>2019-10-31T10:54:24.000Z</time>
      </trkpt>
      <trkpt lat="47.28828" lon="-2.3714">
        <ele>8.3999996185303</ele>
        <time>2019-10-31T10:54:25.000Z</time>
      </trkpt>
      <trkpt lat="47.28827" lon="-2.37138">
        <ele>8.8000001907349</ele>
        <time>2019-10-31T10:54:26.000Z</time>
      </trkpt>
      <trkpt lat="47.28828" lon="-2.37137">
        <ele>9.1999998092651</ele>
        <time>2019-10-31T10:54:27.000Z</time>
      </trkpt>
      <trkpt lat="47.28828" lon="-2.37136">
        <ele>9.1999998092651</ele>
        <time>2019-10-31T10:54:28.000Z</time>
      </trkpt>
      <trkpt lat="47.28828" lon="-2.37135">
        <ele>9.1999998092651</ele>
        <time>2019-10-31T10:54:29.000Z</time>
      </trkpt>
      <trkpt lat="47.28829" lon="-2.37124">
        <ele>9.1999998092651</ele>
        <time>2019-10-31T10:54:44.000Z</time>
      </trkpt>
      <trkpt lat="47.2883" lon="-2.37122">
        <ele>9.1999998092651</ele>
        <time>2019-10-31T10:54:45.000Z</time>
      </trkpt>
      <trkpt lat="47.28829" lon="-2.37114">
        <ele>9.1999998092651</ele>
        <time>2019-10-31T10:54:49.000Z</time>
      </trkpt>
      <trkpt lat="47.28827" lon="-2.37117">
        <ele>9.6000003814697</ele>
        <time>2019-10-31T10:54:52.000Z</time>
      </trkpt>
      <trkpt lat="47.28826" lon="-2.37118">
        <ele>10</ele>
        <time>2019-10-31T10:54:53.000Z</time>
      </trkpt>
      <trkpt lat="47.28824" lon="-2.37118">
        <ele>10.39999961853</ele>
        <time>2019-10-31T10:54:54.000Z</time>
      </trkpt>
      <trkpt lat="47.28822" lon="-2.37119">
        <ele>10.800000190735</ele>
        <time>2019-10-31T10:54:55.000Z</time>
      </trkpt>
      <trkpt lat="47.2882" lon="-2.37119">
        <ele>11.199999809265</ele>
        <time>2019-10-31T10:54:56.000Z</time>
      </trkpt>
      <trkpt lat="47.28813" lon="-2.3712">
        <ele>11.800000190735</ele>
        <time>2019-10-31T10:54:59.000Z</time>
      </trkpt>
      <trkpt lat="47.28811" lon="-2.37119">
        <ele>12.199999809265</ele>
        <time>2019-10-31T10:55:00.000Z</time>
      </trkpt>
      <trkpt lat="47.28809" lon="-2.37119">
        <ele>12.60000038147</ele>
        <time>2019-10-31T10:55:01.000Z</time>
      </trkpt>
      <trkpt lat="47.28807" lon="-2.37119">
        <ele>13</ele>
        <time>2019-10-31T10:55:02.000Z</time>
      </trkpt>
      <trkpt lat="47.28805" lon="-2.37118">
        <ele>13.39999961853</ele>
        <time>2019-10-31T10:55:03.000Z</time>
      </trkpt>
      <trkpt lat="47.28803" lon="-2.37115">
        <ele>13.39999961853</ele>
        <time>2019-10-31T10:55:04.000Z</time>
      </trkpt>
      <trkpt lat="47.28802" lon="-2.37112">
        <ele>13.800000190735</ele>
        <time>2019-10-31T10:55:05.000Z</time>
      </trkpt>
      <trkpt lat="47.288" lon="-2.37109">
        <ele>14.199999809265</ele>
        <time>2019-10-31T10:55:06.000Z</time>
      </trkpt>
      <trkpt lat="47.28799" lon="-2.37106">
        <ele>15.199999809265</ele>
        <time>2019-10-31T10:55:07.000Z</time>
      </trkpt>
      <trkpt lat="47.28798" lon="-2.37101">
        <ele>15.60000038147</ele>
        <time>2019-10-31T10:55:08.000Z</time>
      </trkpt>
      <trkpt lat="47.28796" lon="-2.37089">
        <ele>15.60000038147</ele>
        <time>2019-10-31T10:55:11.000Z</time>
      </trkpt>
      <trkpt lat="47.28796" lon="-2.37084">
        <ele>15.60000038147</ele>
        <time>2019-10-31T10:55:12.000Z</time>
      </trkpt>
      <trkpt lat="47.28795" lon="-2.37079">
        <ele>16</ele>
        <time>2019-10-31T10:55:13.000Z</time>
      </trkpt>
      <trkpt lat="47.28795" lon="-2.37075">
        <ele>16.39999961853</ele>
        <time>2019-10-31T10:55:14.000Z</time>
      </trkpt>
      <trkpt lat="47.28794" lon="-2.37072">
        <ele>16.799999237061</ele>
        <time>2019-10-31T10:55:15.000Z</time>
      </trkpt>
      <trkpt lat="47.28793" lon="-2.37068">
        <ele>17.200000762939</ele>
        <time>2019-10-31T10:55:16.000Z</time>
      </trkpt>
      <trkpt lat="47.28791" lon="-2.37064">
        <ele>17.60000038147</ele>
        <time>2019-10-31T10:55:17.000Z</time>
      </trkpt>
      <trkpt lat="47.2879" lon="-2.37059">
        <ele>17.60000038147</ele>
        <time>2019-10-31T10:55:18.000Z</time>
      </trkpt>
      <trkpt lat="47.28787" lon="-2.3705">
        <ele>18</ele>
        <time>2019-10-31T10:55:20.000Z</time>
      </trkpt>
      <trkpt lat="47.28785" lon="-2.37046">
        <ele>18.39999961853</ele>
        <time>2019-10-31T10:55:21.000Z</time>
      </trkpt>
      <trkpt lat="47.28784" lon="-2.37042">
        <ele>18.799999237061</ele>
        <time>2019-10-31T10:55:22.000Z</time>
      </trkpt>
      <trkpt lat="47.28783" lon="-2.37039">
        <ele>19.200000762939</ele>
        <time>2019-10-31T10:55:23.000Z</time>
      </trkpt>
      <trkpt lat="47.28781" lon="-2.37035">
        <ele>19.799999237061</ele>
        <time>2019-10-31T10:55:24.000Z</time>
      </trkpt>
      <trkpt lat="47.28774" lon="-2.37015">
        <ele>19.799999237061</ele>
        <time>2019-10-31T10:55:29.000Z</time>
      </trkpt>
      <trkpt lat="47.28773" lon="-2.37013">
        <ele>19.799999237061</ele>
        <time>2019-10-31T10:55:30.000Z</time>
      </trkpt>
      <trkpt lat="47.28771" lon="-2.37012">
        <ele>20.200000762939</ele>
        <time>2019-10-31T10:55:31.000Z</time>
      </trkpt>
      <trkpt lat="47.28769" lon="-2.3701">
        <ele>21</ele>
        <time>2019-10-31T10:55:32.000Z</time>
      </trkpt>
      <trkpt lat="47.28768" lon="-2.37008">
        <ele>21.39999961853</ele>
        <time>2019-10-31T10:55:33.000Z</time>
      </trkpt>
      <trkpt lat="47.28766" lon="-2.37005">
        <ele>21.799999237061</ele>
        <time>2019-10-31T10:55:34.000Z</time>
      </trkpt>
      <trkpt lat="47.28762" lon="-2.36995">
        <ele>21.799999237061</ele>
        <time>2019-10-31T10:55:36.000Z</time>
      </trkpt>
      <trkpt lat="47.28757" lon="-2.36968">
        <ele>21.799999237061</ele>
        <time>2019-10-31T10:55:41.000Z</time>
      </trkpt>
      <trkpt lat="47.28754" lon="-2.36959">
        <ele>21.39999961853</ele>
        <time>2019-10-31T10:55:43.000Z</time>
      </trkpt>
      <trkpt lat="47.28751" lon="-2.36952">
        <ele>20.799999237061</ele>
        <time>2019-10-31T10:55:44.000Z</time>
      </trkpt>
      <trkpt lat="47.28747" lon="-2.36947">
        <ele>20.39999961853</ele>
        <time>2019-10-31T10:55:45.000Z</time>
      </trkpt>
      <trkpt lat="47.28743" lon="-2.36942">
        <ele>20</ele>
        <time>2019-10-31T10:55:46.000Z</time>
      </trkpt>
      <trkpt lat="47.28738" lon="-2.36937">
        <ele>19.60000038147</ele>
        <time>2019-10-31T10:55:47.000Z</time>
      </trkpt>
      <trkpt lat="47.28723" lon="-2.36925">
        <ele>18.799999237061</ele>
        <time>2019-10-31T10:55:48.000Z</time>
      </trkpt>
      <trkpt lat="47.28723" lon="-2.36925">
        <ele>18.799999237061</ele>
        <time>2019-10-31T10:55:50.000Z</time>
      </trkpt>
      <trkpt lat="47.28719" lon="-2.36921">
        <ele>18.39999961853</ele>
        <time>2019-10-31T10:55:51.000Z</time>
      </trkpt>
      <trkpt lat="47.28709" lon="-2.36902">
        <ele>17.60000038147</ele>
        <time>2019-10-31T10:55:52.000Z</time>
      </trkpt>
      <trkpt lat="47.28708" lon="-2.36898">
        <ele>18.39999961853</ele>
        <time>2019-10-31T10:55:56.000Z</time>
      </trkpt>
      <trkpt lat="47.28706" lon="-2.36893">
        <ele>18.799999237061</ele>
        <time>2019-10-31T10:55:57.000Z</time>
      </trkpt>
      <trkpt lat="47.28704" lon="-2.36888">
        <ele>19.39999961853</ele>
        <time>2019-10-31T10:55:58.000Z</time>
      </trkpt>
      <trkpt lat="47.28703" lon="-2.36882">
        <ele>19.799999237061</ele>
        <time>2019-10-31T10:55:59.000Z</time>
      </trkpt>
      <trkpt lat="47.28696" lon="-2.36863">
        <ele>19.799999237061</ele>
        <time>2019-10-31T10:56:02.000Z</time>
      </trkpt>
      <trkpt lat="47.28679" lon="-2.36828">
        <ele>19.799999237061</ele>
        <time>2019-10-31T10:56:09.000Z</time>
      </trkpt>
      <trkpt lat="47.28676" lon="-2.36823">
        <ele>20.200000762939</ele>
        <time>2019-10-31T10:56:10.000Z</time>
      </trkpt>
      <trkpt lat="47.28673" lon="-2.36818">
        <ele>20.60000038147</ele>
        <time>2019-10-31T10:56:11.000Z</time>
      </trkpt>
      <trkpt lat="47.28671" lon="-2.36814">
        <ele>21</ele>
        <time>2019-10-31T10:56:12.000Z</time>
      </trkpt>
      <trkpt lat="47.28669" lon="-2.36811">
        <ele>21.60000038147</ele>
        <time>2019-10-31T10:56:13.000Z</time>
      </trkpt>
      <trkpt lat="47.28665" lon="-2.36806">
        <ele>22</ele>
        <time>2019-10-31T10:56:14.000Z</time>
      </trkpt>
      <trkpt lat="47.28659" lon="-2.36803">
        <ele>22</ele>
        <time>2019-10-31T10:56:15.000Z</time>
      </trkpt>
      <trkpt lat="47.28647" lon="-2.36809">
        <ele>22</ele>
        <time>2019-10-31T10:56:18.000Z</time>
      </trkpt>
      <trkpt lat="47.28643" lon="-2.36813">
        <ele>22</ele>
        <time>2019-10-31T10:56:19.000Z</time>
      </trkpt>
      <trkpt lat="47.28622" lon="-2.36839">
        <ele>22</ele>
        <time>2019-10-31T10:56:24.000Z</time>
      </trkpt>
      <trkpt lat="47.28617" lon="-2.36844">
        <ele>22</ele>
        <time>2019-10-31T10:56:25.000Z</time>
      </trkpt>
      <trkpt lat="47.28604" lon="-2.36847">
        <ele>22</ele>
        <time>2019-10-31T10:56:27.000Z</time>
      </trkpt>
      <trkpt lat="47.28588" lon="-2.36836">
        <ele>22</ele>
        <time>2019-10-31T10:56:30.000Z</time>
      </trkpt>
      <trkpt lat="47.2857" lon="-2.36803">
        <ele>22</ele>
        <time>2019-10-31T10:56:32.000Z</time>
      </trkpt>
      <trkpt lat="47.28567" lon="-2.36797">
        <ele>22</ele>
        <time>2019-10-31T10:56:36.000Z</time>
      </trkpt>
      <trkpt lat="47.28548" lon="-2.3676">
        <ele>22</ele>
        <time>2019-10-31T10:56:42.000Z</time>
      </trkpt>
      <trkpt lat="47.28546" lon="-2.36754">
        <ele>22</ele>
        <time>2019-10-31T10:56:43.000Z</time>
      </trkpt>
      <trkpt lat="47.28526" lon="-2.36717">
        <ele>22</ele>
        <time>2019-10-31T10:56:50.000Z</time>
      </trkpt>
      <trkpt lat="47.28516" lon="-2.367">
        <ele>22.39999961853</ele>
        <time>2019-10-31T10:56:54.000Z</time>
      </trkpt>
      <trkpt lat="47.28514" lon="-2.36695">
        <ele>22.799999237061</ele>
        <time>2019-10-31T10:56:55.000Z</time>
      </trkpt>
      <trkpt lat="47.28512" lon="-2.36691">
        <ele>23.39999961853</ele>
        <time>2019-10-31T10:56:56.000Z</time>
      </trkpt>
      <trkpt lat="47.2851" lon="-2.36688">
        <ele>23.799999237061</ele>
        <time>2019-10-31T10:56:57.000Z</time>
      </trkpt>
      <trkpt lat="47.28508" lon="-2.36685">
        <ele>24.200000762939</ele>
        <time>2019-10-31T10:56:58.000Z</time>
      </trkpt>
      <trkpt lat="47.285" lon="-2.36678">
        <ele>24.200000762939</ele>
        <time>2019-10-31T10:57:01.000Z</time>
      </trkpt>
      <trkpt lat="47.28493" lon="-2.36659">
        <ele>24.200000762939</ele>
        <time>2019-10-31T10:57:05.000Z</time>
      </trkpt>
      <trkpt lat="47.28486" lon="-2.3663">
        <ele>24.60000038147</ele>
        <time>2019-10-31T10:57:10.000Z</time>
      </trkpt>
      <trkpt lat="47.28483" lon="-2.36624">
        <ele>25</ele>
        <time>2019-10-31T10:57:11.000Z</time>
      </trkpt>
      <trkpt lat="47.28481" lon="-2.36618">
        <ele>25.39999961853</ele>
        <time>2019-10-31T10:57:12.000Z</time>
      </trkpt>
      <trkpt lat="47.28476" lon="-2.36599">
        <ele>26.39999961853</ele>
        <time>2019-10-31T10:57:13.000Z</time>
      </trkpt>
      <trkpt lat="47.28472" lon="-2.36586">
        <ele>26.39999961853</ele>
        <time>2019-10-31T10:57:17.000Z</time>
      </trkpt>
      <trkpt lat="47.28471" lon="-2.36578">
        <ele>26.39999961853</ele>
        <time>2019-10-31T10:57:18.000Z</time>
      </trkpt>
      <trkpt lat="47.28476" lon="-2.36558">
        <ele>26.39999961853</ele>
        <time>2019-10-31T10:57:21.000Z</time>
      </trkpt>
      <trkpt lat="47.28483" lon="-2.36546">
        <ele>26.39999961853</ele>
        <time>2019-10-31T10:57:23.000Z</time>
      </trkpt>
      <trkpt lat="47.28495" lon="-2.36532">
        <ele>26.39999961853</ele>
        <time>2019-10-31T10:57:26.000Z</time>
      </trkpt>
      <trkpt lat="47.28511" lon="-2.36514">
        <ele>26.799999237061</ele>
        <time>2019-10-31T10:57:30.000Z</time>
      </trkpt>
      <trkpt lat="47.28514" lon="-2.3651">
        <ele>27.200000762939</ele>
        <time>2019-10-31T10:57:31.000Z</time>
      </trkpt>
      <trkpt lat="47.28517" lon="-2.36506">
        <ele>27.60000038147</ele>
        <time>2019-10-31T10:57:32.000Z</time>
      </trkpt>
      <trkpt lat="47.2852" lon="-2.36501">
        <ele>28</ele>
        <time>2019-10-31T10:57:33.000Z</time>
      </trkpt>
      <trkpt lat="47.28522" lon="-2.36497">
        <ele>28.39999961853</ele>
        <time>2019-10-31T10:57:34.000Z</time>
      </trkpt>
      <trkpt lat="47.28521" lon="-2.36491">
        <ele>28.39999961853</ele>
        <time>2019-10-31T10:57:35.000Z</time>
      </trkpt>
      <trkpt lat="47.2852" lon="-2.36471">
        <ele>28.39999961853</ele>
        <time>2019-10-31T10:57:39.000Z</time>
      </trkpt>
      <trkpt lat="47.28518" lon="-2.36466">
        <ele>28.799999237061</ele>
        <time>2019-10-31T10:57:40.000Z</time>
      </trkpt>
      <trkpt lat="47.28516" lon="-2.36461">
        <ele>29.39999961853</ele>
        <time>2019-10-31T10:57:41.000Z</time>
      </trkpt>
      <trkpt lat="47.28506" lon="-2.36445">
        <ele>30.60000038147</ele>
        <time>2019-10-31T10:57:42.000Z</time>
      </trkpt>
      <trkpt lat="47.28506" lon="-2.36445">
        <ele>30.60000038147</ele>
        <time>2019-10-31T10:57:44.000Z</time>
      </trkpt>
      <trkpt lat="47.28494" lon="-2.36434">
        <ele>30.60000038147</ele>
        <time>2019-10-31T10:57:45.000Z</time>
      </trkpt>
      <trkpt lat="47.28485" lon="-2.36428">
        <ele>30.60000038147</ele>
        <time>2019-10-31T10:57:49.000Z</time>
      </trkpt>
      <trkpt lat="47.28476" lon="-2.36415">
        <ele>30.60000038147</ele>
        <time>2019-10-31T10:57:53.000Z</time>
      </trkpt>
      <trkpt lat="47.28465" lon="-2.36401">
        <ele>30.60000038147</ele>
        <time>2019-10-31T10:57:57.000Z</time>
      </trkpt>
      <trkpt lat="47.2846" lon="-2.36396">
        <ele>30.60000038147</ele>
        <time>2019-10-31T10:57:58.000Z</time>
      </trkpt>
      <trkpt lat="47.28429" lon="-2.36374">
        <ele>30.60000038147</ele>
        <time>2019-10-31T10:58:04.000Z</time>
      </trkpt>
      <trkpt lat="47.2842" lon="-2.36364">
        <ele>30.60000038147</ele>
        <time>2019-10-31T10:58:06.000Z</time>
      </trkpt>
      <trkpt lat="47.28412" lon="-2.3635">
        <ele>30.60000038147</ele>
        <time>2019-10-31T10:58:08.000Z</time>
      </trkpt>
      <trkpt lat="47.28409" lon="-2.36344">
        <ele>30.60000038147</ele>
        <time>2019-10-31T10:58:09.000Z</time>
      </trkpt>
      <trkpt lat="47.28394" lon="-2.36332">
        <ele>30.60000038147</ele>
        <time>2019-10-31T10:58:12.000Z</time>
      </trkpt>
      <trkpt lat="47.28384" lon="-2.36325">
        <ele>30.60000038147</ele>
        <time>2019-10-31T10:58:14.000Z</time>
      </trkpt>
      <trkpt lat="47.28378" lon="-2.36323">
        <ele>30.200000762939</ele>
        <time>2019-10-31T10:58:15.000Z</time>
      </trkpt>
      <trkpt lat="47.28373" lon="-2.36321">
        <ele>29.60000038147</ele>
        <time>2019-10-31T10:58:16.000Z</time>
      </trkpt>
      <trkpt lat="47.2837" lon="-2.36318">
        <ele>29.200000762939</ele>
        <time>2019-10-31T10:58:17.000Z</time>
      </trkpt>
      <trkpt lat="47.28368" lon="-2.36315">
        <ele>28.799999237061</ele>
        <time>2019-10-31T10:58:18.000Z</time>
      </trkpt>
      <trkpt lat="47.28367" lon="-2.3631">
        <ele>28.39999961853</ele>
        <time>2019-10-31T10:58:19.000Z</time>
      </trkpt>
      <trkpt lat="47.28365" lon="-2.36306">
        <ele>28.39999961853</ele>
        <time>2019-10-31T10:58:20.000Z</time>
      </trkpt>
      <trkpt lat="47.28363" lon="-2.36297">
        <ele>28</ele>
        <time>2019-10-31T10:58:22.000Z</time>
      </trkpt>
      <trkpt lat="47.28363" lon="-2.36293">
        <ele>27</ele>
        <time>2019-10-31T10:58:23.000Z</time>
      </trkpt>
      <trkpt lat="47.28364" lon="-2.36288">
        <ele>26.60000038147</ele>
        <time>2019-10-31T10:58:24.000Z</time>
      </trkpt>
      <trkpt lat="47.28363" lon="-2.36282">
        <ele>26.200000762939</ele>
        <time>2019-10-31T10:58:25.000Z</time>
      </trkpt>
      <trkpt lat="47.28358" lon="-2.36274">
        <ele>26.200000762939</ele>
        <time>2019-10-31T10:58:27.000Z</time>
      </trkpt>
      <trkpt lat="47.28348" lon="-2.3627">
        <ele>26.200000762939</ele>
        <time>2019-10-31T10:58:29.000Z</time>
      </trkpt>
      <trkpt lat="47.28342" lon="-2.36267">
        <ele>26.200000762939</ele>
        <time>2019-10-31T10:58:30.000Z</time>
      </trkpt>
      <trkpt lat="47.28308" lon="-2.36252">
        <ele>26.200000762939</ele>
        <time>2019-10-31T10:58:35.000Z</time>
      </trkpt>
      <trkpt lat="47.2829" lon="-2.3625">
        <ele>25.799999237061</ele>
        <time>2019-10-31T10:58:38.000Z</time>
      </trkpt>
      <trkpt lat="47.28286" lon="-2.36246">
        <ele>25.39999961853</ele>
        <time>2019-10-31T10:58:39.000Z</time>
      </trkpt>
      <trkpt lat="47.28284" lon="-2.3624">
        <ele>25</ele>
        <time>2019-10-31T10:58:40.000Z</time>
      </trkpt>
      <trkpt lat="47.28281" lon="-2.36235">
        <ele>24.60000038147</ele>
        <time>2019-10-31T10:58:41.000Z</time>
      </trkpt>
      <trkpt lat="47.28279" lon="-2.36231">
        <ele>24.200000762939</ele>
        <time>2019-10-31T10:58:42.000Z</time>
      </trkpt>
      <trkpt lat="47.28278" lon="-2.36226">
        <ele>24.200000762939</ele>
        <time>2019-10-31T10:58:43.000Z</time>
      </trkpt>
      <trkpt lat="47.28273" lon="-2.36214">
        <ele>24.200000762939</ele>
        <time>2019-10-31T10:58:46.000Z</time>
      </trkpt>
      <trkpt lat="47.28265" lon="-2.36173">
        <ele>24.200000762939</ele>
        <time>2019-10-31T10:58:54.000Z</time>
      </trkpt>
      <trkpt lat="47.28263" lon="-2.36165">
        <ele>24.200000762939</ele>
        <time>2019-10-31T10:58:55.000Z</time>
      </trkpt>
      <trkpt lat="47.28249" lon="-2.36134">
        <ele>24.200000762939</ele>
        <time>2019-10-31T10:59:00.000Z</time>
      </trkpt>
      <trkpt lat="47.28241" lon="-2.36106">
        <ele>24.200000762939</ele>
        <time>2019-10-31T10:59:03.000Z</time>
      </trkpt>
      <trkpt lat="47.28241" lon="-2.36106">
        <ele>24.200000762939</ele>
        <time>2019-10-31T10:59:05.000Z</time>
      </trkpt>
      <trkpt lat="47.28242" lon="-2.36095">
        <ele>24.60000038147</ele>
        <time>2019-10-31T10:59:07.000Z</time>
      </trkpt>
      <trkpt lat="47.28243" lon="-2.3609">
        <ele>25</ele>
        <time>2019-10-31T10:59:08.000Z</time>
      </trkpt>
      <trkpt lat="47.28244" lon="-2.36084">
        <ele>25.39999961853</ele>
        <time>2019-10-31T10:59:09.000Z</time>
      </trkpt>
      <trkpt lat="47.28244" lon="-2.36077">
        <ele>26.39999961853</ele>
        <time>2019-10-31T10:59:10.000Z</time>
      </trkpt>
      <trkpt lat="47.28248" lon="-2.36044">
        <ele>26.39999961853</ele>
        <time>2019-10-31T10:59:14.000Z</time>
      </trkpt>
      <trkpt lat="47.2825" lon="-2.36038">
        <ele>26.39999961853</ele>
        <time>2019-10-31T10:59:15.000Z</time>
      </trkpt>
      <trkpt lat="47.28251" lon="-2.36029">
        <ele>26.39999961853</ele>
        <time>2019-10-31T10:59:17.000Z</time>
      </trkpt>
      <trkpt lat="47.28248" lon="-2.36026">
        <ele>25.799999237061</ele>
        <time>2019-10-31T10:59:18.000Z</time>
      </trkpt>
      <trkpt lat="47.28245" lon="-2.36026">
        <ele>25.39999961853</ele>
        <time>2019-10-31T10:59:19.000Z</time>
      </trkpt>
      <trkpt lat="47.28242" lon="-2.36027">
        <ele>25</ele>
        <time>2019-10-31T10:59:20.000Z</time>
      </trkpt>
      <trkpt lat="47.28239" lon="-2.36029">
        <ele>24.60000038147</ele>
        <time>2019-10-31T10:59:21.000Z</time>
      </trkpt>
      <trkpt lat="47.28235" lon="-2.36029">
        <ele>24.200000762939</ele>
        <time>2019-10-31T10:59:22.000Z</time>
      </trkpt>
      <trkpt lat="47.28228" lon="-2.36034">
        <ele>24.200000762939</ele>
        <time>2019-10-31T10:59:24.000Z</time>
      </trkpt>
      <trkpt lat="47.28223" lon="-2.36037">
        <ele>24.200000762939</ele>
        <time>2019-10-31T10:59:26.000Z</time>
      </trkpt>
      <trkpt lat="47.28221" lon="-2.36036">
        <ele>23.799999237061</ele>
        <time>2019-10-31T10:59:27.000Z</time>
      </trkpt>
      <trkpt lat="47.28218" lon="-2.36035">
        <ele>23.39999961853</ele>
        <time>2019-10-31T10:59:28.000Z</time>
      </trkpt>
      <trkpt lat="47.28215" lon="-2.36033">
        <ele>23</ele>
        <time>2019-10-31T10:59:29.000Z</time>
      </trkpt>
      <trkpt lat="47.28213" lon="-2.36032">
        <ele>22.60000038147</ele>
        <time>2019-10-31T10:59:30.000Z</time>
      </trkpt>
      <trkpt lat="47.28211" lon="-2.3603">
        <ele>22</ele>
        <time>2019-10-31T10:59:31.000Z</time>
      </trkpt>
      <trkpt lat="47.28207" lon="-2.36022">
        <ele>22</ele>
        <time>2019-10-31T10:59:33.000Z</time>
      </trkpt>
      <trkpt lat="47.28201" lon="-2.36008">
        <ele>22</ele>
        <time>2019-10-31T10:59:36.000Z</time>
      </trkpt>
      <trkpt lat="47.28195" lon="-2.35999">
        <ele>22</ele>
        <time>2019-10-31T10:59:38.000Z</time>
      </trkpt>
      <trkpt lat="47.28187" lon="-2.35986">
        <ele>22</ele>
        <time>2019-10-31T10:59:40.000Z</time>
      </trkpt>
      <trkpt lat="47.28183" lon="-2.3597">
        <ele>22</ele>
        <time>2019-10-31T10:59:42.000Z</time>
      </trkpt>
      <trkpt lat="47.28177" lon="-2.3595">
        <ele>22</ele>
        <time>2019-10-31T10:59:46.000Z</time>
      </trkpt>
      <trkpt lat="47.28178" lon="-2.35945">
        <ele>22</ele>
        <time>2019-10-31T10:59:47.000Z</time>
      </trkpt>
      <trkpt lat="47.28178" lon="-2.35933">
        <ele>22.39999961853</ele>
        <time>2019-10-31T10:59:49.000Z</time>
      </trkpt>
      <trkpt lat="47.28178" lon="-2.35927">
        <ele>22.799999237061</ele>
        <time>2019-10-31T10:59:50.000Z</time>
      </trkpt>
      <trkpt lat="47.28178" lon="-2.3592">
        <ele>23.200000762939</ele>
        <time>2019-10-31T10:59:51.000Z</time>
      </trkpt>
      <trkpt lat="47.28179" lon="-2.35915">
        <ele>23.60000038147</ele>
        <time>2019-10-31T10:59:52.000Z</time>
      </trkpt>
      <trkpt lat="47.28179" lon="-2.35909">
        <ele>24.200000762939</ele>
        <time>2019-10-31T10:59:53.000Z</time>
      </trkpt>
      <trkpt lat="47.28178" lon="-2.35905">
        <ele>24.200000762939</ele>
        <time>2019-10-31T10:59:54.000Z</time>
      </trkpt>
      <trkpt lat="47.28172" lon="-2.35902">
        <ele>24.200000762939</ele>
        <time>2019-10-31T10:59:56.000Z</time>
      </trkpt>
      <trkpt lat="47.2815" lon="-2.35892">
        <ele>24.200000762939</ele>
        <time>2019-10-31T11:00:02.000Z</time>
      </trkpt>
      <trkpt lat="47.28133" lon="-2.35874">
        <ele>24.200000762939</ele>
        <time>2019-10-31T11:00:06.000Z</time>
      </trkpt>
      <trkpt lat="47.28132" lon="-2.35872">
        <ele>24.200000762939</ele>
        <time>2019-10-31T11:00:08.000Z</time>
      </trkpt>
      <trkpt lat="47.28128" lon="-2.35861">
        <ele>24.60000038147</ele>
        <time>2019-10-31T11:00:12.000Z</time>
      </trkpt>
      <trkpt lat="47.28126" lon="-2.35859">
        <ele>25</ele>
        <time>2019-10-31T11:00:13.000Z</time>
      </trkpt>
      <trkpt lat="47.28124" lon="-2.35858">
        <ele>25.39999961853</ele>
        <time>2019-10-31T11:00:14.000Z</time>
      </trkpt>
      <trkpt lat="47.2812" lon="-2.35856">
        <ele>25.799999237061</ele>
        <time>2019-10-31T11:00:15.000Z</time>
      </trkpt>
      <trkpt lat="47.28117" lon="-2.35856">
        <ele>26.200000762939</ele>
        <time>2019-10-31T11:00:16.000Z</time>
      </trkpt>
      <trkpt lat="47.28105" lon="-2.35851">
        <ele>26.200000762939</ele>
        <time>2019-10-31T11:00:19.000Z</time>
      </trkpt>
      <trkpt lat="47.28091" lon="-2.35835">
        <ele>26.200000762939</ele>
        <time>2019-10-31T11:00:23.000Z</time>
      </trkpt>
      <trkpt lat="47.28081" lon="-2.35802">
        <ele>26.200000762939</ele>
        <time>2019-10-31T11:00:28.000Z</time>
      </trkpt>
      <trkpt lat="47.28086" lon="-2.35777">
        <ele>26.200000762939</ele>
        <time>2019-10-31T11:00:33.000Z</time>
      </trkpt>
      <trkpt lat="47.28087" lon="-2.35751">
        <ele>26.200000762939</ele>
        <time>2019-10-31T11:00:37.000Z</time>
      </trkpt>
      <trkpt lat="47.28088" lon="-2.35744">
        <ele>26.60000038147</ele>
        <time>2019-10-31T11:00:38.000Z</time>
      </trkpt>
      <trkpt lat="47.28088" lon="-2.35739">
        <ele>27</ele>
        <time>2019-10-31T11:00:39.000Z</time>
      </trkpt>
      <trkpt lat="47.28089" lon="-2.35735">
        <ele>27.60000038147</ele>
        <time>2019-10-31T11:00:40.000Z</time>
      </trkpt>
      <trkpt lat="47.28091" lon="-2.3573">
        <ele>28</ele>
        <time>2019-10-31T11:00:41.000Z</time>
      </trkpt>
      <trkpt lat="47.28092" lon="-2.35727">
        <ele>28.39999961853</ele>
        <time>2019-10-31T11:00:42.000Z</time>
      </trkpt>
      <trkpt lat="47.2809" lon="-2.35706">
        <ele>28.39999961853</ele>
        <time>2019-10-31T11:00:47.000Z</time>
      </trkpt>
      <trkpt lat="47.28086" lon="-2.35687">
        <ele>28.39999961853</ele>
        <time>2019-10-31T11:00:50.000Z</time>
      </trkpt>
      <trkpt lat="47.28085" lon="-2.35679">
        <ele>28.39999961853</ele>
        <time>2019-10-31T11:00:51.000Z</time>
      </trkpt>
      <trkpt lat="47.28082" lon="-2.35661">
        <ele>28.39999961853</ele>
        <time>2019-10-31T11:00:53.000Z</time>
      </trkpt>
      <trkpt lat="47.28078" lon="-2.35638">
        <ele>27.799999237061</ele>
        <time>2019-10-31T11:00:56.000Z</time>
      </trkpt>
      <trkpt lat="47.28077" lon="-2.35631">
        <ele>27.39999961853</ele>
        <time>2019-10-31T11:00:57.000Z</time>
      </trkpt>
      <trkpt lat="47.28077" lon="-2.35613">
        <ele>26</ele>
        <time>2019-10-31T11:00:58.000Z</time>
      </trkpt>
      <trkpt lat="47.28075" lon="-2.35607">
        <ele>25.60000038147</ele>
        <time>2019-10-31T11:01:01.000Z</time>
      </trkpt>
      <trkpt lat="47.28072" lon="-2.35601">
        <ele>25.200000762939</ele>
        <time>2019-10-31T11:01:02.000Z</time>
      </trkpt>
      <trkpt lat="47.28069" lon="-2.35595">
        <ele>24.799999237061</ele>
        <time>2019-10-31T11:01:03.000Z</time>
      </trkpt>
      <trkpt lat="47.28064" lon="-2.3559">
        <ele>24.200000762939</ele>
        <time>2019-10-31T11:01:04.000Z</time>
      </trkpt>
      <trkpt lat="47.28059" lon="-2.35586">
        <ele>23.799999237061</ele>
        <time>2019-10-31T11:01:05.000Z</time>
      </trkpt>
      <trkpt lat="47.28054" lon="-2.35583">
        <ele>23.799999237061</ele>
        <time>2019-10-31T11:01:06.000Z</time>
      </trkpt>
      <trkpt lat="47.28043" lon="-2.35579">
        <ele>23.799999237061</ele>
        <time>2019-10-31T11:01:08.000Z</time>
      </trkpt>
      <trkpt lat="47.28032" lon="-2.35573">
        <ele>23.799999237061</ele>
        <time>2019-10-31T11:01:10.000Z</time>
      </trkpt>
      <trkpt lat="47.28028" lon="-2.35568">
        <ele>23.799999237061</ele>
        <time>2019-10-31T11:01:11.000Z</time>
      </trkpt>
      <trkpt lat="47.28012" lon="-2.35563">
        <ele>23.39999961853</ele>
        <time>2019-10-31T11:01:14.000Z</time>
      </trkpt>
      <trkpt lat="47.28008" lon="-2.35561">
        <ele>23</ele>
        <time>2019-10-31T11:01:15.000Z</time>
      </trkpt>
      <trkpt lat="47.28005" lon="-2.35558">
        <ele>22.60000038147</ele>
        <time>2019-10-31T11:01:16.000Z</time>
      </trkpt>
      <trkpt lat="47.28005" lon="-2.35555">
        <ele>22.200000762939</ele>
        <time>2019-10-31T11:01:17.000Z</time>
      </trkpt>
      <trkpt lat="47.28004" lon="-2.35552">
        <ele>21.799999237061</ele>
        <time>2019-10-31T11:01:18.000Z</time>
      </trkpt>
      <trkpt lat="47.28003" lon="-2.35549">
        <ele>21.799999237061</ele>
        <time>2019-10-31T11:01:19.000Z</time>
      </trkpt>
      <trkpt lat="47.28001" lon="-2.35547">
        <ele>21.799999237061</ele>
        <time>2019-10-31T11:01:21.000Z</time>
      </trkpt>
      <trkpt lat="47.28001" lon="-2.35547">
        <ele>21.799999237061</ele>
        <time>2019-10-31T11:01:22.000Z</time>
      </trkpt>
      <trkpt lat="47.28001" lon="-2.35545">
        <ele>19.799999237061</ele>
        <time>2019-10-31T11:02:11.000Z</time>
      </trkpt>
      <trkpt lat="47.27997" lon="-2.35534">
        <ele>19.799999237061</ele>
        <time>2019-10-31T11:02:14.000Z</time>
      </trkpt>
      <trkpt lat="47.2799" lon="-2.35513">
        <ele>19.799999237061</ele>
        <time>2019-10-31T11:02:18.000Z</time>
      </trkpt>
      <trkpt lat="47.27986" lon="-2.35507">
        <ele>19.799999237061</ele>
        <time>2019-10-31T11:02:19.000Z</time>
      </trkpt>
      <trkpt lat="47.27977" lon="-2.3549">
        <ele>19.799999237061</ele>
        <time>2019-10-31T11:02:22.000Z</time>
      </trkpt>
      <trkpt lat="47.27966" lon="-2.35472">
        <ele>19.799999237061</ele>
        <time>2019-10-31T11:02:24.000Z</time>
      </trkpt>
      <trkpt lat="47.27962" lon="-2.35469">
        <ele>19.799999237061</ele>
        <time>2019-10-31T11:02:27.000Z</time>
      </trkpt>
      <trkpt lat="47.27952" lon="-2.35457">
        <ele>19.799999237061</ele>
        <time>2019-10-31T11:02:31.000Z</time>
      </trkpt>
      <trkpt lat="47.27951" lon="-2.35442">
        <ele>19.799999237061</ele>
        <time>2019-10-31T11:02:34.000Z</time>
      </trkpt>
      <trkpt lat="47.27942" lon="-2.35428">
        <ele>19.799999237061</ele>
        <time>2019-10-31T11:02:37.000Z</time>
      </trkpt>
      <trkpt lat="47.27937" lon="-2.35418">
        <ele>19.799999237061</ele>
        <time>2019-10-31T11:02:39.000Z</time>
      </trkpt>
      <trkpt lat="47.2793" lon="-2.35386">
        <ele>19.799999237061</ele>
        <time>2019-10-31T11:02:44.000Z</time>
      </trkpt>
      <trkpt lat="47.27927" lon="-2.35353">
        <ele>19.799999237061</ele>
        <time>2019-10-31T11:02:50.000Z</time>
      </trkpt>
      <trkpt lat="47.27926" lon="-2.35324">
        <ele>19.799999237061</ele>
        <time>2019-10-31T11:02:56.000Z</time>
      </trkpt>
      <trkpt lat="47.27924" lon="-2.35318">
        <ele>19.799999237061</ele>
        <time>2019-10-31T11:02:57.000Z</time>
      </trkpt>
      <trkpt lat="47.27922" lon="-2.35296">
        <ele>19.799999237061</ele>
        <time>2019-10-31T11:03:00.000Z</time>
      </trkpt>
      <trkpt lat="47.27916" lon="-2.35247">
        <ele>19.799999237061</ele>
        <time>2019-10-31T11:03:06.000Z</time>
      </trkpt>
      <trkpt lat="47.27908" lon="-2.35184">
        <ele>19.799999237061</ele>
        <time>2019-10-31T11:03:12.000Z</time>
      </trkpt>
      <trkpt lat="47.27907" lon="-2.35162">
        <ele>19.799999237061</ele>
        <time>2019-10-31T11:03:14.000Z</time>
      </trkpt>
      <trkpt lat="47.27907" lon="-2.35142">
        <ele>19.799999237061</ele>
        <time>2019-10-31T11:03:20.000Z</time>
      </trkpt>
      <trkpt lat="47.27907" lon="-2.35134">
        <ele>19.799999237061</ele>
        <time>2019-10-31T11:03:21.000Z</time>
      </trkpt>
      <trkpt lat="47.27906" lon="-2.35087">
        <ele>19.799999237061</ele>
        <time>2019-10-31T11:03:27.000Z</time>
      </trkpt>
      <trkpt lat="47.27906" lon="-2.3508">
        <ele>20.200000762939</ele>
        <time>2019-10-31T11:03:28.000Z</time>
      </trkpt>
      <trkpt lat="47.27906" lon="-2.35074">
        <ele>20.60000038147</ele>
        <time>2019-10-31T11:03:29.000Z</time>
      </trkpt>
      <trkpt lat="47.27905" lon="-2.35067">
        <ele>21</ele>
        <time>2019-10-31T11:03:30.000Z</time>
      </trkpt>
      <trkpt lat="47.27904" lon="-2.35061">
        <ele>21.39999961853</ele>
        <time>2019-10-31T11:03:31.000Z</time>
      </trkpt>
      <trkpt lat="47.27904" lon="-2.35055">
        <ele>21.799999237061</ele>
        <time>2019-10-31T11:03:32.000Z</time>
      </trkpt>
      <trkpt lat="47.27897" lon="-2.35022">
        <ele>21.799999237061</ele>
        <time>2019-10-31T11:03:37.000Z</time>
      </trkpt>
      <trkpt lat="47.27893" lon="-2.35009">
        <ele>21.799999237061</ele>
        <time>2019-10-31T11:03:39.000Z</time>
      </trkpt>
      <trkpt lat="47.27889" lon="-2.34997">
        <ele>21.799999237061</ele>
        <time>2019-10-31T11:03:41.000Z</time>
      </trkpt>
      <trkpt lat="47.27885" lon="-2.34986">
        <ele>21.799999237061</ele>
        <time>2019-10-31T11:03:43.000Z</time>
      </trkpt>
      <trkpt lat="47.27882" lon="-2.34977">
        <ele>21.799999237061</ele>
        <time>2019-10-31T11:03:45.000Z</time>
      </trkpt>
      <trkpt lat="47.2787" lon="-2.34954">
        <ele>22.200000762939</ele>
        <time>2019-10-31T11:03:50.000Z</time>
      </trkpt>
      <trkpt lat="47.27866" lon="-2.3495">
        <ele>22.60000038147</ele>
        <time>2019-10-31T11:03:51.000Z</time>
      </trkpt>
      <trkpt lat="47.27863" lon="-2.34947">
        <ele>23</ele>
        <time>2019-10-31T11:03:52.000Z</time>
      </trkpt>
      <trkpt lat="47.2786" lon="-2.34942">
        <ele>23.39999961853</ele>
        <time>2019-10-31T11:03:53.000Z</time>
      </trkpt>
      <trkpt lat="47.27857" lon="-2.34938">
        <ele>23.799999237061</ele>
        <time>2019-10-31T11:03:54.000Z</time>
      </trkpt>
      <trkpt lat="47.27853" lon="-2.34935">
        <ele>23.799999237061</ele>
        <time>2019-10-31T11:03:55.000Z</time>
      </trkpt>
      <trkpt lat="47.27822" lon="-2.349">
        <ele>23.799999237061</ele>
        <time>2019-10-31T11:04:04.000Z</time>
      </trkpt>
      <trkpt lat="47.27798" lon="-2.34883">
        <ele>23.799999237061</ele>
        <time>2019-10-31T11:04:10.000Z</time>
      </trkpt>
      <trkpt lat="47.27775" lon="-2.34868">
        <ele>23.799999237061</ele>
        <time>2019-10-31T11:04:15.000Z</time>
      </trkpt>
      <trkpt lat="47.27766" lon="-2.34857">
        <ele>23.799999237061</ele>
        <time>2019-10-31T11:04:20.000Z</time>
      </trkpt>
      <trkpt lat="47.27763" lon="-2.34853">
        <ele>23.799999237061</ele>
        <time>2019-10-31T11:04:21.000Z</time>
      </trkpt>
      <trkpt lat="47.27751" lon="-2.3483">
        <ele>23.799999237061</ele>
        <time>2019-10-31T11:04:25.000Z</time>
      </trkpt>
      <trkpt lat="47.27731" lon="-2.3479">
        <ele>23.799999237061</ele>
        <time>2019-10-31T11:04:30.000Z</time>
      </trkpt>
      <trkpt lat="47.27726" lon="-2.34778">
        <ele>23.799999237061</ele>
        <time>2019-10-31T11:04:34.000Z</time>
      </trkpt>
      <trkpt lat="47.27709" lon="-2.34744">
        <ele>23.799999237061</ele>
        <time>2019-10-31T11:04:40.000Z</time>
      </trkpt>
      <trkpt lat="47.27705" lon="-2.34711">
        <ele>23.799999237061</ele>
        <time>2019-10-31T11:04:45.000Z</time>
      </trkpt>
      <trkpt lat="47.27704" lon="-2.34704">
        <ele>24.200000762939</ele>
        <time>2019-10-31T11:04:46.000Z</time>
      </trkpt>
      <trkpt lat="47.27703" lon="-2.34699">
        <ele>24.60000038147</ele>
        <time>2019-10-31T11:04:47.000Z</time>
      </trkpt>
      <trkpt lat="47.27701" lon="-2.34695">
        <ele>25</ele>
        <time>2019-10-31T11:04:48.000Z</time>
      </trkpt>
      <trkpt lat="47.277" lon="-2.34692">
        <ele>25.39999961853</ele>
        <time>2019-10-31T11:04:49.000Z</time>
      </trkpt>
      <trkpt lat="47.27699" lon="-2.3469">
        <ele>25.799999237061</ele>
        <time>2019-10-31T11:04:50.000Z</time>
      </trkpt>
      <trkpt lat="47.27697" lon="-2.34678">
        <ele>25.799999237061</ele>
        <time>2019-10-31T11:04:56.000Z</time>
      </trkpt>
      <trkpt lat="47.27694" lon="-2.3466">
        <ele>25.799999237061</ele>
        <time>2019-10-31T11:05:00.000Z</time>
      </trkpt>
      <trkpt lat="47.27691" lon="-2.34644">
        <ele>25.799999237061</ele>
        <time>2019-10-31T11:05:03.000Z</time>
      </trkpt>
      <trkpt lat="47.2769" lon="-2.34637">
        <ele>25.799999237061</ele>
        <time>2019-10-31T11:05:04.000Z</time>
      </trkpt>
      <trkpt lat="47.27683" lon="-2.34596">
        <ele>25.799999237061</ele>
        <time>2019-10-31T11:05:10.000Z</time>
      </trkpt>
      <trkpt lat="47.27682" lon="-2.34592">
        <ele>25.799999237061</ele>
        <time>2019-10-31T11:05:11.000Z</time>
      </trkpt>
      <trkpt lat="47.2768" lon="-2.34583">
        <ele>25.799999237061</ele>
        <time>2019-10-31T11:05:14.000Z</time>
      </trkpt>
      <trkpt lat="47.27679" lon="-2.34581">
        <ele>25.799999237061</ele>
        <time>2019-10-31T11:05:15.000Z</time>
      </trkpt>
      <trkpt lat="47.27677" lon="-2.34574">
        <ele>25.799999237061</ele>
        <time>2019-10-31T11:05:19.000Z</time>
      </trkpt>
      <trkpt lat="47.27676" lon="-2.34571">
        <ele>25.799999237061</ele>
        <time>2019-10-31T11:05:20.000Z</time>
      </trkpt>
      <trkpt lat="47.27667" lon="-2.34573">
        <ele>25.799999237061</ele>
        <time>2019-10-31T11:05:23.000Z</time>
      </trkpt>
      <trkpt lat="47.27657" lon="-2.3458">
        <ele>25.799999237061</ele>
        <time>2019-10-31T11:05:25.000Z</time>
      </trkpt>
      <trkpt lat="47.27647" lon="-2.34587">
        <ele>25.799999237061</ele>
        <time>2019-10-31T11:05:27.000Z</time>
      </trkpt>
      <trkpt lat="47.27622" lon="-2.3461">
        <ele>26.39999961853</ele>
        <time>2019-10-31T11:05:32.000Z</time>
      </trkpt>
      <trkpt lat="47.27617" lon="-2.34614">
        <ele>26.799999237061</ele>
        <time>2019-10-31T11:05:33.000Z</time>
      </trkpt>
      <trkpt lat="47.27613" lon="-2.34619">
        <ele>27.39999961853</ele>
        <time>2019-10-31T11:05:34.000Z</time>
      </trkpt>
      <trkpt lat="47.27609" lon="-2.34624">
        <ele>27.799999237061</ele>
        <time>2019-10-31T11:05:35.000Z</time>
      </trkpt>
      <trkpt lat="47.27605" lon="-2.34629">
        <ele>28.39999961853</ele>
        <time>2019-10-31T11:05:36.000Z</time>
      </trkpt>
      <trkpt lat="47.27593" lon="-2.34644">
        <ele>28.39999961853</ele>
        <time>2019-10-31T11:05:39.000Z</time>
      </trkpt>
      <trkpt lat="47.27589" lon="-2.34647">
        <ele>28.39999961853</ele>
        <time>2019-10-31T11:05:40.000Z</time>
      </trkpt>
      <trkpt lat="47.27567" lon="-2.34664">
        <ele>28.39999961853</ele>
        <time>2019-10-31T11:05:45.000Z</time>
      </trkpt>
      <trkpt lat="47.27562" lon="-2.34668">
        <ele>28.39999961853</ele>
        <time>2019-10-31T11:05:46.000Z</time>
      </trkpt>
      <trkpt lat="47.27558" lon="-2.3467">
        <ele>28.39999961853</ele>
        <time>2019-10-31T11:05:47.000Z</time>
      </trkpt>
      <trkpt lat="47.27539" lon="-2.34676">
        <ele>28.39999961853</ele>
        <time>2019-10-31T11:05:51.000Z</time>
      </trkpt>
      <trkpt lat="47.27535" lon="-2.34677">
        <ele>28.39999961853</ele>
        <time>2019-10-31T11:05:52.000Z</time>
      </trkpt>
      <trkpt lat="47.27525" lon="-2.34678">
        <ele>28.39999961853</ele>
        <time>2019-10-31T11:05:54.000Z</time>
      </trkpt>
      <trkpt lat="47.27506" lon="-2.34679">
        <ele>28.39999961853</ele>
        <time>2019-10-31T11:05:58.000Z</time>
      </trkpt>
      <trkpt lat="47.27485" lon="-2.34683">
        <ele>28.39999961853</ele>
        <time>2019-10-31T11:06:03.000Z</time>
      </trkpt>
      <trkpt lat="47.27469" lon="-2.34693">
        <ele>28.39999961853</ele>
        <time>2019-10-31T11:06:09.000Z</time>
      </trkpt>
      <trkpt lat="47.27462" lon="-2.34696">
        <ele>28.39999961853</ele>
        <time>2019-10-31T11:06:13.000Z</time>
      </trkpt>
      <trkpt lat="47.2746" lon="-2.34693">
        <ele>28.39999961853</ele>
        <time>2019-10-31T11:06:14.000Z</time>
      </trkpt>
      <trkpt lat="47.27456" lon="-2.3467">
        <ele>28.39999961853</ele>
        <time>2019-10-31T11:06:18.000Z</time>
      </trkpt>
      <trkpt lat="47.27456" lon="-2.34657">
        <ele>28.39999961853</ele>
        <time>2019-10-31T11:06:20.000Z</time>
      </trkpt>
      <trkpt lat="47.27454" lon="-2.34629">
        <ele>28.39999961853</ele>
        <time>2019-10-31T11:06:24.000Z</time>
      </trkpt>
      <trkpt lat="47.2745" lon="-2.34599">
        <ele>28.39999961853</ele>
        <time>2019-10-31T11:06:28.000Z</time>
      </trkpt>
      <trkpt lat="47.27448" lon="-2.34584">
        <ele>28.39999961853</ele>
        <time>2019-10-31T11:06:30.000Z</time>
      </trkpt>
      <trkpt lat="47.27439" lon="-2.34535">
        <ele>28.39999961853</ele>
        <time>2019-10-31T11:06:37.000Z</time>
      </trkpt>
      <trkpt lat="47.27436" lon="-2.34527">
        <ele>28.39999961853</ele>
        <time>2019-10-31T11:06:38.000Z</time>
      </trkpt>
      <trkpt lat="47.27428" lon="-2.34494">
        <ele>28.39999961853</ele>
        <time>2019-10-31T11:06:42.000Z</time>
      </trkpt>
      <trkpt lat="47.27427" lon="-2.34485">
        <ele>28.39999961853</ele>
        <time>2019-10-31T11:06:43.000Z</time>
      </trkpt>
      <trkpt lat="47.27424" lon="-2.34449">
        <ele>28.39999961853</ele>
        <time>2019-10-31T11:06:47.000Z</time>
      </trkpt>
      <trkpt lat="47.27422" lon="-2.34421">
        <ele>28.39999961853</ele>
        <time>2019-10-31T11:06:50.000Z</time>
      </trkpt>
      <trkpt lat="47.2742" lon="-2.34392">
        <ele>28.39999961853</ele>
        <time>2019-10-31T11:06:53.000Z</time>
      </trkpt>
      <trkpt lat="47.27415" lon="-2.34335">
        <ele>28.39999961853</ele>
        <time>2019-10-31T11:06:59.000Z</time>
      </trkpt>
      <trkpt lat="47.27415" lon="-2.34325">
        <ele>28</ele>
        <time>2019-10-31T11:07:00.000Z</time>
      </trkpt>
      <trkpt lat="47.27415" lon="-2.34315">
        <ele>27.60000038147</ele>
        <time>2019-10-31T11:07:01.000Z</time>
      </trkpt>
      <trkpt lat="47.27415" lon="-2.34305">
        <ele>27.200000762939</ele>
        <time>2019-10-31T11:07:02.000Z</time>
      </trkpt>
      <trkpt lat="47.27415" lon="-2.34295">
        <ele>26.60000038147</ele>
        <time>2019-10-31T11:07:03.000Z</time>
      </trkpt>
      <trkpt lat="47.27414" lon="-2.34285">
        <ele>26.200000762939</ele>
        <time>2019-10-31T11:07:04.000Z</time>
      </trkpt>
      <trkpt lat="47.27414" lon="-2.34276">
        <ele>26.200000762939</ele>
        <time>2019-10-31T11:07:05.000Z</time>
      </trkpt>
      <trkpt lat="47.27413" lon="-2.34249">
        <ele>26.200000762939</ele>
        <time>2019-10-31T11:07:09.000Z</time>
      </trkpt>
      <trkpt lat="47.27412" lon="-2.34247">
        <ele>26.200000762939</ele>
        <time>2019-10-31T11:07:10.000Z</time>
      </trkpt>
      <trkpt lat="47.27412" lon="-2.34246">
        <ele>26.200000762939</ele>
        <time>2019-10-31T11:07:12.000Z</time>
      </trkpt>
      <trkpt lat="47.27406" lon="-2.34239">
        <ele>24.200000762939</ele>
        <time>2019-10-31T11:07:18.000Z</time>
      </trkpt>
      <trkpt lat="47.27404" lon="-2.34235">
        <ele>24.200000762939</ele>
        <time>2019-10-31T11:07:21.000Z</time>
      </trkpt>
      <trkpt lat="47.274" lon="-2.34212">
        <ele>24.200000762939</ele>
        <time>2019-10-31T11:07:23.000Z</time>
      </trkpt>
      <trkpt lat="47.274" lon="-2.34206">
        <ele>24.200000762939</ele>
        <time>2019-10-31T11:07:26.000Z</time>
      </trkpt>
      <trkpt lat="47.27399" lon="-2.34143">
        <ele>24.200000762939</ele>
        <time>2019-10-31T11:07:36.000Z</time>
      </trkpt>
      <trkpt lat="47.27398" lon="-2.34104">
        <ele>24.200000762939</ele>
        <time>2019-10-31T11:07:42.000Z</time>
      </trkpt>
      <trkpt lat="47.27397" lon="-2.34078">
        <ele>24.60000038147</ele>
        <time>2019-10-31T11:07:46.000Z</time>
      </trkpt>
      <trkpt lat="47.27397" lon="-2.34071">
        <ele>25.39999961853</ele>
        <time>2019-10-31T11:07:47.000Z</time>
      </trkpt>
      <trkpt lat="47.27396" lon="-2.34064">
        <ele>25.799999237061</ele>
        <time>2019-10-31T11:07:48.000Z</time>
      </trkpt>
      <trkpt lat="47.27396" lon="-2.34057">
        <ele>26.39999961853</ele>
        <time>2019-10-31T11:07:49.000Z</time>
      </trkpt>
      <trkpt lat="47.27394" lon="-2.34028">
        <ele>26.39999961853</ele>
        <time>2019-10-31T11:07:53.000Z</time>
      </trkpt>
      <trkpt lat="47.27394" lon="-2.34013">
        <ele>26.39999961853</ele>
        <time>2019-10-31T11:07:55.000Z</time>
      </trkpt>
      <trkpt lat="47.27392" lon="-2.33991">
        <ele>27.200000762939</ele>
        <time>2019-10-31T11:07:56.000Z</time>
      </trkpt>
      <trkpt lat="47.27391" lon="-2.33983">
        <ele>27.60000038147</ele>
        <time>2019-10-31T11:07:59.000Z</time>
      </trkpt>
      <trkpt lat="47.27391" lon="-2.33975">
        <ele>28</ele>
        <time>2019-10-31T11:08:00.000Z</time>
      </trkpt>
      <trkpt lat="47.27389" lon="-2.33967">
        <ele>28.39999961853</ele>
        <time>2019-10-31T11:08:01.000Z</time>
      </trkpt>
      <trkpt lat="47.27386" lon="-2.33962">
        <ele>28.39999961853</ele>
        <time>2019-10-31T11:08:02.000Z</time>
      </trkpt>
      <trkpt lat="47.27371" lon="-2.33961">
        <ele>28.39999961853</ele>
        <time>2019-10-31T11:08:05.000Z</time>
      </trkpt>
      <trkpt lat="47.27367" lon="-2.33961">
        <ele>28.39999961853</ele>
        <time>2019-10-31T11:08:06.000Z</time>
      </trkpt>
      <trkpt lat="47.27357" lon="-2.33962">
        <ele>28.39999961853</ele>
        <time>2019-10-31T11:08:08.000Z</time>
      </trkpt>
      <trkpt lat="47.27348" lon="-2.33961">
        <ele>28.39999961853</ele>
        <time>2019-10-31T11:08:10.000Z</time>
      </trkpt>
      <trkpt lat="47.27339" lon="-2.33959">
        <ele>28.39999961853</ele>
        <time>2019-10-31T11:08:12.000Z</time>
      </trkpt>
      <trkpt lat="47.27329" lon="-2.33955">
        <ele>28.39999961853</ele>
        <time>2019-10-31T11:08:14.000Z</time>
      </trkpt>
      <trkpt lat="47.27318" lon="-2.33939">
        <ele>28.799999237061</ele>
        <time>2019-10-31T11:08:17.000Z</time>
      </trkpt>
      <trkpt lat="47.27313" lon="-2.33934">
        <ele>29.200000762939</ele>
        <time>2019-10-31T11:08:18.000Z</time>
      </trkpt>
      <trkpt lat="47.273" lon="-2.33919">
        <ele>30.39999961853</ele>
        <time>2019-10-31T11:08:19.000Z</time>
      </trkpt>
      <trkpt lat="47.273" lon="-2.33919">
        <ele>30.39999961853</ele>
        <time>2019-10-31T11:08:21.000Z</time>
      </trkpt>
      <trkpt lat="47.2729" lon="-2.3391">
        <ele>30.39999961853</ele>
        <time>2019-10-31T11:08:23.000Z</time>
      </trkpt>
      <trkpt lat="47.27263" lon="-2.3388">
        <ele>30.39999961853</ele>
        <time>2019-10-31T11:08:29.000Z</time>
      </trkpt>
      <trkpt lat="47.27249" lon="-2.33865">
        <ele>30.39999961853</ele>
        <time>2019-10-31T11:08:32.000Z</time>
      </trkpt>
      <trkpt lat="47.27238" lon="-2.33859">
        <ele>30.39999961853</ele>
        <time>2019-10-31T11:08:34.000Z</time>
      </trkpt>
      <trkpt lat="47.27228" lon="-2.33854">
        <ele>30.39999961853</ele>
        <time>2019-10-31T11:08:36.000Z</time>
      </trkpt>
      <trkpt lat="47.27206" lon="-2.33846">
        <ele>30.39999961853</ele>
        <time>2019-10-31T11:08:40.000Z</time>
      </trkpt>
      <trkpt lat="47.27193" lon="-2.33845">
        <ele>30.39999961853</ele>
        <time>2019-10-31T11:08:42.000Z</time>
      </trkpt>
      <trkpt lat="47.2718" lon="-2.33846">
        <ele>30.39999961853</ele>
        <time>2019-10-31T11:08:44.000Z</time>
      </trkpt>
      <trkpt lat="47.27166" lon="-2.33847">
        <ele>30</ele>
        <time>2019-10-31T11:08:46.000Z</time>
      </trkpt>
      <trkpt lat="47.27159" lon="-2.33849">
        <ele>29.60000038147</ele>
        <time>2019-10-31T11:08:47.000Z</time>
      </trkpt>
      <trkpt lat="47.27152" lon="-2.33853">
        <ele>29.200000762939</ele>
        <time>2019-10-31T11:08:48.000Z</time>
      </trkpt>
      <trkpt lat="47.27145" lon="-2.33854">
        <ele>28.799999237061</ele>
        <time>2019-10-31T11:08:49.000Z</time>
      </trkpt>
      <trkpt lat="47.27139" lon="-2.33855">
        <ele>28.39999961853</ele>
        <time>2019-10-31T11:08:50.000Z</time>
      </trkpt>
      <trkpt lat="47.27132" lon="-2.33856">
        <ele>27.799999237061</ele>
        <time>2019-10-31T11:08:51.000Z</time>
      </trkpt>
      <trkpt lat="47.27126" lon="-2.33856">
        <ele>27.39999961853</ele>
        <time>2019-10-31T11:08:52.000Z</time>
      </trkpt>
      <trkpt lat="47.27119" lon="-2.33855">
        <ele>27</ele>
        <time>2019-10-31T11:08:53.000Z</time>
      </trkpt>
      <trkpt lat="47.27113" lon="-2.33854">
        <ele>26.60000038147</ele>
        <time>2019-10-31T11:08:54.000Z</time>
      </trkpt>
      <trkpt lat="47.27108" lon="-2.33851">
        <ele>26.200000762939</ele>
        <time>2019-10-31T11:08:55.000Z</time>
      </trkpt>
      <trkpt lat="47.27096" lon="-2.33844">
        <ele>26.200000762939</ele>
        <time>2019-10-31T11:08:57.000Z</time>
      </trkpt>
      <trkpt lat="47.2709" lon="-2.33839">
        <ele>26.200000762939</ele>
        <time>2019-10-31T11:08:58.000Z</time>
      </trkpt>
      <trkpt lat="47.27077" lon="-2.33829">
        <ele>25.799999237061</ele>
        <time>2019-10-31T11:09:00.000Z</time>
      </trkpt>
      <trkpt lat="47.27071" lon="-2.33825">
        <ele>25.39999961853</ele>
        <time>2019-10-31T11:09:01.000Z</time>
      </trkpt>
      <trkpt lat="47.27064" lon="-2.33821">
        <ele>24.39999961853</ele>
        <time>2019-10-31T11:09:02.000Z</time>
      </trkpt>
      <trkpt lat="47.27057" lon="-2.33819">
        <ele>24</ele>
        <time>2019-10-31T11:09:03.000Z</time>
      </trkpt>
      <trkpt lat="47.27033" lon="-2.33815">
        <ele>23.60000038147</ele>
        <time>2019-10-31T11:09:06.000Z</time>
      </trkpt>
      <trkpt lat="47.27024" lon="-2.33814">
        <ele>23.200000762939</ele>
        <time>2019-10-31T11:09:07.000Z</time>
      </trkpt>
      <trkpt lat="47.27015" lon="-2.33814">
        <ele>22.799999237061</ele>
        <time>2019-10-31T11:09:08.000Z</time>
      </trkpt>
      <trkpt lat="47.27005" lon="-2.33814">
        <ele>22.39999961853</ele>
        <time>2019-10-31T11:09:09.000Z</time>
      </trkpt>
      <trkpt lat="47.26995" lon="-2.33814">
        <ele>22</ele>
        <time>2019-10-31T11:09:10.000Z</time>
      </trkpt>
      <trkpt lat="47.26985" lon="-2.33813">
        <ele>21.60000038147</ele>
        <time>2019-10-31T11:09:11.000Z</time>
      </trkpt>
      <trkpt lat="47.26976" lon="-2.33813">
        <ele>21.200000762939</ele>
        <time>2019-10-31T11:09:12.000Z</time>
      </trkpt>
      <trkpt lat="47.26967" lon="-2.33812">
        <ele>20.39999961853</ele>
        <time>2019-10-31T11:09:13.000Z</time>
      </trkpt>
      <trkpt lat="47.26959" lon="-2.33812">
        <ele>19.60000038147</ele>
        <time>2019-10-31T11:09:14.000Z</time>
      </trkpt>
      <trkpt lat="47.26952" lon="-2.33811">
        <ele>18.799999237061</ele>
        <time>2019-10-31T11:09:15.000Z</time>
      </trkpt>
      <trkpt lat="47.26947" lon="-2.33812">
        <ele>18</ele>
        <time>2019-10-31T11:09:16.000Z</time>
      </trkpt>
      <trkpt lat="47.26942" lon="-2.33812">
        <ele>17.39999961853</ele>
        <time>2019-10-31T11:09:17.000Z</time>
      </trkpt>
      <trkpt lat="47.26937" lon="-2.33811">
        <ele>16.799999237061</ele>
        <time>2019-10-31T11:09:18.000Z</time>
      </trkpt>
      <trkpt lat="47.26932" lon="-2.33807">
        <ele>16.200000762939</ele>
        <time>2019-10-31T11:09:19.000Z</time>
      </trkpt>
      <trkpt lat="47.26929" lon="-2.33801">
        <ele>15.60000038147</ele>
        <time>2019-10-31T11:09:20.000Z</time>
      </trkpt>
      <trkpt lat="47.26927" lon="-2.33794">
        <ele>14.800000190735</ele>
        <time>2019-10-31T11:09:21.000Z</time>
      </trkpt>
      <trkpt lat="47.26929" lon="-2.33768">
        <ele>12.800000190735</ele>
        <time>2019-10-31T11:09:22.000Z</time>
      </trkpt>
      <trkpt lat="47.26929" lon="-2.33768">
        <ele>12.800000190735</ele>
        <time>2019-10-31T11:09:24.000Z</time>
      </trkpt>
      <trkpt lat="47.26932" lon="-2.33751">
        <ele>12.800000190735</ele>
        <time>2019-10-31T11:09:26.000Z</time>
      </trkpt>
      <trkpt lat="47.26938" lon="-2.33725">
        <ele>12.800000190735</ele>
        <time>2019-10-31T11:09:29.000Z</time>
      </trkpt>
      <trkpt lat="47.26939" lon="-2.33717">
        <ele>12.800000190735</ele>
        <time>2019-10-31T11:09:30.000Z</time>
      </trkpt>
      <trkpt lat="47.26936" lon="-2.33691">
        <ele>12.800000190735</ele>
        <time>2019-10-31T11:09:33.000Z</time>
      </trkpt>
      <trkpt lat="47.26925" lon="-2.33637">
        <ele>12.800000190735</ele>
        <time>2019-10-31T11:09:39.000Z</time>
      </trkpt>
      <trkpt lat="47.26916" lon="-2.33601">
        <ele>12.800000190735</ele>
        <time>2019-10-31T11:09:43.000Z</time>
      </trkpt>
      <trkpt lat="47.2691" lon="-2.33583">
        <ele>12.800000190735</ele>
        <time>2019-10-31T11:09:45.000Z</time>
      </trkpt>
      <trkpt lat="47.26898" lon="-2.33556">
        <ele>12.39999961853</ele>
        <time>2019-10-31T11:09:48.000Z</time>
      </trkpt>
      <trkpt lat="47.26894" lon="-2.33548">
        <ele>12</ele>
        <time>2019-10-31T11:09:49.000Z</time>
      </trkpt>
      <trkpt lat="47.26889" lon="-2.33541">
        <ele>11.199999809265</ele>
        <time>2019-10-31T11:09:50.000Z</time>
      </trkpt>
      <trkpt lat="47.26882" lon="-2.33536">
        <ele>10.800000190735</ele>
        <time>2019-10-31T11:09:51.000Z</time>
      </trkpt>
      <trkpt lat="47.26866" lon="-2.33534">
        <ele>10.199999809265</ele>
        <time>2019-10-31T11:09:53.000Z</time>
      </trkpt>
      <trkpt lat="47.26858" lon="-2.33537">
        <ele>9.8000001907349</ele>
        <time>2019-10-31T11:09:54.000Z</time>
      </trkpt>
      <trkpt lat="47.2685" lon="-2.33541">
        <ele>9.1999998092651</ele>
        <time>2019-10-31T11:09:55.000Z</time>
      </trkpt>
      <trkpt lat="47.26843" lon="-2.33545">
        <ele>8.8000001907349</ele>
        <time>2019-10-31T11:09:56.000Z</time>
      </trkpt>
      <trkpt lat="47.26836" lon="-2.33548">
        <ele>8.1999998092651</ele>
        <time>2019-10-31T11:09:57.000Z</time>
      </trkpt>
      <trkpt lat="47.26829" lon="-2.33552">
        <ele>8.1999998092651</ele>
        <time>2019-10-31T11:09:58.000Z</time>
      </trkpt>
      <trkpt lat="47.2679" lon="-2.33566">
        <ele>8.1999998092651</ele>
        <time>2019-10-31T11:10:04.000Z</time>
      </trkpt>
      <trkpt lat="47.26779" lon="-2.33565">
        <ele>7.8000001907349</ele>
        <time>2019-10-31T11:10:07.000Z</time>
      </trkpt>
      <trkpt lat="47.26778" lon="-2.33559">
        <ele>7.4000000953674</ele>
        <time>2019-10-31T11:10:08.000Z</time>
      </trkpt>
      <trkpt lat="47.26777" lon="-2.33553">
        <ele>7</ele>
        <time>2019-10-31T11:10:09.000Z</time>
      </trkpt>
      <trkpt lat="47.26776" lon="-2.33545">
        <ele>6.5999999046326</ele>
        <time>2019-10-31T11:10:10.000Z</time>
      </trkpt>
      <trkpt lat="47.26774" lon="-2.33537">
        <ele>6.1999998092651</ele>
        <time>2019-10-31T11:10:11.000Z</time>
      </trkpt>
      <trkpt lat="47.26773" lon="-2.33529">
        <ele>6.1999998092651</ele>
        <time>2019-10-31T11:10:12.000Z</time>
      </trkpt>
      <trkpt lat="47.26764" lon="-2.33477">
        <ele>6.1999998092651</ele>
        <time>2019-10-31T11:10:18.000Z</time>
      </trkpt>
      <trkpt lat="47.26753" lon="-2.33403">
        <ele>6.1999998092651</ele>
        <time>2019-10-31T11:10:26.000Z</time>
      </trkpt>
      <trkpt lat="47.26745" lon="-2.33339">
        <ele>6.1999998092651</ele>
        <time>2019-10-31T11:10:34.000Z</time>
      </trkpt>
      <trkpt lat="47.26741" lon="-2.3332">
        <ele>6.1999998092651</ele>
        <time>2019-10-31T11:10:38.000Z</time>
      </trkpt>
      <trkpt lat="47.26731" lon="-2.33283">
        <ele>6.1999998092651</ele>
        <time>2019-10-31T11:10:43.000Z</time>
      </trkpt>
      <trkpt lat="47.26729" lon="-2.33265">
        <ele>6.1999998092651</ele>
        <time>2019-10-31T11:10:45.000Z</time>
      </trkpt>
      <trkpt lat="47.26732" lon="-2.33247">
        <ele>6.1999998092651</ele>
        <time>2019-10-31T11:10:47.000Z</time>
      </trkpt>
      <trkpt lat="47.26737" lon="-2.33228">
        <ele>6.1999998092651</ele>
        <time>2019-10-31T11:10:49.000Z</time>
      </trkpt>
      <trkpt lat="47.26745" lon="-2.33202">
        <ele>6.1999998092651</ele>
        <time>2019-10-31T11:10:52.000Z</time>
      </trkpt>
      <trkpt lat="47.2676" lon="-2.33152">
        <ele>6.1999998092651</ele>
        <time>2019-10-31T11:10:58.000Z</time>
      </trkpt>
      <trkpt lat="47.26766" lon="-2.33118">
        <ele>6.1999998092651</ele>
        <time>2019-10-31T11:11:02.000Z</time>
      </trkpt>
      <trkpt lat="47.26764" lon="-2.33101">
        <ele>6.1999998092651</ele>
        <time>2019-10-31T11:11:04.000Z</time>
      </trkpt>
      <trkpt lat="47.26753" lon="-2.33085">
        <ele>6.1999998092651</ele>
        <time>2019-10-31T11:11:07.000Z</time>
      </trkpt>
      <trkpt lat="47.26748" lon="-2.33082">
        <ele>6.1999998092651</ele>
        <time>2019-10-31T11:11:08.000Z</time>
      </trkpt>
      <trkpt lat="47.2674" lon="-2.33087">
        <ele>6.1999998092651</ele>
        <time>2019-10-31T11:11:10.000Z</time>
      </trkpt>
      <trkpt lat="47.26734" lon="-2.33097">
        <ele>6.1999998092651</ele>
        <time>2019-10-31T11:11:12.000Z</time>
      </trkpt>
      <trkpt lat="47.26726" lon="-2.33106">
        <ele>6.1999998092651</ele>
        <time>2019-10-31T11:11:14.000Z</time>
      </trkpt>
      <trkpt lat="47.26701" lon="-2.33133">
        <ele>6.1999998092651</ele>
        <time>2019-10-31T11:11:19.000Z</time>
      </trkpt>
      <trkpt lat="47.2668" lon="-2.33155">
        <ele>6.5999999046326</ele>
        <time>2019-10-31T11:11:23.000Z</time>
      </trkpt>
      <trkpt lat="47.26675" lon="-2.33161">
        <ele>7</ele>
        <time>2019-10-31T11:11:24.000Z</time>
      </trkpt>
      <trkpt lat="47.26669" lon="-2.33166">
        <ele>7.4000000953674</ele>
        <time>2019-10-31T11:11:25.000Z</time>
      </trkpt>
      <trkpt lat="47.26664" lon="-2.33171">
        <ele>8</ele>
        <time>2019-10-31T11:11:26.000Z</time>
      </trkpt>
      <trkpt lat="47.26659" lon="-2.33176">
        <ele>8.3999996185303</ele>
        <time>2019-10-31T11:11:27.000Z</time>
      </trkpt>
      <trkpt lat="47.26628" lon="-2.33208">
        <ele>8.3999996185303</ele>
        <time>2019-10-31T11:11:33.000Z</time>
      </trkpt>
      <trkpt lat="47.26608" lon="-2.33231">
        <ele>8</ele>
        <time>2019-10-31T11:11:35.000Z</time>
      </trkpt>
      <trkpt lat="47.26603" lon="-2.33236">
        <ele>7.4000000953674</ele>
        <time>2019-10-31T11:11:38.000Z</time>
      </trkpt>
      <trkpt lat="47.26598" lon="-2.33241">
        <ele>7</ele>
        <time>2019-10-31T11:11:39.000Z</time>
      </trkpt>
      <trkpt lat="47.26593" lon="-2.33246">
        <ele>6.5999999046326</ele>
        <time>2019-10-31T11:11:40.000Z</time>
      </trkpt>
      <trkpt lat="47.26588" lon="-2.33251">
        <ele>6</ele>
        <time>2019-10-31T11:11:41.000Z</time>
      </trkpt>
      <trkpt lat="47.26584" lon="-2.33255">
        <ele>6</ele>
        <time>2019-10-31T11:11:42.000Z</time>
      </trkpt>
      <trkpt lat="47.26554" lon="-2.33286">
        <ele>6</ele>
        <time>2019-10-31T11:11:49.000Z</time>
      </trkpt>
      <trkpt lat="47.26537" lon="-2.33299">
        <ele>6</ele>
        <time>2019-10-31T11:11:54.000Z</time>
      </trkpt>
      <trkpt lat="47.26534" lon="-2.33295">
        <ele>6</ele>
        <time>2019-10-31T11:11:55.000Z</time>
      </trkpt>
      <trkpt lat="47.26524" lon="-2.33282">
        <ele>6</ele>
        <time>2019-10-31T11:11:59.000Z</time>
      </trkpt>
      <trkpt lat="47.26509" lon="-2.33284">
        <ele>6</ele>
        <time>2019-10-31T11:12:03.000Z</time>
      </trkpt>
      <trkpt lat="47.26499" lon="-2.3328">
        <ele>6</ele>
        <time>2019-10-31T11:12:06.000Z</time>
      </trkpt>
      <trkpt lat="47.26495" lon="-2.33281">
        <ele>6</ele>
        <time>2019-10-31T11:12:07.000Z</time>
      </trkpt>
      <trkpt lat="47.26478" lon="-2.33278">
        <ele>6</ele>
        <time>2019-10-31T11:12:10.000Z</time>
      </trkpt>
      <trkpt lat="47.26467" lon="-2.33274">
        <ele>6</ele>
        <time>2019-10-31T11:12:12.000Z</time>
      </trkpt>
      <trkpt lat="47.26409" lon="-2.33266">
        <ele>6</ele>
        <time>2019-10-31T11:12:20.000Z</time>
      </trkpt>
      <trkpt lat="47.26389" lon="-2.33259">
        <ele>6</ele>
        <time>2019-10-31T11:12:26.000Z</time>
      </trkpt>
      <trkpt lat="47.26381" lon="-2.33248">
        <ele>6</ele>
        <time>2019-10-31T11:12:28.000Z</time>
      </trkpt>
      <trkpt lat="47.26378" lon="-2.33223">
        <ele>6</ele>
        <time>2019-10-31T11:12:31.000Z</time>
      </trkpt>
      <trkpt lat="47.26377" lon="-2.33213">
        <ele>6</ele>
        <time>2019-10-31T11:12:32.000Z</time>
      </trkpt>
      <trkpt lat="47.26375" lon="-2.33158">
        <ele>6</ele>
        <time>2019-10-31T11:12:38.000Z</time>
      </trkpt>
      <trkpt lat="47.2637" lon="-2.33085">
        <ele>6</ele>
        <time>2019-10-31T11:12:46.000Z</time>
      </trkpt>
      <trkpt lat="47.26366" lon="-2.33001">
        <ele>6</ele>
        <time>2019-10-31T11:12:55.000Z</time>
      </trkpt>
      <trkpt lat="47.26365" lon="-2.32992">
        <ele>6</ele>
        <time>2019-10-31T11:12:56.000Z</time>
      </trkpt>
      <trkpt lat="47.26358" lon="-2.32976">
        <ele>6</ele>
        <time>2019-10-31T11:12:58.000Z</time>
      </trkpt>
      <trkpt lat="47.26345" lon="-2.32956">
        <ele>6</ele>
        <time>2019-10-31T11:13:01.000Z</time>
      </trkpt>
      <trkpt lat="47.26338" lon="-2.32939">
        <ele>6</ele>
        <time>2019-10-31T11:13:03.000Z</time>
      </trkpt>
      <trkpt lat="47.26335" lon="-2.3293">
        <ele>6</ele>
        <time>2019-10-31T11:13:04.000Z</time>
      </trkpt>
      <trkpt lat="47.26316" lon="-2.3287">
        <ele>6</ele>
        <time>2019-10-31T11:13:11.000Z</time>
      </trkpt>
      <trkpt lat="47.26298" lon="-2.32856">
        <ele>6</ele>
        <time>2019-10-31T11:13:14.000Z</time>
      </trkpt>
      <trkpt lat="47.26292" lon="-2.32854">
        <ele>6</ele>
        <time>2019-10-31T11:13:15.000Z</time>
      </trkpt>
      <trkpt lat="47.26287" lon="-2.32848">
        <ele>6</ele>
        <time>2019-10-31T11:13:16.000Z</time>
      </trkpt>
      <trkpt lat="47.26283" lon="-2.3284">
        <ele>6</ele>
        <time>2019-10-31T11:13:17.000Z</time>
      </trkpt>
      <trkpt lat="47.26274" lon="-2.32804">
        <ele>6</ele>
        <time>2019-10-31T11:13:21.000Z</time>
      </trkpt>
      <trkpt lat="47.2627" lon="-2.32795">
        <ele>6</ele>
        <time>2019-10-31T11:13:22.000Z</time>
      </trkpt>
      <trkpt lat="47.26256" lon="-2.32764">
        <ele>6</ele>
        <time>2019-10-31T11:13:26.000Z</time>
      </trkpt>
      <trkpt lat="47.2623" lon="-2.32725">
        <ele>6</ele>
        <time>2019-10-31T11:13:32.000Z</time>
      </trkpt>
      <trkpt lat="47.26208" lon="-2.32693">
        <ele>6.5999999046326</ele>
        <time>2019-10-31T11:13:37.000Z</time>
      </trkpt>
      <trkpt lat="47.26204" lon="-2.32687">
        <ele>7</ele>
        <time>2019-10-31T11:13:38.000Z</time>
      </trkpt>
      <trkpt lat="47.26189" lon="-2.32671">
        <ele>8.3999996185303</ele>
        <time>2019-10-31T11:13:39.000Z</time>
      </trkpt>
      <trkpt lat="47.26167" lon="-2.32653">
        <ele>8.3999996185303</ele>
        <time>2019-10-31T11:13:45.000Z</time>
      </trkpt>
      <trkpt lat="47.26156" lon="-2.32648">
        <ele>8.3999996185303</ele>
        <time>2019-10-31T11:13:47.000Z</time>
      </trkpt>
      <trkpt lat="47.26126" lon="-2.32639">
        <ele>8.3999996185303</ele>
        <time>2019-10-31T11:13:52.000Z</time>
      </trkpt>
      <trkpt lat="47.2612" lon="-2.32638">
        <ele>8.3999996185303</ele>
        <time>2019-10-31T11:13:53.000Z</time>
      </trkpt>
      <trkpt lat="47.26076" lon="-2.32642">
        <ele>8.3999996185303</ele>
        <time>2019-10-31T11:14:00.000Z</time>
      </trkpt>
      <trkpt lat="47.26019" lon="-2.32653">
        <ele>8.3999996185303</ele>
        <time>2019-10-31T11:14:09.000Z</time>
      </trkpt>
      <trkpt lat="47.25981" lon="-2.32657">
        <ele>8.3999996185303</ele>
        <time>2019-10-31T11:14:15.000Z</time>
      </trkpt>
      <trkpt lat="47.25975" lon="-2.32655">
        <ele>8.3999996185303</ele>
        <time>2019-10-31T11:14:16.000Z</time>
      </trkpt>
      <trkpt lat="47.25969" lon="-2.32655">
        <ele>8</ele>
        <time>2019-10-31T11:14:17.000Z</time>
      </trkpt>
      <trkpt lat="47.25963" lon="-2.32656">
        <ele>7.5999999046326</ele>
        <time>2019-10-31T11:14:18.000Z</time>
      </trkpt>
      <trkpt lat="47.25951" lon="-2.32654">
        <ele>6.8000001907349</ele>
        <time>2019-10-31T11:14:19.000Z</time>
      </trkpt>
      <trkpt lat="47.25951" lon="-2.32654">
        <ele>6.8000001907349</ele>
        <time>2019-10-31T11:14:20.000Z</time>
      </trkpt>
      <trkpt lat="47.25946" lon="-2.3265">
        <ele>6.4000000953674</ele>
        <time>2019-10-31T11:14:21.000Z</time>
      </trkpt>
      <trkpt lat="47.25937" lon="-2.32638">
        <ele>6.4000000953674</ele>
        <time>2019-10-31T11:14:23.000Z</time>
      </trkpt>
      <trkpt lat="47.25902" lon="-2.32588">
        <ele>6.4000000953674</ele>
        <time>2019-10-31T11:14:31.000Z</time>
      </trkpt>
      <trkpt lat="47.25896" lon="-2.32583">
        <ele>6.4000000953674</ele>
        <time>2019-10-31T11:14:32.000Z</time>
      </trkpt>
      <trkpt lat="47.2588" lon="-2.32571">
        <ele>6.4000000953674</ele>
        <time>2019-10-31T11:14:35.000Z</time>
      </trkpt>
      <trkpt lat="47.25865" lon="-2.32556">
        <ele>6.4000000953674</ele>
        <time>2019-10-31T11:14:38.000Z</time>
      </trkpt>
      <trkpt lat="47.25855" lon="-2.32544">
        <ele>6.4000000953674</ele>
        <time>2019-10-31T11:14:40.000Z</time>
      </trkpt>
      <trkpt lat="47.25839" lon="-2.32515">
        <ele>6.4000000953674</ele>
        <time>2019-10-31T11:14:44.000Z</time>
      </trkpt>
      <trkpt lat="47.25835" lon="-2.32509">
        <ele>6.4000000953674</ele>
        <time>2019-10-31T11:14:45.000Z</time>
      </trkpt>
      <trkpt lat="47.2582" lon="-2.32485">
        <ele>6.4000000953674</ele>
        <time>2019-10-31T11:14:49.000Z</time>
      </trkpt>
      <trkpt lat="47.25816" lon="-2.32482">
        <ele>6.4000000953674</ele>
        <time>2019-10-31T11:14:50.000Z</time>
      </trkpt>
      <trkpt lat="47.25793" lon="-2.32478">
        <ele>6.4000000953674</ele>
        <time>2019-10-31T11:14:53.000Z</time>
      </trkpt>
      <trkpt lat="47.25789" lon="-2.3248">
        <ele>6.4000000953674</ele>
        <time>2019-10-31T11:14:56.000Z</time>
      </trkpt>
      <trkpt lat="47.25783" lon="-2.32472">
        <ele>6.4000000953674</ele>
        <time>2019-10-31T11:14:58.000Z</time>
      </trkpt>
      <trkpt lat="47.25777" lon="-2.32452">
        <ele>6.4000000953674</ele>
        <time>2019-10-31T11:15:01.000Z</time>
      </trkpt>
      <trkpt lat="47.25775" lon="-2.32445">
        <ele>6.4000000953674</ele>
        <time>2019-10-31T11:15:02.000Z</time>
      </trkpt>
      <trkpt lat="47.25765" lon="-2.32427">
        <ele>6.4000000953674</ele>
        <time>2019-10-31T11:15:05.000Z</time>
      </trkpt>
      <trkpt lat="47.25759" lon="-2.32426">
        <ele>6.4000000953674</ele>
        <time>2019-10-31T11:15:06.000Z</time>
      </trkpt>
      <trkpt lat="47.25733" lon="-2.32426">
        <ele>6.4000000953674</ele>
        <time>2019-10-31T11:15:10.000Z</time>
      </trkpt>
      <trkpt lat="47.2568" lon="-2.32422">
        <ele>6.4000000953674</ele>
        <time>2019-10-31T11:15:18.000Z</time>
      </trkpt>
      <trkpt lat="47.25657" lon="-2.32419">
        <ele>6.4000000953674</ele>
        <time>2019-10-31T11:15:22.000Z</time>
      </trkpt>
      <trkpt lat="47.25653" lon="-2.32414">
        <ele>6.4000000953674</ele>
        <time>2019-10-31T11:15:23.000Z</time>
      </trkpt>
      <trkpt lat="47.25652" lon="-2.32396">
        <ele>6.4000000953674</ele>
        <time>2019-10-31T11:15:25.000Z</time>
      </trkpt>
      <trkpt lat="47.25653" lon="-2.32361">
        <ele>6.4000000953674</ele>
        <time>2019-10-31T11:15:29.000Z</time>
      </trkpt>
      <trkpt lat="47.25651" lon="-2.32316">
        <ele>7.5999999046326</ele>
        <time>2019-10-31T11:15:32.000Z</time>
      </trkpt>
      <trkpt lat="47.2565" lon="-2.32307">
        <ele>8</ele>
        <time>2019-10-31T11:15:35.000Z</time>
      </trkpt>
      <trkpt lat="47.2565" lon="-2.32298">
        <ele>8.3999996185303</ele>
        <time>2019-10-31T11:15:36.000Z</time>
      </trkpt>
      <trkpt lat="47.2565" lon="-2.32289">
        <ele>9</ele>
        <time>2019-10-31T11:15:37.000Z</time>
      </trkpt>
      <trkpt lat="47.25649" lon="-2.32281">
        <ele>9.3999996185303</ele>
        <time>2019-10-31T11:15:38.000Z</time>
      </trkpt>
      <trkpt lat="47.25648" lon="-2.32273">
        <ele>10.60000038147</ele>
        <time>2019-10-31T11:15:39.000Z</time>
      </trkpt>
      <trkpt lat="47.25648" lon="-2.32265">
        <ele>11</ele>
        <time>2019-10-31T11:15:40.000Z</time>
      </trkpt>
      <trkpt lat="47.25648" lon="-2.32258">
        <ele>11.39999961853</ele>
        <time>2019-10-31T11:15:41.000Z</time>
      </trkpt>
      <trkpt lat="47.25647" lon="-2.32252">
        <ele>11.800000190735</ele>
        <time>2019-10-31T11:15:42.000Z</time>
      </trkpt>
      <trkpt lat="47.25647" lon="-2.32245">
        <ele>12.199999809265</ele>
        <time>2019-10-31T11:15:43.000Z</time>
      </trkpt>
      <trkpt lat="47.25647" lon="-2.32238">
        <ele>12.60000038147</ele>
        <time>2019-10-31T11:15:44.000Z</time>
      </trkpt>
      <trkpt lat="47.25647" lon="-2.32232">
        <ele>13</ele>
        <time>2019-10-31T11:15:45.000Z</time>
      </trkpt>
      <trkpt lat="47.25644" lon="-2.32201">
        <ele>13</ele>
        <time>2019-10-31T11:15:50.000Z</time>
      </trkpt>
      <trkpt lat="47.25643" lon="-2.32195">
        <ele>13.60000038147</ele>
        <time>2019-10-31T11:15:51.000Z</time>
      </trkpt>
      <trkpt lat="47.25641" lon="-2.32189">
        <ele>14</ele>
        <time>2019-10-31T11:15:52.000Z</time>
      </trkpt>
      <trkpt lat="47.2564" lon="-2.32183">
        <ele>14.39999961853</ele>
        <time>2019-10-31T11:15:53.000Z</time>
      </trkpt>
      <trkpt lat="47.25638" lon="-2.32178">
        <ele>14.800000190735</ele>
        <time>2019-10-31T11:15:54.000Z</time>
      </trkpt>
      <trkpt lat="47.25636" lon="-2.32173">
        <ele>15.199999809265</ele>
        <time>2019-10-31T11:15:55.000Z</time>
      </trkpt>
      <trkpt lat="47.25632" lon="-2.32157">
        <ele>15.199999809265</ele>
        <time>2019-10-31T11:15:58.000Z</time>
      </trkpt>
      <trkpt lat="47.25619" lon="-2.32118">
        <ele>15.199999809265</ele>
        <time>2019-10-31T11:16:04.000Z</time>
      </trkpt>
      <trkpt lat="47.25603" lon="-2.32073">
        <ele>15.199999809265</ele>
        <time>2019-10-31T11:16:11.000Z</time>
      </trkpt>
      <trkpt lat="47.25593" lon="-2.32046">
        <ele>15.199999809265</ele>
        <time>2019-10-31T11:16:16.000Z</time>
      </trkpt>
      <trkpt lat="47.25577" lon="-2.32008">
        <ele>15.199999809265</ele>
        <time>2019-10-31T11:16:24.000Z</time>
      </trkpt>
      <trkpt lat="47.25574" lon="-2.32008">
        <ele>15.199999809265</ele>
        <time>2019-10-31T11:16:25.000Z</time>
      </trkpt>
      <trkpt lat="47.25562" lon="-2.32013">
        <ele>15.199999809265</ele>
        <time>2019-10-31T11:16:28.000Z</time>
      </trkpt>
      <trkpt lat="47.25532" lon="-2.32019">
        <ele>15.199999809265</ele>
        <time>2019-10-31T11:16:34.000Z</time>
      </trkpt>
      <trkpt lat="47.25525" lon="-2.31996">
        <ele>15.199999809265</ele>
        <time>2019-10-31T11:16:40.000Z</time>
      </trkpt>
      <trkpt lat="47.25522" lon="-2.31985">
        <ele>15.60000038147</ele>
        <time>2019-10-31T11:16:42.000Z</time>
      </trkpt>
      <trkpt lat="47.25521" lon="-2.3198">
        <ele>16</ele>
        <time>2019-10-31T11:16:43.000Z</time>
      </trkpt>
      <trkpt lat="47.2552" lon="-2.31976">
        <ele>16.39999961853</ele>
        <time>2019-10-31T11:16:44.000Z</time>
      </trkpt>
      <trkpt lat="47.2552" lon="-2.31972">
        <ele>17</ele>
        <time>2019-10-31T11:16:45.000Z</time>
      </trkpt>
      <trkpt lat="47.25519" lon="-2.31968">
        <ele>17.39999961853</ele>
        <time>2019-10-31T11:16:46.000Z</time>
      </trkpt>
      <trkpt lat="47.25519" lon="-2.31964">
        <ele>17.39999961853</ele>
        <time>2019-10-31T11:16:47.000Z</time>
      </trkpt>
      <trkpt lat="47.2552" lon="-2.31947">
        <ele>17.39999961853</ele>
        <time>2019-10-31T11:16:53.000Z</time>
      </trkpt>
      <trkpt lat="47.2552" lon="-2.31947">
        <ele>17.39999961853</ele>
        <time>2019-10-31T11:16:54.000Z</time>
      </trkpt>
      <trkpt lat="47.2552" lon="-2.31946">
        <ele>17.39999961853</ele>
        <time>2019-10-31T11:25:45.000Z</time>
      </trkpt>
      <trkpt lat="47.2552" lon="-2.31952">
        <ele>17.39999961853</ele>
        <time>2019-10-31T11:25:47.000Z</time>
      </trkpt>
      <trkpt lat="47.25519" lon="-2.31972">
        <ele>17.39999961853</ele>
        <time>2019-10-31T11:25:52.000Z</time>
      </trkpt>
      <trkpt lat="47.25529" lon="-2.3201">
        <ele>17.39999961853</ele>
        <time>2019-10-31T11:25:58.000Z</time>
      </trkpt>
      <trkpt lat="47.25536" lon="-2.32027">
        <ele>17.39999961853</ele>
        <time>2019-10-31T11:26:00.000Z</time>
      </trkpt>
      <trkpt lat="47.25536" lon="-2.32027">
        <ele>17.39999961853</ele>
        <time>2019-10-31T11:26:03.000Z</time>
      </trkpt>
      <trkpt lat="47.25539" lon="-2.32028">
        <ele>17.39999961853</ele>
        <time>2019-10-31T11:26:04.000Z</time>
      </trkpt>
      <trkpt lat="47.25545" lon="-2.32025">
        <ele>17.39999961853</ele>
        <time>2019-10-31T11:26:06.000Z</time>
      </trkpt>
      <trkpt lat="47.25557" lon="-2.32015">
        <ele>17.39999961853</ele>
        <time>2019-10-31T11:26:09.000Z</time>
      </trkpt>
      <trkpt lat="47.25572" lon="-2.32003">
        <ele>17.39999961853</ele>
        <time>2019-10-31T11:26:13.000Z</time>
      </trkpt>
      <trkpt lat="47.25573" lon="-2.3199">
        <ele>17.39999961853</ele>
        <time>2019-10-31T11:26:15.000Z</time>
      </trkpt>
      <trkpt lat="47.25569" lon="-2.3196">
        <ele>17.39999961853</ele>
        <time>2019-10-31T11:26:18.000Z</time>
      </trkpt>
      <trkpt lat="47.25566" lon="-2.31944">
        <ele>17.39999961853</ele>
        <time>2019-10-31T11:26:21.000Z</time>
      </trkpt>
      <trkpt lat="47.25561" lon="-2.31898">
        <ele>17.39999961853</ele>
        <time>2019-10-31T11:26:27.000Z</time>
      </trkpt>
      <trkpt lat="47.25561" lon="-2.31855">
        <ele>18.200000762939</ele>
        <time>2019-10-31T11:26:31.000Z</time>
      </trkpt>
      <trkpt lat="47.25561" lon="-2.31855">
        <ele>18.200000762939</ele>
        <time>2019-10-31T11:26:33.000Z</time>
      </trkpt>
      <trkpt lat="47.25561" lon="-2.31848">
        <ele>18.60000038147</ele>
        <time>2019-10-31T11:26:34.000Z</time>
      </trkpt>
      <trkpt lat="47.25561" lon="-2.3184">
        <ele>19</ele>
        <time>2019-10-31T11:26:35.000Z</time>
      </trkpt>
      <trkpt lat="47.25561" lon="-2.31831">
        <ele>19.39999961853</ele>
        <time>2019-10-31T11:26:36.000Z</time>
      </trkpt>
      <trkpt lat="47.25561" lon="-2.31816">
        <ele>19.39999961853</ele>
        <time>2019-10-31T11:26:38.000Z</time>
      </trkpt>
      <trkpt lat="47.25562" lon="-2.318">
        <ele>19.39999961853</ele>
        <time>2019-10-31T11:26:40.000Z</time>
      </trkpt>
      <trkpt lat="47.25572" lon="-2.31771">
        <ele>19.39999961853</ele>
        <time>2019-10-31T11:26:44.000Z</time>
      </trkpt>
      <trkpt lat="47.25584" lon="-2.31747">
        <ele>19.39999961853</ele>
        <time>2019-10-31T11:26:47.000Z</time>
      </trkpt>
      <trkpt lat="47.25587" lon="-2.31738">
        <ele>19.39999961853</ele>
        <time>2019-10-31T11:26:48.000Z</time>
      </trkpt>
      <trkpt lat="47.25603" lon="-2.31712">
        <ele>19.39999961853</ele>
        <time>2019-10-31T11:26:52.000Z</time>
      </trkpt>
      <trkpt lat="47.25622" lon="-2.31705">
        <ele>19.39999961853</ele>
        <time>2019-10-31T11:26:55.000Z</time>
      </trkpt>
      <trkpt lat="47.25629" lon="-2.31703">
        <ele>19.39999961853</ele>
        <time>2019-10-31T11:26:56.000Z</time>
      </trkpt>
      <trkpt lat="47.25649" lon="-2.3169">
        <ele>19</ele>
        <time>2019-10-31T11:26:57.000Z</time>
      </trkpt>
      <trkpt lat="47.25654" lon="-2.31682">
        <ele>18.60000038147</ele>
        <time>2019-10-31T11:27:00.000Z</time>
      </trkpt>
      <trkpt lat="47.25658" lon="-2.31673">
        <ele>18.200000762939</ele>
        <time>2019-10-31T11:27:01.000Z</time>
      </trkpt>
      <trkpt lat="47.25661" lon="-2.31666">
        <ele>17.60000038147</ele>
        <time>2019-10-31T11:27:02.000Z</time>
      </trkpt>
      <trkpt lat="47.25665" lon="-2.31663">
        <ele>17.200000762939</ele>
        <time>2019-10-31T11:27:03.000Z</time>
      </trkpt>
      <trkpt lat="47.2568" lon="-2.3167">
        <ele>16.799999237061</ele>
        <time>2019-10-31T11:27:06.000Z</time>
      </trkpt>
      <trkpt lat="47.25697" lon="-2.31677">
        <ele>15.60000038147</ele>
        <time>2019-10-31T11:27:07.000Z</time>
      </trkpt>
      <trkpt lat="47.25697" lon="-2.31677">
        <ele>15.60000038147</ele>
        <time>2019-10-31T11:27:09.000Z</time>
      </trkpt>
      <trkpt lat="47.25703" lon="-2.3168">
        <ele>15.199999809265</ele>
        <time>2019-10-31T11:27:10.000Z</time>
      </trkpt>
      <trkpt lat="47.25709" lon="-2.31684">
        <ele>15.199999809265</ele>
        <time>2019-10-31T11:27:11.000Z</time>
      </trkpt>
      <trkpt lat="47.25715" lon="-2.31688">
        <ele>15.199999809265</ele>
        <time>2019-10-31T11:27:12.000Z</time>
      </trkpt>
      <trkpt lat="47.25727" lon="-2.31695">
        <ele>15.199999809265</ele>
        <time>2019-10-31T11:27:14.000Z</time>
      </trkpt>
      <trkpt lat="47.25734" lon="-2.31693">
        <ele>15.199999809265</ele>
        <time>2019-10-31T11:27:15.000Z</time>
      </trkpt>
      <trkpt lat="47.2574" lon="-2.31689">
        <ele>14.800000190735</ele>
        <time>2019-10-31T11:27:16.000Z</time>
      </trkpt>
      <trkpt lat="47.25746" lon="-2.31684">
        <ele>14.199999809265</ele>
        <time>2019-10-31T11:27:17.000Z</time>
      </trkpt>
      <trkpt lat="47.25751" lon="-2.3168">
        <ele>13.800000190735</ele>
        <time>2019-10-31T11:27:18.000Z</time>
      </trkpt>
      <trkpt lat="47.25756" lon="-2.31676">
        <ele>13.39999961853</ele>
        <time>2019-10-31T11:27:19.000Z</time>
      </trkpt>
      <trkpt lat="47.25761" lon="-2.31672">
        <ele>12.800000190735</ele>
        <time>2019-10-31T11:27:20.000Z</time>
      </trkpt>
      <trkpt lat="47.25794" lon="-2.31652">
        <ele>12.800000190735</ele>
        <time>2019-10-31T11:27:26.000Z</time>
      </trkpt>
      <trkpt lat="47.25823" lon="-2.31632">
        <ele>12.800000190735</ele>
        <time>2019-10-31T11:27:32.000Z</time>
      </trkpt>
      <trkpt lat="47.2584" lon="-2.31618">
        <ele>12.800000190735</ele>
        <time>2019-10-31T11:27:36.000Z</time>
      </trkpt>
      <trkpt lat="47.25848" lon="-2.3161">
        <ele>12.800000190735</ele>
        <time>2019-10-31T11:27:38.000Z</time>
      </trkpt>
      <trkpt lat="47.2588" lon="-2.31578">
        <ele>12.800000190735</ele>
        <time>2019-10-31T11:27:45.000Z</time>
      </trkpt>
      <trkpt lat="47.25885" lon="-2.31572">
        <ele>12.800000190735</ele>
        <time>2019-10-31T11:27:46.000Z</time>
      </trkpt>
      <trkpt lat="47.25896" lon="-2.31548">
        <ele>12.800000190735</ele>
        <time>2019-10-31T11:27:49.000Z</time>
      </trkpt>
      <trkpt lat="47.25899" lon="-2.3154">
        <ele>12.800000190735</ele>
        <time>2019-10-31T11:27:50.000Z</time>
      </trkpt>
      <trkpt lat="47.25904" lon="-2.31526">
        <ele>12.800000190735</ele>
        <time>2019-10-31T11:27:52.000Z</time>
      </trkpt>
      <trkpt lat="47.25907" lon="-2.31521">
        <ele>12.800000190735</ele>
        <time>2019-10-31T11:27:53.000Z</time>
      </trkpt>
      <trkpt lat="47.25912" lon="-2.31515">
        <ele>12.39999961853</ele>
        <time>2019-10-31T11:27:55.000Z</time>
      </trkpt>
      <trkpt lat="47.25914" lon="-2.31512">
        <ele>12</ele>
        <time>2019-10-31T11:27:56.000Z</time>
      </trkpt>
      <trkpt lat="47.25914" lon="-2.3151">
        <ele>11.60000038147</ele>
        <time>2019-10-31T11:27:57.000Z</time>
      </trkpt>
      <trkpt lat="47.25914" lon="-2.31508">
        <ele>11</ele>
        <time>2019-10-31T11:27:58.000Z</time>
      </trkpt>
      <trkpt lat="47.25914" lon="-2.31507">
        <ele>10.60000038147</ele>
        <time>2019-10-31T11:27:59.000Z</time>
      </trkpt>
      <trkpt lat="47.25916" lon="-2.31499">
        <ele>10.60000038147</ele>
        <time>2019-10-31T11:28:01.000Z</time>
      </trkpt>
      <trkpt lat="47.25925" lon="-2.31475">
        <ele>10.60000038147</ele>
        <time>2019-10-31T11:28:06.000Z</time>
      </trkpt>
      <trkpt lat="47.25938" lon="-2.31458">
        <ele>10.60000038147</ele>
        <time>2019-10-31T11:28:07.000Z</time>
      </trkpt>
      <trkpt lat="47.25938" lon="-2.31458">
        <ele>10.60000038147</ele>
        <time>2019-10-31T11:28:10.000Z</time>
      </trkpt>
      <trkpt lat="47.25943" lon="-2.31459">
        <ele>10.60000038147</ele>
        <time>2019-10-31T11:28:11.000Z</time>
      </trkpt>
      <trkpt lat="47.25958" lon="-2.31475">
        <ele>10.60000038147</ele>
        <time>2019-10-31T11:28:16.000Z</time>
      </trkpt>
      <trkpt lat="47.2597" lon="-2.31488">
        <ele>10.60000038147</ele>
        <time>2019-10-31T11:28:19.000Z</time>
      </trkpt>
      <trkpt lat="47.25975" lon="-2.315">
        <ele>10.60000038147</ele>
        <time>2019-10-31T11:28:21.000Z</time>
      </trkpt>
      <trkpt lat="47.25993" lon="-2.31536">
        <ele>10.60000038147</ele>
        <time>2019-10-31T11:28:27.000Z</time>
      </trkpt>
      <trkpt lat="47.26" lon="-2.31546">
        <ele>10.60000038147</ele>
        <time>2019-10-31T11:28:29.000Z</time>
      </trkpt>
      <trkpt lat="47.26011" lon="-2.31559">
        <ele>10.60000038147</ele>
        <time>2019-10-31T11:28:32.000Z</time>
      </trkpt>
      <trkpt lat="47.26014" lon="-2.31561">
        <ele>10.60000038147</ele>
        <time>2019-10-31T11:28:33.000Z</time>
      </trkpt>
      <trkpt lat="47.26024" lon="-2.31556">
        <ele>10.60000038147</ele>
        <time>2019-10-31T11:28:36.000Z</time>
      </trkpt>
      <trkpt lat="47.2603" lon="-2.31536">
        <ele>10.60000038147</ele>
        <time>2019-10-31T11:28:40.000Z</time>
      </trkpt>
      <trkpt lat="47.26032" lon="-2.31531">
        <ele>10.60000038147</ele>
        <time>2019-10-31T11:28:41.000Z</time>
      </trkpt>
      <trkpt lat="47.26039" lon="-2.31514">
        <ele>10.60000038147</ele>
        <time>2019-10-31T11:28:45.000Z</time>
      </trkpt>
      <trkpt lat="47.26042" lon="-2.31514">
        <ele>10.60000038147</ele>
        <time>2019-10-31T11:28:46.000Z</time>
      </trkpt>
      <trkpt lat="47.26052" lon="-2.31527">
        <ele>10.60000038147</ele>
        <time>2019-10-31T11:28:49.000Z</time>
      </trkpt>
      <trkpt lat="47.26055" lon="-2.31532">
        <ele>9.8000001907349</ele>
        <time>2019-10-31T11:28:50.000Z</time>
      </trkpt>
      <trkpt lat="47.26058" lon="-2.31537">
        <ele>9.1999998092651</ele>
        <time>2019-10-31T11:28:51.000Z</time>
      </trkpt>
      <trkpt lat="47.26061" lon="-2.31542">
        <ele>8.8000001907349</ele>
        <time>2019-10-31T11:28:52.000Z</time>
      </trkpt>
      <trkpt lat="47.26063" lon="-2.31547">
        <ele>8.3999996185303</ele>
        <time>2019-10-31T11:28:53.000Z</time>
      </trkpt>
      <trkpt lat="47.26068" lon="-2.31559">
        <ele>8.3999996185303</ele>
        <time>2019-10-31T11:28:55.000Z</time>
      </trkpt>
      <trkpt lat="47.26077" lon="-2.31577">
        <ele>8.3999996185303</ele>
        <time>2019-10-31T11:28:59.000Z</time>
      </trkpt>
      <trkpt lat="47.2608" lon="-2.31578">
        <ele>8.3999996185303</ele>
        <time>2019-10-31T11:29:00.000Z</time>
      </trkpt>
      <trkpt lat="47.26091" lon="-2.31588">
        <ele>8.3999996185303</ele>
        <time>2019-10-31T11:29:04.000Z</time>
      </trkpt>
      <trkpt lat="47.26097" lon="-2.31598">
        <ele>8.3999996185303</ele>
        <time>2019-10-31T11:29:06.000Z</time>
      </trkpt>
      <trkpt lat="47.26107" lon="-2.31613">
        <ele>8.3999996185303</ele>
        <time>2019-10-31T11:29:09.000Z</time>
      </trkpt>
      <trkpt lat="47.26128" lon="-2.31614">
        <ele>8.3999996185303</ele>
        <time>2019-10-31T11:29:13.000Z</time>
      </trkpt>
      <trkpt lat="47.26163" lon="-2.31603">
        <ele>8.3999996185303</ele>
        <time>2019-10-31T11:29:20.000Z</time>
      </trkpt>
      <trkpt lat="47.26206" lon="-2.31591">
        <ele>8.3999996185303</ele>
        <time>2019-10-31T11:29:29.000Z</time>
      </trkpt>
      <trkpt lat="47.2621" lon="-2.31591">
        <ele>8.3999996185303</ele>
        <time>2019-10-31T11:29:30.000Z</time>
      </trkpt>
      <trkpt lat="47.26224" lon="-2.31596">
        <ele>8.3999996185303</ele>
        <time>2019-10-31T11:29:33.000Z</time>
      </trkpt>
      <trkpt lat="47.26234" lon="-2.31601">
        <ele>8.3999996185303</ele>
        <time>2019-10-31T11:29:35.000Z</time>
      </trkpt>
      <trkpt lat="47.26246" lon="-2.31612">
        <ele>8.3999996185303</ele>
        <time>2019-10-31T11:29:38.000Z</time>
      </trkpt>
      <trkpt lat="47.26257" lon="-2.31635">
        <ele>8.3999996185303</ele>
        <time>2019-10-31T11:29:42.000Z</time>
      </trkpt>
      <trkpt lat="47.26278" lon="-2.3167">
        <ele>8.3999996185303</ele>
        <time>2019-10-31T11:29:49.000Z</time>
      </trkpt>
      <trkpt lat="47.26285" lon="-2.31685">
        <ele>8.3999996185303</ele>
        <time>2019-10-31T11:29:50.000Z</time>
      </trkpt>
      <trkpt lat="47.26291" lon="-2.31696">
        <ele>8.3999996185303</ele>
        <time>2019-10-31T11:29:54.000Z</time>
      </trkpt>
      <trkpt lat="47.26303" lon="-2.31706">
        <ele>8.3999996185303</ele>
        <time>2019-10-31T11:29:57.000Z</time>
      </trkpt>
      <trkpt lat="47.26316" lon="-2.31703">
        <ele>8.3999996185303</ele>
        <time>2019-10-31T11:30:00.000Z</time>
      </trkpt>
      <trkpt lat="47.2632" lon="-2.31702">
        <ele>8.3999996185303</ele>
        <time>2019-10-31T11:30:01.000Z</time>
      </trkpt>
      <trkpt lat="47.2633" lon="-2.31694">
        <ele>8.3999996185303</ele>
        <time>2019-10-31T11:30:04.000Z</time>
      </trkpt>
      <trkpt lat="47.26332" lon="-2.31689">
        <ele>8.3999996185303</ele>
        <time>2019-10-31T11:30:05.000Z</time>
      </trkpt>
      <trkpt lat="47.26346" lon="-2.31679">
        <ele>8.3999996185303</ele>
        <time>2019-10-31T11:30:09.000Z</time>
      </trkpt>
      <trkpt lat="47.26364" lon="-2.31671">
        <ele>8.3999996185303</ele>
        <time>2019-10-31T11:30:15.000Z</time>
      </trkpt>
      <trkpt lat="47.26378" lon="-2.31665">
        <ele>8.3999996185303</ele>
        <time>2019-10-31T11:30:19.000Z</time>
      </trkpt>
      <trkpt lat="47.2639" lon="-2.31658">
        <ele>8.8000001907349</ele>
        <time>2019-10-31T11:30:23.000Z</time>
      </trkpt>
      <trkpt lat="47.26392" lon="-2.31657">
        <ele>9.1999998092651</ele>
        <time>2019-10-31T11:30:24.000Z</time>
      </trkpt>
      <trkpt lat="47.26395" lon="-2.31655">
        <ele>9.6000003814697</ele>
        <time>2019-10-31T11:30:25.000Z</time>
      </trkpt>
      <trkpt lat="47.26398" lon="-2.31654">
        <ele>10</ele>
        <time>2019-10-31T11:30:26.000Z</time>
      </trkpt>
      <trkpt lat="47.26401" lon="-2.31651">
        <ele>10.39999961853</ele>
        <time>2019-10-31T11:30:27.000Z</time>
      </trkpt>
      <trkpt lat="47.26405" lon="-2.31644">
        <ele>10.39999961853</ele>
        <time>2019-10-31T11:30:29.000Z</time>
      </trkpt>
      <trkpt lat="47.26405" lon="-2.31626">
        <ele>10.39999961853</ele>
        <time>2019-10-31T11:30:34.000Z</time>
      </trkpt>
      <trkpt lat="47.26405" lon="-2.31621">
        <ele>10.39999961853</ele>
        <time>2019-10-31T11:30:35.000Z</time>
      </trkpt>
      <trkpt lat="47.26407" lon="-2.31593">
        <ele>10.39999961853</ele>
        <time>2019-10-31T11:30:41.000Z</time>
      </trkpt>
      <trkpt lat="47.26407" lon="-2.31593">
        <ele>10.39999961853</ele>
        <time>2019-10-31T11:30:43.000Z</time>
      </trkpt>
      <trkpt lat="47.26406" lon="-2.31588">
        <ele>10.39999961853</ele>
        <time>2019-10-31T11:30:45.000Z</time>
      </trkpt>
      <trkpt lat="47.26405" lon="-2.31579">
        <ele>10.39999961853</ele>
        <time>2019-10-31T11:30:47.000Z</time>
      </trkpt>
      <trkpt lat="47.26407" lon="-2.31558">
        <ele>10.39999961853</ele>
        <time>2019-10-31T11:30:51.000Z</time>
      </trkpt>
      <trkpt lat="47.26408" lon="-2.31555">
        <ele>10.39999961853</ele>
        <time>2019-10-31T11:30:52.000Z</time>
      </trkpt>
      <trkpt lat="47.26415" lon="-2.31552">
        <ele>10.39999961853</ele>
        <time>2019-10-31T11:30:55.000Z</time>
      </trkpt>
      <trkpt lat="47.26418" lon="-2.31553">
        <ele>10.39999961853</ele>
        <time>2019-10-31T11:30:58.000Z</time>
      </trkpt>
    </trkseg>
  </trk>
</gpx>